<?xml version='1.0' encoding='UTF-8'?><gpx version="1.1" creator="JPX - https://github.com/jenetics/jpx" xmlns="http://www.topografix.com/GPX/1/1"><trk><trkseg><trkpt lat="45.8428793" lon="8.889478"><ele>330.0</ele><time>2026-04-23T10:13:31.912Z</time></trkpt><trkpt lat="45.8428201" lon="8.8895176"><ele>330.0</ele><time>2026-04-23T10:13:39.914Z</time></trkpt><trkpt lat="45.8428974" lon="8.8895297"><ele>330.0</ele><time>2026-04-23T10:14:15.925Z</time></trkpt><trkpt lat="45.8430051" lon="8.8896158"><ele>330.0</ele><time>2026-04-23T10:14:17.905Z</time></trkpt><trkpt lat="45.8430684" lon="8.8896716"><ele>330.0</ele><time>2026-04-23T10:14:18.903Z</time></trkpt><trkpt lat="45.843136" lon="8.8897557"><ele>330.0</ele><time>2026-04-23T10:14:19.898Z</time></trkpt><trkpt lat="45.843218" lon="8.8898474"><ele>330.0</ele><time>2026-04-23T10:14:20.91Z</time></trkpt><trkpt lat="45.8433037" lon="8.8899362"><ele>330.0</ele><time>2026-04-23T10:14:21.9Z</time></trkpt><trkpt lat="45.8434057" lon="8.8900287"><ele>330.0</ele><time>2026-04-23T10:14:22.9Z</time></trkpt><trkpt lat="45.8435134" lon="8.8901206"><ele>330.0</ele><time>2026-04-23T10:14:23.906Z</time></trkpt><trkpt lat="45.8436218" lon="8.8901876"><ele>329.8</ele><time>2026-04-23T10:14:24.912Z</time></trkpt><trkpt lat="45.8437232" lon="8.8902519"><ele>329.6</ele><time>2026-04-23T10:14:25.908Z</time></trkpt><trkpt lat="45.843831" lon="8.8903029"><ele>329.4</ele><time>2026-04-23T10:14:26.906Z</time></trkpt><trkpt lat="45.8439344" lon="8.8903453"><ele>329.2</ele><time>2026-04-23T10:14:27.907Z</time></trkpt><trkpt lat="45.8440285" lon="8.8903919"><ele>329.0</ele><time>2026-04-23T10:14:28.899Z</time></trkpt><trkpt lat="45.844131" lon="8.8904284"><ele>329.0</ele><time>2026-04-23T10:14:29.905Z</time></trkpt><trkpt lat="45.8442423" lon="8.8904522"><ele>329.0</ele><time>2026-04-23T10:14:30.9Z</time></trkpt><trkpt lat="45.8443621" lon="8.8904656"><ele>329.0</ele><time>2026-04-23T10:14:31.904Z</time></trkpt><trkpt lat="45.8444927" lon="8.8904682"><ele>329.0</ele><time>2026-04-23T10:14:32.9Z</time></trkpt><trkpt lat="45.8446266" lon="8.8904722"><ele>329.5</ele><time>2026-04-23T10:14:33.902Z</time></trkpt><trkpt lat="45.8447521" lon="8.8904642"><ele>330.0</ele><time>2026-04-23T10:14:34.908Z</time></trkpt><trkpt lat="45.8448749" lon="8.8904449"><ele>330.5</ele><time>2026-04-23T10:14:35.909Z</time></trkpt><trkpt lat="45.8449863" lon="8.8904165"><ele>331.0</ele><time>2026-04-23T10:14:36.916Z</time></trkpt><trkpt lat="45.8451052" lon="8.8904034"><ele>331.25</ele><time>2026-04-23T10:14:37.917Z</time></trkpt><trkpt lat="45.8452363" lon="8.8904014"><ele>331.5</ele><time>2026-04-23T10:14:38.913Z</time></trkpt><trkpt lat="45.8453632" lon="8.8903989"><ele>331.75</ele><time>2026-04-23T10:14:39.91Z</time></trkpt><trkpt lat="45.8454872" lon="8.8904204"><ele>332.0</ele><time>2026-04-23T10:14:40.91Z</time></trkpt><trkpt lat="45.8456184" lon="8.8904539"><ele>332.0</ele><time>2026-04-23T10:14:41.915Z</time></trkpt><trkpt lat="45.8457577" lon="8.8905006"><ele>332.0</ele><time>2026-04-23T10:14:42.915Z</time></trkpt><trkpt lat="45.8458938" lon="8.8905644"><ele>332.0</ele><time>2026-04-23T10:14:43.916Z</time></trkpt><trkpt lat="45.8460327" lon="8.8906106"><ele>332.0</ele><time>2026-04-23T10:14:44.913Z</time></trkpt><trkpt lat="45.8461686" lon="8.8906344"><ele>332.0</ele><time>2026-04-23T10:14:45.915Z</time></trkpt><trkpt lat="45.846294" lon="8.8906578"><ele>332.0</ele><time>2026-04-23T10:14:46.908Z</time></trkpt><trkpt lat="45.8464025" lon="8.8906802"><ele>332.0</ele><time>2026-04-23T10:14:47.906Z</time></trkpt><trkpt lat="45.8464963" lon="8.8907016"><ele>332.0</ele><time>2026-04-23T10:14:48.9Z</time></trkpt><trkpt lat="45.8465833" lon="8.8907125"><ele>332.0</ele><time>2026-04-23T10:14:49.9Z</time></trkpt><trkpt lat="45.8466784" lon="8.890743"><ele>332.0</ele><time>2026-04-23T10:14:50.902Z</time></trkpt><trkpt lat="45.8467581" lon="8.890802"><ele>332.0</ele><time>2026-04-23T10:14:51.923Z</time></trkpt><trkpt lat="45.846833" lon="8.890872"><ele>332.0</ele><time>2026-04-23T10:14:52.905Z</time></trkpt><trkpt lat="45.8469171" lon="8.8909322"><ele>332.0</ele><time>2026-04-23T10:14:53.907Z</time></trkpt><trkpt lat="45.8469817" lon="8.8910013"><ele>332.0</ele><time>2026-04-23T10:14:54.915Z</time></trkpt><trkpt lat="45.8470421" lon="8.8910647"><ele>332.0</ele><time>2026-04-23T10:14:55.913Z</time></trkpt><trkpt lat="45.8470976" lon="8.8911223"><ele>332.0</ele><time>2026-04-23T10:14:56.914Z</time></trkpt><trkpt lat="45.8471548" lon="8.8912206"><ele>332.0</ele><time>2026-04-23T10:14:58.912Z</time></trkpt><trkpt lat="45.8470926" lon="8.8912842"><ele>332.0</ele><time>2026-04-23T10:15:00.918Z</time></trkpt><trkpt lat="45.8470237" lon="8.8913124"><ele>332.0</ele><time>2026-04-23T10:15:01.921Z</time></trkpt><trkpt lat="45.8469376" lon="8.8913551"><ele>332.0</ele><time>2026-04-23T10:15:02.925Z</time></trkpt><trkpt lat="45.8468379" lon="8.8914193"><ele>332.0</ele><time>2026-04-23T10:15:03.921Z</time></trkpt><trkpt lat="45.8467065" lon="8.891501"><ele>332.0</ele><time>2026-04-23T10:15:04.922Z</time></trkpt><trkpt lat="45.8465682" lon="8.891591"><ele>332.0</ele><time>2026-04-23T10:15:05.918Z</time></trkpt><trkpt lat="45.8464469" lon="8.8916795"><ele>332.0</ele><time>2026-04-23T10:15:06.921Z</time></trkpt><trkpt lat="45.8463212" lon="8.8917649"><ele>332.0</ele><time>2026-04-23T10:15:07.911Z</time></trkpt><trkpt lat="45.8461895" lon="8.8918613"><ele>332.0</ele><time>2026-04-23T10:15:08.916Z</time></trkpt><trkpt lat="45.8460492" lon="8.8919777"><ele>332.0</ele><time>2026-04-23T10:15:09.915Z</time></trkpt><trkpt lat="45.8459148" lon="8.892078"><ele>332.0</ele><time>2026-04-23T10:15:10.915Z</time></trkpt><trkpt lat="45.8457899" lon="8.8921858"><ele>331.5</ele><time>2026-04-23T10:15:11.908Z</time></trkpt><trkpt lat="45.8456714" lon="8.8922901"><ele>331.0</ele><time>2026-04-23T10:15:12.902Z</time></trkpt><trkpt lat="45.8455706" lon="8.8923893"><ele>330.5</ele><time>2026-04-23T10:15:13.906Z</time></trkpt><trkpt lat="45.8454634" lon="8.892468"><ele>330.0</ele><time>2026-04-23T10:15:14.91Z</time></trkpt><trkpt lat="45.8453638" lon="8.8925511"><ele>330.4</ele><time>2026-04-23T10:15:15.909Z</time></trkpt><trkpt lat="45.8452658" lon="8.8926187"><ele>330.8</ele><time>2026-04-23T10:15:16.907Z</time></trkpt><trkpt lat="45.8451827" lon="8.8926903"><ele>331.20000000000005</ele><time>2026-04-23T10:15:17.903Z</time></trkpt><trkpt lat="45.8450878" lon="8.8927613"><ele>331.6</ele><time>2026-04-23T10:15:18.922Z</time></trkpt><trkpt lat="45.844987" lon="8.8928297"><ele>332.0</ele><time>2026-04-23T10:15:19.92Z</time></trkpt><trkpt lat="45.8448865" lon="8.8929044"><ele>330.75</ele><time>2026-04-23T10:15:20.918Z</time></trkpt><trkpt lat="45.8447864" lon="8.8929755"><ele>329.5</ele><time>2026-04-23T10:15:21.924Z</time></trkpt><trkpt lat="45.8446833" lon="8.8930528"><ele>328.25</ele><time>2026-04-23T10:15:22.938Z</time></trkpt><trkpt lat="45.8445774" lon="8.8931439"><ele>327.0</ele><time>2026-04-23T10:15:23.927Z</time></trkpt><trkpt lat="45.8444668" lon="8.8932334"><ele>327.0</ele><time>2026-04-23T10:15:24.933Z</time></trkpt><trkpt lat="45.8443494" lon="8.8933196"><ele>327.0</ele><time>2026-04-23T10:15:25.928Z</time></trkpt><trkpt lat="45.8442306" lon="8.8934154"><ele>327.0</ele><time>2026-04-23T10:15:26.924Z</time></trkpt><trkpt lat="45.8441135" lon="8.8935204"><ele>327.0</ele><time>2026-04-23T10:15:27.922Z</time></trkpt><trkpt lat="45.8439902" lon="8.8936369"><ele>326.0</ele><time>2026-04-23T10:15:28.925Z</time></trkpt><trkpt lat="45.8438646" lon="8.893768"><ele>325.0</ele><time>2026-04-23T10:15:29.921Z</time></trkpt><trkpt lat="45.8437357" lon="8.8939076"><ele>324.0</ele><time>2026-04-23T10:15:30.92Z</time></trkpt><trkpt lat="45.8436017" lon="8.8940778"><ele>324.0</ele><time>2026-04-23T10:15:31.917Z</time></trkpt><trkpt lat="45.8434911" lon="8.8942369"><ele>324.0</ele><time>2026-04-23T10:15:32.923Z</time></trkpt><trkpt lat="45.8433932" lon="8.8943831"><ele>324.0</ele><time>2026-04-23T10:15:33.92Z</time></trkpt><trkpt lat="45.8433109" lon="8.8945053"><ele>324.0</ele><time>2026-04-23T10:15:34.918Z</time></trkpt><trkpt lat="45.8432196" lon="8.8946174"><ele>325.0</ele><time>2026-04-23T10:15:35.915Z</time></trkpt><trkpt lat="45.8431326" lon="8.8947178"><ele>326.0</ele><time>2026-04-23T10:15:36.919Z</time></trkpt><trkpt lat="45.8430507" lon="8.8947807"><ele>327.0</ele><time>2026-04-23T10:15:37.914Z</time></trkpt><trkpt lat="45.8429748" lon="8.8948038"><ele>328.0</ele><time>2026-04-23T10:15:38.913Z</time></trkpt><trkpt lat="45.8428856" lon="8.8947817"><ele>329.0</ele><time>2026-04-23T10:15:39.927Z</time></trkpt><trkpt lat="45.842812" lon="8.8946802"><ele>329.0</ele><time>2026-04-23T10:15:40.926Z</time></trkpt><trkpt lat="45.8427348" lon="8.8945533"><ele>329.0</ele><time>2026-04-23T10:15:41.917Z</time></trkpt><trkpt lat="45.8426586" lon="8.8944147"><ele>329.0</ele><time>2026-04-23T10:15:42.915Z</time></trkpt><trkpt lat="45.8425839" lon="8.8942602"><ele>329.0</ele><time>2026-04-23T10:15:43.922Z</time></trkpt><trkpt lat="45.8425058" lon="8.8940917"><ele>329.25</ele><time>2026-04-23T10:15:44.916Z</time></trkpt><trkpt lat="45.8424223" lon="8.8939419"><ele>329.5</ele><time>2026-04-23T10:15:45.926Z</time></trkpt><trkpt lat="45.8423335" lon="8.8938113"><ele>329.75</ele><time>2026-04-23T10:15:46.919Z</time></trkpt><trkpt lat="45.8422411" lon="8.8937007"><ele>330.0</ele><time>2026-04-23T10:15:47.928Z</time></trkpt><trkpt lat="45.8421498" lon="8.8936188"><ele>330.0</ele><time>2026-04-23T10:15:48.932Z</time></trkpt><trkpt lat="45.8420564" lon="8.8935414"><ele>330.0</ele><time>2026-04-23T10:15:49.929Z</time></trkpt><trkpt lat="45.8419591" lon="8.8934637"><ele>330.0</ele><time>2026-04-23T10:15:50.932Z</time></trkpt><trkpt lat="45.8418553" lon="8.8933869"><ele>330.0</ele><time>2026-04-23T10:15:51.934Z</time></trkpt><trkpt lat="45.8417532" lon="8.8932988"><ele>330.0</ele><time>2026-04-23T10:15:52.932Z</time></trkpt><trkpt lat="45.8416551" lon="8.8931981"><ele>330.0</ele><time>2026-04-23T10:15:53.96Z</time></trkpt><trkpt lat="45.841559" lon="8.8930956"><ele>330.0</ele><time>2026-04-23T10:15:54.927Z</time></trkpt><trkpt lat="45.8414781" lon="8.8929799"><ele>330.0</ele><time>2026-04-23T10:15:55.932Z</time></trkpt><trkpt lat="45.8414017" lon="8.8928582"><ele>330.0</ele><time>2026-04-23T10:15:56.929Z</time></trkpt><trkpt lat="45.8413239" lon="8.8927361"><ele>330.0</ele><time>2026-04-23T10:15:57.928Z</time></trkpt><trkpt lat="45.8412391" lon="8.8926303"><ele>330.0</ele><time>2026-04-23T10:15:58.928Z</time></trkpt><trkpt lat="45.8411486" lon="8.8925301"><ele>330.0</ele><time>2026-04-23T10:15:59.925Z</time></trkpt><trkpt lat="45.841056" lon="8.8924382"><ele>329.8</ele><time>2026-04-23T10:16:00.924Z</time></trkpt><trkpt lat="45.8409667" lon="8.8923409"><ele>329.6</ele><time>2026-04-23T10:16:01.926Z</time></trkpt><trkpt lat="45.8408882" lon="8.8922594"><ele>329.4</ele><time>2026-04-23T10:16:02.927Z</time></trkpt><trkpt lat="45.8407995" lon="8.892169"><ele>329.2</ele><time>2026-04-23T10:16:03.935Z</time></trkpt><trkpt lat="45.8407008" lon="8.8920717"><ele>329.0</ele><time>2026-04-23T10:16:04.934Z</time></trkpt><trkpt lat="45.8405967" lon="8.8919766"><ele>329.0</ele><time>2026-04-23T10:16:05.938Z</time></trkpt><trkpt lat="45.8404797" lon="8.8918808"><ele>329.0</ele><time>2026-04-23T10:16:06.942Z</time></trkpt><trkpt lat="45.8403646" lon="8.8917944"><ele>329.0</ele><time>2026-04-23T10:16:07.943Z</time></trkpt><trkpt lat="45.8402485" lon="8.8917135"><ele>329.0</ele><time>2026-04-23T10:16:08.934Z</time></trkpt><trkpt lat="45.8401273" lon="8.8916351"><ele>330.75</ele><time>2026-04-23T10:16:09.938Z</time></trkpt><trkpt lat="45.8400041" lon="8.891572"><ele>332.5</ele><time>2026-04-23T10:16:10.929Z</time></trkpt><trkpt lat="45.8398781" lon="8.891543"><ele>334.25</ele><time>2026-04-23T10:16:11.941Z</time></trkpt><trkpt lat="45.8397501" lon="8.89152"><ele>336.0</ele><time>2026-04-23T10:16:12.934Z</time></trkpt><trkpt lat="45.8396374" lon="8.8914963"><ele>336.0</ele><time>2026-04-23T10:16:13.939Z</time></trkpt><trkpt lat="45.8395315" lon="8.8914609"><ele>336.0</ele><time>2026-04-23T10:16:14.934Z</time></trkpt><trkpt lat="45.8394366" lon="8.89142"><ele>336.0</ele><time>2026-04-23T10:16:15.941Z</time></trkpt><trkpt lat="45.83934" lon="8.8913745"><ele>336.0</ele><time>2026-04-23T10:16:16.935Z</time></trkpt><trkpt lat="45.8392409" lon="8.8913058"><ele>336.0</ele><time>2026-04-23T10:16:17.925Z</time></trkpt><trkpt lat="45.8391302" lon="8.8912139"><ele>336.6666666666667</ele><time>2026-04-23T10:16:18.92Z</time></trkpt><trkpt lat="45.8390221" lon="8.891085"><ele>337.33333333333337</ele><time>2026-04-23T10:16:19.92Z</time></trkpt><trkpt lat="45.838902" lon="8.8909356"><ele>338.0</ele><time>2026-04-23T10:16:20.923Z</time></trkpt><trkpt lat="45.8387946" lon="8.8907291"><ele>340.6666666666667</ele><time>2026-04-23T10:16:21.915Z</time></trkpt><trkpt lat="45.8386762" lon="8.89048"><ele>343.3333333333333</ele><time>2026-04-23T10:16:22.909Z</time></trkpt><trkpt lat="45.8385864" lon="8.890211"><ele>346.0</ele><time>2026-04-23T10:16:23.926Z</time></trkpt><trkpt lat="45.8385113" lon="8.8899881"><ele>353.3333333333333</ele><time>2026-04-23T10:16:24.917Z</time></trkpt><trkpt lat="45.8384409" lon="8.8897925"><ele>360.6666666666667</ele><time>2026-04-23T10:16:25.913Z</time></trkpt><trkpt lat="45.8383749" lon="8.8895533"><ele>368.0</ele><time>2026-04-23T10:16:26.919Z</time></trkpt><trkpt lat="45.8383226" lon="8.8892836"><ele>371.6666666666667</ele><time>2026-04-23T10:16:27.917Z</time></trkpt><trkpt lat="45.838293" lon="8.8890291"><ele>375.3333333333333</ele><time>2026-04-23T10:16:28.92Z</time></trkpt><trkpt lat="45.8382747" lon="8.8887706"><ele>379.0</ele><time>2026-04-23T10:16:29.917Z</time></trkpt><trkpt lat="45.8382561" lon="8.8885992"><ele>378.75</ele><time>2026-04-23T10:16:30.916Z</time></trkpt><trkpt lat="45.8382086" lon="8.8884129"><ele>378.5</ele><time>2026-04-23T10:16:31.907Z</time></trkpt><trkpt lat="45.8381668" lon="8.8882355"><ele>378.25</ele><time>2026-04-23T10:16:32.914Z</time></trkpt><trkpt lat="45.8381118" lon="8.888074"><ele>378.0</ele><time>2026-04-23T10:16:33.915Z</time></trkpt><trkpt lat="45.8380053" lon="8.8879205"><ele>378.0</ele><time>2026-04-23T10:16:34.909Z</time></trkpt><trkpt lat="45.8379129" lon="8.8878075"><ele>378.0</ele><time>2026-04-23T10:16:35.914Z</time></trkpt><trkpt lat="45.83784" lon="8.8877134"><ele>378.0</ele><time>2026-04-23T10:16:36.916Z</time></trkpt><trkpt lat="45.8377736" lon="8.8875885"><ele>378.0</ele><time>2026-04-23T10:16:37.916Z</time></trkpt><trkpt lat="45.8377106" lon="8.8874638"><ele>378.0</ele><time>2026-04-23T10:16:38.913Z</time></trkpt><trkpt lat="45.8376728" lon="8.887318"><ele>376.5</ele><time>2026-04-23T10:16:39.917Z</time></trkpt><trkpt lat="45.8376493" lon="8.8871434"><ele>375.0</ele><time>2026-04-23T10:16:40.906Z</time></trkpt><trkpt lat="45.8376369" lon="8.8869652"><ele>373.5</ele><time>2026-04-23T10:16:41.91Z</time></trkpt><trkpt lat="45.8376112" lon="8.8868081"><ele>372.0</ele><time>2026-04-23T10:16:42.914Z</time></trkpt><trkpt lat="45.8375817" lon="8.8866709"><ele>377.0</ele><time>2026-04-23T10:16:43.911Z</time></trkpt><trkpt lat="45.837545" lon="8.8865359"><ele>382.0</ele><time>2026-04-23T10:16:44.904Z</time></trkpt><trkpt lat="45.8374619" lon="8.8864361"><ele>387.0</ele><time>2026-04-23T10:16:45.909Z</time></trkpt><trkpt lat="45.837365" lon="8.8863531"><ele>392.0</ele><time>2026-04-23T10:16:46.905Z</time></trkpt><trkpt lat="45.8372679" lon="8.8862994"><ele>397.0</ele><time>2026-04-23T10:16:47.904Z</time></trkpt><trkpt lat="45.837149" lon="8.8862942"><ele>397.0</ele><time>2026-04-23T10:16:48.914Z</time></trkpt><trkpt lat="45.8370309" lon="8.8863047"><ele>397.0</ele><time>2026-04-23T10:16:49.905Z</time></trkpt><trkpt lat="45.836908" lon="8.8863477"><ele>397.0</ele><time>2026-04-23T10:16:50.917Z</time></trkpt><trkpt lat="45.8367848" lon="8.8864504"><ele>397.0</ele><time>2026-04-23T10:16:51.918Z</time></trkpt><trkpt lat="45.8366503" lon="8.8866103"><ele>397.5</ele><time>2026-04-23T10:16:52.917Z</time></trkpt><trkpt lat="45.8365069" lon="8.8868299"><ele>398.0</ele><time>2026-04-23T10:16:53.916Z</time></trkpt><trkpt lat="45.8363233" lon="8.8871157"><ele>398.0</ele><time>2026-04-23T10:16:54.931Z</time></trkpt><trkpt lat="45.8361393" lon="8.8873884"><ele>398.0</ele><time>2026-04-23T10:16:55.913Z</time></trkpt><trkpt lat="45.8359472" lon="8.8876638"><ele>399.0</ele><time>2026-04-23T10:16:56.91Z</time></trkpt><trkpt lat="45.83575" lon="8.887927"><ele>400.0</ele><time>2026-04-23T10:16:57.908Z</time></trkpt><trkpt lat="45.8355701" lon="8.8881589"><ele>400.0</ele><time>2026-04-23T10:16:58.914Z</time></trkpt><trkpt lat="45.8354144" lon="8.8883449"><ele>400.0</ele><time>2026-04-23T10:16:59.905Z</time></trkpt><trkpt lat="45.8352854" lon="8.888492"><ele>400.0</ele><time>2026-04-23T10:17:00.899Z</time></trkpt><trkpt lat="45.8351613" lon="8.8886433"><ele>402.25</ele><time>2026-04-23T10:17:01.895Z</time></trkpt><trkpt lat="45.8350873" lon="8.8887756"><ele>404.5</ele><time>2026-04-23T10:17:02.898Z</time></trkpt><trkpt lat="45.8350636" lon="8.8889591"><ele>406.75</ele><time>2026-04-23T10:17:03.896Z</time></trkpt><trkpt lat="45.8350038" lon="8.8891551"><ele>409.0</ele><time>2026-04-23T10:17:04.903Z</time></trkpt><trkpt lat="45.8349327" lon="8.8892991"><ele>410.0</ele><time>2026-04-23T10:17:05.9Z</time></trkpt><trkpt lat="45.8348693" lon="8.8894201"><ele>411.0</ele><time>2026-04-23T10:17:06.897Z</time></trkpt><trkpt lat="45.8348095" lon="8.8895539"><ele>412.0</ele><time>2026-04-23T10:17:07.897Z</time></trkpt><trkpt lat="45.8346974" lon="8.8896325"><ele>413.0</ele><time>2026-04-23T10:17:08.893Z</time></trkpt><trkpt lat="45.8346062" lon="8.8897057"><ele>414.0</ele><time>2026-04-23T10:17:09.892Z</time></trkpt><trkpt lat="45.8345218" lon="8.8897587"><ele>414.0</ele><time>2026-04-23T10:17:10.891Z</time></trkpt><trkpt lat="45.8344145" lon="8.8897806"><ele>414.0</ele><time>2026-04-23T10:17:11.893Z</time></trkpt><trkpt lat="45.8343247" lon="8.8897943"><ele>414.0</ele><time>2026-04-23T10:17:12.896Z</time></trkpt><trkpt lat="45.8342244" lon="8.8897884"><ele>414.0</ele><time>2026-04-23T10:17:13.903Z</time></trkpt><trkpt lat="45.8341214" lon="8.8897953"><ele>414.0</ele><time>2026-04-23T10:17:14.906Z</time></trkpt><trkpt lat="45.8340101" lon="8.8898326"><ele>414.0</ele><time>2026-04-23T10:17:15.921Z</time></trkpt><trkpt lat="45.8339013" lon="8.8898813"><ele>414.0</ele><time>2026-04-23T10:17:16.906Z</time></trkpt><trkpt lat="45.8338018" lon="8.8899409"><ele>414.0</ele><time>2026-04-23T10:17:17.913Z</time></trkpt><trkpt lat="45.8337067" lon="8.8899952"><ele>414.0</ele><time>2026-04-23T10:17:18.909Z</time></trkpt><trkpt lat="45.8336117" lon="8.8900653"><ele>414.0</ele><time>2026-04-23T10:17:19.91Z</time></trkpt><trkpt lat="45.8335019" lon="8.8901326"><ele>413.5</ele><time>2026-04-23T10:17:20.905Z</time></trkpt><trkpt lat="45.8333927" lon="8.8902268"><ele>413.0</ele><time>2026-04-23T10:17:21.907Z</time></trkpt><trkpt lat="45.8332817" lon="8.890308"><ele>412.5</ele><time>2026-04-23T10:17:22.906Z</time></trkpt><trkpt lat="45.8331805" lon="8.8903782"><ele>412.0</ele><time>2026-04-23T10:17:23.904Z</time></trkpt><trkpt lat="45.8330802" lon="8.8904636"><ele>412.0</ele><time>2026-04-23T10:17:24.904Z</time></trkpt><trkpt lat="45.8329786" lon="8.890576"><ele>412.0</ele><time>2026-04-23T10:17:25.916Z</time></trkpt><trkpt lat="45.832879" lon="8.890695"><ele>412.0</ele><time>2026-04-23T10:17:26.899Z</time></trkpt><trkpt lat="45.8327812" lon="8.8908064"><ele>412.0</ele><time>2026-04-23T10:17:27.896Z</time></trkpt><trkpt lat="45.8326805" lon="8.8909257"><ele>409.5</ele><time>2026-04-23T10:17:28.896Z</time></trkpt><trkpt lat="45.8325756" lon="8.8910482"><ele>407.0</ele><time>2026-04-23T10:17:29.899Z</time></trkpt><trkpt lat="45.8324904" lon="8.8911493"><ele>404.5</ele><time>2026-04-23T10:17:30.908Z</time></trkpt><trkpt lat="45.8323984" lon="8.8912436"><ele>402.0</ele><time>2026-04-23T10:17:31.911Z</time></trkpt><trkpt lat="45.8322992" lon="8.8913541"><ele>402.0</ele><time>2026-04-23T10:17:32.905Z</time></trkpt><trkpt lat="45.832197" lon="8.8914531"><ele>402.0</ele><time>2026-04-23T10:17:33.916Z</time></trkpt><trkpt lat="45.8320815" lon="8.8915602"><ele>402.0</ele><time>2026-04-23T10:17:34.925Z</time></trkpt><trkpt lat="45.831968" lon="8.8916582"><ele>402.0</ele><time>2026-04-23T10:17:35.926Z</time></trkpt><trkpt lat="45.8318607" lon="8.8917679"><ele>402.5</ele><time>2026-04-23T10:17:36.922Z</time></trkpt><trkpt lat="45.8317592" lon="8.8918843"><ele>403.0</ele><time>2026-04-23T10:17:37.919Z</time></trkpt><trkpt lat="45.8316559" lon="8.8920117"><ele>403.5</ele><time>2026-04-23T10:17:38.926Z</time></trkpt><trkpt lat="45.8315581" lon="8.892121"><ele>404.0</ele><time>2026-04-23T10:17:39.923Z</time></trkpt><trkpt lat="45.8314733" lon="8.8922106"><ele>404.0</ele><time>2026-04-23T10:17:40.92Z</time></trkpt><trkpt lat="45.8314049" lon="8.8922939"><ele>404.0</ele><time>2026-04-23T10:17:41.917Z</time></trkpt><trkpt lat="45.8313424" lon="8.8923583"><ele>404.0</ele><time>2026-04-23T10:17:42.917Z</time></trkpt><trkpt lat="45.8312889" lon="8.8924184"><ele>404.0</ele><time>2026-04-23T10:17:43.923Z</time></trkpt><trkpt lat="45.8312044" lon="8.8925121"><ele>404.0</ele><time>2026-04-23T10:17:45.926Z</time></trkpt><trkpt lat="45.831204" lon="8.8923547"><ele>404.0</ele><time>2026-04-23T10:18:10.928Z</time></trkpt><trkpt lat="45.8311592" lon="8.8922815"><ele>404.0</ele><time>2026-04-23T10:18:11.92Z</time></trkpt><trkpt lat="45.8310902" lon="8.8921677"><ele>404.0</ele><time>2026-04-23T10:18:12.93Z</time></trkpt><trkpt lat="45.8310172" lon="8.8920481"><ele>404.0</ele><time>2026-04-23T10:18:13.912Z</time></trkpt><trkpt lat="45.8309244" lon="8.8919172"><ele>404.0</ele><time>2026-04-23T10:18:14.904Z</time></trkpt><trkpt lat="45.8308" lon="8.891799"><ele>403.3333333333333</ele><time>2026-04-23T10:18:15.915Z</time></trkpt><trkpt lat="45.8306656" lon="8.8916616"><ele>402.66666666666663</ele><time>2026-04-23T10:18:16.913Z</time></trkpt><trkpt lat="45.8305168" lon="8.8915144"><ele>402.0</ele><time>2026-04-23T10:18:17.91Z</time></trkpt><trkpt lat="45.8303706" lon="8.8913842"><ele>402.0</ele><time>2026-04-23T10:18:18.927Z</time></trkpt><trkpt lat="45.8302193" lon="8.8912511"><ele>402.0</ele><time>2026-04-23T10:18:19.924Z</time></trkpt><trkpt lat="45.8300742" lon="8.8911158"><ele>402.0</ele><time>2026-04-23T10:18:20.918Z</time></trkpt><trkpt lat="45.8299388" lon="8.8909926"><ele>404.5</ele><time>2026-04-23T10:18:21.916Z</time></trkpt><trkpt lat="45.8298159" lon="8.8908826"><ele>407.0</ele><time>2026-04-23T10:18:22.918Z</time></trkpt><trkpt lat="45.8296962" lon="8.8907617"><ele>409.5</ele><time>2026-04-23T10:18:23.91Z</time></trkpt><trkpt lat="45.8295873" lon="8.8906383"><ele>412.0</ele><time>2026-04-23T10:18:24.908Z</time></trkpt><trkpt lat="45.8294844" lon="8.890522"><ele>412.00000000000006</ele><time>2026-04-23T10:18:25.91Z</time></trkpt><trkpt lat="45.8294002" lon="8.8904139"><ele>412.0</ele><time>2026-04-23T10:18:26.904Z</time></trkpt><trkpt lat="45.8293246" lon="8.8903263"><ele>412.0</ele><time>2026-04-23T10:18:27.916Z</time></trkpt><trkpt lat="45.8292744" lon="8.8902662"><ele>412.0</ele><time>2026-04-23T10:18:28.903Z</time></trkpt><trkpt lat="45.8292465" lon="8.8901786"><ele>412.00000000000006</ele><time>2026-04-23T10:18:30.894Z</time></trkpt><trkpt lat="45.8292999" lon="8.8900664"><ele>412.0</ele><time>2026-04-23T10:18:32.896Z</time></trkpt><trkpt lat="45.8293626" lon="8.8899922"><ele>411.8</ele><time>2026-04-23T10:18:33.898Z</time></trkpt><trkpt lat="45.829459" lon="8.8899052"><ele>411.6</ele><time>2026-04-23T10:18:34.893Z</time></trkpt><trkpt lat="45.8295538" lon="8.8898272"><ele>411.40000000000003</ele><time>2026-04-23T10:18:35.896Z</time></trkpt><trkpt lat="45.8296474" lon="8.8897549"><ele>411.20000000000005</ele><time>2026-04-23T10:18:36.894Z</time></trkpt><trkpt lat="45.8297224" lon="8.8896529"><ele>411.0</ele><time>2026-04-23T10:18:37.897Z</time></trkpt><trkpt lat="45.8297907" lon="8.8895722"><ele>411.0</ele><time>2026-04-23T10:18:38.901Z</time></trkpt><trkpt lat="45.8298913" lon="8.8894684"><ele>411.0</ele><time>2026-04-23T10:18:39.902Z</time></trkpt><trkpt lat="45.8299908" lon="8.8893713"><ele>411.0</ele><time>2026-04-23T10:18:40.907Z</time></trkpt><trkpt lat="45.8301147" lon="8.8892667"><ele>411.0</ele><time>2026-04-23T10:18:41.902Z</time></trkpt><trkpt lat="45.8302112" lon="8.8891606"><ele>409.1666666666667</ele><time>2026-04-23T10:18:42.916Z</time></trkpt><trkpt lat="45.8302891" lon="8.8890579"><ele>407.33333333333337</ele><time>2026-04-23T10:18:43.91Z</time></trkpt><trkpt lat="45.8303562" lon="8.8889764"><ele>405.5</ele><time>2026-04-23T10:18:44.912Z</time></trkpt><trkpt lat="45.8304191" lon="8.8888844"><ele>403.6666666666667</ele><time>2026-04-23T10:18:45.913Z</time></trkpt><trkpt lat="45.8304661" lon="8.8888079"><ele>401.83333333333337</ele><time>2026-04-23T10:18:46.894Z</time></trkpt><trkpt lat="45.8305121" lon="8.8887198"><ele>400.0</ele><time>2026-04-23T10:18:47.895Z</time></trkpt><trkpt lat="45.8305554" lon="8.8886034"><ele>400.0</ele><time>2026-04-23T10:18:48.89Z</time></trkpt><trkpt lat="45.8305812" lon="8.8884962"><ele>400.0</ele><time>2026-04-23T10:18:49.892Z</time></trkpt><trkpt lat="45.8306106" lon="8.8883596"><ele>400.0</ele><time>2026-04-23T10:18:50.884Z</time></trkpt><trkpt lat="45.8306089" lon="8.888209"><ele>400.0</ele><time>2026-04-23T10:18:51.89Z</time></trkpt><trkpt lat="45.8305955" lon="8.8880375"><ele>400.0</ele><time>2026-04-23T10:18:52.889Z</time></trkpt><trkpt lat="45.8305824" lon="8.8878764"><ele>400.0</ele><time>2026-04-23T10:18:53.892Z</time></trkpt><trkpt lat="45.8305812" lon="8.8877011"><ele>400.0</ele><time>2026-04-23T10:18:54.9Z</time></trkpt><trkpt lat="45.8305831" lon="8.8875372"><ele>400.0</ele><time>2026-04-23T10:18:55.897Z</time></trkpt><trkpt lat="45.8305776" lon="8.8873547"><ele>400.0</ele><time>2026-04-23T10:18:56.897Z</time></trkpt><trkpt lat="45.8305767" lon="8.8871898"><ele>399.4</ele><time>2026-04-23T10:18:57.897Z</time></trkpt><trkpt lat="45.8305686" lon="8.8870248"><ele>398.8</ele><time>2026-04-23T10:18:58.914Z</time></trkpt><trkpt lat="45.8305624" lon="8.8868672"><ele>398.20000000000005</ele><time>2026-04-23T10:18:59.901Z</time></trkpt><trkpt lat="45.8305621" lon="8.886733"><ele>397.6</ele><time>2026-04-23T10:19:00.902Z</time></trkpt><trkpt lat="45.8305734" lon="8.8866026"><ele>397.0</ele><time>2026-04-23T10:19:01.905Z</time></trkpt><trkpt lat="45.8305907" lon="8.8864789"><ele>395.0</ele><time>2026-04-23T10:19:02.901Z</time></trkpt><trkpt lat="45.8306141" lon="8.8863466"><ele>393.0</ele><time>2026-04-23T10:19:03.901Z</time></trkpt><trkpt lat="45.8306586" lon="8.8862422"><ele>391.0</ele><time>2026-04-23T10:19:04.901Z</time></trkpt><trkpt lat="45.8307264" lon="8.8861463"><ele>389.0</ele><time>2026-04-23T10:19:05.905Z</time></trkpt><trkpt lat="45.8308056" lon="8.8860624"><ele>387.0</ele><time>2026-04-23T10:19:06.907Z</time></trkpt><trkpt lat="45.830876" lon="8.8859603"><ele>386.57142857142856</ele><time>2026-04-23T10:19:07.903Z</time></trkpt><trkpt lat="45.8309364" lon="8.8858848"><ele>386.14285714285717</ele><time>2026-04-23T10:19:08.91Z</time></trkpt><trkpt lat="45.8310046" lon="8.8858458"><ele>385.71428571428567</ele><time>2026-04-23T10:19:09.904Z</time></trkpt><trkpt lat="45.831074" lon="8.8858722"><ele>385.2857142857143</ele><time>2026-04-23T10:19:10.904Z</time></trkpt><trkpt lat="45.831133" lon="8.8859042"><ele>384.85714285714283</ele><time>2026-04-23T10:19:11.898Z</time></trkpt><trkpt lat="45.8311963" lon="8.8859568"><ele>384.4285714285714</ele><time>2026-04-23T10:19:12.904Z</time></trkpt><trkpt lat="45.8312642" lon="8.886022"><ele>384.0</ele><time>2026-04-23T10:19:13.9Z</time></trkpt><trkpt lat="45.8313158" lon="8.8860888"><ele>384.0</ele><time>2026-04-23T10:19:14.898Z</time></trkpt><trkpt lat="45.8313773" lon="8.886192"><ele>384.0</ele><time>2026-04-23T10:19:15.907Z</time></trkpt><trkpt lat="45.8314381" lon="8.8863243"><ele>384.0</ele><time>2026-04-23T10:19:16.904Z</time></trkpt><trkpt lat="45.8314995" lon="8.8864693"><ele>384.0</ele><time>2026-04-23T10:19:17.896Z</time></trkpt><trkpt lat="45.8315753" lon="8.8865983"><ele>384.0</ele><time>2026-04-23T10:19:18.898Z</time></trkpt><trkpt lat="45.8316211" lon="8.8866651"><ele>384.0</ele><time>2026-04-23T10:19:19.889Z</time></trkpt><trkpt lat="45.8317154" lon="8.8867503"><ele>384.0</ele><time>2026-04-23T10:19:21.889Z</time></trkpt><trkpt lat="45.8318279" lon="8.8867922"><ele>384.0</ele><time>2026-04-23T10:19:23.884Z</time></trkpt><trkpt lat="45.8319006" lon="8.8867762"><ele>384.0</ele><time>2026-04-23T10:19:25.887Z</time></trkpt><trkpt lat="45.8318597" lon="8.8867024"><ele>384.0</ele><time>2026-04-23T10:19:29.906Z</time></trkpt><trkpt lat="45.8317945" lon="8.8866377"><ele>384.0</ele><time>2026-04-23T10:19:30.889Z</time></trkpt><trkpt lat="45.8317098" lon="8.8865457"><ele>384.0</ele><time>2026-04-23T10:19:31.884Z</time></trkpt><trkpt lat="45.8316226" lon="8.8864107"><ele>384.0</ele><time>2026-04-23T10:19:32.886Z</time></trkpt><trkpt lat="45.8315489" lon="8.8862755"><ele>384.0</ele><time>2026-04-23T10:19:33.892Z</time></trkpt><trkpt lat="45.8314484" lon="8.8861139"><ele>384.0</ele><time>2026-04-23T10:19:34.897Z</time></trkpt><trkpt lat="45.8313539" lon="8.8860388"><ele>384.0</ele><time>2026-04-23T10:19:35.896Z</time></trkpt><trkpt lat="45.831244" lon="8.8859513"><ele>384.0</ele><time>2026-04-23T10:19:36.894Z</time></trkpt><trkpt lat="45.8311359" lon="8.8858526"><ele>384.0</ele><time>2026-04-23T10:19:37.897Z</time></trkpt><trkpt lat="45.8310414" lon="8.8858078"><ele>384.0</ele><time>2026-04-23T10:19:38.893Z</time></trkpt><trkpt lat="45.8309364" lon="8.8857544"><ele>384.6</ele><time>2026-04-23T10:19:39.891Z</time></trkpt><trkpt lat="45.8308326" lon="8.8857406"><ele>385.2</ele><time>2026-04-23T10:19:40.891Z</time></trkpt><trkpt lat="45.8307265" lon="8.8857556"><ele>385.8</ele><time>2026-04-23T10:19:41.893Z</time></trkpt><trkpt lat="45.8306317" lon="8.8858116"><ele>386.40000000000003</ele><time>2026-04-23T10:19:42.895Z</time></trkpt><trkpt lat="45.8305542" lon="8.8858678"><ele>387.0</ele><time>2026-04-23T10:19:43.894Z</time></trkpt><trkpt lat="45.8305016" lon="8.8859476"><ele>387.0</ele><time>2026-04-23T10:19:44.887Z</time></trkpt><trkpt lat="45.8304332" lon="8.886007"><ele>387.0</ele><time>2026-04-23T10:19:45.894Z</time></trkpt><trkpt lat="45.8303415" lon="8.8860652"><ele>387.0</ele><time>2026-04-23T10:19:47.892Z</time></trkpt><trkpt lat="45.8303772" lon="8.8859715"><ele>387.0</ele><time>2026-04-23T10:19:51.898Z</time></trkpt><trkpt lat="45.8304628" lon="8.8858689"><ele>387.0</ele><time>2026-04-23T10:19:52.893Z</time></trkpt><trkpt lat="45.8305692" lon="8.8857471"><ele>381.5</ele><time>2026-04-23T10:19:53.895Z</time></trkpt><trkpt lat="45.8306709" lon="8.8856216"><ele>376.0</ele><time>2026-04-23T10:19:54.892Z</time></trkpt><trkpt lat="45.8307774" lon="8.885504"><ele>370.5</ele><time>2026-04-23T10:19:55.891Z</time></trkpt><trkpt lat="45.8308526" lon="8.8854152"><ele>365.0</ele><time>2026-04-23T10:19:56.891Z</time></trkpt><trkpt lat="45.8309233" lon="8.8853446"><ele>363.6666666666667</ele><time>2026-04-23T10:19:57.889Z</time></trkpt><trkpt lat="45.8309886" lon="8.8852812"><ele>362.33333333333337</ele><time>2026-04-23T10:19:58.89Z</time></trkpt><trkpt lat="45.8310525" lon="8.8852217"><ele>361.0</ele><time>2026-04-23T10:19:59.882Z</time></trkpt><trkpt lat="45.8311329" lon="8.8851489"><ele>359.6666666666667</ele><time>2026-04-23T10:20:00.892Z</time></trkpt><trkpt lat="45.8312252" lon="8.8851486"><ele>358.3333333333333</ele><time>2026-04-23T10:20:01.878Z</time></trkpt><trkpt lat="45.8313242" lon="8.8851633"><ele>357.0</ele><time>2026-04-23T10:20:02.885Z</time></trkpt><trkpt lat="45.8314098" lon="8.8852058"><ele>357.0</ele><time>2026-04-23T10:20:03.884Z</time></trkpt><trkpt lat="45.8315158" lon="8.8852362"><ele>357.0</ele><time>2026-04-23T10:20:05.887Z</time></trkpt><trkpt lat="45.8315848" lon="8.8852424"><ele>357.0</ele><time>2026-04-23T10:20:08.901Z</time></trkpt><trkpt lat="45.8315149" lon="8.8851645"><ele>357.0</ele><time>2026-04-23T10:20:10.894Z</time></trkpt><trkpt lat="45.8314449" lon="8.8851453"><ele>357.0</ele><time>2026-04-23T10:20:11.896Z</time></trkpt><trkpt lat="45.8313629" lon="8.8851304"><ele>357.0</ele><time>2026-04-23T10:20:12.892Z</time></trkpt><trkpt lat="45.8312834" lon="8.8851154"><ele>354.0</ele><time>2026-04-23T10:20:13.896Z</time></trkpt><trkpt lat="45.831188" lon="8.8850838"><ele>351.0</ele><time>2026-04-23T10:20:14.887Z</time></trkpt><trkpt lat="45.8310888" lon="8.8850633"><ele>348.0</ele><time>2026-04-23T10:20:15.899Z</time></trkpt><trkpt lat="45.8309999" lon="8.8850199"><ele>345.0</ele><time>2026-04-23T10:20:16.888Z</time></trkpt><trkpt lat="45.8309151" lon="8.8849628"><ele>342.0</ele><time>2026-04-23T10:20:17.885Z</time></trkpt><trkpt lat="45.8308378" lon="8.8848937"><ele>342.0</ele><time>2026-04-23T10:20:18.885Z</time></trkpt><trkpt lat="45.8307648" lon="8.8848345"><ele>342.0</ele><time>2026-04-23T10:20:19.888Z</time></trkpt><trkpt lat="45.8306988" lon="8.8847387"><ele>342.0</ele><time>2026-04-23T10:20:20.894Z</time></trkpt><trkpt lat="45.830664" lon="8.884634"><ele>342.0</ele><time>2026-04-23T10:20:21.892Z</time></trkpt><trkpt lat="45.8306467" lon="8.8845035"><ele>342.0</ele><time>2026-04-23T10:20:23.888Z</time></trkpt><trkpt lat="45.8306667" lon="8.8844009"><ele>342.0</ele><time>2026-04-23T10:20:25.888Z</time></trkpt><trkpt lat="45.8307148" lon="8.8843385"><ele>339.8333333333333</ele><time>2026-04-23T10:20:27.898Z</time></trkpt><trkpt lat="45.8307201" lon="8.8842464"><ele>337.6666666666667</ele><time>2026-04-23T10:20:37.911Z</time></trkpt><trkpt lat="45.830616" lon="8.8842468"><ele>335.5</ele><time>2026-04-23T10:20:44.892Z</time></trkpt><trkpt lat="45.8305635" lon="8.8841959"><ele>333.33333333333337</ele><time>2026-04-23T10:20:45.897Z</time></trkpt><trkpt lat="45.8304879" lon="8.8841491"><ele>331.1666666666667</ele><time>2026-04-23T10:20:46.889Z</time></trkpt><trkpt lat="45.8304128" lon="8.8840766"><ele>329.0</ele><time>2026-04-23T10:20:47.891Z</time></trkpt><trkpt lat="45.8303366" lon="8.8840237"><ele>329.0</ele><time>2026-04-23T10:20:48.883Z</time></trkpt><trkpt lat="45.8302541" lon="8.8839376"><ele>329.0</ele><time>2026-04-23T10:20:49.882Z</time></trkpt><trkpt lat="45.8301959" lon="8.8838272"><ele>329.0</ele><time>2026-04-23T10:20:50.89Z</time></trkpt><trkpt lat="45.8301189" lon="8.8836968"><ele>329.0</ele><time>2026-04-23T10:20:51.886Z</time></trkpt><trkpt lat="45.830021" lon="8.8835397"><ele>328.33333333333337</ele><time>2026-04-23T10:20:52.892Z</time></trkpt><trkpt lat="45.8299024" lon="8.8833425"><ele>327.6666666666667</ele><time>2026-04-23T10:20:53.886Z</time></trkpt><trkpt lat="45.8297878" lon="8.8831677"><ele>327.0</ele><time>2026-04-23T10:20:54.894Z</time></trkpt><trkpt lat="45.829695" lon="8.8829794"><ele>327.0</ele><time>2026-04-23T10:20:55.892Z</time></trkpt><trkpt lat="45.8296146" lon="8.8827846"><ele>327.0</ele><time>2026-04-23T10:20:56.893Z</time></trkpt><trkpt lat="45.8295401" lon="8.8826099"><ele>327.0</ele><time>2026-04-23T10:20:57.892Z</time></trkpt><trkpt lat="45.8294712" lon="8.8824551"><ele>327.0</ele><time>2026-04-23T10:20:58.89Z</time></trkpt><trkpt lat="45.8294147" lon="8.882286"><ele>328.25</ele><time>2026-04-23T10:20:59.894Z</time></trkpt><trkpt lat="45.8293689" lon="8.8820985"><ele>329.5</ele><time>2026-04-23T10:21:00.889Z</time></trkpt><trkpt lat="45.8293179" lon="8.8819292"><ele>330.75</ele><time>2026-04-23T10:21:01.912Z</time></trkpt><trkpt lat="45.8292621" lon="8.8817399"><ele>332.0</ele><time>2026-04-23T10:21:02.894Z</time></trkpt><trkpt lat="45.829209" lon="8.8815515"><ele>332.0</ele><time>2026-04-23T10:21:03.897Z</time></trkpt><trkpt lat="45.8291756" lon="8.8813589"><ele>332.0</ele><time>2026-04-23T10:21:04.895Z</time></trkpt><trkpt lat="45.8291525" lon="8.8811886"><ele>332.0</ele><time>2026-04-23T10:21:05.893Z</time></trkpt><trkpt lat="45.8291261" lon="8.8810274"><ele>332.0</ele><time>2026-04-23T10:21:06.9Z</time></trkpt><trkpt lat="45.8291008" lon="8.880875"><ele>330.8</ele><time>2026-04-23T10:21:07.903Z</time></trkpt><trkpt lat="45.8290767" lon="8.8807247"><ele>329.6</ele><time>2026-04-23T10:21:08.906Z</time></trkpt><trkpt lat="45.8290531" lon="8.8805795"><ele>328.40000000000003</ele><time>2026-04-23T10:21:09.904Z</time></trkpt><trkpt lat="45.8290447" lon="8.8804396"><ele>327.20000000000005</ele><time>2026-04-23T10:21:10.904Z</time></trkpt><trkpt lat="45.8290326" lon="8.8802889"><ele>326.0</ele><time>2026-04-23T10:21:11.907Z</time></trkpt><trkpt lat="45.8290254" lon="8.8801386"><ele>325.6</ele><time>2026-04-23T10:21:12.903Z</time></trkpt><trkpt lat="45.8290179" lon="8.8800017"><ele>325.20000000000005</ele><time>2026-04-23T10:21:13.899Z</time></trkpt><trkpt lat="45.829019" lon="8.8798712"><ele>324.79999999999995</ele><time>2026-04-23T10:21:14.895Z</time></trkpt><trkpt lat="45.8290457" lon="8.8797365"><ele>324.4</ele><time>2026-04-23T10:21:15.9Z</time></trkpt><trkpt lat="45.8290909" lon="8.8795995"><ele>324.0</ele><time>2026-04-23T10:21:16.895Z</time></trkpt><trkpt lat="45.8291324" lon="8.8794685"><ele>324.0</ele><time>2026-04-23T10:21:17.897Z</time></trkpt><trkpt lat="45.8291627" lon="8.8793399"><ele>324.0</ele><time>2026-04-23T10:21:18.897Z</time></trkpt><trkpt lat="45.8291929" lon="8.8792089"><ele>324.0</ele><time>2026-04-23T10:21:19.895Z</time></trkpt><trkpt lat="45.8292175" lon="8.8790645"><ele>324.0</ele><time>2026-04-23T10:21:20.89Z</time></trkpt><trkpt lat="45.8292457" lon="8.8789213"><ele>324.0</ele><time>2026-04-23T10:21:21.892Z</time></trkpt><trkpt lat="45.8292822" lon="8.8787808"><ele>324.5</ele><time>2026-04-23T10:21:22.892Z</time></trkpt><trkpt lat="45.8293202" lon="8.8786285"><ele>325.0</ele><time>2026-04-23T10:21:23.885Z</time></trkpt><trkpt lat="45.8293414" lon="8.8784645"><ele>325.5</ele><time>2026-04-23T10:21:24.885Z</time></trkpt><trkpt lat="45.8293463" lon="8.8782935"><ele>326.0</ele><time>2026-04-23T10:21:25.893Z</time></trkpt><trkpt lat="45.8293449" lon="8.8781302"><ele>326.0</ele><time>2026-04-23T10:21:26.885Z</time></trkpt><trkpt lat="45.8293404" lon="8.8779757"><ele>326.0</ele><time>2026-04-23T10:21:27.885Z</time></trkpt><trkpt lat="45.8293287" lon="8.8778204"><ele>326.0</ele><time>2026-04-23T10:21:28.89Z</time></trkpt><trkpt lat="45.8293016" lon="8.8777009"><ele>326.0</ele><time>2026-04-23T10:21:29.893Z</time></trkpt><trkpt lat="45.8292613" lon="8.8776268"><ele>326.0</ele><time>2026-04-23T10:21:30.888Z</time></trkpt><trkpt lat="45.8291962" lon="8.8775797"><ele>326.0</ele><time>2026-04-23T10:21:31.891Z</time></trkpt><trkpt lat="45.8290851" lon="8.8775198"><ele>326.0</ele><time>2026-04-23T10:21:33.897Z</time></trkpt><trkpt lat="45.8289973" lon="8.8773758"><ele>326.0</ele><time>2026-04-23T10:21:35.893Z</time></trkpt><trkpt lat="45.8289702" lon="8.8772642"><ele>326.0</ele><time>2026-04-23T10:21:36.894Z</time></trkpt><trkpt lat="45.8289478" lon="8.8771284"><ele>326.0</ele><time>2026-04-23T10:21:37.893Z</time></trkpt><trkpt lat="45.8289329" lon="8.877003"><ele>326.0</ele><time>2026-04-23T10:21:38.887Z</time></trkpt><trkpt lat="45.8289396" lon="8.8768228"><ele>326.5</ele><time>2026-04-23T10:21:39.9Z</time></trkpt><trkpt lat="45.8289801" lon="8.8766431"><ele>327.0</ele><time>2026-04-23T10:21:40.895Z</time></trkpt><trkpt lat="45.8290309" lon="8.8764788"><ele>327.5</ele><time>2026-04-23T10:21:41.895Z</time></trkpt><trkpt lat="45.8290923" lon="8.8763132"><ele>328.0</ele><time>2026-04-23T10:21:42.892Z</time></trkpt><trkpt lat="45.8291563" lon="8.87618"><ele>328.0</ele><time>2026-04-23T10:21:43.901Z</time></trkpt><trkpt lat="45.8292331" lon="8.8760511"><ele>328.0</ele><time>2026-04-23T10:21:44.898Z</time></trkpt><trkpt lat="45.8293195" lon="8.8759139"><ele>328.0</ele><time>2026-04-23T10:21:45.906Z</time></trkpt><trkpt lat="45.8293862" lon="8.8757705"><ele>328.0</ele><time>2026-04-23T10:21:46.898Z</time></trkpt><trkpt lat="45.8294324" lon="8.8755998"><ele>326.5</ele><time>2026-04-23T10:21:47.9Z</time></trkpt><trkpt lat="45.8294662" lon="8.8754224"><ele>325.0</ele><time>2026-04-23T10:21:48.904Z</time></trkpt><trkpt lat="45.8294903" lon="8.8752448"><ele>323.5</ele><time>2026-04-23T10:21:49.905Z</time></trkpt><trkpt lat="45.829517" lon="8.8750745"><ele>322.0</ele><time>2026-04-23T10:21:50.904Z</time></trkpt><trkpt lat="45.8295533" lon="8.8749133"><ele>322.0</ele><time>2026-04-23T10:21:51.907Z</time></trkpt><trkpt lat="45.8295878" lon="8.8747528"><ele>322.0</ele><time>2026-04-23T10:21:52.911Z</time></trkpt><trkpt lat="45.8296451" lon="8.8746071"><ele>322.0</ele><time>2026-04-23T10:21:53.913Z</time></trkpt><trkpt lat="45.829712" lon="8.8744708"><ele>322.0</ele><time>2026-04-23T10:21:54.913Z</time></trkpt><trkpt lat="45.8297806" lon="8.8743415"><ele>323.20000000000005</ele><time>2026-04-23T10:21:55.904Z</time></trkpt><trkpt lat="45.8298466" lon="8.8742136"><ele>324.4</ele><time>2026-04-23T10:21:56.903Z</time></trkpt><trkpt lat="45.8298868" lon="8.874075"><ele>325.6</ele><time>2026-04-23T10:21:57.901Z</time></trkpt><trkpt lat="45.8299109" lon="8.8739227"><ele>326.79999999999995</ele><time>2026-04-23T10:21:58.898Z</time></trkpt><trkpt lat="45.8299462" lon="8.873767"><ele>328.0</ele><time>2026-04-23T10:21:59.903Z</time></trkpt><trkpt lat="45.8299809" lon="8.8736276"><ele>328.0</ele><time>2026-04-23T10:22:00.905Z</time></trkpt><trkpt lat="45.8300241" lon="8.8734893"><ele>328.0</ele><time>2026-04-23T10:22:01.901Z</time></trkpt><trkpt lat="45.8300756" lon="8.8733628"><ele>328.0</ele><time>2026-04-23T10:22:02.9Z</time></trkpt><trkpt lat="45.830135" lon="8.8732574"><ele>328.0</ele><time>2026-04-23T10:22:03.912Z</time></trkpt><trkpt lat="45.8301951" lon="8.8731719"><ele>328.0</ele><time>2026-04-23T10:22:04.905Z</time></trkpt><trkpt lat="45.8302582" lon="8.8731126"><ele>327.0</ele><time>2026-04-23T10:22:05.905Z</time></trkpt><trkpt lat="45.830331" lon="8.8730825"><ele>326.0</ele><time>2026-04-23T10:22:06.902Z</time></trkpt><trkpt lat="45.8304075" lon="8.8730613"><ele>325.0</ele><time>2026-04-23T10:22:07.909Z</time></trkpt><trkpt lat="45.8304999" lon="8.8730073"><ele>324.0</ele><time>2026-04-23T10:22:09.91Z</time></trkpt><trkpt lat="45.8305281" lon="8.8728774"><ele>323.0</ele><time>2026-04-23T10:22:11.915Z</time></trkpt><trkpt lat="45.8305156" lon="8.8727027"><ele>323.0</ele><time>2026-04-23T10:22:13.916Z</time></trkpt><trkpt lat="45.8305077" lon="8.8726082"><ele>323.0</ele><time>2026-04-23T10:22:14.906Z</time></trkpt><trkpt lat="45.8304948" lon="8.8725019"><ele>323.0</ele><time>2026-04-23T10:22:15.917Z</time></trkpt><trkpt lat="45.8304849" lon="8.8723698"><ele>323.0</ele><time>2026-04-23T10:22:16.912Z</time></trkpt><trkpt lat="45.8304755" lon="8.872214"><ele>323.0</ele><time>2026-04-23T10:22:17.914Z</time></trkpt><trkpt lat="45.8304637" lon="8.8720457"><ele>322.59999999999997</ele><time>2026-04-23T10:22:18.912Z</time></trkpt><trkpt lat="45.83045" lon="8.8718785"><ele>322.2</ele><time>2026-04-23T10:22:19.911Z</time></trkpt><trkpt lat="45.8304367" lon="8.8717113"><ele>321.8</ele><time>2026-04-23T10:22:20.911Z</time></trkpt><trkpt lat="45.8304282" lon="8.8715749"><ele>321.4</ele><time>2026-04-23T10:22:21.912Z</time></trkpt><trkpt lat="45.8304209" lon="8.8714571"><ele>321.0</ele><time>2026-04-23T10:22:22.909Z</time></trkpt><trkpt lat="45.8304124" lon="8.8713382"><ele>321.0</ele><time>2026-04-23T10:22:23.901Z</time></trkpt><trkpt lat="45.8304091" lon="8.8712373"><ele>321.0</ele><time>2026-04-23T10:22:24.903Z</time></trkpt><trkpt lat="45.8304051" lon="8.8711358"><ele>321.0</ele><time>2026-04-23T10:22:25.898Z</time></trkpt><trkpt lat="45.830397" lon="8.8710409"><ele>321.0</ele><time>2026-04-23T10:22:26.897Z</time></trkpt><trkpt lat="45.8303809" lon="8.8709443"><ele>321.0</ele><time>2026-04-23T10:22:27.901Z</time></trkpt><trkpt lat="45.83036" lon="8.8708549"><ele>321.0</ele><time>2026-04-23T10:22:28.901Z</time></trkpt><trkpt lat="45.8303259" lon="8.8707001"><ele>321.0</ele><time>2026-04-23T10:22:30.895Z</time></trkpt><trkpt lat="45.8303107" lon="8.8705997"><ele>321.0</ele><time>2026-04-23T10:22:32.901Z</time></trkpt><trkpt lat="45.8302944" lon="8.8704861"><ele>321.0</ele><time>2026-04-23T10:22:34.921Z</time></trkpt><trkpt lat="45.8302935" lon="8.8703022"><ele>321.0</ele><time>2026-04-23T10:22:36.904Z</time></trkpt><trkpt lat="45.8303045" lon="8.8702067"><ele>321.0</ele><time>2026-04-23T10:22:37.906Z</time></trkpt><trkpt lat="45.8303079" lon="8.8700149"><ele>321.1666666666667</ele><time>2026-04-23T10:22:39.904Z</time></trkpt><trkpt lat="45.830311" lon="8.8699076"><ele>321.3333333333333</ele><time>2026-04-23T10:22:40.903Z</time></trkpt><trkpt lat="45.8303209" lon="8.8697986"><ele>321.5</ele><time>2026-04-23T10:22:41.9Z</time></trkpt><trkpt lat="45.8303269" lon="8.8696902"><ele>321.66666666666663</ele><time>2026-04-23T10:22:42.904Z</time></trkpt><trkpt lat="45.8303321" lon="8.869584"><ele>321.8333333333333</ele><time>2026-04-23T10:22:43.904Z</time></trkpt><trkpt lat="45.8303293" lon="8.8694516"><ele>322.0</ele><time>2026-04-23T10:22:44.904Z</time></trkpt><trkpt lat="45.8303133" lon="8.8693163"><ele>324.75</ele><time>2026-04-23T10:22:45.908Z</time></trkpt><trkpt lat="45.830292" lon="8.8691711"><ele>327.5</ele><time>2026-04-23T10:22:46.909Z</time></trkpt><trkpt lat="45.830265" lon="8.8690087"><ele>330.25</ele><time>2026-04-23T10:22:47.91Z</time></trkpt><trkpt lat="45.8302328" lon="8.8688263"><ele>333.0</ele><time>2026-04-23T10:22:48.903Z</time></trkpt><trkpt lat="45.8301974" lon="8.8686403"><ele>333.0</ele><time>2026-04-23T10:22:49.918Z</time></trkpt><trkpt lat="45.830157" lon="8.8684726"><ele>333.0</ele><time>2026-04-23T10:22:50.912Z</time></trkpt><trkpt lat="45.8300971" lon="8.8683288"><ele>333.0</ele><time>2026-04-23T10:22:51.92Z</time></trkpt><trkpt lat="45.8300137" lon="8.868212"><ele>333.0</ele><time>2026-04-23T10:22:52.909Z</time></trkpt><trkpt lat="45.8299141" lon="8.8681243"><ele>331.0</ele><time>2026-04-23T10:22:53.913Z</time></trkpt><trkpt lat="45.8297989" lon="8.8680399"><ele>329.0</ele><time>2026-04-23T10:22:54.908Z</time></trkpt><trkpt lat="45.8296851" lon="8.8679611"><ele>327.0</ele><time>2026-04-23T10:22:55.912Z</time></trkpt><trkpt lat="45.8295761" lon="8.8678827"><ele>325.0</ele><time>2026-04-23T10:22:56.906Z</time></trkpt><trkpt lat="45.8294633" lon="8.8678092"><ele>321.66666666666663</ele><time>2026-04-23T10:22:57.899Z</time></trkpt><trkpt lat="45.8292988" lon="8.8677595"><ele>318.3333333333333</ele><time>2026-04-23T10:22:58.897Z</time></trkpt><trkpt lat="45.8291428" lon="8.8677199"><ele>315.0</ele><time>2026-04-23T10:22:59.891Z</time></trkpt><trkpt lat="45.8289705" lon="8.8676694"><ele>315.0</ele><time>2026-04-23T10:23:00.885Z</time></trkpt><trkpt lat="45.8287845" lon="8.8676397"><ele>315.0</ele><time>2026-04-23T10:23:01.876Z</time></trkpt><trkpt lat="45.8285863" lon="8.8676034"><ele>315.0</ele><time>2026-04-23T10:23:02.878Z</time></trkpt><trkpt lat="45.8283736" lon="8.8675352"><ele>317.0</ele><time>2026-04-23T10:23:03.89Z</time></trkpt><trkpt lat="45.8281787" lon="8.8674598"><ele>319.0</ele><time>2026-04-23T10:23:04.891Z</time></trkpt><trkpt lat="45.8279978" lon="8.8673807"><ele>321.0</ele><time>2026-04-23T10:23:05.92Z</time></trkpt><trkpt lat="45.827861" lon="8.8673138"><ele>321.0</ele><time>2026-04-23T10:23:06.905Z</time></trkpt><trkpt lat="45.8277808" lon="8.8672757"><ele>321.0</ele><time>2026-04-23T10:23:07.907Z</time></trkpt><trkpt lat="45.8276937" lon="8.8672581"><ele>321.0</ele><time>2026-04-23T10:23:08.904Z</time></trkpt><trkpt lat="45.827607" lon="8.8672592"><ele>321.0</ele><time>2026-04-23T10:23:09.916Z</time></trkpt><trkpt lat="45.8275114" lon="8.8672513"><ele>321.0</ele><time>2026-04-23T10:23:10.915Z</time></trkpt><trkpt lat="45.827425" lon="8.8672331"><ele>321.0</ele><time>2026-04-23T10:23:11.919Z</time></trkpt><trkpt lat="45.8273429" lon="8.8672183"><ele>320.0</ele><time>2026-04-23T10:23:12.917Z</time></trkpt><trkpt lat="45.8272737" lon="8.8672209"><ele>319.0</ele><time>2026-04-23T10:23:13.919Z</time></trkpt><trkpt lat="45.8272137" lon="8.8672585"><ele>318.0</ele><time>2026-04-23T10:23:14.92Z</time></trkpt><trkpt lat="45.827145" lon="8.8673046"><ele>317.0</ele><time>2026-04-23T10:23:15.925Z</time></trkpt><trkpt lat="45.827074" lon="8.8673658"><ele>316.0</ele><time>2026-04-23T10:23:16.923Z</time></trkpt><trkpt lat="45.8269849" lon="8.867424"><ele>315.0</ele><time>2026-04-23T10:23:17.924Z</time></trkpt><trkpt lat="45.826884" lon="8.8674639"><ele>314.25</ele><time>2026-04-23T10:23:18.926Z</time></trkpt><trkpt lat="45.8267768" lon="8.867486"><ele>313.5</ele><time>2026-04-23T10:23:19.925Z</time></trkpt><trkpt lat="45.826659" lon="8.8674867"><ele>312.75</ele><time>2026-04-23T10:23:20.925Z</time></trkpt><trkpt lat="45.8265348" lon="8.8674482"><ele>312.0</ele><time>2026-04-23T10:23:21.924Z</time></trkpt><trkpt lat="45.8264069" lon="8.8673892"><ele>312.0</ele><time>2026-04-23T10:23:22.927Z</time></trkpt><trkpt lat="45.8262672" lon="8.8673386"><ele>312.0</ele><time>2026-04-23T10:23:23.922Z</time></trkpt><trkpt lat="45.8261125" lon="8.8672799"><ele>312.0</ele><time>2026-04-23T10:23:24.926Z</time></trkpt><trkpt lat="45.8259532" lon="8.8672132"><ele>312.0</ele><time>2026-04-23T10:23:25.932Z</time></trkpt><trkpt lat="45.825797" lon="8.8671527"><ele>312.0</ele><time>2026-04-23T10:23:26.932Z</time></trkpt><trkpt lat="45.8256468" lon="8.8671179"><ele>312.0</ele><time>2026-04-23T10:23:27.923Z</time></trkpt><trkpt lat="45.8255127" lon="8.86712"><ele>312.0</ele><time>2026-04-23T10:23:28.933Z</time></trkpt><trkpt lat="45.8254145" lon="8.867191"><ele>312.0</ele><time>2026-04-23T10:23:29.921Z</time></trkpt><trkpt lat="45.8253164" lon="8.8672856"><ele>312.0</ele><time>2026-04-23T10:23:30.919Z</time></trkpt><trkpt lat="45.825207" lon="8.8673788"><ele>312.0</ele><time>2026-04-23T10:23:31.922Z</time></trkpt><trkpt lat="45.8250965" lon="8.8674483"><ele>312.0</ele><time>2026-04-23T10:23:32.92Z</time></trkpt><trkpt lat="45.8249862" lon="8.8674759"><ele>312.5</ele><time>2026-04-23T10:23:33.92Z</time></trkpt><trkpt lat="45.8248912" lon="8.8674779"><ele>313.0</ele><time>2026-04-23T10:23:34.929Z</time></trkpt><trkpt lat="45.8247843" lon="8.8674443"><ele>313.5</ele><time>2026-04-23T10:23:35.925Z</time></trkpt><trkpt lat="45.8246614" lon="8.8674126"><ele>314.0</ele><time>2026-04-23T10:23:36.937Z</time></trkpt><trkpt lat="45.8245251" lon="8.8673978"><ele>314.0</ele><time>2026-04-23T10:23:37.925Z</time></trkpt><trkpt lat="45.8244028" lon="8.8673994"><ele>314.0</ele><time>2026-04-23T10:23:38.924Z</time></trkpt><trkpt lat="45.8242931" lon="8.867421"><ele>314.0</ele><time>2026-04-23T10:23:39.918Z</time></trkpt><trkpt lat="45.8241994" lon="8.8674641"><ele>314.0</ele><time>2026-04-23T10:23:40.932Z</time></trkpt><trkpt lat="45.8241261" lon="8.8675083"><ele>314.0</ele><time>2026-04-23T10:23:41.92Z</time></trkpt><trkpt lat="45.8240669" lon="8.8675461"><ele>314.1666666666667</ele><time>2026-04-23T10:23:42.928Z</time></trkpt><trkpt lat="45.8239959" lon="8.867562"><ele>314.33333333333337</ele><time>2026-04-23T10:23:45.931Z</time></trkpt><trkpt lat="45.8239298" lon="8.8675578"><ele>314.5</ele><time>2026-04-23T10:24:00.917Z</time></trkpt><trkpt lat="45.8238582" lon="8.8675663"><ele>314.6666666666667</ele><time>2026-04-23T10:24:01.916Z</time></trkpt><trkpt lat="45.8237803" lon="8.8675823"><ele>314.8333333333333</ele><time>2026-04-23T10:24:02.908Z</time></trkpt><trkpt lat="45.8237037" lon="8.8676229"><ele>315.0</ele><time>2026-04-23T10:24:03.914Z</time></trkpt><trkpt lat="45.8236174" lon="8.8676741"><ele>313.25</ele><time>2026-04-23T10:24:04.91Z</time></trkpt><trkpt lat="45.8235023" lon="8.8677505"><ele>311.5</ele><time>2026-04-23T10:24:05.918Z</time></trkpt><trkpt lat="45.8233831" lon="8.8678113"><ele>309.75</ele><time>2026-04-23T10:24:06.916Z</time></trkpt><trkpt lat="45.8232583" lon="8.867872"><ele>308.0</ele><time>2026-04-23T10:24:07.928Z</time></trkpt><trkpt lat="45.8231369" lon="8.8679352"><ele>307.25</ele><time>2026-04-23T10:24:08.91Z</time></trkpt><trkpt lat="45.8230146" lon="8.8679921"><ele>306.5</ele><time>2026-04-23T10:24:09.907Z</time></trkpt><trkpt lat="45.8228715" lon="8.868053"><ele>305.75</ele><time>2026-04-23T10:24:10.906Z</time></trkpt><trkpt lat="45.8227241" lon="8.8681083"><ele>305.0</ele><time>2026-04-23T10:24:11.908Z</time></trkpt><trkpt lat="45.8225708" lon="8.8681676"><ele>308.6666666666667</ele><time>2026-04-23T10:24:12.908Z</time></trkpt><trkpt lat="45.822418" lon="8.8682168"><ele>312.3333333333333</ele><time>2026-04-23T10:24:13.912Z</time></trkpt><trkpt lat="45.8222668" lon="8.8682614"><ele>316.0</ele><time>2026-04-23T10:24:14.906Z</time></trkpt><trkpt lat="45.8221222" lon="8.8682959"><ele>316.0</ele><time>2026-04-23T10:24:15.91Z</time></trkpt><trkpt lat="45.8219505" lon="8.8683561"><ele>316.0</ele><time>2026-04-23T10:24:16.902Z</time></trkpt><trkpt lat="45.821777" lon="8.868428"><ele>316.0</ele><time>2026-04-23T10:24:17.897Z</time></trkpt><trkpt lat="45.8216119" lon="8.8685013"><ele>314.75</ele><time>2026-04-23T10:24:18.898Z</time></trkpt><trkpt lat="45.8214618" lon="8.8685662"><ele>313.5</ele><time>2026-04-23T10:24:19.895Z</time></trkpt><trkpt lat="45.82133" lon="8.8686154"><ele>312.25</ele><time>2026-04-23T10:24:20.893Z</time></trkpt><trkpt lat="45.8212237" lon="8.8686429"><ele>311.0</ele><time>2026-04-23T10:24:21.896Z</time></trkpt><trkpt lat="45.821152" lon="8.8686371"><ele>311.0</ele><time>2026-04-23T10:24:22.907Z</time></trkpt><trkpt lat="45.8211314" lon="8.8687559"><ele>311.0</ele><time>2026-04-23T10:24:24.899Z</time></trkpt><trkpt lat="45.8212228" lon="8.8688751"><ele>311.0</ele><time>2026-04-23T10:24:25.903Z</time></trkpt><trkpt lat="45.821231" lon="8.8689963"><ele>311.0</ele><time>2026-04-23T10:24:26.903Z</time></trkpt><trkpt lat="45.8212106" lon="8.8691024"><ele>311.0</ele><time>2026-04-23T10:24:27.906Z</time></trkpt><trkpt lat="45.821193" lon="8.8692062"><ele>311.0</ele><time>2026-04-23T10:24:28.909Z</time></trkpt><trkpt lat="45.8211732" lon="8.8693136"><ele>314.8</ele><time>2026-04-23T10:24:30.907Z</time></trkpt><trkpt lat="45.821228" lon="8.8693608"><ele>318.6</ele><time>2026-04-23T10:24:32.915Z</time></trkpt><trkpt lat="45.8213681" lon="8.8693732"><ele>322.4</ele><time>2026-04-23T10:24:34.916Z</time></trkpt><trkpt lat="45.8214681" lon="8.8693893"><ele>326.2</ele><time>2026-04-23T10:24:35.916Z</time></trkpt><trkpt lat="45.82158" lon="8.8694201"><ele>330.0</ele><time>2026-04-23T10:24:36.909Z</time></trkpt><trkpt lat="45.821709" lon="8.8694479"><ele>330.25</ele><time>2026-04-23T10:24:37.904Z</time></trkpt><trkpt lat="45.8218509" lon="8.8694597"><ele>330.5</ele><time>2026-04-23T10:24:38.917Z</time></trkpt><trkpt lat="45.8219945" lon="8.8694933"><ele>330.75</ele><time>2026-04-23T10:24:39.904Z</time></trkpt><trkpt lat="45.8221481" lon="8.8695198"><ele>331.0</ele><time>2026-04-23T10:24:40.9Z</time></trkpt><trkpt lat="45.8223268" lon="8.8695179"><ele>331.0</ele><time>2026-04-23T10:24:41.907Z</time></trkpt><trkpt lat="45.8225127" lon="8.8694901"><ele>331.0</ele><time>2026-04-23T10:24:42.907Z</time></trkpt><trkpt lat="45.8226858" lon="8.8694415"><ele>331.0</ele><time>2026-04-23T10:24:43.908Z</time></trkpt><trkpt lat="45.822822" lon="8.8693948"><ele>334.0</ele><time>2026-04-23T10:24:44.909Z</time></trkpt><trkpt lat="45.8229392" lon="8.869367"><ele>337.0</ele><time>2026-04-23T10:24:45.913Z</time></trkpt><trkpt lat="45.8230512" lon="8.8693407"><ele>340.0</ele><time>2026-04-23T10:24:46.909Z</time></trkpt><trkpt lat="45.8231579" lon="8.8693012"><ele>343.0</ele><time>2026-04-23T10:24:47.909Z</time></trkpt><trkpt lat="45.823266" lon="8.8692514"><ele>338.5</ele><time>2026-04-23T10:24:48.909Z</time></trkpt><trkpt lat="45.8233784" lon="8.8692116"><ele>334.0</ele><time>2026-04-23T10:24:49.907Z</time></trkpt><trkpt lat="45.8234935" lon="8.869171"><ele>329.5</ele><time>2026-04-23T10:24:50.91Z</time></trkpt><trkpt lat="45.8236086" lon="8.8691269"><ele>325.0</ele><time>2026-04-23T10:24:51.91Z</time></trkpt><trkpt lat="45.8237296" lon="8.8690834"><ele>325.0</ele><time>2026-04-23T10:24:52.91Z</time></trkpt><trkpt lat="45.8238595" lon="8.8690288"><ele>325.0</ele><time>2026-04-23T10:24:53.91Z</time></trkpt><trkpt lat="45.8239846" lon="8.8689705"><ele>325.0</ele><time>2026-04-23T10:24:54.915Z</time></trkpt><trkpt lat="45.8240969" lon="8.8689178"><ele>325.0</ele><time>2026-04-23T10:24:55.912Z</time></trkpt><trkpt lat="45.8241916" lon="8.8688808"><ele>325.0</ele><time>2026-04-23T10:24:56.912Z</time></trkpt><trkpt lat="45.8242735" lon="8.8688443"><ele>325.0</ele><time>2026-04-23T10:24:57.915Z</time></trkpt><trkpt lat="45.8243484" lon="8.8688299"><ele>325.0</ele><time>2026-04-23T10:24:58.912Z</time></trkpt><trkpt lat="45.8244142" lon="8.8688281"><ele>325.0</ele><time>2026-04-23T10:24:59.917Z</time></trkpt><trkpt lat="45.8245174" lon="8.8687924"><ele>325.0</ele><time>2026-04-23T10:25:01.911Z</time></trkpt><trkpt lat="45.8245979" lon="8.8687461"><ele>325.0</ele><time>2026-04-23T10:25:03.91Z</time></trkpt><trkpt lat="45.8246874" lon="8.8687094"><ele>326.4</ele><time>2026-04-23T10:25:05.909Z</time></trkpt><trkpt lat="45.8248161" lon="8.8686678"><ele>327.8</ele><time>2026-04-23T10:25:07.91Z</time></trkpt><trkpt lat="45.8248861" lon="8.868658"><ele>329.20000000000005</ele><time>2026-04-23T10:25:08.904Z</time></trkpt><trkpt lat="45.8249651" lon="8.8686605"><ele>330.6</ele><time>2026-04-23T10:25:09.933Z</time></trkpt><trkpt lat="45.8250443" lon="8.8686623"><ele>332.0</ele><time>2026-04-23T10:25:10.904Z</time></trkpt><trkpt lat="45.8251373" lon="8.8686598"><ele>333.0</ele><time>2026-04-23T10:25:11.908Z</time></trkpt><trkpt lat="45.8252289" lon="8.8686617"><ele>334.0</ele><time>2026-04-23T10:25:12.905Z</time></trkpt><trkpt lat="45.8253142" lon="8.868658"><ele>335.0</ele><time>2026-04-23T10:25:13.913Z</time></trkpt><trkpt lat="45.8253944" lon="8.8686566"><ele>336.0</ele><time>2026-04-23T10:25:14.919Z</time></trkpt><trkpt lat="45.8254766" lon="8.8686387"><ele>337.0</ele><time>2026-04-23T10:25:15.922Z</time></trkpt><trkpt lat="45.8255538" lon="8.8686186"><ele>338.0</ele><time>2026-04-23T10:25:16.917Z</time></trkpt><trkpt lat="45.8256243" lon="8.8685963"><ele>338.0</ele><time>2026-04-23T10:25:17.919Z</time></trkpt><trkpt lat="45.8256923" lon="8.8685717"><ele>338.0</ele><time>2026-04-23T10:25:18.927Z</time></trkpt><trkpt lat="45.8257544" lon="8.8685452"><ele>338.0</ele><time>2026-04-23T10:25:19.929Z</time></trkpt><trkpt lat="45.8258737" lon="8.8685267"><ele>338.0</ele><time>2026-04-23T10:25:21.927Z</time></trkpt><trkpt lat="45.8259436" lon="8.868528"><ele>338.0</ele><time>2026-04-23T10:25:22.921Z</time></trkpt><trkpt lat="45.8260113" lon="8.8685404"><ele>338.0</ele><time>2026-04-23T10:25:23.926Z</time></trkpt><trkpt lat="45.8260814" lon="8.8685665"><ele>338.1666666666667</ele><time>2026-04-23T10:25:24.921Z</time></trkpt><trkpt lat="45.8261469" lon="8.8685972"><ele>338.33333333333337</ele><time>2026-04-23T10:25:25.917Z</time></trkpt><trkpt lat="45.8262208" lon="8.8686344"><ele>338.5</ele><time>2026-04-23T10:25:26.914Z</time></trkpt><trkpt lat="45.826294" lon="8.8686718"><ele>338.6666666666667</ele><time>2026-04-23T10:25:27.918Z</time></trkpt><trkpt lat="45.8263596" lon="8.8687032"><ele>338.8333333333333</ele><time>2026-04-23T10:25:28.913Z</time></trkpt><trkpt lat="45.826428" lon="8.868724"><ele>339.0</ele><time>2026-04-23T10:25:29.916Z</time></trkpt><trkpt lat="45.8265222" lon="8.8687419"><ele>339.0</ele><time>2026-04-23T10:25:31.912Z</time></trkpt><trkpt lat="45.8264595" lon="8.8687323"><ele>339.0</ele><time>2026-04-23T10:25:46.93Z</time></trkpt><trkpt lat="45.8263592" lon="8.8687238"><ele>339.0</ele><time>2026-04-23T10:26:12.925Z</time></trkpt><trkpt lat="45.8262768" lon="8.8687073"><ele>339.0</ele><time>2026-04-23T10:26:15.921Z</time></trkpt><trkpt lat="45.8261996" lon="8.8686799"><ele>339.0</ele><time>2026-04-23T10:26:17.916Z</time></trkpt><trkpt lat="45.8261213" lon="8.8686293"><ele>339.0</ele><time>2026-04-23T10:26:19.921Z</time></trkpt><trkpt lat="45.8260113" lon="8.8685982"><ele>338.75</ele><time>2026-04-23T10:26:21.922Z</time></trkpt><trkpt lat="45.825891" lon="8.8685797"><ele>338.5</ele><time>2026-04-23T10:26:23.928Z</time></trkpt><trkpt lat="45.8257742" lon="8.8686028"><ele>338.25</ele><time>2026-04-23T10:26:25.933Z</time></trkpt><trkpt lat="45.8256598" lon="8.8686354"><ele>338.0</ele><time>2026-04-23T10:26:27.929Z</time></trkpt><trkpt lat="45.8255574" lon="8.8686596"><ele>338.0</ele><time>2026-04-23T10:26:29.926Z</time></trkpt><trkpt lat="45.8254658" lon="8.8686985"><ele>338.0</ele><time>2026-04-23T10:26:31.925Z</time></trkpt><trkpt lat="45.825371" lon="8.8687291"><ele>338.0</ele><time>2026-04-23T10:26:33.933Z</time></trkpt><trkpt lat="45.8252714" lon="8.8687652"><ele>338.0</ele><time>2026-04-23T10:26:35.929Z</time></trkpt><trkpt lat="45.8252081" lon="8.8687852"><ele>338.0</ele><time>2026-04-23T10:26:36.924Z</time></trkpt><trkpt lat="45.82514" lon="8.868799"><ele>338.0</ele><time>2026-04-23T10:26:37.928Z</time></trkpt><trkpt lat="45.8250119" lon="8.8688222"><ele>337.0</ele><time>2026-04-23T10:26:39.927Z</time></trkpt><trkpt lat="45.8249446" lon="8.8688236"><ele>336.0</ele><time>2026-04-23T10:26:40.922Z</time></trkpt><trkpt lat="45.8248719" lon="8.8688202"><ele>335.0</ele><time>2026-04-23T10:26:41.937Z</time></trkpt><trkpt lat="45.8247947" lon="8.8688172"><ele>334.0</ele><time>2026-04-23T10:26:42.925Z</time></trkpt><trkpt lat="45.8247126" lon="8.8688147"><ele>333.0</ele><time>2026-04-23T10:26:43.929Z</time></trkpt><trkpt lat="45.824631" lon="8.8688035"><ele>332.0</ele><time>2026-04-23T10:26:44.925Z</time></trkpt><trkpt lat="45.8245462" lon="8.8688012"><ele>332.0</ele><time>2026-04-23T10:26:45.932Z</time></trkpt><trkpt lat="45.8244742" lon="8.8688114"><ele>332.0</ele><time>2026-04-23T10:26:46.92Z</time></trkpt><trkpt lat="45.8244089" lon="8.8688209"><ele>332.0</ele><time>2026-04-23T10:26:47.921Z</time></trkpt><trkpt lat="45.8242986" lon="8.8688498"><ele>332.0</ele><time>2026-04-23T10:26:49.918Z</time></trkpt><trkpt lat="45.824184" lon="8.8688911"><ele>332.0</ele><time>2026-04-23T10:26:51.926Z</time></trkpt><trkpt lat="45.8241207" lon="8.8689029"><ele>332.0</ele><time>2026-04-23T10:26:52.925Z</time></trkpt><trkpt lat="45.8240449" lon="8.8689163"><ele>330.25</ele><time>2026-04-23T10:26:53.923Z</time></trkpt><trkpt lat="45.8239461" lon="8.8689462"><ele>328.5</ele><time>2026-04-23T10:26:54.921Z</time></trkpt><trkpt lat="45.8238247" lon="8.8689913"><ele>326.75</ele><time>2026-04-23T10:26:55.913Z</time></trkpt><trkpt lat="45.823685" lon="8.8690427"><ele>325.0</ele><time>2026-04-23T10:26:56.917Z</time></trkpt><trkpt lat="45.823534" lon="8.8690871"><ele>321.66666666666663</ele><time>2026-04-23T10:26:57.925Z</time></trkpt><trkpt lat="45.8233852" lon="8.86913"><ele>318.3333333333333</ele><time>2026-04-23T10:26:58.933Z</time></trkpt><trkpt lat="45.8232363" lon="8.8691779"><ele>315.0</ele><time>2026-04-23T10:26:59.926Z</time></trkpt><trkpt lat="45.8230892" lon="8.869235"><ele>324.3333333333333</ele><time>2026-04-23T10:27:00.924Z</time></trkpt><trkpt lat="45.8229409" lon="8.8693084"><ele>333.66666666666663</ele><time>2026-04-23T10:27:01.925Z</time></trkpt><trkpt lat="45.8227915" lon="8.8693911"><ele>343.0</ele><time>2026-04-23T10:27:02.922Z</time></trkpt><trkpt lat="45.8226553" lon="8.8694752"><ele>340.0</ele><time>2026-04-23T10:27:03.927Z</time></trkpt><trkpt lat="45.8225193" lon="8.8695374"><ele>337.0</ele><time>2026-04-23T10:27:04.922Z</time></trkpt><trkpt lat="45.8223862" lon="8.8695599"><ele>334.0</ele><time>2026-04-23T10:27:05.927Z</time></trkpt><trkpt lat="45.8222526" lon="8.8695613"><ele>331.0</ele><time>2026-04-23T10:27:06.922Z</time></trkpt><trkpt lat="45.8221153" lon="8.8695311"><ele>331.0</ele><time>2026-04-23T10:27:07.917Z</time></trkpt><trkpt lat="45.8219986" lon="8.8694731"><ele>331.0</ele><time>2026-04-23T10:27:08.925Z</time></trkpt><trkpt lat="45.8218803" lon="8.8693978"><ele>331.0</ele><time>2026-04-23T10:27:09.931Z</time></trkpt><trkpt lat="45.8217627" lon="8.8693243"><ele>331.0</ele><time>2026-04-23T10:27:10.926Z</time></trkpt><trkpt lat="45.8216439" lon="8.8692527"><ele>327.0</ele><time>2026-04-23T10:27:11.922Z</time></trkpt><trkpt lat="45.8215325" lon="8.8691994"><ele>323.0</ele><time>2026-04-23T10:27:12.936Z</time></trkpt><trkpt lat="45.8214319" lon="8.8691657"><ele>319.0</ele><time>2026-04-23T10:27:13.924Z</time></trkpt><trkpt lat="45.8213453" lon="8.8691364"><ele>315.0</ele><time>2026-04-23T10:27:14.921Z</time></trkpt><trkpt lat="45.8212696" lon="8.8691093"><ele>311.0</ele><time>2026-04-23T10:27:15.928Z</time></trkpt><trkpt lat="45.821164" lon="8.8691039"><ele>311.0</ele><time>2026-04-23T10:27:17.924Z</time></trkpt><trkpt lat="45.8210534" lon="8.8691637"><ele>311.0</ele><time>2026-04-23T10:27:19.921Z</time></trkpt><trkpt lat="45.820962" lon="8.8692329"><ele>311.0</ele><time>2026-04-23T10:27:21.923Z</time></trkpt><trkpt lat="45.8209194" lon="8.869333"><ele>311.0</ele><time>2026-04-23T10:27:23.927Z</time></trkpt><trkpt lat="45.820971" lon="8.8694277"><ele>311.0</ele><time>2026-04-23T10:27:26.915Z</time></trkpt><trkpt lat="45.8210389" lon="8.8694852"><ele>313.7142857142857</ele><time>2026-04-23T10:27:28.9Z</time></trkpt><trkpt lat="45.8210855" lon="8.8695855"><ele>316.42857142857144</ele><time>2026-04-23T10:27:30.89Z</time></trkpt><trkpt lat="45.8211146" lon="8.8696682"><ele>319.14285714285717</ele><time>2026-04-23T10:27:31.884Z</time></trkpt><trkpt lat="45.8211445" lon="8.8697493"><ele>321.8571428571429</ele><time>2026-04-23T10:27:32.892Z</time></trkpt><trkpt lat="45.8211819" lon="8.8698278"><ele>324.57142857142856</ele><time>2026-04-23T10:27:33.894Z</time></trkpt><trkpt lat="45.8212246" lon="8.8699012"><ele>327.28571428571433</ele><time>2026-04-23T10:27:34.894Z</time></trkpt><trkpt lat="45.8212667" lon="8.8699735"><ele>330.0</ele><time>2026-04-23T10:27:35.892Z</time></trkpt><trkpt lat="45.8213435" lon="8.8701023"><ele>336.4</ele><time>2026-04-23T10:27:37.884Z</time></trkpt><trkpt lat="45.8213937" lon="8.8701578"><ele>342.8</ele><time>2026-04-23T10:27:38.888Z</time></trkpt><trkpt lat="45.8215036" lon="8.870241"><ele>349.20000000000005</ele><time>2026-04-23T10:27:40.885Z</time></trkpt><trkpt lat="45.8215934" lon="8.8702493"><ele>355.6</ele><time>2026-04-23T10:27:41.895Z</time></trkpt><trkpt lat="45.8216884" lon="8.8702721"><ele>362.0</ele><time>2026-04-23T10:27:42.897Z</time></trkpt><trkpt lat="45.8217735" lon="8.8702905"><ele>362.0</ele><time>2026-04-23T10:27:43.912Z</time></trkpt><trkpt lat="45.8218543" lon="8.8703073"><ele>362.0</ele><time>2026-04-23T10:27:44.893Z</time></trkpt><trkpt lat="45.821938" lon="8.8703259"><ele>362.0</ele><time>2026-04-23T10:27:45.899Z</time></trkpt><trkpt lat="45.8220295" lon="8.8703292"><ele>362.0</ele><time>2026-04-23T10:27:46.892Z</time></trkpt><trkpt lat="45.8221334" lon="8.8703174"><ele>362.0</ele><time>2026-04-23T10:27:47.895Z</time></trkpt><trkpt lat="45.8222439" lon="8.8702908"><ele>362.0</ele><time>2026-04-23T10:27:48.89Z</time></trkpt><trkpt lat="45.8223565" lon="8.8702577"><ele>362.0</ele><time>2026-04-23T10:27:49.889Z</time></trkpt><trkpt lat="45.8224693" lon="8.8702306"><ele>362.0</ele><time>2026-04-23T10:27:50.889Z</time></trkpt><trkpt lat="45.8225937" lon="8.8701925"><ele>362.0</ele><time>2026-04-23T10:27:51.892Z</time></trkpt><trkpt lat="45.8226763" lon="8.8702015"><ele>362.0</ele><time>2026-04-23T10:27:52.888Z</time></trkpt><trkpt lat="45.8227392" lon="8.8702304"><ele>363.6</ele><time>2026-04-23T10:27:53.888Z</time></trkpt><trkpt lat="45.8228647" lon="8.8702538"><ele>365.20000000000005</ele><time>2026-04-23T10:27:55.897Z</time></trkpt><trkpt lat="45.8229409" lon="8.8702431"><ele>366.8</ele><time>2026-04-23T10:27:56.889Z</time></trkpt><trkpt lat="45.8230262" lon="8.8702302"><ele>368.4</ele><time>2026-04-23T10:27:57.893Z</time></trkpt><trkpt lat="45.8231178" lon="8.870214"><ele>370.0</ele><time>2026-04-23T10:27:58.897Z</time></trkpt><trkpt lat="45.8232088" lon="8.8701944"><ele>370.0</ele><time>2026-04-23T10:27:59.894Z</time></trkpt><trkpt lat="45.823299" lon="8.8701753"><ele>370.0</ele><time>2026-04-23T10:28:00.897Z</time></trkpt><trkpt lat="45.8234004" lon="8.8701452"><ele>370.0</ele><time>2026-04-23T10:28:01.895Z</time></trkpt><trkpt lat="45.823518" lon="8.8701386"><ele>370.0</ele><time>2026-04-23T10:28:02.897Z</time></trkpt><trkpt lat="45.8236424" lon="8.8701803"><ele>370.0</ele><time>2026-04-23T10:28:03.902Z</time></trkpt><trkpt lat="45.8237612" lon="8.8702126"><ele>368.2</ele><time>2026-04-23T10:28:04.896Z</time></trkpt><trkpt lat="45.8238722" lon="8.8702387"><ele>366.4</ele><time>2026-04-23T10:28:05.897Z</time></trkpt><trkpt lat="45.8239623" lon="8.8702556"><ele>364.6</ele><time>2026-04-23T10:28:06.897Z</time></trkpt><trkpt lat="45.8240543" lon="8.8702644"><ele>362.8</ele><time>2026-04-23T10:28:07.901Z</time></trkpt><trkpt lat="45.8241349" lon="8.8702855"><ele>361.0</ele><time>2026-04-23T10:28:08.904Z</time></trkpt><trkpt lat="45.8242241" lon="8.8702935"><ele>361.8</ele><time>2026-04-23T10:28:09.905Z</time></trkpt><trkpt lat="45.8243175" lon="8.8702834"><ele>362.6</ele><time>2026-04-23T10:28:10.915Z</time></trkpt><trkpt lat="45.8244135" lon="8.8702455"><ele>363.4</ele><time>2026-04-23T10:28:11.918Z</time></trkpt><trkpt lat="45.8245003" lon="8.8701881"><ele>364.2</ele><time>2026-04-23T10:28:12.914Z</time></trkpt><trkpt lat="45.8245869" lon="8.8700976"><ele>365.0</ele><time>2026-04-23T10:28:13.919Z</time></trkpt><trkpt lat="45.8246743" lon="8.8699995"><ele>362.8</ele><time>2026-04-23T10:28:14.933Z</time></trkpt><trkpt lat="45.8247575" lon="8.8699022"><ele>360.6</ele><time>2026-04-23T10:28:15.924Z</time></trkpt><trkpt lat="45.82483" lon="8.8698072"><ele>358.4</ele><time>2026-04-23T10:28:16.921Z</time></trkpt><trkpt lat="45.8249043" lon="8.8697348"><ele>356.2</ele><time>2026-04-23T10:28:17.921Z</time></trkpt><trkpt lat="45.824976" lon="8.8696682"><ele>354.0</ele><time>2026-04-23T10:28:18.917Z</time></trkpt><trkpt lat="45.8250525" lon="8.869629"><ele>354.0</ele><time>2026-04-23T10:28:19.915Z</time></trkpt><trkpt lat="45.8251338" lon="8.8696023"><ele>354.0</ele><time>2026-04-23T10:28:20.921Z</time></trkpt><trkpt lat="45.8252137" lon="8.8695785"><ele>354.0</ele><time>2026-04-23T10:28:21.919Z</time></trkpt><trkpt lat="45.8252955" lon="8.8695726"><ele>354.0</ele><time>2026-04-23T10:28:22.924Z</time></trkpt><trkpt lat="45.8253749" lon="8.86958"><ele>354.0</ele><time>2026-04-23T10:28:23.925Z</time></trkpt><trkpt lat="45.8254552" lon="8.8696015"><ele>354.0</ele><time>2026-04-23T10:28:24.929Z</time></trkpt><trkpt lat="45.8255322" lon="8.8696379"><ele>355.2</ele><time>2026-04-23T10:28:25.929Z</time></trkpt><trkpt lat="45.8256154" lon="8.8696792"><ele>356.4</ele><time>2026-04-23T10:28:26.927Z</time></trkpt><trkpt lat="45.8257124" lon="8.8697252"><ele>357.6</ele><time>2026-04-23T10:28:27.928Z</time></trkpt><trkpt lat="45.8258093" lon="8.8697614"><ele>358.8</ele><time>2026-04-23T10:28:28.921Z</time></trkpt><trkpt lat="45.8259113" lon="8.8697941"><ele>360.0</ele><time>2026-04-23T10:28:29.93Z</time></trkpt><trkpt lat="45.826008" lon="8.8698234"><ele>361.5</ele><time>2026-04-23T10:28:30.931Z</time></trkpt><trkpt lat="45.826137" lon="8.869837"><ele>363.0</ele><time>2026-04-23T10:28:31.93Z</time></trkpt><trkpt lat="45.8262819" lon="8.8698411"><ele>364.5</ele><time>2026-04-23T10:28:32.93Z</time></trkpt><trkpt lat="45.8264096" lon="8.8698259"><ele>366.0</ele><time>2026-04-23T10:28:33.927Z</time></trkpt><trkpt lat="45.8265314" lon="8.869801"><ele>366.0</ele><time>2026-04-23T10:28:34.925Z</time></trkpt><trkpt lat="45.826654" lon="8.8697863"><ele>366.0</ele><time>2026-04-23T10:28:35.929Z</time></trkpt><trkpt lat="45.8267695" lon="8.8697804"><ele>366.0</ele><time>2026-04-23T10:28:36.922Z</time></trkpt><trkpt lat="45.8268816" lon="8.8697835"><ele>366.0</ele><time>2026-04-23T10:28:37.917Z</time></trkpt><trkpt lat="45.8269934" lon="8.8697935"><ele>365.6</ele><time>2026-04-23T10:28:38.92Z</time></trkpt><trkpt lat="45.8271071" lon="8.8698163"><ele>365.20000000000005</ele><time>2026-04-23T10:28:39.911Z</time></trkpt><trkpt lat="45.8272198" lon="8.869834"><ele>364.79999999999995</ele><time>2026-04-23T10:28:40.909Z</time></trkpt><trkpt lat="45.8273283" lon="8.869821"><ele>364.4</ele><time>2026-04-23T10:28:41.902Z</time></trkpt><trkpt lat="45.8274297" lon="8.8698168"><ele>364.0</ele><time>2026-04-23T10:28:42.904Z</time></trkpt><trkpt lat="45.8275289" lon="8.869808"><ele>364.0</ele><time>2026-04-23T10:28:43.907Z</time></trkpt><trkpt lat="45.8276142" lon="8.8697964"><ele>364.0</ele><time>2026-04-23T10:28:44.901Z</time></trkpt><trkpt lat="45.8277012" lon="8.8697852"><ele>364.0</ele><time>2026-04-23T10:28:45.929Z</time></trkpt><trkpt lat="45.8277843" lon="8.8697514"><ele>364.0</ele><time>2026-04-23T10:28:46.905Z</time></trkpt><trkpt lat="45.8278751" lon="8.8697282"><ele>364.0</ele><time>2026-04-23T10:28:47.909Z</time></trkpt><trkpt lat="45.8279784" lon="8.8697342"><ele>362.0</ele><time>2026-04-23T10:28:48.91Z</time></trkpt><trkpt lat="45.8280925" lon="8.869777"><ele>360.0</ele><time>2026-04-23T10:28:49.913Z</time></trkpt><trkpt lat="45.8282072" lon="8.8698437"><ele>358.0</ele><time>2026-04-23T10:28:50.905Z</time></trkpt><trkpt lat="45.8283354" lon="8.8699041"><ele>356.0</ele><time>2026-04-23T10:28:51.904Z</time></trkpt><trkpt lat="45.8284602" lon="8.869996"><ele>356.75</ele><time>2026-04-23T10:28:52.917Z</time></trkpt><trkpt lat="45.8285695" lon="8.8701131"><ele>357.5</ele><time>2026-04-23T10:28:53.916Z</time></trkpt><trkpt lat="45.8286661" lon="8.8702223"><ele>358.25</ele><time>2026-04-23T10:28:54.919Z</time></trkpt><trkpt lat="45.828763" lon="8.870332"><ele>359.0</ele><time>2026-04-23T10:28:55.919Z</time></trkpt><trkpt lat="45.8288567" lon="8.8704534"><ele>359.0</ele><time>2026-04-23T10:28:56.914Z</time></trkpt><trkpt lat="45.8289414" lon="8.8705849"><ele>359.0</ele><time>2026-04-23T10:28:57.91Z</time></trkpt><trkpt lat="45.8289955" lon="8.8707082"><ele>359.0</ele><time>2026-04-23T10:28:58.902Z</time></trkpt><trkpt lat="45.8290458" lon="8.870843"><ele>359.0</ele><time>2026-04-23T10:28:59.903Z</time></trkpt><trkpt lat="45.8290928" lon="8.8709758"><ele>359.0</ele><time>2026-04-23T10:29:00.893Z</time></trkpt><trkpt lat="45.8291391" lon="8.8711211"><ele>361.25</ele><time>2026-04-23T10:29:01.901Z</time></trkpt><trkpt lat="45.8291739" lon="8.8712759"><ele>363.5</ele><time>2026-04-23T10:29:02.904Z</time></trkpt><trkpt lat="45.8291945" lon="8.8714414"><ele>365.75</ele><time>2026-04-23T10:29:03.905Z</time></trkpt><trkpt lat="45.8292003" lon="8.8716345"><ele>368.0</ele><time>2026-04-23T10:29:04.906Z</time></trkpt><trkpt lat="45.8292082" lon="8.871841"><ele>368.0</ele><time>2026-04-23T10:29:05.91Z</time></trkpt><trkpt lat="45.8292053" lon="8.8720759"><ele>368.0</ele><time>2026-04-23T10:29:06.906Z</time></trkpt><trkpt lat="45.8292034" lon="8.8722978"><ele>368.0</ele><time>2026-04-23T10:29:07.913Z</time></trkpt><trkpt lat="45.8292104" lon="8.8725073"><ele>367.59999999999997</ele><time>2026-04-23T10:29:08.911Z</time></trkpt><trkpt lat="45.8292106" lon="8.8726929"><ele>367.2</ele><time>2026-04-23T10:29:09.914Z</time></trkpt><trkpt lat="45.8291971" lon="8.8728336"><ele>366.8</ele><time>2026-04-23T10:29:10.914Z</time></trkpt><trkpt lat="45.8291721" lon="8.8729415"><ele>366.4</ele><time>2026-04-23T10:29:11.915Z</time></trkpt><trkpt lat="45.8291247" lon="8.8730144"><ele>366.0</ele><time>2026-04-23T10:29:12.926Z</time></trkpt><trkpt lat="45.8290562" lon="8.8730721"><ele>366.0</ele><time>2026-04-23T10:29:13.919Z</time></trkpt><trkpt lat="45.8289789" lon="8.8731167"><ele>366.0</ele><time>2026-04-23T10:29:14.918Z</time></trkpt><trkpt lat="45.8288982" lon="8.8731494"><ele>366.0</ele><time>2026-04-23T10:29:15.929Z</time></trkpt><trkpt lat="45.8288204" lon="8.8731873"><ele>366.0</ele><time>2026-04-23T10:29:16.935Z</time></trkpt><trkpt lat="45.828753" lon="8.8732253"><ele>366.0</ele><time>2026-04-23T10:29:17.921Z</time></trkpt><trkpt lat="45.8286392" lon="8.8732796"><ele>366.0</ele><time>2026-04-23T10:29:19.916Z</time></trkpt><trkpt lat="45.828538" lon="8.8733389"><ele>369.8</ele><time>2026-04-23T10:29:21.921Z</time></trkpt><trkpt lat="45.8284514" lon="8.8734387"><ele>373.6</ele><time>2026-04-23T10:29:23.909Z</time></trkpt><trkpt lat="45.8283892" lon="8.8735852"><ele>377.4</ele><time>2026-04-23T10:29:25.9Z</time></trkpt><trkpt lat="45.8283282" lon="8.8736997"><ele>381.2</ele><time>2026-04-23T10:29:27.9Z</time></trkpt><trkpt lat="45.8282811" lon="8.8738053"><ele>385.0</ele><time>2026-04-23T10:29:29.911Z</time></trkpt><trkpt lat="45.8282754" lon="8.8739484"><ele>386.00000000000006</ele><time>2026-04-23T10:29:31.91Z</time></trkpt><trkpt lat="45.828313" lon="8.8740355"><ele>387.0</ele><time>2026-04-23T10:29:32.916Z</time></trkpt><trkpt lat="45.8283335" lon="8.874136"><ele>388.0</ele><time>2026-04-23T10:29:33.915Z</time></trkpt><trkpt lat="45.8283446" lon="8.8742423"><ele>389.0</ele><time>2026-04-23T10:29:34.907Z</time></trkpt><trkpt lat="45.8283534" lon="8.8743556"><ele>390.00000000000006</ele><time>2026-04-23T10:29:35.92Z</time></trkpt><trkpt lat="45.8283434" lon="8.8744708"><ele>391.0</ele><time>2026-04-23T10:29:36.92Z</time></trkpt><trkpt lat="45.82833" lon="8.87459"><ele>391.4</ele><time>2026-04-23T10:29:37.921Z</time></trkpt><trkpt lat="45.82831" lon="8.8746946"><ele>391.8</ele><time>2026-04-23T10:29:38.917Z</time></trkpt><trkpt lat="45.8282743" lon="8.8748132"><ele>392.2</ele><time>2026-04-23T10:29:39.925Z</time></trkpt><trkpt lat="45.8282265" lon="8.874948"><ele>392.59999999999997</ele><time>2026-04-23T10:29:40.926Z</time></trkpt><trkpt lat="45.8281776" lon="8.8750906"><ele>393.0</ele><time>2026-04-23T10:29:41.928Z</time></trkpt><trkpt lat="45.8281305" lon="8.8752263"><ele>390.25</ele><time>2026-04-23T10:29:42.929Z</time></trkpt><trkpt lat="45.8280676" lon="8.8753768"><ele>387.5</ele><time>2026-04-23T10:29:43.932Z</time></trkpt><trkpt lat="45.828004" lon="8.8755362"><ele>384.75</ele><time>2026-04-23T10:29:44.931Z</time></trkpt><trkpt lat="45.82793" lon="8.875703"><ele>382.0</ele><time>2026-04-23T10:29:45.934Z</time></trkpt><trkpt lat="45.8278562" lon="8.8758727"><ele>378.25</ele><time>2026-04-23T10:29:46.924Z</time></trkpt><trkpt lat="45.8277801" lon="8.8760282"><ele>374.5</ele><time>2026-04-23T10:29:47.953Z</time></trkpt><trkpt lat="45.827697" lon="8.876159"><ele>370.75</ele><time>2026-04-23T10:29:48.911Z</time></trkpt><trkpt lat="45.8276127" lon="8.8762666"><ele>367.0</ele><time>2026-04-23T10:29:49.906Z</time></trkpt><trkpt lat="45.8275227" lon="8.876368"><ele>377.25</ele><time>2026-04-23T10:29:50.913Z</time></trkpt><trkpt lat="45.8274405" lon="8.8764869"><ele>387.5</ele><time>2026-04-23T10:29:51.916Z</time></trkpt><trkpt lat="45.8273663" lon="8.8766087"><ele>397.75</ele><time>2026-04-23T10:29:52.919Z</time></trkpt><trkpt lat="45.8272845" lon="8.8767454"><ele>408.0</ele><time>2026-04-23T10:29:53.917Z</time></trkpt><trkpt lat="45.8272174" lon="8.8768939"><ele>408.0</ele><time>2026-04-23T10:29:54.914Z</time></trkpt><trkpt lat="45.8271547" lon="8.8770621"><ele>408.0</ele><time>2026-04-23T10:29:55.915Z</time></trkpt><trkpt lat="45.827107" lon="8.8772283"><ele>408.0</ele><time>2026-04-23T10:29:56.915Z</time></trkpt><trkpt lat="45.8270536" lon="8.8773888"><ele>408.0</ele><time>2026-04-23T10:29:57.911Z</time></trkpt><trkpt lat="45.8269827" lon="8.8775569"><ele>405.75</ele><time>2026-04-23T10:29:58.918Z</time></trkpt><trkpt lat="45.8269122" lon="8.8777205"><ele>403.5</ele><time>2026-04-23T10:29:59.919Z</time></trkpt><trkpt lat="45.8268395" lon="8.8778982"><ele>401.25</ele><time>2026-04-23T10:30:00.916Z</time></trkpt><trkpt lat="45.8267737" lon="8.8780776"><ele>399.0</ele><time>2026-04-23T10:30:01.913Z</time></trkpt><trkpt lat="45.8267061" lon="8.878293"><ele>407.0</ele><time>2026-04-23T10:30:02.933Z</time></trkpt><trkpt lat="45.8266686" lon="8.8785062"><ele>415.0</ele><time>2026-04-23T10:30:03.929Z</time></trkpt><trkpt lat="45.8266537" lon="8.8787016"><ele>423.0</ele><time>2026-04-23T10:30:04.933Z</time></trkpt><trkpt lat="45.8266742" lon="8.8788844"><ele>431.0</ele><time>2026-04-23T10:30:05.925Z</time></trkpt><trkpt lat="45.8267096" lon="8.8790526"><ele>430.99999999999994</ele><time>2026-04-23T10:30:06.93Z</time></trkpt><trkpt lat="45.8267547" lon="8.8791861"><ele>431.0</ele><time>2026-04-23T10:30:07.933Z</time></trkpt><trkpt lat="45.8267902" lon="8.8792877"><ele>431.0</ele><time>2026-04-23T10:30:08.935Z</time></trkpt><trkpt lat="45.8268111" lon="8.8793963"><ele>431.0</ele><time>2026-04-23T10:30:09.932Z</time></trkpt><trkpt lat="45.8268119" lon="8.8795065"><ele>430.99999999999994</ele><time>2026-04-23T10:30:10.922Z</time></trkpt><trkpt lat="45.826801" lon="8.8796188"><ele>431.0</ele><time>2026-04-23T10:30:11.919Z</time></trkpt><trkpt lat="45.8268041" lon="8.8797349"><ele>430.66666666666663</ele><time>2026-04-23T10:30:12.921Z</time></trkpt><trkpt lat="45.8267963" lon="8.8798619"><ele>430.3333333333333</ele><time>2026-04-23T10:30:13.924Z</time></trkpt><trkpt lat="45.8267726" lon="8.8799975"><ele>430.0</ele><time>2026-04-23T10:30:14.919Z</time></trkpt><trkpt lat="45.8267442" lon="8.8801195"><ele>429.66666666666663</ele><time>2026-04-23T10:30:15.923Z</time></trkpt><trkpt lat="45.8267126" lon="8.880229"><ele>429.3333333333333</ele><time>2026-04-23T10:30:16.914Z</time></trkpt><trkpt lat="45.8266827" lon="8.8803191"><ele>429.0</ele><time>2026-04-23T10:30:17.942Z</time></trkpt><trkpt lat="45.826634" lon="8.8804121"><ele>427.5</ele><time>2026-04-23T10:30:18.921Z</time></trkpt><trkpt lat="45.8265513" lon="8.88049"><ele>426.0</ele><time>2026-04-23T10:30:19.923Z</time></trkpt><trkpt lat="45.8264217" lon="8.8805368"><ele>424.5</ele><time>2026-04-23T10:30:20.92Z</time></trkpt><trkpt lat="45.8262508" lon="8.8805803"><ele>423.0</ele><time>2026-04-23T10:30:21.918Z</time></trkpt><trkpt lat="45.8260399" lon="8.8806134"><ele>422.66666666666663</ele><time>2026-04-23T10:30:22.918Z</time></trkpt><trkpt lat="45.8258279" lon="8.8806586"><ele>422.3333333333333</ele><time>2026-04-23T10:30:23.912Z</time></trkpt><trkpt lat="45.8256247" lon="8.8806875"><ele>422.0</ele><time>2026-04-23T10:30:24.917Z</time></trkpt><trkpt lat="45.8254335" lon="8.8807139"><ele>422.0</ele><time>2026-04-23T10:30:25.919Z</time></trkpt><trkpt lat="45.8252628" lon="8.8807527"><ele>422.0</ele><time>2026-04-23T10:30:26.915Z</time></trkpt><trkpt lat="45.8250996" lon="8.8808185"><ele>422.0</ele><time>2026-04-23T10:30:27.916Z</time></trkpt><trkpt lat="45.8249718" lon="8.8809121"><ele>421.40000000000003</ele><time>2026-04-23T10:30:28.918Z</time></trkpt><trkpt lat="45.824868" lon="8.8810121"><ele>420.8</ele><time>2026-04-23T10:30:29.916Z</time></trkpt><trkpt lat="45.8247892" lon="8.8811289"><ele>420.2</ele><time>2026-04-23T10:30:30.917Z</time></trkpt><trkpt lat="45.8247169" lon="8.8812439"><ele>419.6</ele><time>2026-04-23T10:30:31.92Z</time></trkpt><trkpt lat="45.8246534" lon="8.8813199"><ele>419.0</ele><time>2026-04-23T10:30:32.917Z</time></trkpt><trkpt lat="45.8245753" lon="8.8813773"><ele>419.0</ele><time>2026-04-23T10:30:33.923Z</time></trkpt><trkpt lat="45.8244848" lon="8.881384"><ele>419.0</ele><time>2026-04-23T10:30:34.916Z</time></trkpt><trkpt lat="45.8243913" lon="8.8813326"><ele>419.0</ele><time>2026-04-23T10:30:35.915Z</time></trkpt><trkpt lat="45.8242848" lon="8.88124"><ele>419.0</ele><time>2026-04-23T10:30:36.913Z</time></trkpt><trkpt lat="45.8241698" lon="8.8811253"><ele>418.0</ele><time>2026-04-23T10:30:37.916Z</time></trkpt><trkpt lat="45.8240242" lon="8.881017"><ele>417.0</ele><time>2026-04-23T10:30:38.913Z</time></trkpt><trkpt lat="45.8238702" lon="8.880907"><ele>416.0</ele><time>2026-04-23T10:30:39.909Z</time></trkpt><trkpt lat="45.8237136" lon="8.880801"><ele>415.25</ele><time>2026-04-23T10:30:40.912Z</time></trkpt><trkpt lat="45.8235689" lon="8.8806908"><ele>414.5</ele><time>2026-04-23T10:30:41.917Z</time></trkpt><trkpt lat="45.8234454" lon="8.8805995"><ele>413.75</ele><time>2026-04-23T10:30:42.918Z</time></trkpt><trkpt lat="45.8233376" lon="8.8805026"><ele>413.0</ele><time>2026-04-23T10:30:43.92Z</time></trkpt><trkpt lat="45.8232394" lon="8.8804204"><ele>413.0</ele><time>2026-04-23T10:30:44.916Z</time></trkpt><trkpt lat="45.8231463" lon="8.880334"><ele>413.0</ele><time>2026-04-23T10:30:45.927Z</time></trkpt><trkpt lat="45.8230541" lon="8.880266"><ele>413.0</ele><time>2026-04-23T10:30:46.915Z</time></trkpt><trkpt lat="45.8229661" lon="8.8802168"><ele>413.0</ele><time>2026-04-23T10:30:47.913Z</time></trkpt><trkpt lat="45.8228884" lon="8.8801863"><ele>413.0</ele><time>2026-04-23T10:30:48.926Z</time></trkpt><trkpt lat="45.8228077" lon="8.8801716"><ele>413.0</ele><time>2026-04-23T10:30:49.909Z</time></trkpt><trkpt lat="45.8227221" lon="8.8801812"><ele>413.0</ele><time>2026-04-23T10:30:50.919Z</time></trkpt><trkpt lat="45.8226465" lon="8.8802298"><ele>413.0</ele><time>2026-04-23T10:30:51.923Z</time></trkpt><trkpt lat="45.8225957" lon="8.8803436"><ele>413.0</ele><time>2026-04-23T10:30:52.911Z</time></trkpt><trkpt lat="45.8225735" lon="8.8805078"><ele>413.0</ele><time>2026-04-23T10:30:53.913Z</time></trkpt><trkpt lat="45.8225654" lon="8.8807077"><ele>408.3333333333333</ele><time>2026-04-23T10:30:54.921Z</time></trkpt><trkpt lat="45.8225639" lon="8.8809314"><ele>403.66666666666663</ele><time>2026-04-23T10:30:55.92Z</time></trkpt><trkpt lat="45.8225637" lon="8.8811518"><ele>399.0</ele><time>2026-04-23T10:30:56.919Z</time></trkpt><trkpt lat="45.8225599" lon="8.8813771"><ele>399.0</ele><time>2026-04-23T10:30:57.919Z</time></trkpt><trkpt lat="45.8225451" lon="8.8816039"><ele>399.0</ele><time>2026-04-23T10:30:58.917Z</time></trkpt><trkpt lat="45.8225228" lon="8.8818053"><ele>399.0</ele><time>2026-04-23T10:30:59.918Z</time></trkpt><trkpt lat="45.8224975" lon="8.88199"><ele>399.0</ele><time>2026-04-23T10:31:00.918Z</time></trkpt><trkpt lat="45.8224704" lon="8.8821638"><ele>398.6</ele><time>2026-04-23T10:31:01.913Z</time></trkpt><trkpt lat="45.8224442" lon="8.8823332"><ele>398.2</ele><time>2026-04-23T10:31:02.916Z</time></trkpt><trkpt lat="45.8224236" lon="8.8824852"><ele>397.8</ele><time>2026-04-23T10:31:03.919Z</time></trkpt><trkpt lat="45.822401" lon="8.8826122"><ele>397.40000000000003</ele><time>2026-04-23T10:31:04.92Z</time></trkpt><trkpt lat="45.8223722" lon="8.8827275"><ele>397.0</ele><time>2026-04-23T10:31:05.916Z</time></trkpt><trkpt lat="45.8223409" lon="8.8828425"><ele>396.33333333333337</ele><time>2026-04-23T10:31:06.92Z</time></trkpt><trkpt lat="45.822312" lon="8.8829424"><ele>395.6666666666667</ele><time>2026-04-23T10:31:07.929Z</time></trkpt><trkpt lat="45.8222807" lon="8.8830349"><ele>395.0</ele><time>2026-04-23T10:31:08.924Z</time></trkpt><trkpt lat="45.8222608" lon="8.8831565"><ele>394.33333333333337</ele><time>2026-04-23T10:31:10.92Z</time></trkpt><trkpt lat="45.8223303" lon="8.8831532"><ele>393.6666666666667</ele><time>2026-04-23T10:32:29.931Z</time></trkpt><trkpt lat="45.8224544" lon="8.8831773"><ele>393.0</ele><time>2026-04-23T10:32:31.925Z</time></trkpt><trkpt lat="45.8225716" lon="8.8832418"><ele>394.25</ele><time>2026-04-23T10:32:32.921Z</time></trkpt><trkpt lat="45.8226744" lon="8.883343"><ele>395.5</ele><time>2026-04-23T10:32:33.917Z</time></trkpt><trkpt lat="45.8227865" lon="8.8834638"><ele>396.75</ele><time>2026-04-23T10:32:34.918Z</time></trkpt><trkpt lat="45.8229002" lon="8.8835809"><ele>398.0</ele><time>2026-04-23T10:32:35.915Z</time></trkpt><trkpt lat="45.8230095" lon="8.8837115"><ele>398.0</ele><time>2026-04-23T10:32:36.917Z</time></trkpt><trkpt lat="45.8230919" lon="8.88387"><ele>398.0</ele><time>2026-04-23T10:32:37.925Z</time></trkpt><trkpt lat="45.8232103" lon="8.8840173"><ele>398.0</ele><time>2026-04-23T10:32:38.916Z</time></trkpt><trkpt lat="45.8233384" lon="8.8841666"><ele>398.66666666666663</ele><time>2026-04-23T10:32:39.91Z</time></trkpt><trkpt lat="45.8234692" lon="8.8843031"><ele>399.33333333333337</ele><time>2026-04-23T10:32:40.91Z</time></trkpt><trkpt lat="45.8236139" lon="8.8844269"><ele>400.0</ele><time>2026-04-23T10:32:41.917Z</time></trkpt><trkpt lat="45.8237557" lon="8.8845371"><ele>400.0</ele><time>2026-04-23T10:32:42.915Z</time></trkpt><trkpt lat="45.8238926" lon="8.8846445"><ele>400.0</ele><time>2026-04-23T10:32:43.917Z</time></trkpt><trkpt lat="45.8240185" lon="8.8847407"><ele>400.0</ele><time>2026-04-23T10:32:44.919Z</time></trkpt><trkpt lat="45.8241325" lon="8.8848489"><ele>400.0</ele><time>2026-04-23T10:32:45.922Z</time></trkpt><trkpt lat="45.8242421" lon="8.8849722"><ele>400.75</ele><time>2026-04-23T10:32:46.921Z</time></trkpt><trkpt lat="45.824346" lon="8.8850975"><ele>401.5</ele><time>2026-04-23T10:32:47.922Z</time></trkpt><trkpt lat="45.8244518" lon="8.8852211"><ele>402.25</ele><time>2026-04-23T10:32:48.924Z</time></trkpt><trkpt lat="45.8245491" lon="8.8853483"><ele>403.0</ele><time>2026-04-23T10:32:49.922Z</time></trkpt><trkpt lat="45.8246394" lon="8.8854676"><ele>403.0</ele><time>2026-04-23T10:32:50.919Z</time></trkpt><trkpt lat="45.8247258" lon="8.8855781"><ele>403.0</ele><time>2026-04-23T10:32:51.918Z</time></trkpt><trkpt lat="45.8248126" lon="8.8856809"><ele>403.0</ele><time>2026-04-23T10:32:52.934Z</time></trkpt><trkpt lat="45.8248985" lon="8.8857572"><ele>403.0</ele><time>2026-04-23T10:32:53.914Z</time></trkpt><trkpt lat="45.8249858" lon="8.8858299"><ele>403.0</ele><time>2026-04-23T10:32:54.918Z</time></trkpt><trkpt lat="45.8250615" lon="8.8858923"><ele>403.50000000000006</ele><time>2026-04-23T10:32:55.917Z</time></trkpt><trkpt lat="45.8251356" lon="8.8859406"><ele>404.0</ele><time>2026-04-23T10:32:56.913Z</time></trkpt><trkpt lat="45.8252023" lon="8.8859929"><ele>404.5</ele><time>2026-04-23T10:32:57.913Z</time></trkpt><trkpt lat="45.8252677" lon="8.8860666"><ele>405.0</ele><time>2026-04-23T10:32:58.917Z</time></trkpt><trkpt lat="45.8253354" lon="8.8861347"><ele>405.50000000000006</ele><time>2026-04-23T10:32:59.916Z</time></trkpt><trkpt lat="45.8254065" lon="8.8862066"><ele>406.0</ele><time>2026-04-23T10:33:00.916Z</time></trkpt><trkpt lat="45.8254722" lon="8.8862687"><ele>406.0</ele><time>2026-04-23T10:33:01.916Z</time></trkpt><trkpt lat="45.8255381" lon="8.8863241"><ele>406.0</ele><time>2026-04-23T10:33:02.917Z</time></trkpt><trkpt lat="45.8256061" lon="8.8863789"><ele>406.0</ele><time>2026-04-23T10:33:03.922Z</time></trkpt><trkpt lat="45.8256753" lon="8.8864331"><ele>406.0</ele><time>2026-04-23T10:33:04.913Z</time></trkpt><trkpt lat="45.8257399" lon="8.8864857"><ele>406.0</ele><time>2026-04-23T10:33:05.921Z</time></trkpt><trkpt lat="45.8258038" lon="8.8865369"><ele>406.0</ele><time>2026-04-23T10:33:06.913Z</time></trkpt><trkpt lat="45.8258573" lon="8.8865884"><ele>406.0</ele><time>2026-04-23T10:33:07.916Z</time></trkpt><trkpt lat="45.8259107" lon="8.8866417"><ele>406.00000000000006</ele><time>2026-04-23T10:33:08.913Z</time></trkpt><trkpt lat="45.8259676" lon="8.8866925"><ele>406.0</ele><time>2026-04-23T10:33:09.926Z</time></trkpt><trkpt lat="45.8260282" lon="8.8867362"><ele>406.0</ele><time>2026-04-23T10:33:10.93Z</time></trkpt><trkpt lat="45.8260917" lon="8.8867883"><ele>406.0</ele><time>2026-04-23T10:33:11.936Z</time></trkpt><trkpt lat="45.8261635" lon="8.8868482"><ele>406.00000000000006</ele><time>2026-04-23T10:33:12.919Z</time></trkpt><trkpt lat="45.8262373" lon="8.8869151"><ele>406.0</ele><time>2026-04-23T10:33:13.935Z</time></trkpt><trkpt lat="45.8263112" lon="8.8869889"><ele>406.8</ele><time>2026-04-23T10:33:14.928Z</time></trkpt><trkpt lat="45.8263905" lon="8.8870759"><ele>407.6</ele><time>2026-04-23T10:33:15.931Z</time></trkpt><trkpt lat="45.8264706" lon="8.887175"><ele>408.4</ele><time>2026-04-23T10:33:16.918Z</time></trkpt><trkpt lat="45.8265494" lon="8.887283"><ele>409.2</ele><time>2026-04-23T10:33:17.914Z</time></trkpt><trkpt lat="45.8266245" lon="8.8873809"><ele>410.0</ele><time>2026-04-23T10:33:18.918Z</time></trkpt><trkpt lat="45.8266996" lon="8.8874716"><ele>409.99999999999994</ele><time>2026-04-23T10:33:19.924Z</time></trkpt><trkpt lat="45.8267771" lon="8.8875444"><ele>410.0</ele><time>2026-04-23T10:33:20.916Z</time></trkpt><trkpt lat="45.8268565" lon="8.8876106"><ele>410.0</ele><time>2026-04-23T10:33:21.912Z</time></trkpt><trkpt lat="45.8269311" lon="8.887689"><ele>410.0</ele><time>2026-04-23T10:33:22.916Z</time></trkpt><trkpt lat="45.8269954" lon="8.8877664"><ele>409.99999999999994</ele><time>2026-04-23T10:33:23.933Z</time></trkpt><trkpt lat="45.8270653" lon="8.8878408"><ele>410.0</ele><time>2026-04-23T10:33:24.939Z</time></trkpt><trkpt lat="45.8271347" lon="8.8879184"><ele>410.16666666666663</ele><time>2026-04-23T10:33:25.932Z</time></trkpt><trkpt lat="45.8272006" lon="8.8879891"><ele>410.3333333333333</ele><time>2026-04-23T10:33:26.926Z</time></trkpt><trkpt lat="45.8272635" lon="8.8880413"><ele>410.5</ele><time>2026-04-23T10:33:27.927Z</time></trkpt><trkpt lat="45.8273272" lon="8.8880424"><ele>410.66666666666663</ele><time>2026-04-23T10:33:30.931Z</time></trkpt><trkpt lat="45.827333" lon="8.8879193"><ele>410.8333333333333</ele><time>2026-04-23T10:33:32.928Z</time></trkpt><trkpt lat="45.8273361" lon="8.8878132"><ele>411.0</ele><time>2026-04-23T10:33:33.922Z</time></trkpt><trkpt lat="45.8273193" lon="8.8876445"><ele>411.8</ele><time>2026-04-23T10:33:34.921Z</time></trkpt><trkpt lat="45.8272969" lon="8.8874832"><ele>412.6</ele><time>2026-04-23T10:33:35.917Z</time></trkpt><trkpt lat="45.8272697" lon="8.8873384"><ele>413.4</ele><time>2026-04-23T10:33:36.917Z</time></trkpt><trkpt lat="45.8272463" lon="8.887217"><ele>414.2</ele><time>2026-04-23T10:33:37.913Z</time></trkpt><trkpt lat="45.8272199" lon="8.8871015"><ele>415.0</ele><time>2026-04-23T10:33:38.911Z</time></trkpt><trkpt lat="45.8271831" lon="8.8869519"><ele>415.0</ele><time>2026-04-23T10:33:39.911Z</time></trkpt><trkpt lat="45.8271505" lon="8.8868061"><ele>415.0</ele><time>2026-04-23T10:33:40.915Z</time></trkpt><trkpt lat="45.8271173" lon="8.8866584"><ele>415.0</ele><time>2026-04-23T10:33:41.906Z</time></trkpt><trkpt lat="45.827101" lon="8.8865236"><ele>415.0</ele><time>2026-04-23T10:33:42.909Z</time></trkpt><trkpt lat="45.827091" lon="8.8863952"><ele>415.0</ele><time>2026-04-23T10:33:43.915Z</time></trkpt><trkpt lat="45.8270735" lon="8.8862378"><ele>416.2</ele><time>2026-04-23T10:33:44.913Z</time></trkpt><trkpt lat="45.8270624" lon="8.8860946"><ele>417.4</ele><time>2026-04-23T10:33:45.909Z</time></trkpt><trkpt lat="45.8270376" lon="8.8859617"><ele>418.6</ele><time>2026-04-23T10:33:46.909Z</time></trkpt><trkpt lat="45.8270087" lon="8.8858299"><ele>419.8</ele><time>2026-04-23T10:33:47.916Z</time></trkpt><trkpt lat="45.8269886" lon="8.8856985"><ele>421.0</ele><time>2026-04-23T10:33:48.915Z</time></trkpt><trkpt lat="45.8269759" lon="8.885567"><ele>421.0</ele><time>2026-04-23T10:33:49.92Z</time></trkpt><trkpt lat="45.8269738" lon="8.8854362"><ele>421.0</ele><time>2026-04-23T10:33:50.926Z</time></trkpt><trkpt lat="45.826979" lon="8.8853102"><ele>421.0</ele><time>2026-04-23T10:33:51.928Z</time></trkpt><trkpt lat="45.8269807" lon="8.8851771"><ele>421.0</ele><time>2026-04-23T10:33:52.93Z</time></trkpt><trkpt lat="45.8269751" lon="8.8850345"><ele>421.0</ele><time>2026-04-23T10:33:53.927Z</time></trkpt><trkpt lat="45.8269684" lon="8.884895"><ele>421.0</ele><time>2026-04-23T10:33:54.943Z</time></trkpt><trkpt lat="45.8269628" lon="8.8847595"><ele>421.0</ele><time>2026-04-23T10:33:55.926Z</time></trkpt><trkpt lat="45.826954" lon="8.8846157"><ele>421.0</ele><time>2026-04-23T10:33:56.925Z</time></trkpt><trkpt lat="45.8269448" lon="8.8844761"><ele>421.0</ele><time>2026-04-23T10:33:57.926Z</time></trkpt><trkpt lat="45.8269382" lon="8.8843471"><ele>421.0</ele><time>2026-04-23T10:33:58.935Z</time></trkpt><trkpt lat="45.8269264" lon="8.8842144"><ele>420.83333333333337</ele><time>2026-04-23T10:33:59.933Z</time></trkpt><trkpt lat="45.8269194" lon="8.8840861"><ele>420.6666666666667</ele><time>2026-04-23T10:34:00.937Z</time></trkpt><trkpt lat="45.8269124" lon="8.8839728"><ele>420.5</ele><time>2026-04-23T10:34:01.935Z</time></trkpt><trkpt lat="45.8269033" lon="8.8838679"><ele>420.33333333333337</ele><time>2026-04-23T10:34:02.932Z</time></trkpt><trkpt lat="45.8268896" lon="8.8837577"><ele>420.1666666666667</ele><time>2026-04-23T10:34:03.935Z</time></trkpt><trkpt lat="45.8268794" lon="8.8836389"><ele>420.0</ele><time>2026-04-23T10:34:04.94Z</time></trkpt><trkpt lat="45.8268723" lon="8.8835177"><ele>419.8333333333333</ele><time>2026-04-23T10:34:05.941Z</time></trkpt><trkpt lat="45.8268655" lon="8.8833971"><ele>419.66666666666663</ele><time>2026-04-23T10:34:06.935Z</time></trkpt><trkpt lat="45.8268517" lon="8.8832778"><ele>419.5</ele><time>2026-04-23T10:34:07.936Z</time></trkpt><trkpt lat="45.8268305" lon="8.8831605"><ele>419.3333333333333</ele><time>2026-04-23T10:34:08.938Z</time></trkpt><trkpt lat="45.8268099" lon="8.8830431"><ele>419.16666666666663</ele><time>2026-04-23T10:34:09.939Z</time></trkpt><trkpt lat="45.8267941" lon="8.8829222"><ele>419.0</ele><time>2026-04-23T10:34:10.938Z</time></trkpt><trkpt lat="45.8267843" lon="8.8827972"><ele>418.3333333333333</ele><time>2026-04-23T10:34:11.938Z</time></trkpt><trkpt lat="45.8267799" lon="8.8826787"><ele>417.66666666666663</ele><time>2026-04-23T10:34:12.934Z</time></trkpt><trkpt lat="45.8267769" lon="8.8825656"><ele>417.0</ele><time>2026-04-23T10:34:13.93Z</time></trkpt><trkpt lat="45.8267714" lon="8.8824551"><ele>416.33333333333337</ele><time>2026-04-23T10:34:14.931Z</time></trkpt><trkpt lat="45.8267695" lon="8.8823516"><ele>415.6666666666667</ele><time>2026-04-23T10:34:15.938Z</time></trkpt><trkpt lat="45.8267718" lon="8.8822523"><ele>415.0</ele><time>2026-04-23T10:34:16.934Z</time></trkpt><trkpt lat="45.8267773" lon="8.8821501"><ele>414.6</ele><time>2026-04-23T10:34:17.932Z</time></trkpt><trkpt lat="45.8267843" lon="8.88205"><ele>414.2</ele><time>2026-04-23T10:34:18.931Z</time></trkpt><trkpt lat="45.8267886" lon="8.8819552"><ele>413.79999999999995</ele><time>2026-04-23T10:34:19.942Z</time></trkpt><trkpt lat="45.8268125" lon="8.8817882"><ele>413.4</ele><time>2026-04-23T10:34:21.94Z</time></trkpt><trkpt lat="45.8268968" lon="8.8816418"><ele>413.0</ele><time>2026-04-23T10:34:23.94Z</time></trkpt><trkpt lat="45.8269501" lon="8.8815605"><ele>413.79999999999995</ele><time>2026-04-23T10:34:24.945Z</time></trkpt><trkpt lat="45.8269924" lon="8.8814489"><ele>414.6</ele><time>2026-04-23T10:34:25.962Z</time></trkpt><trkpt lat="45.8270232" lon="8.8813223"><ele>415.4</ele><time>2026-04-23T10:34:26.948Z</time></trkpt><trkpt lat="45.8270345" lon="8.88118"><ele>416.20000000000005</ele><time>2026-04-23T10:34:27.936Z</time></trkpt><trkpt lat="45.8270423" lon="8.881045"><ele>417.0</ele><time>2026-04-23T10:34:28.928Z</time></trkpt><trkpt lat="45.8270405" lon="8.880913"><ele>417.40000000000003</ele><time>2026-04-23T10:34:29.924Z</time></trkpt><trkpt lat="45.827031" lon="8.880775"><ele>417.8</ele><time>2026-04-23T10:34:30.92Z</time></trkpt><trkpt lat="45.8270156" lon="8.8806325"><ele>418.2</ele><time>2026-04-23T10:34:31.919Z</time></trkpt><trkpt lat="45.8269897" lon="8.880483"><ele>418.6</ele><time>2026-04-23T10:34:32.918Z</time></trkpt><trkpt lat="45.8269565" lon="8.8803352"><ele>419.0</ele><time>2026-04-23T10:34:33.919Z</time></trkpt><trkpt lat="45.8269225" lon="8.8801996"><ele>417.49999999999994</ele><time>2026-04-23T10:34:34.914Z</time></trkpt><trkpt lat="45.8268915" lon="8.8800997"><ele>416.0</ele><time>2026-04-23T10:34:35.915Z</time></trkpt><trkpt lat="45.8268604" lon="8.8800017"><ele>414.5</ele><time>2026-04-23T10:34:36.922Z</time></trkpt><trkpt lat="45.8268353" lon="8.8799043"><ele>413.0</ele><time>2026-04-23T10:34:37.92Z</time></trkpt><trkpt lat="45.8268228" lon="8.8798091"><ele>411.49999999999994</ele><time>2026-04-23T10:34:38.926Z</time></trkpt><trkpt lat="45.826817" lon="8.8796967"><ele>410.0</ele><time>2026-04-23T10:34:39.926Z</time></trkpt><trkpt lat="45.8268027" lon="8.8795838"><ele>407.49999999999994</ele><time>2026-04-23T10:34:40.927Z</time></trkpt><trkpt lat="45.8267914" lon="8.8794651"><ele>405.0</ele><time>2026-04-23T10:34:41.926Z</time></trkpt><trkpt lat="45.8267825" lon="8.8793403"><ele>402.5</ele><time>2026-04-23T10:34:42.923Z</time></trkpt><trkpt lat="45.8267832" lon="8.8792186"><ele>400.0</ele><time>2026-04-23T10:34:43.929Z</time></trkpt><trkpt lat="45.8268119" lon="8.8791093"><ele>397.49999999999994</ele><time>2026-04-23T10:34:44.93Z</time></trkpt><trkpt lat="45.8268412" lon="8.8790023"><ele>395.0</ele><time>2026-04-23T10:34:45.934Z</time></trkpt><trkpt lat="45.826856" lon="8.8788951"><ele>395.0</ele><time>2026-04-23T10:34:46.932Z</time></trkpt><trkpt lat="45.826862" lon="8.8787758"><ele>395.0</ele><time>2026-04-23T10:34:47.93Z</time></trkpt><trkpt lat="45.8268682" lon="8.8786468"><ele>395.0</ele><time>2026-04-23T10:34:48.925Z</time></trkpt><trkpt lat="45.8268659" lon="8.8785038"><ele>395.0</ele><time>2026-04-23T10:34:49.928Z</time></trkpt><trkpt lat="45.8268656" lon="8.8783174"><ele>395.0</ele><time>2026-04-23T10:34:50.928Z</time></trkpt><trkpt lat="45.8268807" lon="8.8781156"><ele>395.66666666666663</ele><time>2026-04-23T10:34:51.928Z</time></trkpt><trkpt lat="45.8268996" lon="8.8779422"><ele>396.3333333333333</ele><time>2026-04-23T10:34:52.922Z</time></trkpt><trkpt lat="45.8269263" lon="8.8778065"><ele>397.0</ele><time>2026-04-23T10:34:53.922Z</time></trkpt><trkpt lat="45.8269578" lon="8.8776968"><ele>397.66666666666663</ele><time>2026-04-23T10:34:54.922Z</time></trkpt><trkpt lat="45.8269862" lon="8.8775938"><ele>398.3333333333333</ele><time>2026-04-23T10:34:55.911Z</time></trkpt><trkpt lat="45.8270089" lon="8.8775038"><ele>399.0</ele><time>2026-04-23T10:34:56.931Z</time></trkpt><trkpt lat="45.82697" lon="8.8774149"><ele>400.5</ele><time>2026-04-23T10:35:00.925Z</time></trkpt><trkpt lat="45.8269282" lon="8.8772555"><ele>402.0</ele><time>2026-04-23T10:35:02.927Z</time></trkpt><trkpt lat="45.8269036" lon="8.8771625"><ele>403.5</ele><time>2026-04-23T10:35:03.929Z</time></trkpt><trkpt lat="45.8268757" lon="8.8770764"><ele>405.0</ele><time>2026-04-23T10:35:04.928Z</time></trkpt><trkpt lat="45.8268492" lon="8.8769944"><ele>406.5</ele><time>2026-04-23T10:35:05.929Z</time></trkpt><trkpt lat="45.826798" lon="8.8768343"><ele>408.0</ele><time>2026-04-23T10:35:07.924Z</time></trkpt><trkpt lat="45.8267712" lon="8.8767431"><ele>410.5</ele><time>2026-04-23T10:35:08.928Z</time></trkpt><trkpt lat="45.8267467" lon="8.8766465"><ele>413.0</ele><time>2026-04-23T10:35:09.923Z</time></trkpt><trkpt lat="45.8267203" lon="8.876544"><ele>415.5</ele><time>2026-04-23T10:35:10.926Z</time></trkpt><trkpt lat="45.8266922" lon="8.8764351"><ele>418.0</ele><time>2026-04-23T10:35:11.923Z</time></trkpt><trkpt lat="45.8266583" lon="8.8763204"><ele>420.5</ele><time>2026-04-23T10:35:12.929Z</time></trkpt><trkpt lat="45.8266227" lon="8.8762173"><ele>423.0</ele><time>2026-04-23T10:35:13.93Z</time></trkpt><trkpt lat="45.8265871" lon="8.8761146"><ele>423.0</ele><time>2026-04-23T10:35:14.923Z</time></trkpt><trkpt lat="45.8265413" lon="8.8760257"><ele>423.0</ele><time>2026-04-23T10:35:15.929Z</time></trkpt><trkpt lat="45.826477" lon="8.8759408"><ele>423.0</ele><time>2026-04-23T10:35:16.922Z</time></trkpt><trkpt lat="45.826398" lon="8.8758502"><ele>423.0</ele><time>2026-04-23T10:35:17.919Z</time></trkpt><trkpt lat="45.8263233" lon="8.8757647"><ele>423.0</ele><time>2026-04-23T10:35:18.914Z</time></trkpt><trkpt lat="45.8262427" lon="8.875687"><ele>421.79999999999995</ele><time>2026-04-23T10:35:19.909Z</time></trkpt><trkpt lat="45.8261667" lon="8.8756156"><ele>420.6</ele><time>2026-04-23T10:35:20.909Z</time></trkpt><trkpt lat="45.8260946" lon="8.87555"><ele>419.4</ele><time>2026-04-23T10:35:21.914Z</time></trkpt><trkpt lat="45.8260316" lon="8.8755036"><ele>418.20000000000005</ele><time>2026-04-23T10:35:22.911Z</time></trkpt><trkpt lat="45.8259019" lon="8.8754666"><ele>417.0</ele><time>2026-04-23T10:35:24.922Z</time></trkpt><trkpt lat="45.8258125" lon="8.8754832"><ele>417.0</ele><time>2026-04-23T10:35:25.916Z</time></trkpt><trkpt lat="45.8257073" lon="8.8755015"><ele>417.0</ele><time>2026-04-23T10:35:26.916Z</time></trkpt><trkpt lat="45.8255905" lon="8.8755029"><ele>417.0</ele><time>2026-04-23T10:35:27.925Z</time></trkpt><trkpt lat="45.8254579" lon="8.8755253"><ele>417.0</ele><time>2026-04-23T10:35:28.91Z</time></trkpt><trkpt lat="45.8253212" lon="8.8755679"><ele>417.0</ele><time>2026-04-23T10:35:29.909Z</time></trkpt><trkpt lat="45.8251911" lon="8.8756137"><ele>417.0</ele><time>2026-04-23T10:35:30.921Z</time></trkpt><trkpt lat="45.8250605" lon="8.8756417"><ele>417.0</ele><time>2026-04-23T10:35:31.921Z</time></trkpt><trkpt lat="45.8249162" lon="8.8756682"><ele>417.0</ele><time>2026-04-23T10:35:32.917Z</time></trkpt><trkpt lat="45.8247596" lon="8.8756968"><ele>416.25</ele><time>2026-04-23T10:35:33.918Z</time></trkpt><trkpt lat="45.8246116" lon="8.8757179"><ele>415.5</ele><time>2026-04-23T10:35:34.923Z</time></trkpt><trkpt lat="45.8244691" lon="8.8757375"><ele>414.75</ele><time>2026-04-23T10:35:35.922Z</time></trkpt><trkpt lat="45.8243457" lon="8.8757544"><ele>414.0</ele><time>2026-04-23T10:35:36.922Z</time></trkpt><trkpt lat="45.8242375" lon="8.8757541"><ele>413.25</ele><time>2026-04-23T10:35:37.917Z</time></trkpt><trkpt lat="45.8241309" lon="8.8757487"><ele>412.5</ele><time>2026-04-23T10:35:38.914Z</time></trkpt><trkpt lat="45.824021" lon="8.8757644"><ele>411.75</ele><time>2026-04-23T10:35:39.921Z</time></trkpt><trkpt lat="45.8239053" lon="8.8758085"><ele>411.0</ele><time>2026-04-23T10:35:40.915Z</time></trkpt><trkpt lat="45.8237893" lon="8.8758628"><ele>411.0</ele><time>2026-04-23T10:35:41.928Z</time></trkpt><trkpt lat="45.8236606" lon="8.8759104"><ele>411.0</ele><time>2026-04-23T10:35:42.931Z</time></trkpt><trkpt lat="45.8235237" lon="8.8759477"><ele>411.0</ele><time>2026-04-23T10:35:43.943Z</time></trkpt><trkpt lat="45.8233918" lon="8.8759749"><ele>411.0</ele><time>2026-04-23T10:35:44.94Z</time></trkpt><trkpt lat="45.8232684" lon="8.8759921"><ele>414.0</ele><time>2026-04-23T10:35:45.939Z</time></trkpt><trkpt lat="45.8231624" lon="8.8760037"><ele>417.0</ele><time>2026-04-23T10:35:46.928Z</time></trkpt><trkpt lat="45.8230634" lon="8.8760046"><ele>420.0</ele><time>2026-04-23T10:35:47.93Z</time></trkpt><trkpt lat="45.8229614" lon="8.8759832"><ele>423.0</ele><time>2026-04-23T10:35:48.93Z</time></trkpt><trkpt lat="45.8228551" lon="8.8759646"><ele>426.0</ele><time>2026-04-23T10:35:49.928Z</time></trkpt><trkpt lat="45.8227429" lon="8.8759423"><ele>422.75</ele><time>2026-04-23T10:35:50.932Z</time></trkpt><trkpt lat="45.8226294" lon="8.8759136"><ele>419.5</ele><time>2026-04-23T10:35:51.931Z</time></trkpt><trkpt lat="45.8225171" lon="8.875876"><ele>416.25</ele><time>2026-04-23T10:35:52.922Z</time></trkpt><trkpt lat="45.8224025" lon="8.8758315"><ele>413.0</ele><time>2026-04-23T10:35:53.927Z</time></trkpt><trkpt lat="45.8222931" lon="8.8757734"><ele>413.0</ele><time>2026-04-23T10:35:54.927Z</time></trkpt><trkpt lat="45.8221898" lon="8.87571"><ele>413.0</ele><time>2026-04-23T10:35:55.919Z</time></trkpt><trkpt lat="45.8220877" lon="8.8756472"><ele>413.0</ele><time>2026-04-23T10:35:56.914Z</time></trkpt><trkpt lat="45.8219848" lon="8.8755815"><ele>413.0</ele><time>2026-04-23T10:35:57.913Z</time></trkpt><trkpt lat="45.8218754" lon="8.8755036"><ele>413.5</ele><time>2026-04-23T10:35:58.932Z</time></trkpt><trkpt lat="45.8217597" lon="8.8754245"><ele>414.0</ele><time>2026-04-23T10:35:59.919Z</time></trkpt><trkpt lat="45.8216394" lon="8.8753547"><ele>414.5</ele><time>2026-04-23T10:36:00.918Z</time></trkpt><trkpt lat="45.8215205" lon="8.875288"><ele>415.0</ele><time>2026-04-23T10:36:01.921Z</time></trkpt><trkpt lat="45.8213966" lon="8.8752295"><ele>415.0</ele><time>2026-04-23T10:36:02.92Z</time></trkpt><trkpt lat="45.8212654" lon="8.875176"><ele>415.0</ele><time>2026-04-23T10:36:03.921Z</time></trkpt><trkpt lat="45.8211282" lon="8.8751243"><ele>415.0</ele><time>2026-04-23T10:36:04.92Z</time></trkpt><trkpt lat="45.821003" lon="8.8750943"><ele>415.0</ele><time>2026-04-23T10:36:05.915Z</time></trkpt><trkpt lat="45.8208978" lon="8.8750922"><ele>413.6666666666667</ele><time>2026-04-23T10:36:06.913Z</time></trkpt><trkpt lat="45.8207992" lon="8.8750997"><ele>412.33333333333337</ele><time>2026-04-23T10:36:07.92Z</time></trkpt><trkpt lat="45.8207141" lon="8.8751189"><ele>411.0</ele><time>2026-04-23T10:36:08.92Z</time></trkpt><trkpt lat="45.8206364" lon="8.8751576"><ele>409.66666666666663</ele><time>2026-04-23T10:36:09.93Z</time></trkpt><trkpt lat="45.8205636" lon="8.8752205"><ele>408.3333333333333</ele><time>2026-04-23T10:36:10.922Z</time></trkpt><trkpt lat="45.8205023" lon="8.8753008"><ele>407.0</ele><time>2026-04-23T10:36:11.918Z</time></trkpt><trkpt lat="45.8204214" lon="8.8753886"><ele>407.0</ele><time>2026-04-23T10:36:12.918Z</time></trkpt><trkpt lat="45.8203419" lon="8.8754934"><ele>407.0</ele><time>2026-04-23T10:36:13.924Z</time></trkpt><trkpt lat="45.8202674" lon="8.8756044"><ele>407.0</ele><time>2026-04-23T10:36:14.923Z</time></trkpt><trkpt lat="45.8201935" lon="8.8757094"><ele>407.0</ele><time>2026-04-23T10:36:15.927Z</time></trkpt><trkpt lat="45.8201201" lon="8.8758083"><ele>407.0</ele><time>2026-04-23T10:36:16.924Z</time></trkpt><trkpt lat="45.820052" lon="8.8759207"><ele>404.3333333333333</ele><time>2026-04-23T10:36:17.92Z</time></trkpt><trkpt lat="45.8199962" lon="8.8760323"><ele>401.66666666666663</ele><time>2026-04-23T10:36:18.92Z</time></trkpt><trkpt lat="45.8199486" lon="8.8761488"><ele>399.0</ele><time>2026-04-23T10:36:19.92Z</time></trkpt><trkpt lat="45.8199074" lon="8.8762687"><ele>396.33333333333337</ele><time>2026-04-23T10:36:20.923Z</time></trkpt><trkpt lat="45.8198736" lon="8.8763818"><ele>393.6666666666667</ele><time>2026-04-23T10:36:21.917Z</time></trkpt><trkpt lat="45.8198403" lon="8.8764598"><ele>391.0</ele><time>2026-04-23T10:36:22.924Z</time></trkpt><trkpt lat="45.8197609" lon="8.8765536"><ele>391.0</ele><time>2026-04-23T10:36:24.931Z</time></trkpt><trkpt lat="45.8196661" lon="8.8766013"><ele>391.0</ele><time>2026-04-23T10:36:26.935Z</time></trkpt><trkpt lat="45.8196146" lon="8.8766643"><ele>391.0</ele><time>2026-04-23T10:36:28.931Z</time></trkpt><trkpt lat="45.8195556" lon="8.8767724"><ele>391.0</ele><time>2026-04-23T10:36:30.93Z</time></trkpt><trkpt lat="45.8194786" lon="8.8769141"><ele>391.0</ele><time>2026-04-23T10:36:32.925Z</time></trkpt><trkpt lat="45.819423" lon="8.877002"><ele>389.6</ele><time>2026-04-23T10:36:33.928Z</time></trkpt><trkpt lat="45.8193565" lon="8.8770933"><ele>388.20000000000005</ele><time>2026-04-23T10:36:34.925Z</time></trkpt><trkpt lat="45.8192898" lon="8.8771789"><ele>386.79999999999995</ele><time>2026-04-23T10:36:35.93Z</time></trkpt><trkpt lat="45.8192241" lon="8.8772743"><ele>385.4</ele><time>2026-04-23T10:36:36.93Z</time></trkpt><trkpt lat="45.8191642" lon="8.8773708"><ele>384.0</ele><time>2026-04-23T10:36:37.93Z</time></trkpt><trkpt lat="45.8191028" lon="8.8774696"><ele>383.6666666666667</ele><time>2026-04-23T10:36:38.933Z</time></trkpt><trkpt lat="45.8190479" lon="8.8775738"><ele>383.3333333333333</ele><time>2026-04-23T10:36:39.931Z</time></trkpt><trkpt lat="45.8189906" lon="8.8776602"><ele>383.0</ele><time>2026-04-23T10:36:40.929Z</time></trkpt><trkpt lat="45.8189233" lon="8.8777233"><ele>382.66666666666663</ele><time>2026-04-23T10:36:41.935Z</time></trkpt><trkpt lat="45.8188606" lon="8.8777646"><ele>382.3333333333333</ele><time>2026-04-23T10:36:42.925Z</time></trkpt><trkpt lat="45.8187877" lon="8.8777852"><ele>382.0</ele><time>2026-04-23T10:36:43.935Z</time></trkpt><trkpt lat="45.8187007" lon="8.8777746"><ele>383.0</ele><time>2026-04-23T10:36:44.929Z</time></trkpt><trkpt lat="45.8186019" lon="8.8777202"><ele>384.0</ele><time>2026-04-23T10:36:45.922Z</time></trkpt><trkpt lat="45.8185022" lon="8.8776468"><ele>385.0</ele><time>2026-04-23T10:36:46.922Z</time></trkpt><trkpt lat="45.8183994" lon="8.8775591"><ele>386.0</ele><time>2026-04-23T10:36:47.923Z</time></trkpt><trkpt lat="45.8182926" lon="8.8774634"><ele>386.0</ele><time>2026-04-23T10:36:48.92Z</time></trkpt><trkpt lat="45.8181839" lon="8.8773756"><ele>386.0</ele><time>2026-04-23T10:36:49.921Z</time></trkpt><trkpt lat="45.8180882" lon="8.8773037"><ele>386.0</ele><time>2026-04-23T10:36:50.93Z</time></trkpt><trkpt lat="45.8180177" lon="8.8772341"><ele>386.0</ele><time>2026-04-23T10:36:51.929Z</time></trkpt><trkpt lat="45.8179722" lon="8.8771566"><ele>386.0</ele><time>2026-04-23T10:36:52.946Z</time></trkpt><trkpt lat="45.8179331" lon="8.8770203"><ele>386.0</ele><time>2026-04-23T10:36:54.951Z</time></trkpt><trkpt lat="45.8180205" lon="8.8768758"><ele>386.0</ele><time>2026-04-23T10:37:21.941Z</time></trkpt><trkpt lat="45.8180674" lon="8.876778"><ele>386.0</ele><time>2026-04-23T10:37:23.934Z</time></trkpt><trkpt lat="45.8181181" lon="8.8766117"><ele>386.0</ele><time>2026-04-23T10:37:25.921Z</time></trkpt><trkpt lat="45.8181483" lon="8.8764068"><ele>384.66666666666663</ele><time>2026-04-23T10:37:26.919Z</time></trkpt><trkpt lat="45.8181726" lon="8.8761492"><ele>383.3333333333333</ele><time>2026-04-23T10:37:27.92Z</time></trkpt><trkpt lat="45.8181748" lon="8.8758634"><ele>382.0</ele><time>2026-04-23T10:37:28.922Z</time></trkpt><trkpt lat="45.8181588" lon="8.8756284"><ele>380.0</ele><time>2026-04-23T10:37:29.922Z</time></trkpt><trkpt lat="45.8181095" lon="8.8754101"><ele>378.0</ele><time>2026-04-23T10:37:30.922Z</time></trkpt><trkpt lat="45.8180339" lon="8.8752027"><ele>376.0</ele><time>2026-04-23T10:37:31.939Z</time></trkpt><trkpt lat="45.8179323" lon="8.8750167"><ele>376.0</ele><time>2026-04-23T10:37:32.927Z</time></trkpt><trkpt lat="45.8178011" lon="8.8748582"><ele>376.0</ele><time>2026-04-23T10:37:33.923Z</time></trkpt><trkpt lat="45.8176517" lon="8.8747333"><ele>376.0</ele><time>2026-04-23T10:37:34.924Z</time></trkpt><trkpt lat="45.8175084" lon="8.874644"><ele>376.0</ele><time>2026-04-23T10:37:35.917Z</time></trkpt><trkpt lat="45.8173813" lon="8.8745797"><ele>376.0</ele><time>2026-04-23T10:37:36.916Z</time></trkpt><trkpt lat="45.8172641" lon="8.8744724"><ele>376.0</ele><time>2026-04-23T10:37:37.919Z</time></trkpt><trkpt lat="45.8171677" lon="8.8743295"><ele>376.0</ele><time>2026-04-23T10:37:38.916Z</time></trkpt><trkpt lat="45.8170646" lon="8.8741793"><ele>376.0</ele><time>2026-04-23T10:37:39.916Z</time></trkpt><trkpt lat="45.8169598" lon="8.8740466"><ele>376.0</ele><time>2026-04-23T10:37:40.918Z</time></trkpt><trkpt lat="45.8168611" lon="8.8739253"><ele>376.0</ele><time>2026-04-23T10:37:41.914Z</time></trkpt><trkpt lat="45.816759" lon="8.8738055"><ele>376.0</ele><time>2026-04-23T10:37:42.912Z</time></trkpt><trkpt lat="45.8166645" lon="8.8737227"><ele>375.3333333333333</ele><time>2026-04-23T10:37:43.91Z</time></trkpt><trkpt lat="45.8165397" lon="8.8735741"><ele>374.6666666666667</ele><time>2026-04-23T10:37:44.91Z</time></trkpt><trkpt lat="45.8164103" lon="8.8734474"><ele>374.0</ele><time>2026-04-23T10:37:45.913Z</time></trkpt><trkpt lat="45.8162898" lon="8.8733648"><ele>373.6666666666667</ele><time>2026-04-23T10:37:46.912Z</time></trkpt><trkpt lat="45.8161611" lon="8.8732844"><ele>373.3333333333333</ele><time>2026-04-23T10:37:47.915Z</time></trkpt><trkpt lat="45.816045" lon="8.8731374"><ele>373.0</ele><time>2026-04-23T10:37:48.918Z</time></trkpt><trkpt lat="45.8159156" lon="8.8729711"><ele>371.3333333333333</ele><time>2026-04-23T10:37:49.915Z</time></trkpt><trkpt lat="45.8157868" lon="8.8728259"><ele>369.6666666666667</ele><time>2026-04-23T10:37:50.916Z</time></trkpt><trkpt lat="45.8156448" lon="8.8726843"><ele>368.0</ele><time>2026-04-23T10:37:51.921Z</time></trkpt><trkpt lat="45.8155132" lon="8.8726244"><ele>369.0</ele><time>2026-04-23T10:37:52.91Z</time></trkpt><trkpt lat="45.815392" lon="8.8725783"><ele>370.0</ele><time>2026-04-23T10:37:53.911Z</time></trkpt><trkpt lat="45.8152648" lon="8.8725332"><ele>371.0</ele><time>2026-04-23T10:37:54.916Z</time></trkpt><trkpt lat="45.8151272" lon="8.8724799"><ele>372.0</ele><time>2026-04-23T10:37:55.909Z</time></trkpt><trkpt lat="45.8150068" lon="8.8724424"><ele>369.25</ele><time>2026-04-23T10:37:56.917Z</time></trkpt><trkpt lat="45.8148907" lon="8.8724058"><ele>366.5</ele><time>2026-04-23T10:37:57.914Z</time></trkpt><trkpt lat="45.8148014" lon="8.8722882"><ele>363.75</ele><time>2026-04-23T10:37:58.915Z</time></trkpt><trkpt lat="45.8147229" lon="8.8721759"><ele>361.0</ele><time>2026-04-23T10:37:59.912Z</time></trkpt><trkpt lat="45.8146367" lon="8.8720482"><ele>361.0</ele><time>2026-04-23T10:38:00.916Z</time></trkpt><trkpt lat="45.8145799" lon="8.8718726"><ele>361.0</ele><time>2026-04-23T10:38:01.924Z</time></trkpt><trkpt lat="45.8145356" lon="8.8717118"><ele>361.0</ele><time>2026-04-23T10:38:02.931Z</time></trkpt><trkpt lat="45.8144961" lon="8.8715577"><ele>361.0</ele><time>2026-04-23T10:38:03.913Z</time></trkpt><trkpt lat="45.8144656" lon="8.8713946"><ele>360.5</ele><time>2026-04-23T10:38:04.914Z</time></trkpt><trkpt lat="45.8144532" lon="8.8712275"><ele>360.0</ele><time>2026-04-23T10:38:05.915Z</time></trkpt><trkpt lat="45.8144736" lon="8.8710538"><ele>359.5</ele><time>2026-04-23T10:38:06.911Z</time></trkpt><trkpt lat="45.8144944" lon="8.8708653"><ele>359.0</ele><time>2026-04-23T10:38:07.912Z</time></trkpt><trkpt lat="45.8145288" lon="8.8706908"><ele>355.5</ele><time>2026-04-23T10:38:08.914Z</time></trkpt><trkpt lat="45.8145611" lon="8.8705087"><ele>352.0</ele><time>2026-04-23T10:38:09.917Z</time></trkpt><trkpt lat="45.8145829" lon="8.8703464"><ele>348.5</ele><time>2026-04-23T10:38:10.916Z</time></trkpt><trkpt lat="45.8146169" lon="8.8701793"><ele>345.0</ele><time>2026-04-23T10:38:11.911Z</time></trkpt><trkpt lat="45.8146107" lon="8.8699764"><ele>341.0</ele><time>2026-04-23T10:38:12.918Z</time></trkpt><trkpt lat="45.8145798" lon="8.8697887"><ele>337.0</ele><time>2026-04-23T10:38:13.926Z</time></trkpt><trkpt lat="45.8145572" lon="8.8696145"><ele>333.0</ele><time>2026-04-23T10:38:14.923Z</time></trkpt><trkpt lat="45.8145409" lon="8.8694401"><ele>329.0</ele><time>2026-04-23T10:38:15.929Z</time></trkpt><trkpt lat="45.8145263" lon="8.8692791"><ele>327.79999999999995</ele><time>2026-04-23T10:38:16.921Z</time></trkpt><trkpt lat="45.8145105" lon="8.8691275"><ele>326.59999999999997</ele><time>2026-04-23T10:38:17.925Z</time></trkpt><trkpt lat="45.8144784" lon="8.8689942"><ele>325.4</ele><time>2026-04-23T10:38:18.925Z</time></trkpt><trkpt lat="45.8144455" lon="8.8688899"><ele>324.2</ele><time>2026-04-23T10:38:19.918Z</time></trkpt><trkpt lat="45.8143863" lon="8.8688053"><ele>323.0</ele><time>2026-04-23T10:38:20.916Z</time></trkpt><trkpt lat="45.8143241" lon="8.8687191"><ele>322.8571428571429</ele><time>2026-04-23T10:38:21.925Z</time></trkpt><trkpt lat="45.8142511" lon="8.8686501"><ele>322.7142857142857</ele><time>2026-04-23T10:38:22.919Z</time></trkpt><trkpt lat="45.8141739" lon="8.8686017"><ele>322.57142857142856</ele><time>2026-04-23T10:38:23.92Z</time></trkpt><trkpt lat="45.8141203" lon="8.8685498"><ele>322.42857142857144</ele><time>2026-04-23T10:38:24.924Z</time></trkpt><trkpt lat="45.814065" lon="8.8684905"><ele>322.2857142857143</ele><time>2026-04-23T10:38:25.918Z</time></trkpt><trkpt lat="45.8140088" lon="8.8684155"><ele>322.14285714285717</ele><time>2026-04-23T10:38:26.913Z</time></trkpt><trkpt lat="45.8139646" lon="8.8683487"><ele>322.0</ele><time>2026-04-23T10:38:27.919Z</time></trkpt><trkpt lat="45.8139479" lon="8.8682211"><ele>320.6</ele><time>2026-04-23T10:38:29.923Z</time></trkpt><trkpt lat="45.8140028" lon="8.8681419"><ele>319.20000000000005</ele><time>2026-04-23T10:38:31.932Z</time></trkpt><trkpt lat="45.8141106" lon="8.8681044"><ele>317.8</ele><time>2026-04-23T10:38:33.946Z</time></trkpt><trkpt lat="45.8142085" lon="8.8681014"><ele>316.4</ele><time>2026-04-23T10:38:35.936Z</time></trkpt><trkpt lat="45.8143086" lon="8.8680797"><ele>315.0</ele><time>2026-04-23T10:38:37.937Z</time></trkpt><trkpt lat="45.8143651" lon="8.8681218"><ele>315.0</ele><time>2026-04-23T10:38:38.931Z</time></trkpt><trkpt lat="45.814428" lon="8.8681563"><ele>315.0</ele><time>2026-04-23T10:38:39.93Z</time></trkpt><trkpt lat="45.8145061" lon="8.8681759"><ele>315.0</ele><time>2026-04-23T10:38:40.927Z</time></trkpt><trkpt lat="45.8145946" lon="8.8682561"><ele>315.0</ele><time>2026-04-23T10:38:41.931Z</time></trkpt><trkpt lat="45.8146758" lon="8.8683343"><ele>315.0</ele><time>2026-04-23T10:38:42.932Z</time></trkpt><trkpt lat="45.8147927" lon="8.868424"><ele>314.6666666666667</ele><time>2026-04-23T10:38:43.939Z</time></trkpt><trkpt lat="45.8149247" lon="8.8685279"><ele>314.33333333333337</ele><time>2026-04-23T10:38:44.93Z</time></trkpt><trkpt lat="45.815059" lon="8.8686374"><ele>314.0</ele><time>2026-04-23T10:38:45.933Z</time></trkpt><trkpt lat="45.8151913" lon="8.8687474"><ele>314.0</ele><time>2026-04-23T10:38:46.922Z</time></trkpt><trkpt lat="45.8153417" lon="8.8688608"><ele>314.0</ele><time>2026-04-23T10:38:47.923Z</time></trkpt><trkpt lat="45.8154964" lon="8.8689723"><ele>314.0</ele><time>2026-04-23T10:38:48.914Z</time></trkpt><trkpt lat="45.8156458" lon="8.8690951"><ele>314.0</ele><time>2026-04-23T10:38:49.919Z</time></trkpt><trkpt lat="45.8157891" lon="8.8692239"><ele>314.0</ele><time>2026-04-23T10:38:50.914Z</time></trkpt><trkpt lat="45.8159337" lon="8.8693402"><ele>314.0</ele><time>2026-04-23T10:38:51.912Z</time></trkpt><trkpt lat="45.8160579" lon="8.869445"><ele>317.5</ele><time>2026-04-23T10:38:52.912Z</time></trkpt><trkpt lat="45.816173" lon="8.8695248"><ele>321.0</ele><time>2026-04-23T10:38:53.914Z</time></trkpt><trkpt lat="45.8162871" lon="8.869594"><ele>324.5</ele><time>2026-04-23T10:38:54.93Z</time></trkpt><trkpt lat="45.816404" lon="8.8696729"><ele>328.0</ele><time>2026-04-23T10:38:55.929Z</time></trkpt><trkpt lat="45.8165045" lon="8.8696956"><ele>328.0</ele><time>2026-04-23T10:38:56.928Z</time></trkpt><trkpt lat="45.8166252" lon="8.8696941"><ele>328.0</ele><time>2026-04-23T10:38:57.928Z</time></trkpt><trkpt lat="45.8167686" lon="8.8696458"><ele>328.0</ele><time>2026-04-23T10:38:58.933Z</time></trkpt><trkpt lat="45.8169208" lon="8.8695514"><ele>328.0</ele><time>2026-04-23T10:38:59.927Z</time></trkpt><trkpt lat="45.8170687" lon="8.8694339"><ele>331.0</ele><time>2026-04-23T10:39:00.93Z</time></trkpt><trkpt lat="45.8172306" lon="8.8693014"><ele>334.0</ele><time>2026-04-23T10:39:01.92Z</time></trkpt><trkpt lat="45.8173992" lon="8.8691709"><ele>337.0</ele><time>2026-04-23T10:39:02.923Z</time></trkpt><trkpt lat="45.8175444" lon="8.8690927"><ele>330.0</ele><time>2026-04-23T10:39:03.927Z</time></trkpt><trkpt lat="45.8177167" lon="8.8690501"><ele>323.0</ele><time>2026-04-23T10:39:04.939Z</time></trkpt><trkpt lat="45.8178659" lon="8.8690303"><ele>316.0</ele><time>2026-04-23T10:39:05.93Z</time></trkpt><trkpt lat="45.8180178" lon="8.8690051"><ele>316.0</ele><time>2026-04-23T10:39:06.932Z</time></trkpt><trkpt lat="45.8181577" lon="8.8689541"><ele>316.0</ele><time>2026-04-23T10:39:07.926Z</time></trkpt><trkpt lat="45.8183313" lon="8.8688761"><ele>316.0</ele><time>2026-04-23T10:39:08.932Z</time></trkpt><trkpt lat="45.8184676" lon="8.868828"><ele>315.75</ele><time>2026-04-23T10:39:09.923Z</time></trkpt><trkpt lat="45.8186013" lon="8.8687904"><ele>315.5</ele><time>2026-04-23T10:39:10.926Z</time></trkpt><trkpt lat="45.8187524" lon="8.8687646"><ele>315.25</ele><time>2026-04-23T10:39:11.926Z</time></trkpt><trkpt lat="45.8188974" lon="8.8687463"><ele>315.0</ele><time>2026-04-23T10:39:12.925Z</time></trkpt><trkpt lat="45.8190273" lon="8.8687491"><ele>315.0</ele><time>2026-04-23T10:39:13.923Z</time></trkpt><trkpt lat="45.8191673" lon="8.8687685"><ele>315.0</ele><time>2026-04-23T10:39:14.924Z</time></trkpt><trkpt lat="45.8193078" lon="8.8688157"><ele>315.0</ele><time>2026-04-23T10:39:15.924Z</time></trkpt><trkpt lat="45.8194296" lon="8.8688777"><ele>315.0</ele><time>2026-04-23T10:39:16.916Z</time></trkpt><trkpt lat="45.8195488" lon="8.868939"><ele>314.6666666666667</ele><time>2026-04-23T10:39:17.911Z</time></trkpt><trkpt lat="45.8196717" lon="8.8690386"><ele>314.33333333333337</ele><time>2026-04-23T10:39:18.918Z</time></trkpt><trkpt lat="45.8198155" lon="8.8691714"><ele>314.0</ele><time>2026-04-23T10:39:19.92Z</time></trkpt><trkpt lat="45.8199582" lon="8.8692747"><ele>318.75</ele><time>2026-04-23T10:39:20.922Z</time></trkpt><trkpt lat="45.8201037" lon="8.8693037"><ele>323.5</ele><time>2026-04-23T10:39:21.926Z</time></trkpt><trkpt lat="45.8202368" lon="8.8693178"><ele>328.25</ele><time>2026-04-23T10:39:22.928Z</time></trkpt><trkpt lat="45.8203816" lon="8.8693049"><ele>333.0</ele><time>2026-04-23T10:39:23.932Z</time></trkpt><trkpt lat="45.8205427" lon="8.8693284"><ele>333.0</ele><time>2026-04-23T10:39:24.931Z</time></trkpt><trkpt lat="45.8206919" lon="8.8693662"><ele>333.0</ele><time>2026-04-23T10:39:25.922Z</time></trkpt><trkpt lat="45.8208332" lon="8.8694088"><ele>333.0</ele><time>2026-04-23T10:39:26.929Z</time></trkpt><trkpt lat="45.8209387" lon="8.8694116"><ele>333.0</ele><time>2026-04-23T10:39:27.922Z</time></trkpt><trkpt lat="45.8210659" lon="8.8693939"><ele>332.25</ele><time>2026-04-23T10:39:28.93Z</time></trkpt><trkpt lat="45.8211936" lon="8.8693396"><ele>331.5</ele><time>2026-04-23T10:39:29.928Z</time></trkpt><trkpt lat="45.8213179" lon="8.8692634"><ele>330.75</ele><time>2026-04-23T10:39:30.927Z</time></trkpt><trkpt lat="45.8214215" lon="8.8691443"><ele>330.0</ele><time>2026-04-23T10:39:31.92Z</time></trkpt><trkpt lat="45.8215159" lon="8.8690227"><ele>328.6</ele><time>2026-04-23T10:39:32.923Z</time></trkpt><trkpt lat="45.8215933" lon="8.8688955"><ele>327.2</ele><time>2026-04-23T10:39:33.928Z</time></trkpt><trkpt lat="45.8216561" lon="8.8687781"><ele>325.79999999999995</ele><time>2026-04-23T10:39:34.923Z</time></trkpt><trkpt lat="45.821695" lon="8.8686692"><ele>324.4</ele><time>2026-04-23T10:39:35.967Z</time></trkpt><trkpt lat="45.8217241" lon="8.8685511"><ele>323.0</ele><time>2026-04-23T10:39:36.929Z</time></trkpt><trkpt lat="45.8217374" lon="8.8684338"><ele>323.0</ele><time>2026-04-23T10:39:37.93Z</time></trkpt><trkpt lat="45.8217514" lon="8.8683402"><ele>323.0</ele><time>2026-04-23T10:39:38.933Z</time></trkpt><trkpt lat="45.8217618" lon="8.8681818"><ele>323.0</ele><time>2026-04-23T10:39:40.921Z</time></trkpt><trkpt lat="45.8218572" lon="8.8681744"><ele>323.0</ele><time>2026-04-23T10:39:52.919Z</time></trkpt><trkpt lat="45.8219668" lon="8.8681073"><ele>323.0</ele><time>2026-04-23T10:39:54.918Z</time></trkpt><trkpt lat="45.8220446" lon="8.8680722"><ele>321.59999999999997</ele><time>2026-04-23T10:39:55.919Z</time></trkpt><trkpt lat="45.8221262" lon="8.8680305"><ele>320.2</ele><time>2026-04-23T10:39:56.919Z</time></trkpt><trkpt lat="45.8222416" lon="8.8679766"><ele>318.8</ele><time>2026-04-23T10:39:57.911Z</time></trkpt><trkpt lat="45.8223686" lon="8.8679438"><ele>317.4</ele><time>2026-04-23T10:39:58.912Z</time></trkpt><trkpt lat="45.8224518" lon="8.8679234"><ele>316.0</ele><time>2026-04-23T10:39:59.911Z</time></trkpt><trkpt lat="45.8225866" lon="8.8678887"><ele>313.25</ele><time>2026-04-23T10:40:00.914Z</time></trkpt><trkpt lat="45.8227281" lon="8.8678468"><ele>310.5</ele><time>2026-04-23T10:40:01.913Z</time></trkpt><trkpt lat="45.8228685" lon="8.8678066"><ele>307.75</ele><time>2026-04-23T10:40:02.915Z</time></trkpt><trkpt lat="45.823012" lon="8.8677646"><ele>305.0</ele><time>2026-04-23T10:40:03.917Z</time></trkpt><trkpt lat="45.8231469" lon="8.8677306"><ele>305.0</ele><time>2026-04-23T10:40:04.91Z</time></trkpt><trkpt lat="45.8232749" lon="8.8676774"><ele>305.0</ele><time>2026-04-23T10:40:05.928Z</time></trkpt><trkpt lat="45.8234021" lon="8.8676204"><ele>305.0</ele><time>2026-04-23T10:40:06.907Z</time></trkpt><trkpt lat="45.8235417" lon="8.8675753"><ele>305.0</ele><time>2026-04-23T10:40:07.914Z</time></trkpt><trkpt lat="45.8236837" lon="8.8675167"><ele>308.33333333333337</ele><time>2026-04-23T10:40:08.918Z</time></trkpt><trkpt lat="45.8238452" lon="8.8674427"><ele>311.6666666666667</ele><time>2026-04-23T10:40:09.924Z</time></trkpt><trkpt lat="45.8240202" lon="8.8674029"><ele>315.0</ele><time>2026-04-23T10:40:10.928Z</time></trkpt><trkpt lat="45.8241784" lon="8.8673754"><ele>314.75</ele><time>2026-04-23T10:40:11.934Z</time></trkpt><trkpt lat="45.824339" lon="8.8673368"><ele>314.5</ele><time>2026-04-23T10:40:12.935Z</time></trkpt><trkpt lat="45.8244861" lon="8.8672946"><ele>314.25</ele><time>2026-04-23T10:40:13.942Z</time></trkpt><trkpt lat="45.824607" lon="8.8672596"><ele>314.0</ele><time>2026-04-23T10:40:14.935Z</time></trkpt><trkpt lat="45.8247221" lon="8.8672314"><ele>314.0</ele><time>2026-04-23T10:40:15.941Z</time></trkpt><trkpt lat="45.8248321" lon="8.867231"><ele>314.0</ele><time>2026-04-23T10:40:16.933Z</time></trkpt><trkpt lat="45.8249287" lon="8.8672337"><ele>314.0</ele><time>2026-04-23T10:40:17.933Z</time></trkpt><trkpt lat="45.8250292" lon="8.8672357"><ele>314.0</ele><time>2026-04-23T10:40:18.932Z</time></trkpt><trkpt lat="45.825132" lon="8.867235"><ele>314.0</ele><time>2026-04-23T10:40:19.933Z</time></trkpt><trkpt lat="45.8252286" lon="8.8672515"><ele>313.59999999999997</ele><time>2026-04-23T10:40:20.933Z</time></trkpt><trkpt lat="45.8253213" lon="8.8672639"><ele>313.2</ele><time>2026-04-23T10:40:21.934Z</time></trkpt><trkpt lat="45.8254018" lon="8.867254"><ele>312.79999999999995</ele><time>2026-04-23T10:40:22.928Z</time></trkpt><trkpt lat="45.8254897" lon="8.8672331"><ele>312.4</ele><time>2026-04-23T10:40:23.926Z</time></trkpt><trkpt lat="45.8255767" lon="8.8671924"><ele>312.0</ele><time>2026-04-23T10:40:24.94Z</time></trkpt><trkpt lat="45.8256644" lon="8.8671388"><ele>312.0</ele><time>2026-04-23T10:40:25.939Z</time></trkpt><trkpt lat="45.8257644" lon="8.8670839"><ele>312.0</ele><time>2026-04-23T10:40:26.938Z</time></trkpt><trkpt lat="45.8258709" lon="8.867051"><ele>312.0</ele><time>2026-04-23T10:40:27.942Z</time></trkpt><trkpt lat="45.8259802" lon="8.8670529"><ele>312.0</ele><time>2026-04-23T10:40:28.939Z</time></trkpt><trkpt lat="45.826113" lon="8.8670832"><ele>312.0</ele><time>2026-04-23T10:40:29.938Z</time></trkpt><trkpt lat="45.8262459" lon="8.8671331"><ele>312.0</ele><time>2026-04-23T10:40:30.94Z</time></trkpt><trkpt lat="45.8263789" lon="8.8671825"><ele>312.0</ele><time>2026-04-23T10:40:31.927Z</time></trkpt><trkpt lat="45.8265139" lon="8.8672281"><ele>312.0</ele><time>2026-04-23T10:40:32.93Z</time></trkpt><trkpt lat="45.8266533" lon="8.8672706"><ele>312.0</ele><time>2026-04-23T10:40:33.931Z</time></trkpt><trkpt lat="45.8267765" lon="8.8673051"><ele>312.0</ele><time>2026-04-23T10:40:34.932Z</time></trkpt><trkpt lat="45.8268977" lon="8.8673439"><ele>312.0</ele><time>2026-04-23T10:40:35.926Z</time></trkpt><trkpt lat="45.8269896" lon="8.8673739"><ele>312.0</ele><time>2026-04-23T10:40:36.947Z</time></trkpt><trkpt lat="45.8270574" lon="8.8673981"><ele>312.0</ele><time>2026-04-23T10:40:37.929Z</time></trkpt><trkpt lat="45.8271524" lon="8.8674022"><ele>312.5</ele><time>2026-04-23T10:40:39.931Z</time></trkpt><trkpt lat="45.8271935" lon="8.8673025"><ele>313.0</ele><time>2026-04-23T10:40:44.945Z</time></trkpt><trkpt lat="45.8271939" lon="8.867197"><ele>313.5</ele><time>2026-04-23T10:40:46.94Z</time></trkpt><trkpt lat="45.8271791" lon="8.8670973"><ele>314.0</ele><time>2026-04-23T10:40:47.935Z</time></trkpt><trkpt lat="45.8271852" lon="8.8669694"><ele>314.5</ele><time>2026-04-23T10:40:48.94Z</time></trkpt><trkpt lat="45.8271716" lon="8.8668373"><ele>315.0</ele><time>2026-04-23T10:40:49.939Z</time></trkpt><trkpt lat="45.8271547" lon="8.8666658"><ele>318.2</ele><time>2026-04-23T10:40:50.937Z</time></trkpt><trkpt lat="45.8271386" lon="8.866497"><ele>321.4</ele><time>2026-04-23T10:40:51.93Z</time></trkpt><trkpt lat="45.8271287" lon="8.8663455"><ele>324.6</ele><time>2026-04-23T10:40:52.933Z</time></trkpt><trkpt lat="45.827118" lon="8.8662072"><ele>327.8</ele><time>2026-04-23T10:40:53.938Z</time></trkpt><trkpt lat="45.8271027" lon="8.8660758"><ele>331.0</ele><time>2026-04-23T10:40:54.934Z</time></trkpt><trkpt lat="45.8270869" lon="8.8659465"><ele>334.5</ele><time>2026-04-23T10:40:55.926Z</time></trkpt><trkpt lat="45.8270743" lon="8.8658206"><ele>338.0</ele><time>2026-04-23T10:40:56.923Z</time></trkpt><trkpt lat="45.827069" lon="8.8657051"><ele>341.5</ele><time>2026-04-23T10:40:57.92Z</time></trkpt><trkpt lat="45.8270614" lon="8.8655872"><ele>345.0</ele><time>2026-04-23T10:40:58.929Z</time></trkpt><trkpt lat="45.8270807" lon="8.8654996"><ele>348.5</ele><time>2026-04-23T10:40:59.923Z</time></trkpt><trkpt lat="45.8271226" lon="8.8654221"><ele>352.0</ele><time>2026-04-23T10:41:01.926Z</time></trkpt><trkpt lat="45.8272171" lon="8.8655248"><ele>352.0</ele><time>2026-04-23T10:41:03.918Z</time></trkpt><trkpt lat="45.8272947" lon="8.8655614"><ele>352.0</ele><time>2026-04-23T10:41:04.917Z</time></trkpt><trkpt lat="45.8273726" lon="8.8656141"><ele>352.0</ele><time>2026-04-23T10:41:05.911Z</time></trkpt><trkpt lat="45.8274222" lon="8.8656761"><ele>352.0</ele><time>2026-04-23T10:41:06.912Z</time></trkpt><trkpt lat="45.8274965" lon="8.8657131"><ele>352.0</ele><time>2026-04-23T10:41:07.934Z</time></trkpt><trkpt lat="45.8275714" lon="8.8657459"><ele>352.0</ele><time>2026-04-23T10:41:08.915Z</time></trkpt><trkpt lat="45.8276365" lon="8.865762"><ele>352.5</ele><time>2026-04-23T10:41:09.921Z</time></trkpt><trkpt lat="45.8277109" lon="8.8657745"><ele>353.0</ele><time>2026-04-23T10:41:10.919Z</time></trkpt><trkpt lat="45.827786" lon="8.8657982"><ele>353.5</ele><time>2026-04-23T10:41:11.921Z</time></trkpt><trkpt lat="45.8278637" lon="8.8658367"><ele>354.0</ele><time>2026-04-23T10:41:12.92Z</time></trkpt><trkpt lat="45.8279574" lon="8.8658412"><ele>354.5</ele><time>2026-04-23T10:41:13.923Z</time></trkpt><trkpt lat="45.8280248" lon="8.865833"><ele>355.0</ele><time>2026-04-23T10:41:14.92Z</time></trkpt><trkpt lat="45.8280947" lon="8.8657984"><ele>355.0</ele><time>2026-04-23T10:41:15.928Z</time></trkpt><trkpt lat="45.8281602" lon="8.8657632"><ele>355.0</ele><time>2026-04-23T10:41:16.921Z</time></trkpt><trkpt lat="45.8282298" lon="8.8657345"><ele>355.0</ele><time>2026-04-23T10:41:17.919Z</time></trkpt><trkpt lat="45.8283302" lon="8.8656886"><ele>355.0</ele><time>2026-04-23T10:41:18.919Z</time></trkpt><trkpt lat="45.82843" lon="8.8656804"><ele>355.0</ele><time>2026-04-23T10:41:19.919Z</time></trkpt><trkpt lat="45.8285161" lon="8.8656751"><ele>355.0</ele><time>2026-04-23T10:41:20.915Z</time></trkpt><trkpt lat="45.8285973" lon="8.8656777"><ele>356.5</ele><time>2026-04-23T10:41:21.913Z</time></trkpt><trkpt lat="45.828675" lon="8.8656597"><ele>358.0</ele><time>2026-04-23T10:41:22.912Z</time></trkpt><trkpt lat="45.8287421" lon="8.8656791"><ele>359.5</ele><time>2026-04-23T10:41:23.918Z</time></trkpt><trkpt lat="45.8288147" lon="8.8657106"><ele>361.0</ele><time>2026-04-23T10:41:24.915Z</time></trkpt><trkpt lat="45.8288881" lon="8.8657403"><ele>362.5</ele><time>2026-04-23T10:41:25.915Z</time></trkpt><trkpt lat="45.8289765" lon="8.8657751"><ele>364.0</ele><time>2026-04-23T10:41:26.919Z</time></trkpt><trkpt lat="45.829067" lon="8.8658175"><ele>364.0</ele><time>2026-04-23T10:41:27.917Z</time></trkpt><trkpt lat="45.8291751" lon="8.8658614"><ele>364.0</ele><time>2026-04-23T10:41:28.917Z</time></trkpt><trkpt lat="45.8292602" lon="8.8658933"><ele>364.0</ele><time>2026-04-23T10:41:29.912Z</time></trkpt><trkpt lat="45.8293469" lon="8.8659407"><ele>364.0</ele><time>2026-04-23T10:41:30.916Z</time></trkpt><trkpt lat="45.829418" lon="8.8659874"><ele>364.0</ele><time>2026-04-23T10:41:31.919Z</time></trkpt><trkpt lat="45.8294936" lon="8.8660478"><ele>363.6</ele><time>2026-04-23T10:41:32.92Z</time></trkpt><trkpt lat="45.8295695" lon="8.8661121"><ele>363.2</ele><time>2026-04-23T10:41:33.918Z</time></trkpt><trkpt lat="45.8296451" lon="8.8661704"><ele>362.8</ele><time>2026-04-23T10:41:34.919Z</time></trkpt><trkpt lat="45.8297234" lon="8.8662313"><ele>362.40000000000003</ele><time>2026-04-23T10:41:35.916Z</time></trkpt><trkpt lat="45.829799" lon="8.8663"><ele>362.0</ele><time>2026-04-23T10:41:36.915Z</time></trkpt><trkpt lat="45.8299035" lon="8.8663698"><ele>362.0</ele><time>2026-04-23T10:41:37.917Z</time></trkpt><trkpt lat="45.8299987" lon="8.8664509"><ele>362.0</ele><time>2026-04-23T10:41:38.932Z</time></trkpt><trkpt lat="45.8300976" lon="8.8665324"><ele>362.0</ele><time>2026-04-23T10:41:39.917Z</time></trkpt><trkpt lat="45.8301991" lon="8.8666206"><ele>362.0</ele><time>2026-04-23T10:41:40.918Z</time></trkpt><trkpt lat="45.8303055" lon="8.8667148"><ele>361.6</ele><time>2026-04-23T10:41:41.913Z</time></trkpt><trkpt lat="45.8304037" lon="8.8668096"><ele>361.20000000000005</ele><time>2026-04-23T10:41:42.915Z</time></trkpt><trkpt lat="45.8304957" lon="8.8669099"><ele>360.8</ele><time>2026-04-23T10:41:43.917Z</time></trkpt><trkpt lat="45.830583" lon="8.8669968"><ele>360.4</ele><time>2026-04-23T10:41:44.912Z</time></trkpt><trkpt lat="45.830652" lon="8.8670762"><ele>360.0</ele><time>2026-04-23T10:41:45.918Z</time></trkpt><trkpt lat="45.8307327" lon="8.8671371"><ele>360.0</ele><time>2026-04-23T10:41:46.917Z</time></trkpt><trkpt lat="45.8308077" lon="8.8672075"><ele>360.0</ele><time>2026-04-23T10:41:47.915Z</time></trkpt><trkpt lat="45.8308713" lon="8.8672543"><ele>360.0</ele><time>2026-04-23T10:41:48.921Z</time></trkpt><trkpt lat="45.8309483" lon="8.8672961"><ele>360.0</ele><time>2026-04-23T10:41:49.922Z</time></trkpt><trkpt lat="45.8310342" lon="8.8673278"><ele>360.0</ele><time>2026-04-23T10:41:50.923Z</time></trkpt><trkpt lat="45.8311137" lon="8.8673673"><ele>360.0</ele><time>2026-04-23T10:41:51.922Z</time></trkpt><trkpt lat="45.8311899" lon="8.8674111"><ele>362.0</ele><time>2026-04-23T10:41:52.915Z</time></trkpt><trkpt lat="45.831272" lon="8.8674642"><ele>364.0</ele><time>2026-04-23T10:41:53.918Z</time></trkpt><trkpt lat="45.8313438" lon="8.8675549"><ele>366.0</ele><time>2026-04-23T10:41:54.923Z</time></trkpt><trkpt lat="45.8314178" lon="8.8676625"><ele>368.0</ele><time>2026-04-23T10:41:55.916Z</time></trkpt><trkpt lat="45.8314753" lon="8.8677608"><ele>370.0</ele><time>2026-04-23T10:41:56.92Z</time></trkpt><trkpt lat="45.8315463" lon="8.8678365"><ele>369.99999999999994</ele><time>2026-04-23T10:41:57.914Z</time></trkpt><trkpt lat="45.8315838" lon="8.8679156"><ele>370.0</ele><time>2026-04-23T10:41:58.918Z</time></trkpt><trkpt lat="45.8316153" lon="8.8680029"><ele>370.0</ele><time>2026-04-23T10:41:59.914Z</time></trkpt><trkpt lat="45.8316398" lon="8.8680913"><ele>370.0</ele><time>2026-04-23T10:42:00.914Z</time></trkpt><trkpt lat="45.8316637" lon="8.8681925"><ele>370.0</ele><time>2026-04-23T10:42:01.909Z</time></trkpt><trkpt lat="45.831704" lon="8.8682853"><ele>369.99999999999994</ele><time>2026-04-23T10:42:02.913Z</time></trkpt><trkpt lat="45.8317329" lon="8.8683924"><ele>370.0</ele><time>2026-04-23T10:42:03.909Z</time></trkpt><trkpt lat="45.8317953" lon="8.8684956"><ele>372.4</ele><time>2026-04-23T10:42:04.913Z</time></trkpt><trkpt lat="45.831863" lon="8.8686054"><ele>374.8</ele><time>2026-04-23T10:42:05.903Z</time></trkpt><trkpt lat="45.8319213" lon="8.8687128"><ele>377.20000000000005</ele><time>2026-04-23T10:42:06.908Z</time></trkpt><trkpt lat="45.8319637" lon="8.8688254"><ele>379.6</ele><time>2026-04-23T10:42:07.91Z</time></trkpt><trkpt lat="45.8320129" lon="8.8689361"><ele>382.0</ele><time>2026-04-23T10:42:08.906Z</time></trkpt><trkpt lat="45.8320907" lon="8.8690651"><ele>382.0</ele><time>2026-04-23T10:42:09.928Z</time></trkpt><trkpt lat="45.832157" lon="8.8691795"><ele>382.0</ele><time>2026-04-23T10:42:10.913Z</time></trkpt><trkpt lat="45.8322238" lon="8.8692692"><ele>382.0</ele><time>2026-04-23T10:42:11.91Z</time></trkpt><trkpt lat="45.8322792" lon="8.8693491"><ele>382.0</ele><time>2026-04-23T10:42:12.912Z</time></trkpt><trkpt lat="45.8323586" lon="8.8694113"><ele>382.0</ele><time>2026-04-23T10:42:13.92Z</time></trkpt><trkpt lat="45.8324686" lon="8.8694628"><ele>381.20000000000005</ele><time>2026-04-23T10:42:15.914Z</time></trkpt><trkpt lat="45.8325764" lon="8.8694617"><ele>380.4</ele><time>2026-04-23T10:42:17.906Z</time></trkpt><trkpt lat="45.8326449" lon="8.869502"><ele>379.6</ele><time>2026-04-23T10:42:19.907Z</time></trkpt><trkpt lat="45.832709" lon="8.8696099"><ele>378.79999999999995</ele><time>2026-04-23T10:42:22.906Z</time></trkpt><trkpt lat="45.8327142" lon="8.8697567"><ele>378.0</ele><time>2026-04-23T10:42:24.91Z</time></trkpt><trkpt lat="45.8326728" lon="8.8698796"><ele>378.0</ele><time>2026-04-23T10:42:25.913Z</time></trkpt><trkpt lat="45.8326236" lon="8.8700252"><ele>378.0</ele><time>2026-04-23T10:42:26.915Z</time></trkpt><trkpt lat="45.8325655" lon="8.8701615"><ele>378.0</ele><time>2026-04-23T10:42:27.915Z</time></trkpt><trkpt lat="45.8325174" lon="8.8702992"><ele>378.0</ele><time>2026-04-23T10:42:28.914Z</time></trkpt><trkpt lat="45.8324904" lon="8.8704369"><ele>378.0</ele><time>2026-04-23T10:42:30.919Z</time></trkpt><trkpt lat="45.8324792" lon="8.8706293"><ele>378.2</ele><time>2026-04-23T10:42:32.918Z</time></trkpt><trkpt lat="45.8325075" lon="8.870826"><ele>378.4</ele><time>2026-04-23T10:42:34.92Z</time></trkpt><trkpt lat="45.8325341" lon="8.8709346"><ele>378.59999999999997</ele><time>2026-04-23T10:42:35.919Z</time></trkpt><trkpt lat="45.8325693" lon="8.8710624"><ele>378.79999999999995</ele><time>2026-04-23T10:42:36.92Z</time></trkpt><trkpt lat="45.8325946" lon="8.8711688"><ele>379.0</ele><time>2026-04-23T10:42:37.916Z</time></trkpt><trkpt lat="45.832625" lon="8.8712949"><ele>376.0</ele><time>2026-04-23T10:42:38.912Z</time></trkpt><trkpt lat="45.8326501" lon="8.8714204"><ele>373.0</ele><time>2026-04-23T10:42:39.917Z</time></trkpt><trkpt lat="45.8326618" lon="8.8715427"><ele>370.0</ele><time>2026-04-23T10:42:40.936Z</time></trkpt><trkpt lat="45.83265" lon="8.8716698"><ele>367.0</ele><time>2026-04-23T10:42:41.917Z</time></trkpt><trkpt lat="45.8326531" lon="8.8717669"><ele>364.0</ele><time>2026-04-23T10:42:42.916Z</time></trkpt><trkpt lat="45.8326327" lon="8.8719323"><ele>367.8333333333333</ele><time>2026-04-23T10:42:44.924Z</time></trkpt><trkpt lat="45.8326624" lon="8.8720127"><ele>371.66666666666663</ele><time>2026-04-23T10:42:46.923Z</time></trkpt><trkpt lat="45.8327317" lon="8.872067"><ele>375.5</ele><time>2026-04-23T10:42:49.922Z</time></trkpt><trkpt lat="45.8328371" lon="8.8720759"><ele>379.3333333333333</ele><time>2026-04-23T10:42:52.912Z</time></trkpt><trkpt lat="45.832928" lon="8.872064"><ele>383.1666666666667</ele><time>2026-04-23T10:42:54.912Z</time></trkpt><trkpt lat="45.8329977" lon="8.8720355"><ele>387.0</ele><time>2026-04-23T10:42:56.907Z</time></trkpt><trkpt lat="45.8330734" lon="8.8719814"><ele>387.0</ele><time>2026-04-23T10:42:57.91Z</time></trkpt><trkpt lat="45.8331523" lon="8.8719154"><ele>387.0</ele><time>2026-04-23T10:42:58.912Z</time></trkpt><trkpt lat="45.8332576" lon="8.8718166"><ele>387.0</ele><time>2026-04-23T10:42:59.914Z</time></trkpt><trkpt lat="45.8334065" lon="8.8717098"><ele>387.0</ele><time>2026-04-23T10:43:00.914Z</time></trkpt><trkpt lat="45.8335481" lon="8.8716016"><ele>388.8333333333333</ele><time>2026-04-23T10:43:01.917Z</time></trkpt><trkpt lat="45.833648" lon="8.8715585"><ele>390.66666666666663</ele><time>2026-04-23T10:43:02.92Z</time></trkpt><trkpt lat="45.8337186" lon="8.8714974"><ele>392.5</ele><time>2026-04-23T10:43:03.918Z</time></trkpt><trkpt lat="45.8337795" lon="8.8714289"><ele>394.3333333333333</ele><time>2026-04-23T10:43:04.917Z</time></trkpt><trkpt lat="45.8338481" lon="8.871372"><ele>396.16666666666663</ele><time>2026-04-23T10:43:05.915Z</time></trkpt><trkpt lat="45.8339238" lon="8.8714261"><ele>398.0</ele><time>2026-04-23T10:43:14.937Z</time></trkpt><trkpt lat="45.833999" lon="8.8714159"><ele>398.0</ele><time>2026-04-23T10:43:27.945Z</time></trkpt><trkpt lat="45.8340936" lon="8.8713696"><ele>398.0</ele><time>2026-04-23T10:45:55.883Z</time></trkpt><trkpt lat="45.8342259" lon="8.8712189"><ele>398.0</ele><time>2026-04-23T10:45:57.891Z</time></trkpt><trkpt lat="45.8343018" lon="8.8711235"><ele>398.0</ele><time>2026-04-23T10:45:58.893Z</time></trkpt><trkpt lat="45.8344022" lon="8.8710315"><ele>397.79999999999995</ele><time>2026-04-23T10:45:59.878Z</time></trkpt><trkpt lat="45.8345214" lon="8.8709617"><ele>397.6</ele><time>2026-04-23T10:46:00.878Z</time></trkpt><trkpt lat="45.8346325" lon="8.8708789"><ele>397.4</ele><time>2026-04-23T10:46:01.876Z</time></trkpt><trkpt lat="45.8347305" lon="8.8708345"><ele>397.20000000000005</ele><time>2026-04-23T10:46:02.879Z</time></trkpt><trkpt lat="45.834799" lon="8.8707894"><ele>397.0</ele><time>2026-04-23T10:46:03.88Z</time></trkpt><trkpt lat="45.8348854" lon="8.8707514"><ele>399.6</ele><time>2026-04-23T10:46:04.874Z</time></trkpt><trkpt lat="45.83503" lon="8.870714"><ele>402.20000000000005</ele><time>2026-04-23T10:46:06.874Z</time></trkpt><trkpt lat="45.8351051" lon="8.8706832"><ele>404.8</ele><time>2026-04-23T10:46:07.878Z</time></trkpt><trkpt lat="45.8352029" lon="8.8706661"><ele>407.4</ele><time>2026-04-23T10:46:08.878Z</time></trkpt><trkpt lat="45.8353269" lon="8.8706925"><ele>410.0</ele><time>2026-04-23T10:46:11.899Z</time></trkpt><trkpt lat="45.8351968" lon="8.8706373"><ele>410.0</ele><time>2026-04-23T10:46:14.903Z</time></trkpt><trkpt lat="45.8350881" lon="8.8706285"><ele>410.0</ele><time>2026-04-23T10:46:15.891Z</time></trkpt><trkpt lat="45.8349892" lon="8.8706268"><ele>410.0</ele><time>2026-04-23T10:46:16.897Z</time></trkpt><trkpt lat="45.8348863" lon="8.8706237"><ele>410.0</ele><time>2026-04-23T10:46:17.882Z</time></trkpt><trkpt lat="45.8347813" lon="8.8706329"><ele>410.0</ele><time>2026-04-23T10:46:18.89Z</time></trkpt><trkpt lat="45.834681" lon="8.8706565"><ele>409.99999999999994</ele><time>2026-04-23T10:46:19.888Z</time></trkpt><trkpt lat="45.8345916" lon="8.8706635"><ele>410.0</ele><time>2026-04-23T10:46:20.885Z</time></trkpt><trkpt lat="45.8344937" lon="8.8706655"><ele>410.0</ele><time>2026-04-23T10:46:21.89Z</time></trkpt><trkpt lat="45.8344148" lon="8.8706377"><ele>410.0</ele><time>2026-04-23T10:46:22.881Z</time></trkpt><trkpt lat="45.834347" lon="8.8706097"><ele>409.99999999999994</ele><time>2026-04-23T10:46:23.882Z</time></trkpt><trkpt lat="45.834281" lon="8.8705631"><ele>410.0</ele><time>2026-04-23T10:46:24.887Z</time></trkpt><trkpt lat="45.8342054" lon="8.8704275"><ele>411.3333333333333</ele><time>2026-04-23T10:46:26.881Z</time></trkpt><trkpt lat="45.834168" lon="8.8703459"><ele>412.66666666666663</ele><time>2026-04-23T10:46:27.875Z</time></trkpt><trkpt lat="45.8341631" lon="8.8702253"><ele>414.0</ele><time>2026-04-23T10:46:28.876Z</time></trkpt><trkpt lat="45.8341539" lon="8.8700875"><ele>415.33333333333337</ele><time>2026-04-23T10:46:29.873Z</time></trkpt><trkpt lat="45.8341432" lon="8.8699529"><ele>416.6666666666667</ele><time>2026-04-23T10:46:30.873Z</time></trkpt><trkpt lat="45.8341462" lon="8.8698361"><ele>418.0</ele><time>2026-04-23T10:46:31.876Z</time></trkpt><trkpt lat="45.8342078" lon="8.8697418"><ele>421.0</ele><time>2026-04-23T10:46:32.877Z</time></trkpt><trkpt lat="45.8342826" lon="8.8695198"><ele>424.0</ele><time>2026-04-23T10:46:33.879Z</time></trkpt><trkpt lat="45.8343458" lon="8.8693029"><ele>427.0</ele><time>2026-04-23T10:46:34.878Z</time></trkpt><trkpt lat="45.8344088" lon="8.8690957"><ele>428.25</ele><time>2026-04-23T10:46:35.879Z</time></trkpt><trkpt lat="45.834484" lon="8.8688923"><ele>429.5</ele><time>2026-04-23T10:46:36.877Z</time></trkpt><trkpt lat="45.8345382" lon="8.868707"><ele>430.75</ele><time>2026-04-23T10:46:37.881Z</time></trkpt><trkpt lat="45.8345934" lon="8.8685666"><ele>432.0</ele><time>2026-04-23T10:46:38.884Z</time></trkpt><trkpt lat="45.8346646" lon="8.868431"><ele>432.8333333333333</ele><time>2026-04-23T10:46:39.884Z</time></trkpt><trkpt lat="45.8347249" lon="8.8683097"><ele>433.66666666666663</ele><time>2026-04-23T10:46:40.884Z</time></trkpt><trkpt lat="45.8347457" lon="8.8681932"><ele>434.5</ele><time>2026-04-23T10:46:41.884Z</time></trkpt><trkpt lat="45.8347615" lon="8.8680905"><ele>435.3333333333333</ele><time>2026-04-23T10:46:42.885Z</time></trkpt><trkpt lat="45.8348182" lon="8.8680062"><ele>436.16666666666663</ele><time>2026-04-23T10:46:43.886Z</time></trkpt><trkpt lat="45.8348601" lon="8.867926"><ele>437.0</ele><time>2026-04-23T10:46:44.887Z</time></trkpt><trkpt lat="45.8348677" lon="8.8677993"><ele>436.99999999999994</ele><time>2026-04-23T10:46:46.889Z</time></trkpt><trkpt lat="45.8348999" lon="8.8676741"><ele>437.0</ele><time>2026-04-23T10:46:49.898Z</time></trkpt><trkpt lat="45.8349602" lon="8.8676057"><ele>437.0</ele><time>2026-04-23T10:46:50.894Z</time></trkpt><trkpt lat="45.8350209" lon="8.8675291"><ele>437.0</ele><time>2026-04-23T10:46:51.896Z</time></trkpt><trkpt lat="45.8350601" lon="8.8674464"><ele>436.99999999999994</ele><time>2026-04-23T10:46:52.901Z</time></trkpt><trkpt lat="45.8350891" lon="8.8673548"><ele>437.0</ele><time>2026-04-23T10:46:53.899Z</time></trkpt><trkpt lat="45.8351307" lon="8.86725"><ele>436.6</ele><time>2026-04-23T10:46:54.91Z</time></trkpt><trkpt lat="45.8351784" lon="8.8671321"><ele>436.20000000000005</ele><time>2026-04-23T10:46:55.908Z</time></trkpt><trkpt lat="45.8352257" lon="8.8669934"><ele>435.8</ele><time>2026-04-23T10:46:56.902Z</time></trkpt><trkpt lat="45.835262" lon="8.866841"><ele>435.4</ele><time>2026-04-23T10:46:57.895Z</time></trkpt><trkpt lat="45.8352908" lon="8.8666901"><ele>435.0</ele><time>2026-04-23T10:46:58.898Z</time></trkpt><trkpt lat="45.8353182" lon="8.8665451"><ele>435.0</ele><time>2026-04-23T10:46:59.898Z</time></trkpt><trkpt lat="45.8353432" lon="8.8663933"><ele>435.0</ele><time>2026-04-23T10:47:00.899Z</time></trkpt><trkpt lat="45.835365" lon="8.866218"><ele>435.0</ele><time>2026-04-23T10:47:01.893Z</time></trkpt><trkpt lat="45.8353994" lon="8.8660261"><ele>435.0</ele><time>2026-04-23T10:47:02.894Z</time></trkpt><trkpt lat="45.835428" lon="8.8658425"><ele>434.5</ele><time>2026-04-23T10:47:03.896Z</time></trkpt><trkpt lat="45.8354439" lon="8.8656702"><ele>434.0</ele><time>2026-04-23T10:47:04.894Z</time></trkpt><trkpt lat="45.8354618" lon="8.8655017"><ele>433.5</ele><time>2026-04-23T10:47:05.888Z</time></trkpt><trkpt lat="45.8354651" lon="8.8653316"><ele>433.0</ele><time>2026-04-23T10:47:06.882Z</time></trkpt><trkpt lat="45.8354748" lon="8.8651752"><ele>433.2</ele><time>2026-04-23T10:47:07.879Z</time></trkpt><trkpt lat="45.8354754" lon="8.8650215"><ele>433.4</ele><time>2026-04-23T10:47:08.881Z</time></trkpt><trkpt lat="45.8354701" lon="8.8648897"><ele>433.59999999999997</ele><time>2026-04-23T10:47:09.882Z</time></trkpt><trkpt lat="45.8354658" lon="8.8647721"><ele>433.79999999999995</ele><time>2026-04-23T10:47:10.88Z</time></trkpt><trkpt lat="45.8354264" lon="8.8646049"><ele>434.0</ele><time>2026-04-23T10:47:12.892Z</time></trkpt><trkpt lat="45.835375" lon="8.8644767"><ele>433.99999999999994</ele><time>2026-04-23T10:47:14.891Z</time></trkpt><trkpt lat="45.8353355" lon="8.8643488"><ele>434.0</ele><time>2026-04-23T10:47:16.886Z</time></trkpt><trkpt lat="45.8352749" lon="8.8642242"><ele>434.0</ele><time>2026-04-23T10:47:18.905Z</time></trkpt><trkpt lat="45.8352598" lon="8.8641222"><ele>434.0</ele><time>2026-04-23T10:47:20.885Z</time></trkpt><trkpt lat="45.835271" lon="8.8640059"><ele>433.99999999999994</ele><time>2026-04-23T10:47:23.884Z</time></trkpt><trkpt lat="45.8353057" lon="8.8638869"><ele>434.0</ele><time>2026-04-23T10:47:33.902Z</time></trkpt><trkpt lat="45.835246" lon="8.8638288"><ele>433.99999999999994</ele><time>2026-04-23T10:47:39.892Z</time></trkpt><trkpt lat="45.8352215" lon="8.8637242"><ele>434.0</ele><time>2026-04-23T10:47:41.894Z</time></trkpt><trkpt lat="45.8351857" lon="8.8635946"><ele>434.0</ele><time>2026-04-23T10:47:43.891Z</time></trkpt><trkpt lat="45.8352518" lon="8.8636386"><ele>434.0</ele><time>2026-04-23T10:49:02.896Z</time></trkpt><trkpt lat="45.8352692" lon="8.8635479"><ele>433.99999999999994</ele><time>2026-04-23T10:49:29.895Z</time></trkpt><trkpt lat="45.8353075" lon="8.8634391"><ele>434.0</ele><time>2026-04-23T10:49:34.905Z</time></trkpt><trkpt lat="45.8353774" lon="8.8634588"><ele>433.3333333333333</ele><time>2026-04-23T10:53:40.898Z</time></trkpt><trkpt lat="45.8353907" lon="8.8633509"><ele>432.66666666666663</ele><time>2026-04-23T10:54:58.922Z</time></trkpt><trkpt lat="45.8353285" lon="8.8633047"><ele>432.0</ele><time>2026-04-23T10:55:05.929Z</time></trkpt><trkpt lat="45.8352414" lon="8.86327"><ele>431.33333333333337</ele><time>2026-04-23T10:55:51.912Z</time></trkpt><trkpt lat="45.8352003" lon="8.8631767"><ele>430.6666666666667</ele><time>2026-04-23T10:55:55.902Z</time></trkpt><trkpt lat="45.8351827" lon="8.8630609"><ele>430.0</ele><time>2026-04-23T10:55:59.901Z</time></trkpt><trkpt lat="45.835209" lon="8.8629742"><ele>430.0</ele><time>2026-04-23T10:56:04.916Z</time></trkpt><trkpt lat="45.8352264" lon="8.862859"><ele>430.0</ele><time>2026-04-23T10:56:09.9Z</time></trkpt><trkpt lat="45.8352563" lon="8.862729"><ele>430.0</ele><time>2026-04-23T10:56:34.901Z</time></trkpt><trkpt lat="45.8352606" lon="8.8626331"><ele>430.0</ele><time>2026-04-23T10:56:37.894Z</time></trkpt><trkpt lat="45.8352452" lon="8.8625442"><ele>430.0</ele><time>2026-04-23T10:56:48.904Z</time></trkpt><trkpt lat="45.835181" lon="8.8624964"><ele>430.0</ele><time>2026-04-23T10:56:52.9Z</time></trkpt><trkpt lat="45.8351375" lon="8.862424"><ele>430.0</ele><time>2026-04-23T10:56:55.904Z</time></trkpt><trkpt lat="45.8350929" lon="8.8623518"><ele>430.50000000000006</ele><time>2026-04-23T10:57:33.909Z</time></trkpt><trkpt lat="45.8350218" lon="8.8623743"><ele>431.0</ele><time>2026-04-23T10:57:50.904Z</time></trkpt><trkpt lat="45.8349872" lon="8.8624692"><ele>431.5</ele><time>2026-04-23T10:57:53.904Z</time></trkpt><trkpt lat="45.8349537" lon="8.8625758"><ele>432.0</ele><time>2026-04-23T10:57:55.906Z</time></trkpt><trkpt lat="45.8348873" lon="8.8626539"><ele>432.50000000000006</ele><time>2026-04-23T10:57:57.895Z</time></trkpt><trkpt lat="45.8347982" lon="8.8626579"><ele>433.0</ele><time>2026-04-23T10:58:03.897Z</time></trkpt><trkpt lat="45.8347297" lon="8.8626005"><ele>432.50000000000006</ele><time>2026-04-23T11:02:10.901Z</time></trkpt><trkpt lat="45.8346533" lon="8.8625321"><ele>432.0</ele><time>2026-04-23T11:02:14.901Z</time></trkpt><trkpt lat="45.8345928" lon="8.8624982"><ele>431.5</ele><time>2026-04-23T11:02:16.916Z</time></trkpt><trkpt lat="45.8345002" lon="8.8624941"><ele>431.0</ele><time>2026-04-23T11:02:18.901Z</time></trkpt><trkpt lat="45.8343975" lon="8.8625079"><ele>430.50000000000006</ele><time>2026-04-23T11:02:20.9Z</time></trkpt><trkpt lat="45.8343336" lon="8.8624675"><ele>430.0</ele><time>2026-04-23T11:02:26.889Z</time></trkpt><trkpt lat="45.8342602" lon="8.8623948"><ele>430.0</ele><time>2026-04-23T11:02:29.883Z</time></trkpt><trkpt lat="45.8341933" lon="8.8623108"><ele>430.0</ele><time>2026-04-23T11:02:32.886Z</time></trkpt><trkpt lat="45.834141" lon="8.862258"><ele>430.0</ele><time>2026-04-23T11:02:35.892Z</time></trkpt><trkpt lat="45.8340729" lon="8.8622647"><ele>430.0</ele><time>2026-04-23T11:02:40.885Z</time></trkpt><trkpt lat="45.8340077" lon="8.8623244"><ele>430.0</ele><time>2026-04-23T11:02:44.888Z</time></trkpt><trkpt lat="45.8339416" lon="8.8623262"><ele>430.0</ele><time>2026-04-23T11:02:46.894Z</time></trkpt><trkpt lat="45.8338851" lon="8.8623916"><ele>430.0</ele><time>2026-04-23T11:02:49.887Z</time></trkpt><trkpt lat="45.8338257" lon="8.8624736"><ele>430.00000000000006</ele><time>2026-04-23T11:03:06.898Z</time></trkpt><trkpt lat="45.8338139" lon="8.8625703"><ele>430.0</ele><time>2026-04-23T11:03:08.888Z</time></trkpt><trkpt lat="45.8337853" lon="8.862652"><ele>430.0</ele><time>2026-04-23T11:03:09.88Z</time></trkpt><trkpt lat="45.8337609" lon="8.8627373"><ele>430.0</ele><time>2026-04-23T11:03:10.877Z</time></trkpt><trkpt lat="45.8337608" lon="8.8628621"><ele>430.00000000000006</ele><time>2026-04-23T11:03:11.875Z</time></trkpt><trkpt lat="45.8337576" lon="8.8630059"><ele>430.0</ele><time>2026-04-23T11:03:13.867Z</time></trkpt><trkpt lat="45.8337375" lon="8.8630977"><ele>431.83333333333337</ele><time>2026-04-23T11:03:15.889Z</time></trkpt><trkpt lat="45.8337796" lon="8.8631753"><ele>433.6666666666667</ele><time>2026-04-23T11:03:24.886Z</time></trkpt><trkpt lat="45.8338224" lon="8.8632493"><ele>435.5</ele><time>2026-04-23T11:03:26.879Z</time></trkpt><trkpt lat="45.8338679" lon="8.8633256"><ele>437.33333333333337</ele><time>2026-04-23T11:03:29.89Z</time></trkpt><trkpt lat="45.8338005" lon="8.8633578"><ele>439.1666666666667</ele><time>2026-04-23T11:03:35.905Z</time></trkpt><trkpt lat="45.8338617" lon="8.8634375"><ele>441.0</ele><time>2026-04-23T11:05:34.897Z</time></trkpt><trkpt lat="45.8339447" lon="8.863524"><ele>442.1666666666667</ele><time>2026-04-23T11:07:28.894Z</time></trkpt><trkpt lat="45.834015" lon="8.8635722"><ele>443.33333333333337</ele><time>2026-04-23T11:08:48.907Z</time></trkpt><trkpt lat="45.8340762" lon="8.8636504"><ele>444.5</ele><time>2026-04-23T11:09:00.9Z</time></trkpt><trkpt lat="45.8341382" lon="8.8637265"><ele>445.6666666666667</ele><time>2026-04-23T11:09:09.911Z</time></trkpt><trkpt lat="45.8341392" lon="8.8638245"><ele>446.83333333333337</ele><time>2026-04-23T11:10:26.909Z</time></trkpt><trkpt lat="45.8341772" lon="8.863898"><ele>448.0</ele><time>2026-04-23T11:10:33.908Z</time></trkpt><trkpt lat="45.8341899" lon="8.8640169"><ele>448.00000000000006</ele><time>2026-04-23T11:13:57.925Z</time></trkpt><trkpt lat="45.834199" lon="8.8641361"><ele>448.0</ele><time>2026-04-23T11:13:59.921Z</time></trkpt><trkpt lat="45.8341988" lon="8.8642552"><ele>448.0</ele><time>2026-04-23T11:14:01.916Z</time></trkpt><trkpt lat="45.8341637" lon="8.8644053"><ele>448.0</ele><time>2026-04-23T11:14:03.918Z</time></trkpt><trkpt lat="45.8341348" lon="8.8644944"><ele>448.00000000000006</ele><time>2026-04-23T11:14:04.918Z</time></trkpt><trkpt lat="45.8341031" lon="8.8645738"><ele>448.0</ele><time>2026-04-23T11:14:05.921Z</time></trkpt><trkpt lat="45.8340501" lon="8.8647267"><ele>448.4</ele><time>2026-04-23T11:14:07.938Z</time></trkpt><trkpt lat="45.8340026" lon="8.8648717"><ele>448.79999999999995</ele><time>2026-04-23T11:14:09.909Z</time></trkpt><trkpt lat="45.8339732" lon="8.8650464"><ele>449.2</ele><time>2026-04-23T11:14:11.915Z</time></trkpt><trkpt lat="45.8339542" lon="8.86515"><ele>449.6</ele><time>2026-04-23T11:14:12.913Z</time></trkpt><trkpt lat="45.8339303" lon="8.8652617"><ele>450.0</ele><time>2026-04-23T11:14:13.92Z</time></trkpt><trkpt lat="45.8339086" lon="8.86537"><ele>450.0</ele><time>2026-04-23T11:14:14.924Z</time></trkpt><trkpt lat="45.833884" lon="8.8654689"><ele>450.0</ele><time>2026-04-23T11:14:15.925Z</time></trkpt><trkpt lat="45.8338454" lon="8.8656164"><ele>450.0</ele><time>2026-04-23T11:14:17.92Z</time></trkpt><trkpt lat="45.8338291" lon="8.8657291"><ele>450.0</ele><time>2026-04-23T11:14:19.924Z</time></trkpt><trkpt lat="45.8338381" lon="8.8658616"><ele>450.0</ele><time>2026-04-23T11:14:31.899Z</time></trkpt><trkpt lat="45.8337834" lon="8.8659633"><ele>450.0</ele><time>2026-04-23T11:14:33.9Z</time></trkpt><trkpt lat="45.8336644" lon="8.8659514"><ele>450.0</ele><time>2026-04-23T11:14:35.91Z</time></trkpt><trkpt lat="45.8335583" lon="8.8658239"><ele>450.0</ele><time>2026-04-23T11:14:36.903Z</time></trkpt><trkpt lat="45.8334324" lon="8.865704"><ele>450.0</ele><time>2026-04-23T11:14:37.9Z</time></trkpt><trkpt lat="45.8333252" lon="8.8655873"><ele>450.0</ele><time>2026-04-23T11:14:38.919Z</time></trkpt><trkpt lat="45.8332219" lon="8.8654829"><ele>449.75</ele><time>2026-04-23T11:14:39.91Z</time></trkpt><trkpt lat="45.8331258" lon="8.8653881"><ele>449.5</ele><time>2026-04-23T11:14:40.906Z</time></trkpt><trkpt lat="45.8330164" lon="8.8652738"><ele>449.25</ele><time>2026-04-23T11:14:41.906Z</time></trkpt><trkpt lat="45.8329011" lon="8.8651565"><ele>449.0</ele><time>2026-04-23T11:14:42.91Z</time></trkpt><trkpt lat="45.8327797" lon="8.8650193"><ele>449.0</ele><time>2026-04-23T11:14:43.908Z</time></trkpt><trkpt lat="45.8326569" lon="8.8648786"><ele>449.0</ele><time>2026-04-23T11:14:44.911Z</time></trkpt><trkpt lat="45.8325372" lon="8.8647589"><ele>449.0</ele><time>2026-04-23T11:14:45.913Z</time></trkpt><trkpt lat="45.8324269" lon="8.8646565"><ele>449.0</ele><time>2026-04-23T11:14:46.91Z</time></trkpt><trkpt lat="45.8323253" lon="8.8645628"><ele>449.0</ele><time>2026-04-23T11:14:47.914Z</time></trkpt><trkpt lat="45.832222" lon="8.8644467"><ele>449.0</ele><time>2026-04-23T11:14:48.916Z</time></trkpt><trkpt lat="45.8321128" lon="8.8643215"><ele>449.0</ele><time>2026-04-23T11:14:49.918Z</time></trkpt><trkpt lat="45.8320157" lon="8.8642103"><ele>449.0</ele><time>2026-04-23T11:14:50.917Z</time></trkpt><trkpt lat="45.8319206" lon="8.8641152"><ele>449.25</ele><time>2026-04-23T11:14:51.925Z</time></trkpt><trkpt lat="45.8318277" lon="8.864021"><ele>449.5</ele><time>2026-04-23T11:14:52.924Z</time></trkpt><trkpt lat="45.8317237" lon="8.8639295"><ele>449.75</ele><time>2026-04-23T11:14:53.919Z</time></trkpt><trkpt lat="45.8316118" lon="8.8638351"><ele>450.0</ele><time>2026-04-23T11:14:54.925Z</time></trkpt><trkpt lat="45.8314946" lon="8.8637353"><ele>448.75</ele><time>2026-04-23T11:14:55.925Z</time></trkpt><trkpt lat="45.8313819" lon="8.8636326"><ele>447.5</ele><time>2026-04-23T11:14:56.928Z</time></trkpt><trkpt lat="45.8312762" lon="8.8635321"><ele>446.25</ele><time>2026-04-23T11:14:57.921Z</time></trkpt><trkpt lat="45.8311713" lon="8.8634296"><ele>445.0</ele><time>2026-04-23T11:14:58.921Z</time></trkpt><trkpt lat="45.8310725" lon="8.8633446"><ele>444.8</ele><time>2026-04-23T11:14:59.918Z</time></trkpt><trkpt lat="45.830969" lon="8.8632614"><ele>444.6</ele><time>2026-04-23T11:15:00.908Z</time></trkpt><trkpt lat="45.8308713" lon="8.8631778"><ele>444.4</ele><time>2026-04-23T11:15:01.909Z</time></trkpt><trkpt lat="45.8307892" lon="8.8630949"><ele>444.2</ele><time>2026-04-23T11:15:02.909Z</time></trkpt><trkpt lat="45.8307233" lon="8.8630244"><ele>444.0</ele><time>2026-04-23T11:15:03.908Z</time></trkpt><trkpt lat="45.8306571" lon="8.8628697"><ele>444.0</ele><time>2026-04-23T11:15:05.913Z</time></trkpt><trkpt lat="45.8306528" lon="8.8627503"><ele>444.0</ele><time>2026-04-23T11:15:06.91Z</time></trkpt><trkpt lat="45.8306454" lon="8.8626212"><ele>444.0</ele><time>2026-04-23T11:15:07.905Z</time></trkpt><trkpt lat="45.8306346" lon="8.8625133"><ele>444.0</ele><time>2026-04-23T11:15:08.905Z</time></trkpt><trkpt lat="45.8306227" lon="8.862398"><ele>444.0</ele><time>2026-04-23T11:15:09.918Z</time></trkpt><trkpt lat="45.8306077" lon="8.8622793"><ele>444.0</ele><time>2026-04-23T11:15:10.899Z</time></trkpt><trkpt lat="45.8305602" lon="8.8621709"><ele>444.2</ele><time>2026-04-23T11:15:11.904Z</time></trkpt><trkpt lat="45.8304821" lon="8.8620938"><ele>444.4</ele><time>2026-04-23T11:15:12.908Z</time></trkpt><trkpt lat="45.8303832" lon="8.8620206"><ele>444.6</ele><time>2026-04-23T11:15:13.906Z</time></trkpt><trkpt lat="45.8302847" lon="8.8619565"><ele>444.8</ele><time>2026-04-23T11:15:14.916Z</time></trkpt><trkpt lat="45.830182" lon="8.8619119"><ele>445.0</ele><time>2026-04-23T11:15:15.92Z</time></trkpt><trkpt lat="45.8300771" lon="8.8618797"><ele>444.6</ele><time>2026-04-23T11:15:16.917Z</time></trkpt><trkpt lat="45.8299838" lon="8.861841"><ele>444.2</ele><time>2026-04-23T11:15:17.913Z</time></trkpt><trkpt lat="45.8298825" lon="8.8618061"><ele>443.79999999999995</ele><time>2026-04-23T11:15:18.919Z</time></trkpt><trkpt lat="45.8297736" lon="8.8617848"><ele>443.4</ele><time>2026-04-23T11:15:19.913Z</time></trkpt><trkpt lat="45.829664" lon="8.861775"><ele>443.0</ele><time>2026-04-23T11:15:20.923Z</time></trkpt><trkpt lat="45.8295534" lon="8.8617746"><ele>443.0</ele><time>2026-04-23T11:15:21.917Z</time></trkpt><trkpt lat="45.8294438" lon="8.861777"><ele>443.0</ele><time>2026-04-23T11:15:22.931Z</time></trkpt><trkpt lat="45.8293305" lon="8.8617919"><ele>443.0</ele><time>2026-04-23T11:15:23.918Z</time></trkpt><trkpt lat="45.8292137" lon="8.861812"><ele>443.0</ele><time>2026-04-23T11:15:24.923Z</time></trkpt><trkpt lat="45.8290978" lon="8.8618389"><ele>442.3333333333333</ele><time>2026-04-23T11:15:25.921Z</time></trkpt><trkpt lat="45.8290052" lon="8.8618517"><ele>441.66666666666663</ele><time>2026-04-23T11:15:26.927Z</time></trkpt><trkpt lat="45.8289223" lon="8.8618597"><ele>441.0</ele><time>2026-04-23T11:15:27.92Z</time></trkpt><trkpt lat="45.8288512" lon="8.8618683"><ele>440.33333333333337</ele><time>2026-04-23T11:15:28.932Z</time></trkpt><trkpt lat="45.8287706" lon="8.8618847"><ele>439.6666666666667</ele><time>2026-04-23T11:15:29.93Z</time></trkpt><trkpt lat="45.8286835" lon="8.8619003"><ele>439.0</ele><time>2026-04-23T11:15:30.917Z</time></trkpt><trkpt lat="45.8285819" lon="8.8619086"><ele>438.4</ele><time>2026-04-23T11:15:31.916Z</time></trkpt><trkpt lat="45.8284717" lon="8.8619116"><ele>437.79999999999995</ele><time>2026-04-23T11:15:32.922Z</time></trkpt><trkpt lat="45.8283679" lon="8.8619128"><ele>437.20000000000005</ele><time>2026-04-23T11:15:33.926Z</time></trkpt><trkpt lat="45.8282697" lon="8.8619078"><ele>436.6</ele><time>2026-04-23T11:15:34.925Z</time></trkpt><trkpt lat="45.8281638" lon="8.8619121"><ele>436.0</ele><time>2026-04-23T11:15:35.925Z</time></trkpt><trkpt lat="45.8280567" lon="8.8619152"><ele>436.0</ele><time>2026-04-23T11:15:36.92Z</time></trkpt><trkpt lat="45.8279481" lon="8.8619166"><ele>436.0</ele><time>2026-04-23T11:15:37.916Z</time></trkpt><trkpt lat="45.8278372" lon="8.8619115"><ele>436.0</ele><time>2026-04-23T11:15:38.916Z</time></trkpt><trkpt lat="45.8277335" lon="8.8618797"><ele>436.0</ele><time>2026-04-23T11:15:39.914Z</time></trkpt><trkpt lat="45.8276431" lon="8.8618155"><ele>436.0</ele><time>2026-04-23T11:15:40.936Z</time></trkpt><trkpt lat="45.8275927" lon="8.861723"><ele>435.6666666666667</ele><time>2026-04-23T11:15:41.911Z</time></trkpt><trkpt lat="45.8275747" lon="8.8616348"><ele>435.33333333333337</ele><time>2026-04-23T11:15:42.904Z</time></trkpt><trkpt lat="45.8275652" lon="8.8615411"><ele>435.0</ele><time>2026-04-23T11:15:43.912Z</time></trkpt><trkpt lat="45.8275763" lon="8.861406"><ele>434.66666666666663</ele><time>2026-04-23T11:15:45.907Z</time></trkpt><trkpt lat="45.8275809" lon="8.861292"><ele>434.3333333333333</ele><time>2026-04-23T11:15:47.904Z</time></trkpt><trkpt lat="45.827609" lon="8.8611327"><ele>434.0</ele><time>2026-04-23T11:15:49.907Z</time></trkpt><trkpt lat="45.827624" lon="8.8610213"><ele>433.3333333333333</ele><time>2026-04-23T11:15:50.91Z</time></trkpt><trkpt lat="45.8276086" lon="8.860914"><ele>432.66666666666663</ele><time>2026-04-23T11:15:51.912Z</time></trkpt><trkpt lat="45.8275807" lon="8.8608056"><ele>432.0</ele><time>2026-04-23T11:15:52.925Z</time></trkpt><trkpt lat="45.8275243" lon="8.8607102"><ele>431.33333333333337</ele><time>2026-04-23T11:15:53.917Z</time></trkpt><trkpt lat="45.8274482" lon="8.8606355"><ele>430.6666666666667</ele><time>2026-04-23T11:15:54.915Z</time></trkpt><trkpt lat="45.8273399" lon="8.8605962"><ele>430.0</ele><time>2026-04-23T11:15:55.907Z</time></trkpt><trkpt lat="45.8272172" lon="8.860571"><ele>430.0</ele><time>2026-04-23T11:15:56.913Z</time></trkpt><trkpt lat="45.8270865" lon="8.8605374"><ele>430.0</ele><time>2026-04-23T11:15:57.911Z</time></trkpt><trkpt lat="45.8269538" lon="8.8605185"><ele>430.0</ele><time>2026-04-23T11:15:58.917Z</time></trkpt><trkpt lat="45.8268141" lon="8.8604757"><ele>430.0</ele><time>2026-04-23T11:15:59.912Z</time></trkpt><trkpt lat="45.8266829" lon="8.8604242"><ele>429.8</ele><time>2026-04-23T11:16:00.917Z</time></trkpt><trkpt lat="45.8265609" lon="8.8603722"><ele>429.6</ele><time>2026-04-23T11:16:01.903Z</time></trkpt><trkpt lat="45.8264631" lon="8.8603177"><ele>429.4</ele><time>2026-04-23T11:16:02.908Z</time></trkpt><trkpt lat="45.8263715" lon="8.8602651"><ele>429.2</ele><time>2026-04-23T11:16:03.906Z</time></trkpt><trkpt lat="45.8262771" lon="8.8601936"><ele>429.0</ele><time>2026-04-23T11:16:04.902Z</time></trkpt><trkpt lat="45.8262129" lon="8.8600964"><ele>428.6</ele><time>2026-04-23T11:16:05.907Z</time></trkpt><trkpt lat="45.8262451" lon="8.859912"><ele>428.2</ele><time>2026-04-23T11:16:07.905Z</time></trkpt><trkpt lat="45.8262693" lon="8.8598095"><ele>427.80000000000007</ele><time>2026-04-23T11:16:08.898Z</time></trkpt><trkpt lat="45.8262387" lon="8.859669"><ele>427.40000000000003</ele><time>2026-04-23T11:16:10.905Z</time></trkpt><trkpt lat="45.8261754" lon="8.8596409"><ele>427.0</ele><time>2026-04-23T11:16:11.92Z</time></trkpt><trkpt lat="45.8260926" lon="8.8596111"><ele>427.0</ele><time>2026-04-23T11:16:12.9Z</time></trkpt><trkpt lat="45.8259917" lon="8.8596032"><ele>427.00000000000006</ele><time>2026-04-23T11:16:13.903Z</time></trkpt><trkpt lat="45.8258797" lon="8.8595834"><ele>427.00000000000006</ele><time>2026-04-23T11:16:14.911Z</time></trkpt><trkpt lat="45.8257694" lon="8.8595852"><ele>427.0</ele><time>2026-04-23T11:16:15.914Z</time></trkpt><trkpt lat="45.825661" lon="8.8595906"><ele>427.0</ele><time>2026-04-23T11:16:16.917Z</time></trkpt><trkpt lat="45.8255658" lon="8.8595723"><ele>425.6</ele><time>2026-04-23T11:16:17.91Z</time></trkpt><trkpt lat="45.8254754" lon="8.8595339"><ele>424.20000000000005</ele><time>2026-04-23T11:16:18.909Z</time></trkpt><trkpt lat="45.8253919" lon="8.8594796"><ele>422.8</ele><time>2026-04-23T11:16:19.918Z</time></trkpt><trkpt lat="45.8253214" lon="8.8593914"><ele>421.4</ele><time>2026-04-23T11:16:20.92Z</time></trkpt><trkpt lat="45.8252755" lon="8.8592622"><ele>420.0</ele><time>2026-04-23T11:16:21.916Z</time></trkpt><trkpt lat="45.8252586" lon="8.859114"><ele>418.25</ele><time>2026-04-23T11:16:22.923Z</time></trkpt><trkpt lat="45.8252793" lon="8.8589441"><ele>416.5</ele><time>2026-04-23T11:16:23.915Z</time></trkpt><trkpt lat="45.8253327" lon="8.8587658"><ele>414.75</ele><time>2026-04-23T11:16:24.907Z</time></trkpt><trkpt lat="45.8254172" lon="8.8585881"><ele>413.0</ele><time>2026-04-23T11:16:25.9Z</time></trkpt><trkpt lat="45.8255359" lon="8.8584107"><ele>411.66666666666663</ele><time>2026-04-23T11:16:26.91Z</time></trkpt><trkpt lat="45.8256645" lon="8.8582594"><ele>410.33333333333337</ele><time>2026-04-23T11:16:27.903Z</time></trkpt><trkpt lat="45.8258174" lon="8.8581193"><ele>409.0</ele><time>2026-04-23T11:16:28.9Z</time></trkpt><trkpt lat="45.825985" lon="8.857984"><ele>409.0</ele><time>2026-04-23T11:16:29.908Z</time></trkpt><trkpt lat="45.8261727" lon="8.8578388"><ele>409.0</ele><time>2026-04-23T11:16:30.917Z</time></trkpt><trkpt lat="45.8264026" lon="8.857647"><ele>409.5</ele><time>2026-04-23T11:16:31.913Z</time></trkpt><trkpt lat="45.826633" lon="8.8574639"><ele>410.0</ele><time>2026-04-23T11:16:32.917Z</time></trkpt><trkpt lat="45.8268411" lon="8.8573035"><ele>410.0</ele><time>2026-04-23T11:16:33.919Z</time></trkpt><trkpt lat="45.8270168" lon="8.8571808"><ele>410.0</ele><time>2026-04-23T11:16:34.917Z</time></trkpt><trkpt lat="45.8271581" lon="8.8570559"><ele>410.0</ele><time>2026-04-23T11:16:35.916Z</time></trkpt><trkpt lat="45.82729" lon="8.8569422"><ele>410.0</ele><time>2026-04-23T11:16:36.913Z</time></trkpt><trkpt lat="45.8274232" lon="8.8568245"><ele>410.0</ele><time>2026-04-23T11:16:37.914Z</time></trkpt><trkpt lat="45.8275374" lon="8.8567447"><ele>410.0</ele><time>2026-04-23T11:16:38.906Z</time></trkpt><trkpt lat="45.8276371" lon="8.8566968"><ele>410.0</ele><time>2026-04-23T11:16:39.901Z</time></trkpt><trkpt lat="45.8277452" lon="8.8566767"><ele>409.0</ele><time>2026-04-23T11:16:40.892Z</time></trkpt><trkpt lat="45.8278453" lon="8.8566502"><ele>408.0</ele><time>2026-04-23T11:16:41.888Z</time></trkpt><trkpt lat="45.8279348" lon="8.856648"><ele>407.0</ele><time>2026-04-23T11:16:42.909Z</time></trkpt><trkpt lat="45.8280366" lon="8.8566907"><ele>406.0</ele><time>2026-04-23T11:16:43.892Z</time></trkpt><trkpt lat="45.8281454" lon="8.8567777"><ele>405.0</ele><time>2026-04-23T11:16:44.896Z</time></trkpt><trkpt lat="45.8282552" lon="8.8568979"><ele>405.0</ele><time>2026-04-23T11:16:45.896Z</time></trkpt><trkpt lat="45.8283764" lon="8.8570094"><ele>405.0</ele><time>2026-04-23T11:16:46.89Z</time></trkpt><trkpt lat="45.8284992" lon="8.857103"><ele>405.0</ele><time>2026-04-23T11:16:47.892Z</time></trkpt><trkpt lat="45.8286424" lon="8.8571772"><ele>405.0</ele><time>2026-04-23T11:16:48.891Z</time></trkpt><trkpt lat="45.8287791" lon="8.8572271"><ele>398.33333333333337</ele><time>2026-04-23T11:16:49.892Z</time></trkpt><trkpt lat="45.8289507" lon="8.857265"><ele>391.6666666666667</ele><time>2026-04-23T11:16:50.893Z</time></trkpt><trkpt lat="45.8290794" lon="8.8573139"><ele>385.0</ele><time>2026-04-23T11:16:51.903Z</time></trkpt><trkpt lat="45.8292131" lon="8.8572336"><ele>383.0</ele><time>2026-04-23T11:16:52.902Z</time></trkpt><trkpt lat="45.8293533" lon="8.8571474"><ele>381.0</ele><time>2026-04-23T11:16:53.901Z</time></trkpt><trkpt lat="45.8294791" lon="8.8570671"><ele>379.0</ele><time>2026-04-23T11:16:54.914Z</time></trkpt><trkpt lat="45.8296032" lon="8.8569965"><ele>377.0</ele><time>2026-04-23T11:16:55.914Z</time></trkpt><trkpt lat="45.8297108" lon="8.8569391"><ele>377.0</ele><time>2026-04-23T11:16:56.921Z</time></trkpt><trkpt lat="45.8298042" lon="8.8569178"><ele>377.0</ele><time>2026-04-23T11:16:57.92Z</time></trkpt><trkpt lat="45.8298804" lon="8.8568887"><ele>377.0</ele><time>2026-04-23T11:16:58.917Z</time></trkpt><trkpt lat="45.8299418" lon="8.8568272"><ele>377.0</ele><time>2026-04-23T11:16:59.918Z</time></trkpt><trkpt lat="45.8299852" lon="8.8566322"><ele>377.0</ele><time>2026-04-23T11:17:01.902Z</time></trkpt><trkpt lat="45.8299874" lon="8.8565147"><ele>378.6</ele><time>2026-04-23T11:17:02.905Z</time></trkpt><trkpt lat="45.8299721" lon="8.8563807"><ele>380.20000000000005</ele><time>2026-04-23T11:17:03.907Z</time></trkpt><trkpt lat="45.8299192" lon="8.8562534"><ele>381.8</ele><time>2026-04-23T11:17:04.907Z</time></trkpt><trkpt lat="45.8298768" lon="8.856145"><ele>383.4</ele><time>2026-04-23T11:17:05.893Z</time></trkpt><trkpt lat="45.8297863" lon="8.8559908"><ele>385.0</ele><time>2026-04-23T11:17:06.893Z</time></trkpt><trkpt lat="45.8297034" lon="8.8558517"><ele>390.33333333333337</ele><time>2026-04-23T11:17:07.895Z</time></trkpt><trkpt lat="45.8296107" lon="8.8556756"><ele>395.66666666666663</ele><time>2026-04-23T11:17:08.898Z</time></trkpt><trkpt lat="45.8295063" lon="8.8554788"><ele>401.0</ele><time>2026-04-23T11:17:09.902Z</time></trkpt><trkpt lat="45.8294068" lon="8.8552887"><ele>398.3333333333333</ele><time>2026-04-23T11:17:10.908Z</time></trkpt><trkpt lat="45.8292953" lon="8.8551138"><ele>395.66666666666663</ele><time>2026-04-23T11:17:11.909Z</time></trkpt><trkpt lat="45.8291639" lon="8.854956"><ele>393.0</ele><time>2026-04-23T11:17:12.911Z</time></trkpt><trkpt lat="45.8290244" lon="8.8548023"><ele>393.0</ele><time>2026-04-23T11:17:13.926Z</time></trkpt><trkpt lat="45.8289041" lon="8.8547016"><ele>393.0</ele><time>2026-04-23T11:17:14.908Z</time></trkpt><trkpt lat="45.8288079" lon="8.8546296"><ele>393.0</ele><time>2026-04-23T11:17:15.91Z</time></trkpt><trkpt lat="45.8287392" lon="8.8545172"><ele>393.0</ele><time>2026-04-23T11:17:16.897Z</time></trkpt><trkpt lat="45.8286887" lon="8.8544003"><ele>393.0</ele><time>2026-04-23T11:17:17.901Z</time></trkpt><trkpt lat="45.828675" lon="8.8542417"><ele>394.2</ele><time>2026-04-23T11:17:18.9Z</time></trkpt><trkpt lat="45.8286571" lon="8.8540872"><ele>395.4</ele><time>2026-04-23T11:17:19.897Z</time></trkpt><trkpt lat="45.8286501" lon="8.853915"><ele>396.59999999999997</ele><time>2026-04-23T11:17:20.903Z</time></trkpt><trkpt lat="45.8286342" lon="8.8537639"><ele>397.79999999999995</ele><time>2026-04-23T11:17:21.905Z</time></trkpt><trkpt lat="45.828629" lon="8.8536085"><ele>399.0</ele><time>2026-04-23T11:17:22.905Z</time></trkpt><trkpt lat="45.8286281" lon="8.8534522"><ele>399.5</ele><time>2026-04-23T11:17:23.908Z</time></trkpt><trkpt lat="45.8286494" lon="8.8532903"><ele>400.0</ele><time>2026-04-23T11:17:24.902Z</time></trkpt><trkpt lat="45.8286963" lon="8.8531142"><ele>400.5</ele><time>2026-04-23T11:17:25.904Z</time></trkpt><trkpt lat="45.8287478" lon="8.8529506"><ele>401.0</ele><time>2026-04-23T11:17:26.901Z</time></trkpt><trkpt lat="45.8288044" lon="8.8527993"><ele>401.0</ele><time>2026-04-23T11:17:27.909Z</time></trkpt><trkpt lat="45.828857" lon="8.8526547"><ele>401.0</ele><time>2026-04-23T11:17:28.91Z</time></trkpt><trkpt lat="45.8289014" lon="8.8525217"><ele>401.0</ele><time>2026-04-23T11:17:29.913Z</time></trkpt><trkpt lat="45.828951" lon="8.8523785"><ele>401.0</ele><time>2026-04-23T11:17:30.909Z</time></trkpt><trkpt lat="45.8289965" lon="8.8522648"><ele>401.0</ele><time>2026-04-23T11:17:31.911Z</time></trkpt><trkpt lat="45.8290213" lon="8.8521495"><ele>400.66666666666663</ele><time>2026-04-23T11:17:32.914Z</time></trkpt><trkpt lat="45.829036" lon="8.8520438"><ele>400.3333333333333</ele><time>2026-04-23T11:17:33.908Z</time></trkpt><trkpt lat="45.829049" lon="8.8519305"><ele>400.0</ele><time>2026-04-23T11:17:34.908Z</time></trkpt><trkpt lat="45.8290478" lon="8.8518237"><ele>399.66666666666663</ele><time>2026-04-23T11:17:35.913Z</time></trkpt><trkpt lat="45.8290297" lon="8.8517186"><ele>399.3333333333333</ele><time>2026-04-23T11:17:36.905Z</time></trkpt><trkpt lat="45.8290085" lon="8.8516249"><ele>399.0</ele><time>2026-04-23T11:17:37.908Z</time></trkpt><trkpt lat="45.8289775" lon="8.8515155"><ele>399.0</ele><time>2026-04-23T11:17:38.91Z</time></trkpt><trkpt lat="45.8289423" lon="8.8514013"><ele>399.0</ele><time>2026-04-23T11:17:39.91Z</time></trkpt><trkpt lat="45.8289193" lon="8.8513064"><ele>399.0</ele><time>2026-04-23T11:17:40.905Z</time></trkpt><trkpt lat="45.8289005" lon="8.8511749"><ele>399.0</ele><time>2026-04-23T11:17:42.91Z</time></trkpt><trkpt lat="45.8288869" lon="8.8510617"><ele>399.0</ele><time>2026-04-23T11:17:46.926Z</time></trkpt><trkpt lat="45.8288325" lon="8.8509653"><ele>399.0</ele><time>2026-04-23T11:17:49.916Z</time></trkpt><trkpt lat="45.8287104" lon="8.8508992"><ele>399.2</ele><time>2026-04-23T11:17:51.914Z</time></trkpt><trkpt lat="45.8286336" lon="8.8508609"><ele>399.4</ele><time>2026-04-23T11:17:52.913Z</time></trkpt><trkpt lat="45.8285482" lon="8.8508078"><ele>399.6</ele><time>2026-04-23T11:17:53.915Z</time></trkpt><trkpt lat="45.828446" lon="8.850761"><ele>399.8</ele><time>2026-04-23T11:17:54.918Z</time></trkpt><trkpt lat="45.8283246" lon="8.850694"><ele>400.0</ele><time>2026-04-23T11:17:55.916Z</time></trkpt><trkpt lat="45.8281974" lon="8.8506248"><ele>399.25</ele><time>2026-04-23T11:17:56.918Z</time></trkpt><trkpt lat="45.828073" lon="8.85057"><ele>398.5</ele><time>2026-04-23T11:17:57.912Z</time></trkpt><trkpt lat="45.8279372" lon="8.8505353"><ele>397.75</ele><time>2026-04-23T11:17:58.916Z</time></trkpt><trkpt lat="45.8277995" lon="8.850487"><ele>397.0</ele><time>2026-04-23T11:17:59.915Z</time></trkpt><trkpt lat="45.8276512" lon="8.8504637"><ele>394.25</ele><time>2026-04-23T11:18:00.915Z</time></trkpt><trkpt lat="45.8275053" lon="8.8504368"><ele>391.5</ele><time>2026-04-23T11:18:01.915Z</time></trkpt><trkpt lat="45.8273762" lon="8.8504247"><ele>388.75</ele><time>2026-04-23T11:18:02.92Z</time></trkpt><trkpt lat="45.8272385" lon="8.8504067"><ele>386.0</ele><time>2026-04-23T11:18:03.92Z</time></trkpt><trkpt lat="45.8271077" lon="8.8503764"><ele>386.0</ele><time>2026-04-23T11:18:04.913Z</time></trkpt><trkpt lat="45.8269789" lon="8.8503233"><ele>386.0</ele><time>2026-04-23T11:18:05.91Z</time></trkpt><trkpt lat="45.8268643" lon="8.8502446"><ele>386.0</ele><time>2026-04-23T11:18:06.918Z</time></trkpt><trkpt lat="45.8267421" lon="8.850171"><ele>386.0</ele><time>2026-04-23T11:18:07.922Z</time></trkpt><trkpt lat="45.8266314" lon="8.8500779"><ele>382.0</ele><time>2026-04-23T11:18:08.916Z</time></trkpt><trkpt lat="45.8265304" lon="8.8499761"><ele>378.0</ele><time>2026-04-23T11:18:09.91Z</time></trkpt><trkpt lat="45.8264335" lon="8.8498608"><ele>374.0</ele><time>2026-04-23T11:18:10.908Z</time></trkpt><trkpt lat="45.8263313" lon="8.8497337"><ele>370.0</ele><time>2026-04-23T11:18:11.902Z</time></trkpt><trkpt lat="45.8262371" lon="8.8495801"><ele>370.0</ele><time>2026-04-23T11:18:12.904Z</time></trkpt><trkpt lat="45.8261537" lon="8.8494007"><ele>370.0</ele><time>2026-04-23T11:18:13.906Z</time></trkpt><trkpt lat="45.8260915" lon="8.8491708"><ele>370.0</ele><time>2026-04-23T11:18:14.901Z</time></trkpt><trkpt lat="45.8260608" lon="8.8489119"><ele>369.0</ele><time>2026-04-23T11:18:15.922Z</time></trkpt><trkpt lat="45.826025" lon="8.8486766"><ele>368.0</ele><time>2026-04-23T11:18:16.907Z</time></trkpt><trkpt lat="45.8259884" lon="8.8484598"><ele>367.0</ele><time>2026-04-23T11:18:17.908Z</time></trkpt><trkpt lat="45.8259509" lon="8.8482496"><ele>365.25</ele><time>2026-04-23T11:18:18.897Z</time></trkpt><trkpt lat="45.8259119" lon="8.8480514"><ele>363.5</ele><time>2026-04-23T11:18:19.895Z</time></trkpt><trkpt lat="45.8258455" lon="8.8478669"><ele>361.75</ele><time>2026-04-23T11:18:20.894Z</time></trkpt><trkpt lat="45.8257596" lon="8.8477146"><ele>360.0</ele><time>2026-04-23T11:18:21.9Z</time></trkpt><trkpt lat="45.8256397" lon="8.8475658"><ele>358.0</ele><time>2026-04-23T11:18:22.901Z</time></trkpt><trkpt lat="45.8255331" lon="8.847439"><ele>356.0</ele><time>2026-04-23T11:18:23.899Z</time></trkpt><trkpt lat="45.8254394" lon="8.8473123"><ele>354.0</ele><time>2026-04-23T11:18:24.906Z</time></trkpt><trkpt lat="45.8253407" lon="8.8471496"><ele>352.0</ele><time>2026-04-23T11:18:25.908Z</time></trkpt><trkpt lat="45.8252565" lon="8.846996"><ele>352.0</ele><time>2026-04-23T11:18:26.919Z</time></trkpt><trkpt lat="45.8251782" lon="8.8468322"><ele>352.0</ele><time>2026-04-23T11:18:27.909Z</time></trkpt><trkpt lat="45.8251069" lon="8.8466878"><ele>352.0</ele><time>2026-04-23T11:18:28.914Z</time></trkpt><trkpt lat="45.8250431" lon="8.8465654"><ele>352.0</ele><time>2026-04-23T11:18:29.913Z</time></trkpt><trkpt lat="45.8249693" lon="8.8464544"><ele>350.0</ele><time>2026-04-23T11:18:30.912Z</time></trkpt><trkpt lat="45.8249007" lon="8.8463253"><ele>348.0</ele><time>2026-04-23T11:18:31.911Z</time></trkpt><trkpt lat="45.8248422" lon="8.846192"><ele>346.0</ele><time>2026-04-23T11:18:32.909Z</time></trkpt><trkpt lat="45.8247927" lon="8.8460687"><ele>344.0</ele><time>2026-04-23T11:18:33.914Z</time></trkpt><trkpt lat="45.8247433" lon="8.8459586"><ele>342.0</ele><time>2026-04-23T11:18:34.912Z</time></trkpt><trkpt lat="45.8246973" lon="8.8458558"><ele>341.0</ele><time>2026-04-23T11:18:35.907Z</time></trkpt><trkpt lat="45.8246602" lon="8.8457558"><ele>340.0</ele><time>2026-04-23T11:18:36.915Z</time></trkpt><trkpt lat="45.8246048" lon="8.8456129"><ele>339.0</ele><time>2026-04-23T11:18:38.919Z</time></trkpt><trkpt lat="45.8245611" lon="8.8455167"><ele>338.0</ele><time>2026-04-23T11:18:40.924Z</time></trkpt><trkpt lat="45.8245164" lon="8.8454444"><ele>337.0</ele><time>2026-04-23T11:18:42.92Z</time></trkpt><trkpt lat="45.8244814" lon="8.8453553"><ele>336.0</ele><time>2026-04-23T11:18:45.921Z</time></trkpt><trkpt lat="45.8244738" lon="8.8452225"><ele>335.25</ele><time>2026-04-23T11:18:57.894Z</time></trkpt><trkpt lat="45.8245388" lon="8.8450594"><ele>334.5</ele><time>2026-04-23T11:18:59.904Z</time></trkpt><trkpt lat="45.8246231" lon="8.8450063"><ele>333.75</ele><time>2026-04-23T11:19:00.9Z</time></trkpt><trkpt lat="45.8247274" lon="8.844939"><ele>333.0</ele><time>2026-04-23T11:19:01.907Z</time></trkpt><trkpt lat="45.8248439" lon="8.8448592"><ele>333.0</ele><time>2026-04-23T11:19:02.903Z</time></trkpt><trkpt lat="45.8249632" lon="8.8447566"><ele>333.0</ele><time>2026-04-23T11:19:03.907Z</time></trkpt><trkpt lat="45.8250936" lon="8.8446476"><ele>333.0</ele><time>2026-04-23T11:19:04.909Z</time></trkpt><trkpt lat="45.8252131" lon="8.8445361"><ele>333.0</ele><time>2026-04-23T11:19:05.902Z</time></trkpt><trkpt lat="45.8253307" lon="8.8444345"><ele>333.3333333333333</ele><time>2026-04-23T11:19:06.904Z</time></trkpt><trkpt lat="45.8254564" lon="8.8443265"><ele>333.66666666666663</ele><time>2026-04-23T11:19:07.905Z</time></trkpt><trkpt lat="45.825591" lon="8.8442277"><ele>334.0</ele><time>2026-04-23T11:19:08.911Z</time></trkpt><trkpt lat="45.8257324" lon="8.8441329"><ele>334.0</ele><time>2026-04-23T11:19:09.906Z</time></trkpt><trkpt lat="45.8258847" lon="8.8440682"><ele>334.0</ele><time>2026-04-23T11:19:10.91Z</time></trkpt><trkpt lat="45.8260292" lon="8.8440307"><ele>334.0</ele><time>2026-04-23T11:19:11.917Z</time></trkpt><trkpt lat="45.8261597" lon="8.8439977"><ele>334.0</ele><time>2026-04-23T11:19:12.921Z</time></trkpt><trkpt lat="45.8262889" lon="8.8439651"><ele>334.0</ele><time>2026-04-23T11:19:13.915Z</time></trkpt><trkpt lat="45.8264196" lon="8.8439399"><ele>334.0</ele><time>2026-04-23T11:19:14.906Z</time></trkpt><trkpt lat="45.8265482" lon="8.8439224"><ele>334.0</ele><time>2026-04-23T11:19:15.92Z</time></trkpt><trkpt lat="45.8266695" lon="8.8439759"><ele>334.0</ele><time>2026-04-23T11:19:16.917Z</time></trkpt><trkpt lat="45.8267809" lon="8.8440107"><ele>335.2</ele><time>2026-04-23T11:19:17.934Z</time></trkpt><trkpt lat="45.8268959" lon="8.8440355"><ele>336.4</ele><time>2026-04-23T11:19:18.922Z</time></trkpt><trkpt lat="45.8269979" lon="8.8440701"><ele>337.6</ele><time>2026-04-23T11:19:19.917Z</time></trkpt><trkpt lat="45.8270915" lon="8.8441047"><ele>338.8</ele><time>2026-04-23T11:19:20.918Z</time></trkpt><trkpt lat="45.8271933" lon="8.8441342"><ele>340.0</ele><time>2026-04-23T11:19:21.912Z</time></trkpt><trkpt lat="45.8272982" lon="8.84417"><ele>340.0</ele><time>2026-04-23T11:19:22.914Z</time></trkpt><trkpt lat="45.8274" lon="8.8442051"><ele>340.0</ele><time>2026-04-23T11:19:23.908Z</time></trkpt><trkpt lat="45.8275038" lon="8.8442331"><ele>340.0</ele><time>2026-04-23T11:19:24.891Z</time></trkpt><trkpt lat="45.8276088" lon="8.844266"><ele>340.0</ele><time>2026-04-23T11:19:25.897Z</time></trkpt><trkpt lat="45.8277183" lon="8.8442976"><ele>340.0</ele><time>2026-04-23T11:19:26.906Z</time></trkpt><trkpt lat="45.8278231" lon="8.8443229"><ele>341.4</ele><time>2026-04-23T11:19:27.913Z</time></trkpt><trkpt lat="45.8279266" lon="8.844333"><ele>342.8</ele><time>2026-04-23T11:19:28.921Z</time></trkpt><trkpt lat="45.8280224" lon="8.8443105"><ele>344.20000000000005</ele><time>2026-04-23T11:19:29.909Z</time></trkpt><trkpt lat="45.828116" lon="8.8442669"><ele>345.6</ele><time>2026-04-23T11:19:30.918Z</time></trkpt><trkpt lat="45.8282083" lon="8.8441918"><ele>347.0</ele><time>2026-04-23T11:19:31.918Z</time></trkpt><trkpt lat="45.8282992" lon="8.8440931"><ele>347.0</ele><time>2026-04-23T11:19:32.917Z</time></trkpt><trkpt lat="45.8283823" lon="8.8439818"><ele>347.0</ele><time>2026-04-23T11:19:33.911Z</time></trkpt><trkpt lat="45.8284714" lon="8.8438706"><ele>347.0</ele><time>2026-04-23T11:19:34.922Z</time></trkpt><trkpt lat="45.8285681" lon="8.8437578"><ele>347.0</ele><time>2026-04-23T11:19:35.919Z</time></trkpt><trkpt lat="45.8286704" lon="8.8436615"><ele>346.5</ele><time>2026-04-23T11:19:36.919Z</time></trkpt><trkpt lat="45.8287694" lon="8.843572"><ele>346.0</ele><time>2026-04-23T11:19:37.923Z</time></trkpt><trkpt lat="45.828878" lon="8.8434852"><ele>345.5</ele><time>2026-04-23T11:19:38.916Z</time></trkpt><trkpt lat="45.8289912" lon="8.8434046"><ele>345.0</ele><time>2026-04-23T11:19:39.917Z</time></trkpt><trkpt lat="45.8291061" lon="8.8433197"><ele>345.0</ele><time>2026-04-23T11:19:40.92Z</time></trkpt><trkpt lat="45.8292377" lon="8.8432391"><ele>345.0</ele><time>2026-04-23T11:19:41.909Z</time></trkpt><trkpt lat="45.8293831" lon="8.8431547"><ele>345.0</ele><time>2026-04-23T11:19:42.903Z</time></trkpt><trkpt lat="45.8295434" lon="8.8430607"><ele>348.3333333333333</ele><time>2026-04-23T11:19:43.91Z</time></trkpt><trkpt lat="45.8297073" lon="8.8429522"><ele>351.66666666666663</ele><time>2026-04-23T11:19:44.908Z</time></trkpt><trkpt lat="45.8298635" lon="8.8428732"><ele>355.0</ele><time>2026-04-23T11:19:45.902Z</time></trkpt><trkpt lat="45.8300021" lon="8.8428109"><ele>355.0</ele><time>2026-04-23T11:19:46.907Z</time></trkpt><trkpt lat="45.8301278" lon="8.84276"><ele>355.0</ele><time>2026-04-23T11:19:47.908Z</time></trkpt><trkpt lat="45.8302398" lon="8.8427364"><ele>355.0</ele><time>2026-04-23T11:19:48.918Z</time></trkpt><trkpt lat="45.8303528" lon="8.8427187"><ele>355.0</ele><time>2026-04-23T11:19:49.904Z</time></trkpt><trkpt lat="45.8304582" lon="8.8427056"><ele>353.4</ele><time>2026-04-23T11:19:50.901Z</time></trkpt><trkpt lat="45.8305613" lon="8.8427011"><ele>351.8</ele><time>2026-04-23T11:19:51.914Z</time></trkpt><trkpt lat="45.8306656" lon="8.8426851"><ele>350.20000000000005</ele><time>2026-04-23T11:19:52.913Z</time></trkpt><trkpt lat="45.8307623" lon="8.8426569"><ele>348.6</ele><time>2026-04-23T11:19:53.908Z</time></trkpt><trkpt lat="45.8308657" lon="8.8426307"><ele>347.0</ele><time>2026-04-23T11:19:54.908Z</time></trkpt><trkpt lat="45.8309696" lon="8.8426055"><ele>348.40000000000003</ele><time>2026-04-23T11:19:55.911Z</time></trkpt><trkpt lat="45.8310687" lon="8.8425836"><ele>349.8</ele><time>2026-04-23T11:19:56.913Z</time></trkpt><trkpt lat="45.8311659" lon="8.8425578"><ele>351.2</ele><time>2026-04-23T11:19:57.907Z</time></trkpt><trkpt lat="45.8312611" lon="8.8425278"><ele>352.6</ele><time>2026-04-23T11:19:58.904Z</time></trkpt><trkpt lat="45.8313507" lon="8.8424996"><ele>354.0</ele><time>2026-04-23T11:19:59.908Z</time></trkpt><trkpt lat="45.8314313" lon="8.8424736"><ele>354.0</ele><time>2026-04-23T11:20:00.913Z</time></trkpt><trkpt lat="45.8314977" lon="8.8424415"><ele>354.0</ele><time>2026-04-23T11:20:01.904Z</time></trkpt><trkpt lat="45.8315662" lon="8.8424024"><ele>354.0</ele><time>2026-04-23T11:20:02.902Z</time></trkpt><trkpt lat="45.8316324" lon="8.8423619"><ele>354.0</ele><time>2026-04-23T11:20:03.916Z</time></trkpt><trkpt lat="45.8316964" lon="8.84232"><ele>354.0</ele><time>2026-04-23T11:20:04.919Z</time></trkpt><trkpt lat="45.8317609" lon="8.8422824"><ele>354.0</ele><time>2026-04-23T11:20:05.912Z</time></trkpt><trkpt lat="45.8318271" lon="8.8422442"><ele>354.0</ele><time>2026-04-23T11:20:06.913Z</time></trkpt><trkpt lat="45.8318873" lon="8.8422096"><ele>354.5</ele><time>2026-04-23T11:20:07.92Z</time></trkpt><trkpt lat="45.8319962" lon="8.8421565"><ele>355.0</ele><time>2026-04-23T11:20:09.907Z</time></trkpt><trkpt lat="45.8320663" lon="8.8421239"><ele>355.5</ele><time>2026-04-23T11:20:11.908Z</time></trkpt><trkpt lat="45.8321313" lon="8.8420763"><ele>356.0</ele><time>2026-04-23T11:20:14.915Z</time></trkpt><trkpt lat="45.8321895" lon="8.8420347"><ele>356.5</ele><time>2026-04-23T11:20:17.905Z</time></trkpt><trkpt lat="45.8322394" lon="8.8419731"><ele>357.0</ele><time>2026-04-23T11:20:28.919Z</time></trkpt><trkpt lat="45.8322931" lon="8.8418915"><ele>355.3333333333333</ele><time>2026-04-23T11:20:32.905Z</time></trkpt><trkpt lat="45.8322419" lon="8.8417691"><ele>353.6666666666667</ele><time>2026-04-23T11:20:35.901Z</time></trkpt><trkpt lat="45.8321891" lon="8.8416905"><ele>352.0</ele><time>2026-04-23T11:20:37.905Z</time></trkpt><trkpt lat="45.8321432" lon="8.8415891"><ele>350.33333333333337</ele><time>2026-04-23T11:20:40.903Z</time></trkpt><trkpt lat="45.8321039" lon="8.8414921"><ele>348.6666666666667</ele><time>2026-04-23T11:20:44.913Z</time></trkpt><trkpt lat="45.8320664" lon="8.8414193"><ele>347.0</ele><time>2026-04-23T11:20:48.905Z</time></trkpt><trkpt lat="45.8320403" lon="8.8413351"><ele>347.0</ele><time>2026-04-23T11:20:51.913Z</time></trkpt><trkpt lat="45.8319963" lon="8.8412315"><ele>347.0</ele><time>2026-04-23T11:20:54.914Z</time></trkpt><trkpt lat="45.8319832" lon="8.841126"><ele>347.0</ele><time>2026-04-23T11:20:56.894Z</time></trkpt><trkpt lat="45.8320146" lon="8.8409716"><ele>347.0</ele><time>2026-04-23T11:20:58.907Z</time></trkpt><trkpt lat="45.8320722" lon="8.8408461"><ele>347.0</ele><time>2026-04-23T11:21:00.914Z</time></trkpt><trkpt lat="45.8321772" lon="8.8407593"><ele>346.40000000000003</ele><time>2026-04-23T11:21:02.921Z</time></trkpt><trkpt lat="45.83229" lon="8.8406965"><ele>345.8</ele><time>2026-04-23T11:21:04.914Z</time></trkpt><trkpt lat="45.8323723" lon="8.8406521"><ele>345.2</ele><time>2026-04-23T11:21:06.921Z</time></trkpt><trkpt lat="45.8324345" lon="8.8405997"><ele>344.6</ele><time>2026-04-23T11:21:09.911Z</time></trkpt><trkpt lat="45.832331" lon="8.8406286"><ele>344.0</ele><time>2026-04-23T11:21:13.912Z</time></trkpt><trkpt lat="45.83228" lon="8.8406824"><ele>344.0</ele><time>2026-04-23T11:21:14.911Z</time></trkpt><trkpt lat="45.8322224" lon="8.8407507"><ele>344.0</ele><time>2026-04-23T11:21:15.917Z</time></trkpt><trkpt lat="45.8321229" lon="8.8408127"><ele>344.0</ele><time>2026-04-23T11:21:17.918Z</time></trkpt><trkpt lat="45.8320353" lon="8.8407745"><ele>344.0</ele><time>2026-04-23T11:21:19.91Z</time></trkpt><trkpt lat="45.8319227" lon="8.840715"><ele>344.0</ele><time>2026-04-23T11:21:21.923Z</time></trkpt><trkpt lat="45.8318635" lon="8.8406685"><ele>343.83333333333337</ele><time>2026-04-23T11:21:22.909Z</time></trkpt><trkpt lat="45.8318034" lon="8.8406116"><ele>343.6666666666667</ele><time>2026-04-23T11:21:23.912Z</time></trkpt><trkpt lat="45.8317485" lon="8.8405363"><ele>343.5</ele><time>2026-04-23T11:21:24.905Z</time></trkpt><trkpt lat="45.831698" lon="8.840435"><ele>343.3333333333333</ele><time>2026-04-23T11:21:25.907Z</time></trkpt><trkpt lat="45.8316506" lon="8.8403076"><ele>343.16666666666663</ele><time>2026-04-23T11:21:26.9Z</time></trkpt><trkpt lat="45.8316089" lon="8.8401609"><ele>343.0</ele><time>2026-04-23T11:21:27.908Z</time></trkpt><trkpt lat="45.8315678" lon="8.8400056"><ele>343.5</ele><time>2026-04-23T11:21:28.903Z</time></trkpt><trkpt lat="45.8315211" lon="8.8398402"><ele>344.0</ele><time>2026-04-23T11:21:29.912Z</time></trkpt><trkpt lat="45.8314685" lon="8.8396743"><ele>344.5</ele><time>2026-04-23T11:21:30.901Z</time></trkpt><trkpt lat="45.8314135" lon="8.8395031"><ele>345.0</ele><time>2026-04-23T11:21:31.904Z</time></trkpt><trkpt lat="45.8313552" lon="8.8393346"><ele>345.5</ele><time>2026-04-23T11:21:32.896Z</time></trkpt><trkpt lat="45.8312921" lon="8.83916"><ele>346.0</ele><time>2026-04-23T11:21:33.904Z</time></trkpt><trkpt lat="45.8312218" lon="8.8389951"><ele>346.5</ele><time>2026-04-23T11:21:34.905Z</time></trkpt><trkpt lat="45.8311412" lon="8.8388365"><ele>347.0</ele><time>2026-04-23T11:21:35.909Z</time></trkpt><trkpt lat="45.8310491" lon="8.8386983"><ele>347.6666666666667</ele><time>2026-04-23T11:21:36.895Z</time></trkpt><trkpt lat="45.8309134" lon="8.8385944"><ele>348.3333333333333</ele><time>2026-04-23T11:21:37.905Z</time></trkpt><trkpt lat="45.8307599" lon="8.8386025"><ele>349.0</ele><time>2026-04-23T11:21:38.896Z</time></trkpt><trkpt lat="45.8306072" lon="8.8386686"><ele>349.0</ele><time>2026-04-23T11:21:39.896Z</time></trkpt><trkpt lat="45.8304315" lon="8.8387742"><ele>349.0</ele><time>2026-04-23T11:21:40.904Z</time></trkpt><trkpt lat="45.8302878" lon="8.8389243"><ele>349.0</ele><time>2026-04-23T11:21:41.908Z</time></trkpt><trkpt lat="45.8301836" lon="8.8390733"><ele>349.66666666666663</ele><time>2026-04-23T11:21:42.908Z</time></trkpt><trkpt lat="45.8300711" lon="8.8392573"><ele>350.3333333333333</ele><time>2026-04-23T11:21:43.909Z</time></trkpt><trkpt lat="45.8299389" lon="8.8394298"><ele>351.0</ele><time>2026-04-23T11:21:44.909Z</time></trkpt><trkpt lat="45.8298209" lon="8.8395858"><ele>351.0</ele><time>2026-04-23T11:21:45.915Z</time></trkpt><trkpt lat="45.8297229" lon="8.8397079"><ele>351.0</ele><time>2026-04-23T11:21:46.906Z</time></trkpt><trkpt lat="45.829637" lon="8.8398175"><ele>351.0</ele><time>2026-04-23T11:21:47.91Z</time></trkpt><trkpt lat="45.8295544" lon="8.8398796"><ele>351.0</ele><time>2026-04-23T11:21:48.901Z</time></trkpt><trkpt lat="45.8294683" lon="8.8399314"><ele>351.0</ele><time>2026-04-23T11:21:49.913Z</time></trkpt><trkpt lat="45.8293939" lon="8.8399499"><ele>351.0</ele><time>2026-04-23T11:21:50.914Z</time></trkpt><trkpt lat="45.829322" lon="8.8399224"><ele>351.0</ele><time>2026-04-23T11:21:51.906Z</time></trkpt><trkpt lat="45.8292476" lon="8.8398329"><ele>351.0</ele><time>2026-04-23T11:21:52.915Z</time></trkpt><trkpt lat="45.8291751" lon="8.8396796"><ele>351.0</ele><time>2026-04-23T11:21:53.9Z</time></trkpt><trkpt lat="45.8290879" lon="8.8395306"><ele>351.0</ele><time>2026-04-23T11:21:54.896Z</time></trkpt><trkpt lat="45.8289839" lon="8.8393741"><ele>355.0</ele><time>2026-04-23T11:21:55.904Z</time></trkpt><trkpt lat="45.828874" lon="8.8392172"><ele>359.0</ele><time>2026-04-23T11:21:56.91Z</time></trkpt><trkpt lat="45.8287628" lon="8.8390605"><ele>363.0</ele><time>2026-04-23T11:21:57.905Z</time></trkpt><trkpt lat="45.82865" lon="8.8389025"><ele>363.0</ele><time>2026-04-23T11:21:58.909Z</time></trkpt><trkpt lat="45.8285156" lon="8.8387307"><ele>363.0</ele><time>2026-04-23T11:21:59.904Z</time></trkpt><trkpt lat="45.8283754" lon="8.8385527"><ele>363.0</ele><time>2026-04-23T11:22:00.903Z</time></trkpt><trkpt lat="45.8282334" lon="8.8383825"><ele>364.3333333333333</ele><time>2026-04-23T11:22:01.898Z</time></trkpt><trkpt lat="45.8281004" lon="8.8382254"><ele>365.66666666666663</ele><time>2026-04-23T11:22:02.898Z</time></trkpt><trkpt lat="45.8279629" lon="8.8380811"><ele>367.0</ele><time>2026-04-23T11:22:03.9Z</time></trkpt><trkpt lat="45.8278435" lon="8.8379109"><ele>367.0</ele><time>2026-04-23T11:22:04.896Z</time></trkpt><trkpt lat="45.8277401" lon="8.8377802"><ele>367.0</ele><time>2026-04-23T11:22:05.894Z</time></trkpt><trkpt lat="45.8276175" lon="8.8376194"><ele>367.0</ele><time>2026-04-23T11:22:06.895Z</time></trkpt><trkpt lat="45.8274954" lon="8.837467"><ele>369.66666666666663</ele><time>2026-04-23T11:22:07.899Z</time></trkpt><trkpt lat="45.8273629" lon="8.8372966"><ele>372.3333333333333</ele><time>2026-04-23T11:22:08.903Z</time></trkpt><trkpt lat="45.8272442" lon="8.8371243"><ele>375.0</ele><time>2026-04-23T11:22:09.91Z</time></trkpt><trkpt lat="45.8271191" lon="8.8369657"><ele>375.0</ele><time>2026-04-23T11:22:10.912Z</time></trkpt><trkpt lat="45.826992" lon="8.8368139"><ele>375.0</ele><time>2026-04-23T11:22:11.916Z</time></trkpt><trkpt lat="45.8268715" lon="8.8366665"><ele>375.0</ele><time>2026-04-23T11:22:12.912Z</time></trkpt><trkpt lat="45.8267725" lon="8.8365523"><ele>375.8</ele><time>2026-04-23T11:22:13.908Z</time></trkpt><trkpt lat="45.8266822" lon="8.8364265"><ele>376.6</ele><time>2026-04-23T11:22:14.917Z</time></trkpt><trkpt lat="45.8266204" lon="8.8363517"><ele>377.4</ele><time>2026-04-23T11:22:15.92Z</time></trkpt><trkpt lat="45.8265565" lon="8.8362522"><ele>378.2</ele><time>2026-04-23T11:22:16.91Z</time></trkpt><trkpt lat="45.8264641" lon="8.8361972"><ele>379.0</ele><time>2026-04-23T11:22:18.899Z</time></trkpt><trkpt lat="45.8264072" lon="8.8361382"><ele>379.0</ele><time>2026-04-23T11:22:21.904Z</time></trkpt><trkpt lat="45.8263232" lon="8.8360698"><ele>379.0</ele><time>2026-04-23T11:22:24.91Z</time></trkpt><trkpt lat="45.8262455" lon="8.8359721"><ele>379.0</ele><time>2026-04-23T11:22:26.901Z</time></trkpt><trkpt lat="45.8261714" lon="8.8358645"><ele>379.0</ele><time>2026-04-23T11:22:28.901Z</time></trkpt><trkpt lat="45.8261112" lon="8.8357809"><ele>379.0</ele><time>2026-04-23T11:22:30.897Z</time></trkpt><trkpt lat="45.8260654" lon="8.8357115"><ele>379.5</ele><time>2026-04-23T11:22:33.899Z</time></trkpt><trkpt lat="45.8260153" lon="8.8356113"><ele>380.0</ele><time>2026-04-23T11:22:37.901Z</time></trkpt><trkpt lat="45.8259708" lon="8.8355429"><ele>380.5</ele><time>2026-04-23T11:22:40.9Z</time></trkpt><trkpt lat="45.8259149" lon="8.8354731"><ele>381.0</ele><time>2026-04-23T11:22:44.896Z</time></trkpt><trkpt lat="45.8258688" lon="8.8353824"><ele>381.5</ele><time>2026-04-23T11:22:47.898Z</time></trkpt><trkpt lat="45.8258569" lon="8.8352822"><ele>382.0</ele><time>2026-04-23T11:22:49.897Z</time></trkpt><trkpt lat="45.8258757" lon="8.8351653"><ele>383.6</ele><time>2026-04-23T11:22:51.892Z</time></trkpt><trkpt lat="45.8259757" lon="8.8350751"><ele>385.20000000000005</ele><time>2026-04-23T11:22:53.888Z</time></trkpt><trkpt lat="45.8260386" lon="8.8350467"><ele>386.8</ele><time>2026-04-23T11:22:54.903Z</time></trkpt><trkpt lat="45.8261064" lon="8.8350113"><ele>388.4</ele><time>2026-04-23T11:22:55.881Z</time></trkpt><trkpt lat="45.8262216" lon="8.8349917"><ele>390.0</ele><time>2026-04-23T11:22:56.892Z</time></trkpt><trkpt lat="45.8263202" lon="8.8349848"><ele>390.0</ele><time>2026-04-23T11:22:57.888Z</time></trkpt><trkpt lat="45.8264075" lon="8.8349928"><ele>390.0</ele><time>2026-04-23T11:22:58.89Z</time></trkpt><trkpt lat="45.8264989" lon="8.8350203"><ele>390.0</ele><time>2026-04-23T11:22:59.894Z</time></trkpt><trkpt lat="45.8265927" lon="8.8350348"><ele>390.0</ele><time>2026-04-23T11:23:00.897Z</time></trkpt><trkpt lat="45.8266903" lon="8.8350509"><ele>390.0</ele><time>2026-04-23T11:23:01.899Z</time></trkpt><trkpt lat="45.8267803" lon="8.8350687"><ele>389.6666666666667</ele><time>2026-04-23T11:23:02.906Z</time></trkpt><trkpt lat="45.8268667" lon="8.8350773"><ele>389.33333333333337</ele><time>2026-04-23T11:23:03.907Z</time></trkpt><trkpt lat="45.826942" lon="8.8350838"><ele>389.0</ele><time>2026-04-23T11:23:04.911Z</time></trkpt><trkpt lat="45.8270146" lon="8.8350868"><ele>388.6666666666667</ele><time>2026-04-23T11:23:05.915Z</time></trkpt><trkpt lat="45.8270863" lon="8.8350903"><ele>388.33333333333337</ele><time>2026-04-23T11:23:06.911Z</time></trkpt><trkpt lat="45.8271635" lon="8.8350885"><ele>388.0</ele><time>2026-04-23T11:23:07.913Z</time></trkpt><trkpt lat="45.8272553" lon="8.8350913"><ele>388.0</ele><time>2026-04-23T11:23:08.914Z</time></trkpt><trkpt lat="45.8273451" lon="8.8350843"><ele>388.0</ele><time>2026-04-23T11:23:09.91Z</time></trkpt><trkpt lat="45.8274395" lon="8.8350794"><ele>388.0</ele><time>2026-04-23T11:23:10.91Z</time></trkpt><trkpt lat="45.8275365" lon="8.8350808"><ele>388.0</ele><time>2026-04-23T11:23:11.904Z</time></trkpt><trkpt lat="45.827626" lon="8.83509"><ele>388.0</ele><time>2026-04-23T11:23:12.908Z</time></trkpt><trkpt lat="45.8277246" lon="8.8350996"><ele>388.2</ele><time>2026-04-23T11:23:13.907Z</time></trkpt><trkpt lat="45.8278198" lon="8.8350969"><ele>388.4</ele><time>2026-04-23T11:23:14.907Z</time></trkpt><trkpt lat="45.8279156" lon="8.8350932"><ele>388.59999999999997</ele><time>2026-04-23T11:23:15.907Z</time></trkpt><trkpt lat="45.8280082" lon="8.8350881"><ele>388.79999999999995</ele><time>2026-04-23T11:23:16.907Z</time></trkpt><trkpt lat="45.8281018" lon="8.8350708"><ele>389.0</ele><time>2026-04-23T11:23:17.904Z</time></trkpt><trkpt lat="45.8281967" lon="8.835058"><ele>389.0</ele><time>2026-04-23T11:23:18.908Z</time></trkpt><trkpt lat="45.8282895" lon="8.8350398"><ele>389.0</ele><time>2026-04-23T11:23:19.905Z</time></trkpt><trkpt lat="45.8283873" lon="8.8350175"><ele>389.0</ele><time>2026-04-23T11:23:20.906Z</time></trkpt><trkpt lat="45.8284995" lon="8.8350036"><ele>389.0</ele><time>2026-04-23T11:23:21.907Z</time></trkpt><trkpt lat="45.828615" lon="8.8349886"><ele>389.0</ele><time>2026-04-23T11:23:22.914Z</time></trkpt><trkpt lat="45.8287349" lon="8.8349793"><ele>389.0</ele><time>2026-04-23T11:23:23.907Z</time></trkpt><trkpt lat="45.8288493" lon="8.8349731"><ele>389.0</ele><time>2026-04-23T11:23:24.904Z</time></trkpt><trkpt lat="45.8289592" lon="8.8349533"><ele>389.0</ele><time>2026-04-23T11:23:25.933Z</time></trkpt><trkpt lat="45.8290702" lon="8.8349342"><ele>389.0</ele><time>2026-04-23T11:23:26.905Z</time></trkpt><trkpt lat="45.8291742" lon="8.8349072"><ele>389.0</ele><time>2026-04-23T11:23:27.897Z</time></trkpt><trkpt lat="45.829275" lon="8.8348855"><ele>389.25</ele><time>2026-04-23T11:23:28.893Z</time></trkpt><trkpt lat="45.8293881" lon="8.83487"><ele>389.5</ele><time>2026-04-23T11:23:29.902Z</time></trkpt><trkpt lat="45.8295053" lon="8.8348454"><ele>389.75</ele><time>2026-04-23T11:23:30.906Z</time></trkpt><trkpt lat="45.8296215" lon="8.8348162"><ele>390.0</ele><time>2026-04-23T11:23:31.896Z</time></trkpt><trkpt lat="45.8297398" lon="8.834794"><ele>390.0</ele><time>2026-04-23T11:23:32.892Z</time></trkpt><trkpt lat="45.8298447" lon="8.8347766"><ele>390.0</ele><time>2026-04-23T11:23:33.89Z</time></trkpt><trkpt lat="45.829947" lon="8.8347844"><ele>390.0</ele><time>2026-04-23T11:23:34.895Z</time></trkpt><trkpt lat="45.8300435" lon="8.8347727"><ele>390.0</ele><time>2026-04-23T11:23:35.891Z</time></trkpt><trkpt lat="45.8301382" lon="8.8347707"><ele>390.0</ele><time>2026-04-23T11:23:36.9Z</time></trkpt><trkpt lat="45.8302259" lon="8.8347644"><ele>390.0</ele><time>2026-04-23T11:23:37.901Z</time></trkpt><trkpt lat="45.8303075" lon="8.8347598"><ele>390.0</ele><time>2026-04-23T11:23:38.897Z</time></trkpt><trkpt lat="45.8303771" lon="8.8347495"><ele>390.0</ele><time>2026-04-23T11:23:39.898Z</time></trkpt><trkpt lat="45.8304895" lon="8.8347531"><ele>390.0</ele><time>2026-04-23T11:23:41.904Z</time></trkpt><trkpt lat="45.8305934" lon="8.8347591"><ele>390.0</ele><time>2026-04-23T11:23:43.899Z</time></trkpt><trkpt lat="45.8306889" lon="8.8347773"><ele>390.0</ele><time>2026-04-23T11:23:45.902Z</time></trkpt><trkpt lat="45.8307525" lon="8.834843"><ele>390.0</ele><time>2026-04-23T11:23:47.896Z</time></trkpt><trkpt lat="45.8308183" lon="8.8347528"><ele>390.0</ele><time>2026-04-23T11:23:52.917Z</time></trkpt><trkpt lat="45.8307768" lon="8.8346085"><ele>390.0</ele><time>2026-04-23T11:23:54.918Z</time></trkpt><trkpt lat="45.8306993" lon="8.8344502"><ele>390.0</ele><time>2026-04-23T11:23:56.917Z</time></trkpt><trkpt lat="45.8306827" lon="8.8343617"><ele>390.0</ele><time>2026-04-23T11:23:57.91Z</time></trkpt><trkpt lat="45.8306628" lon="8.834259"><ele>390.0</ele><time>2026-04-23T11:23:58.91Z</time></trkpt><trkpt lat="45.8306511" lon="8.8341498"><ele>390.0</ele><time>2026-04-23T11:23:59.91Z</time></trkpt><trkpt lat="45.8306349" lon="8.8340459"><ele>390.0</ele><time>2026-04-23T11:24:00.906Z</time></trkpt><trkpt lat="45.8306273" lon="8.8339338"><ele>390.0</ele><time>2026-04-23T11:24:01.913Z</time></trkpt><trkpt lat="45.8306219" lon="8.8338174"><ele>390.0</ele><time>2026-04-23T11:24:02.907Z</time></trkpt><trkpt lat="45.8306113" lon="8.8336795"><ele>390.0</ele><time>2026-04-23T11:24:03.917Z</time></trkpt><trkpt lat="45.8306048" lon="8.8335414"><ele>390.0</ele><time>2026-04-23T11:24:04.906Z</time></trkpt><trkpt lat="45.830591" lon="8.8334012"><ele>390.0</ele><time>2026-04-23T11:24:05.912Z</time></trkpt><trkpt lat="45.8305785" lon="8.8332576"><ele>390.0</ele><time>2026-04-23T11:24:06.912Z</time></trkpt><trkpt lat="45.8305702" lon="8.8331087"><ele>390.0</ele><time>2026-04-23T11:24:07.909Z</time></trkpt><trkpt lat="45.8305637" lon="8.832957"><ele>390.2</ele><time>2026-04-23T11:24:08.911Z</time></trkpt><trkpt lat="45.8305559" lon="8.8328108"><ele>390.4</ele><time>2026-04-23T11:24:09.915Z</time></trkpt><trkpt lat="45.8305484" lon="8.8326682"><ele>390.6</ele><time>2026-04-23T11:24:10.909Z</time></trkpt><trkpt lat="45.830541" lon="8.8325213"><ele>390.8</ele><time>2026-04-23T11:24:11.919Z</time></trkpt><trkpt lat="45.8305336" lon="8.8323828"><ele>391.0</ele><time>2026-04-23T11:24:12.918Z</time></trkpt><trkpt lat="45.8305287" lon="8.8322519"><ele>391.20000000000005</ele><time>2026-04-23T11:24:13.909Z</time></trkpt><trkpt lat="45.8305246" lon="8.8321243"><ele>391.40000000000003</ele><time>2026-04-23T11:24:14.917Z</time></trkpt><trkpt lat="45.8305232" lon="8.83199"><ele>391.6</ele><time>2026-04-23T11:24:15.918Z</time></trkpt><trkpt lat="45.8305151" lon="8.8318499"><ele>391.8</ele><time>2026-04-23T11:24:16.908Z</time></trkpt><trkpt lat="45.8305193" lon="8.8317032"><ele>392.0</ele><time>2026-04-23T11:24:17.915Z</time></trkpt><trkpt lat="45.8305155" lon="8.8315466"><ele>392.20000000000005</ele><time>2026-04-23T11:24:18.905Z</time></trkpt><trkpt lat="45.8305086" lon="8.8313942"><ele>392.4</ele><time>2026-04-23T11:24:19.911Z</time></trkpt><trkpt lat="45.830503" lon="8.8312456"><ele>392.6</ele><time>2026-04-23T11:24:20.909Z</time></trkpt><trkpt lat="45.8304986" lon="8.8310961"><ele>392.79999999999995</ele><time>2026-04-23T11:24:21.912Z</time></trkpt><trkpt lat="45.8304964" lon="8.8309485"><ele>393.0</ele><time>2026-04-23T11:24:22.914Z</time></trkpt><trkpt lat="45.8304905" lon="8.8307953"><ele>393.5</ele><time>2026-04-23T11:24:23.907Z</time></trkpt><trkpt lat="45.8304852" lon="8.8306327"><ele>394.0</ele><time>2026-04-23T11:24:24.916Z</time></trkpt><trkpt lat="45.8304791" lon="8.8304578"><ele>394.5</ele><time>2026-04-23T11:24:25.916Z</time></trkpt><trkpt lat="45.8304711" lon="8.8302693"><ele>395.0</ele><time>2026-04-23T11:24:26.931Z</time></trkpt><trkpt lat="45.830461" lon="8.8300651"><ele>395.5</ele><time>2026-04-23T11:24:27.912Z</time></trkpt><trkpt lat="45.8304496" lon="8.8298571"><ele>396.0</ele><time>2026-04-23T11:24:28.908Z</time></trkpt><trkpt lat="45.830438" lon="8.8296495"><ele>396.5</ele><time>2026-04-23T11:24:29.914Z</time></trkpt><trkpt lat="45.8304299" lon="8.8294444"><ele>397.0</ele><time>2026-04-23T11:24:30.911Z</time></trkpt><trkpt lat="45.8304227" lon="8.8292452"><ele>397.25</ele><time>2026-04-23T11:24:31.907Z</time></trkpt><trkpt lat="45.8304093" lon="8.8290474"><ele>397.5</ele><time>2026-04-23T11:24:32.905Z</time></trkpt><trkpt lat="45.8303967" lon="8.8288461"><ele>397.75</ele><time>2026-04-23T11:24:33.911Z</time></trkpt><trkpt lat="45.8303842" lon="8.8286438"><ele>398.0</ele><time>2026-04-23T11:24:34.915Z</time></trkpt><trkpt lat="45.8303666" lon="8.8284481"><ele>398.75</ele><time>2026-04-23T11:24:35.905Z</time></trkpt><trkpt lat="45.8303495" lon="8.8282567"><ele>399.5</ele><time>2026-04-23T11:24:36.912Z</time></trkpt><trkpt lat="45.8303362" lon="8.8280724"><ele>400.25</ele><time>2026-04-23T11:24:37.911Z</time></trkpt><trkpt lat="45.8303257" lon="8.8278971"><ele>401.0</ele><time>2026-04-23T11:24:38.911Z</time></trkpt><trkpt lat="45.8303119" lon="8.8277223"><ele>401.0</ele><time>2026-04-23T11:24:39.916Z</time></trkpt><trkpt lat="45.8303057" lon="8.8275446"><ele>401.0</ele><time>2026-04-23T11:24:40.904Z</time></trkpt><trkpt lat="45.8302974" lon="8.8273594"><ele>401.0</ele><time>2026-04-23T11:24:41.908Z</time></trkpt><trkpt lat="45.8302891" lon="8.8271837"><ele>401.0</ele><time>2026-04-23T11:24:42.907Z</time></trkpt><trkpt lat="45.8302847" lon="8.8270193"><ele>401.0</ele><time>2026-04-23T11:24:43.901Z</time></trkpt><trkpt lat="45.8302815" lon="8.8268614"><ele>401.0</ele><time>2026-04-23T11:24:44.903Z</time></trkpt><trkpt lat="45.8302773" lon="8.8267112"><ele>401.0</ele><time>2026-04-23T11:24:45.908Z</time></trkpt><trkpt lat="45.8302794" lon="8.8265638"><ele>401.0</ele><time>2026-04-23T11:24:46.914Z</time></trkpt><trkpt lat="45.8302731" lon="8.8264048"><ele>401.0</ele><time>2026-04-23T11:24:47.907Z</time></trkpt><trkpt lat="45.8302719" lon="8.8262593"><ele>401.20000000000005</ele><time>2026-04-23T11:24:48.914Z</time></trkpt><trkpt lat="45.8302703" lon="8.8261093"><ele>401.40000000000003</ele><time>2026-04-23T11:24:49.92Z</time></trkpt><trkpt lat="45.8302665" lon="8.8259532"><ele>401.6</ele><time>2026-04-23T11:24:50.917Z</time></trkpt><trkpt lat="45.830265" lon="8.8258154"><ele>401.8</ele><time>2026-04-23T11:24:51.927Z</time></trkpt><trkpt lat="45.8302657" lon="8.8256857"><ele>402.0</ele><time>2026-04-23T11:24:52.927Z</time></trkpt><trkpt lat="45.8302639" lon="8.825562"><ele>402.0</ele><time>2026-04-23T11:24:53.914Z</time></trkpt><trkpt lat="45.8302613" lon="8.8254514"><ele>402.0</ele><time>2026-04-23T11:24:54.912Z</time></trkpt><trkpt lat="45.830258" lon="8.8253475"><ele>402.0</ele><time>2026-04-23T11:24:55.912Z</time></trkpt><trkpt lat="45.8302534" lon="8.8252429"><ele>402.0</ele><time>2026-04-23T11:24:56.902Z</time></trkpt><trkpt lat="45.8302464" lon="8.8251339"><ele>402.0</ele><time>2026-04-23T11:24:57.919Z</time></trkpt><trkpt lat="45.8302277" lon="8.8250146"><ele>402.0</ele><time>2026-04-23T11:24:58.91Z</time></trkpt><trkpt lat="45.8302001" lon="8.8248888"><ele>402.1666666666667</ele><time>2026-04-23T11:24:59.907Z</time></trkpt><trkpt lat="45.830163" lon="8.8247756"><ele>402.33333333333337</ele><time>2026-04-23T11:25:00.907Z</time></trkpt><trkpt lat="45.8301151" lon="8.8246715"><ele>402.5</ele><time>2026-04-23T11:25:01.907Z</time></trkpt><trkpt lat="45.8300523" lon="8.8245749"><ele>402.6666666666667</ele><time>2026-04-23T11:25:02.901Z</time></trkpt><trkpt lat="45.8299863" lon="8.8244806"><ele>402.83333333333337</ele><time>2026-04-23T11:25:03.908Z</time></trkpt><trkpt lat="45.8299228" lon="8.8243917"><ele>403.0</ele><time>2026-04-23T11:25:04.901Z</time></trkpt><trkpt lat="45.8298697" lon="8.824316"><ele>403.6666666666667</ele><time>2026-04-23T11:25:05.901Z</time></trkpt><trkpt lat="45.8298279" lon="8.8242484"><ele>404.33333333333337</ele><time>2026-04-23T11:25:06.904Z</time></trkpt><trkpt lat="45.8297426" lon="8.8241635"><ele>405.0</ele><time>2026-04-23T11:25:08.897Z</time></trkpt><trkpt lat="45.8296852" lon="8.8241246"><ele>405.66666666666663</ele><time>2026-04-23T11:25:10.897Z</time></trkpt><trkpt lat="45.8296174" lon="8.8240685"><ele>406.3333333333333</ele><time>2026-04-23T11:25:56.892Z</time></trkpt><trkpt lat="45.8295219" lon="8.8239688"><ele>407.0</ele><time>2026-04-23T11:25:58.899Z</time></trkpt><trkpt lat="45.8294422" lon="8.8238839"><ele>407.0</ele><time>2026-04-23T11:26:00.894Z</time></trkpt><trkpt lat="45.829393" lon="8.8238102"><ele>407.0</ele><time>2026-04-23T11:26:05.903Z</time></trkpt><trkpt lat="45.8293424" lon="8.8237344"><ele>407.0</ele><time>2026-04-23T11:26:08.903Z</time></trkpt><trkpt lat="45.8293559" lon="8.8236317"><ele>407.0</ele><time>2026-04-23T11:26:12.912Z</time></trkpt><trkpt lat="45.829461" lon="8.8236012"><ele>407.0</ele><time>2026-04-23T11:26:15.906Z</time></trkpt><trkpt lat="45.8295862" lon="8.8235721"><ele>406.99999999999994</ele><time>2026-04-23T11:26:17.907Z</time></trkpt><trkpt lat="45.8296605" lon="8.823552"><ele>407.0</ele><time>2026-04-23T11:26:18.914Z</time></trkpt><trkpt lat="45.8297344" lon="8.8235307"><ele>407.0</ele><time>2026-04-23T11:26:19.905Z</time></trkpt><trkpt lat="45.8298128" lon="8.8235041"><ele>407.0</ele><time>2026-04-23T11:26:20.904Z</time></trkpt><trkpt lat="45.8299019" lon="8.8234761"><ele>406.99999999999994</ele><time>2026-04-23T11:26:21.906Z</time></trkpt><trkpt lat="45.8299995" lon="8.8234445"><ele>407.0</ele><time>2026-04-23T11:26:22.906Z</time></trkpt><trkpt lat="45.8301041" lon="8.8234186"><ele>408.25</ele><time>2026-04-23T11:26:23.896Z</time></trkpt><trkpt lat="45.8302193" lon="8.8233866"><ele>409.5</ele><time>2026-04-23T11:26:24.896Z</time></trkpt><trkpt lat="45.8303358" lon="8.8233582"><ele>410.75</ele><time>2026-04-23T11:26:25.9Z</time></trkpt><trkpt lat="45.830456" lon="8.8233203"><ele>412.0</ele><time>2026-04-23T11:26:26.901Z</time></trkpt><trkpt lat="45.8305657" lon="8.8232889"><ele>412.0</ele><time>2026-04-23T11:26:27.893Z</time></trkpt><trkpt lat="45.830665" lon="8.8232592"><ele>412.0</ele><time>2026-04-23T11:26:28.894Z</time></trkpt><trkpt lat="45.830768" lon="8.8232299"><ele>412.0</ele><time>2026-04-23T11:26:29.899Z</time></trkpt><trkpt lat="45.8308689" lon="8.8232115"><ele>412.0</ele><time>2026-04-23T11:26:30.915Z</time></trkpt><trkpt lat="45.8309689" lon="8.8231965"><ele>412.0</ele><time>2026-04-23T11:26:31.91Z</time></trkpt><trkpt lat="45.8310723" lon="8.8231774"><ele>412.20000000000005</ele><time>2026-04-23T11:26:32.908Z</time></trkpt><trkpt lat="45.8311675" lon="8.8231549"><ele>412.4</ele><time>2026-04-23T11:26:33.908Z</time></trkpt><trkpt lat="45.8312644" lon="8.8231286"><ele>412.6</ele><time>2026-04-23T11:26:34.911Z</time></trkpt><trkpt lat="45.8313641" lon="8.823098"><ele>412.79999999999995</ele><time>2026-04-23T11:26:35.91Z</time></trkpt><trkpt lat="45.8314563" lon="8.8230552"><ele>413.0</ele><time>2026-04-23T11:26:36.903Z</time></trkpt><trkpt lat="45.8315529" lon="8.8230068"><ele>413.0</ele><time>2026-04-23T11:26:37.903Z</time></trkpt><trkpt lat="45.8316554" lon="8.8229333"><ele>413.0</ele><time>2026-04-23T11:26:38.903Z</time></trkpt><trkpt lat="45.8317555" lon="8.8228373"><ele>413.0</ele><time>2026-04-23T11:26:39.912Z</time></trkpt><trkpt lat="45.8318514" lon="8.8227481"><ele>413.0</ele><time>2026-04-23T11:26:40.904Z</time></trkpt><trkpt lat="45.8319311" lon="8.8226418"><ele>412.79999999999995</ele><time>2026-04-23T11:26:41.912Z</time></trkpt><trkpt lat="45.832002" lon="8.8225092"><ele>412.6</ele><time>2026-04-23T11:26:42.905Z</time></trkpt><trkpt lat="45.8320718" lon="8.8223857"><ele>412.4</ele><time>2026-04-23T11:26:43.913Z</time></trkpt><trkpt lat="45.8321426" lon="8.8222754"><ele>412.20000000000005</ele><time>2026-04-23T11:26:44.912Z</time></trkpt><trkpt lat="45.8322084" lon="8.8221792"><ele>412.0</ele><time>2026-04-23T11:26:45.92Z</time></trkpt><trkpt lat="45.8322794" lon="8.822086"><ele>412.0</ele><time>2026-04-23T11:26:46.909Z</time></trkpt><trkpt lat="45.8323514" lon="8.8219999"><ele>412.0</ele><time>2026-04-23T11:26:47.914Z</time></trkpt><trkpt lat="45.8324278" lon="8.8219115"><ele>412.0</ele><time>2026-04-23T11:26:48.912Z</time></trkpt><trkpt lat="45.832507" lon="8.8218287"><ele>412.0</ele><time>2026-04-23T11:26:49.911Z</time></trkpt><trkpt lat="45.8325863" lon="8.8217324"><ele>412.0</ele><time>2026-04-23T11:26:50.918Z</time></trkpt><trkpt lat="45.8326636" lon="8.8216394"><ele>412.20000000000005</ele><time>2026-04-23T11:26:51.906Z</time></trkpt><trkpt lat="45.8327416" lon="8.8215369"><ele>412.4</ele><time>2026-04-23T11:26:52.913Z</time></trkpt><trkpt lat="45.832819" lon="8.8214321"><ele>412.6</ele><time>2026-04-23T11:26:53.913Z</time></trkpt><trkpt lat="45.8328959" lon="8.8213425"><ele>412.79999999999995</ele><time>2026-04-23T11:26:54.917Z</time></trkpt><trkpt lat="45.8329708" lon="8.8212433"><ele>413.0</ele><time>2026-04-23T11:26:55.912Z</time></trkpt><trkpt lat="45.8330468" lon="8.8211432"><ele>413.0</ele><time>2026-04-23T11:26:56.926Z</time></trkpt><trkpt lat="45.833131" lon="8.8210452"><ele>413.0</ele><time>2026-04-23T11:26:57.918Z</time></trkpt><trkpt lat="45.8332258" lon="8.8209233"><ele>413.0</ele><time>2026-04-23T11:26:58.917Z</time></trkpt><trkpt lat="45.8333282" lon="8.8207933"><ele>413.0</ele><time>2026-04-23T11:26:59.925Z</time></trkpt><trkpt lat="45.8334435" lon="8.8206537"><ele>412.66666666666663</ele><time>2026-04-23T11:27:00.912Z</time></trkpt><trkpt lat="45.8335744" lon="8.8204916"><ele>412.33333333333337</ele><time>2026-04-23T11:27:01.936Z</time></trkpt><trkpt lat="45.8337257" lon="8.8203136"><ele>412.0</ele><time>2026-04-23T11:27:02.915Z</time></trkpt><trkpt lat="45.833892" lon="8.8201114"><ele>414.0</ele><time>2026-04-23T11:27:03.917Z</time></trkpt><trkpt lat="45.8340814" lon="8.8199065"><ele>416.0</ele><time>2026-04-23T11:27:04.919Z</time></trkpt><trkpt lat="45.8342621" lon="8.8197234"><ele>416.0</ele><time>2026-04-23T11:27:05.921Z</time></trkpt><trkpt lat="45.8344077" lon="8.8195446"><ele>416.0</ele><time>2026-04-23T11:27:06.918Z</time></trkpt><trkpt lat="45.8345556" lon="8.8193733"><ele>416.0</ele><time>2026-04-23T11:27:07.922Z</time></trkpt><trkpt lat="45.8346891" lon="8.8192069"><ele>417.0</ele><time>2026-04-23T11:27:08.92Z</time></trkpt><trkpt lat="45.8348345" lon="8.8190407"><ele>418.0</ele><time>2026-04-23T11:27:09.909Z</time></trkpt><trkpt lat="45.8349733" lon="8.8188823"><ele>419.0</ele><time>2026-04-23T11:27:10.921Z</time></trkpt><trkpt lat="45.8350974" lon="8.8187371"><ele>419.0</ele><time>2026-04-23T11:27:11.92Z</time></trkpt><trkpt lat="45.8352177" lon="8.818609"><ele>419.0</ele><time>2026-04-23T11:27:12.926Z</time></trkpt><trkpt lat="45.8353201" lon="8.8184931"><ele>419.0</ele><time>2026-04-23T11:27:13.928Z</time></trkpt><trkpt lat="45.8354256" lon="8.8183714"><ele>419.0</ele><time>2026-04-23T11:27:14.92Z</time></trkpt><trkpt lat="45.83553" lon="8.8182498"><ele>419.4</ele><time>2026-04-23T11:27:15.931Z</time></trkpt><trkpt lat="45.83562" lon="8.8181277"><ele>419.79999999999995</ele><time>2026-04-23T11:27:16.912Z</time></trkpt><trkpt lat="45.8357044" lon="8.8180334"><ele>420.20000000000005</ele><time>2026-04-23T11:27:17.921Z</time></trkpt><trkpt lat="45.8357799" lon="8.81795"><ele>420.6</ele><time>2026-04-23T11:27:18.915Z</time></trkpt><trkpt lat="45.8358516" lon="8.8178713"><ele>421.0</ele><time>2026-04-23T11:27:19.924Z</time></trkpt><trkpt lat="45.8359158" lon="8.8178012"><ele>421.0</ele><time>2026-04-23T11:27:20.925Z</time></trkpt><trkpt lat="45.8359934" lon="8.8177156"><ele>421.0</ele><time>2026-04-23T11:27:21.92Z</time></trkpt><trkpt lat="45.8360713" lon="8.8176305"><ele>421.0</ele><time>2026-04-23T11:27:22.922Z</time></trkpt><trkpt lat="45.836156" lon="8.8175346"><ele>421.0</ele><time>2026-04-23T11:27:23.919Z</time></trkpt><trkpt lat="45.8362474" lon="8.8174212"><ele>421.0</ele><time>2026-04-23T11:27:24.92Z</time></trkpt><trkpt lat="45.8363411" lon="8.8173022"><ele>421.0</ele><time>2026-04-23T11:27:25.911Z</time></trkpt><trkpt lat="45.8364318" lon="8.8171847"><ele>421.0</ele><time>2026-04-23T11:27:26.923Z</time></trkpt><trkpt lat="45.8365281" lon="8.8170652"><ele>421.0</ele><time>2026-04-23T11:27:27.91Z</time></trkpt><trkpt lat="45.8366278" lon="8.8169505"><ele>421.0</ele><time>2026-04-23T11:27:28.919Z</time></trkpt><trkpt lat="45.8367308" lon="8.816838"><ele>421.0</ele><time>2026-04-23T11:27:29.917Z</time></trkpt><trkpt lat="45.8368342" lon="8.8167413"><ele>421.0</ele><time>2026-04-23T11:27:30.916Z</time></trkpt><trkpt lat="45.8369297" lon="8.816658"><ele>421.0</ele><time>2026-04-23T11:27:31.914Z</time></trkpt><trkpt lat="45.8370209" lon="8.8165714"><ele>421.0</ele><time>2026-04-23T11:27:32.923Z</time></trkpt><trkpt lat="45.8371059" lon="8.8165014"><ele>421.0</ele><time>2026-04-23T11:27:33.911Z</time></trkpt><trkpt lat="45.8372028" lon="8.8164017"><ele>421.00000000000006</ele><time>2026-04-23T11:27:35.906Z</time></trkpt><trkpt lat="45.837273" lon="8.8163239"><ele>421.0</ele><time>2026-04-23T11:27:37.919Z</time></trkpt><trkpt lat="45.8373198" lon="8.8162213"><ele>421.0</ele><time>2026-04-23T11:27:41.913Z</time></trkpt><trkpt lat="45.8374046" lon="8.8161081"><ele>421.0</ele><time>2026-04-23T11:27:43.915Z</time></trkpt><trkpt lat="45.8374533" lon="8.8160398"><ele>421.00000000000006</ele><time>2026-04-23T11:27:44.912Z</time></trkpt><trkpt lat="45.8375083" lon="8.8159599"><ele>421.0</ele><time>2026-04-23T11:27:45.922Z</time></trkpt><trkpt lat="45.8375682" lon="8.8158736"><ele>421.1666666666667</ele><time>2026-04-23T11:27:46.908Z</time></trkpt><trkpt lat="45.8376308" lon="8.8157841"><ele>421.33333333333337</ele><time>2026-04-23T11:27:47.912Z</time></trkpt><trkpt lat="45.8376957" lon="8.8156967"><ele>421.5</ele><time>2026-04-23T11:27:48.921Z</time></trkpt><trkpt lat="45.8377573" lon="8.8156205"><ele>421.66666666666663</ele><time>2026-04-23T11:27:49.922Z</time></trkpt><trkpt lat="45.8378237" lon="8.8155378"><ele>421.8333333333333</ele><time>2026-04-23T11:27:50.928Z</time></trkpt><trkpt lat="45.8378929" lon="8.8154509"><ele>422.0</ele><time>2026-04-23T11:27:51.924Z</time></trkpt><trkpt lat="45.8379664" lon="8.8153555"><ele>422.20000000000005</ele><time>2026-04-23T11:27:52.926Z</time></trkpt><trkpt lat="45.8380422" lon="8.8152655"><ele>422.4</ele><time>2026-04-23T11:27:53.926Z</time></trkpt><trkpt lat="45.8381328" lon="8.8151732"><ele>422.6</ele><time>2026-04-23T11:27:54.926Z</time></trkpt><trkpt lat="45.8382241" lon="8.8150815"><ele>422.79999999999995</ele><time>2026-04-23T11:27:55.923Z</time></trkpt><trkpt lat="45.8383063" lon="8.8149919"><ele>423.0</ele><time>2026-04-23T11:27:56.923Z</time></trkpt><trkpt lat="45.8383874" lon="8.8149113"><ele>423.0</ele><time>2026-04-23T11:27:57.92Z</time></trkpt><trkpt lat="45.8384659" lon="8.8148248"><ele>423.0</ele><time>2026-04-23T11:27:58.917Z</time></trkpt><trkpt lat="45.8385417" lon="8.8147332"><ele>423.0</ele><time>2026-04-23T11:27:59.918Z</time></trkpt><trkpt lat="45.8386208" lon="8.814636"><ele>423.0</ele><time>2026-04-23T11:28:00.912Z</time></trkpt><trkpt lat="45.838693" lon="8.8145341"><ele>423.0</ele><time>2026-04-23T11:28:01.902Z</time></trkpt><trkpt lat="45.8387566" lon="8.8144217"><ele>427.59999999999997</ele><time>2026-04-23T11:28:02.905Z</time></trkpt><trkpt lat="45.8388148" lon="8.8142937"><ele>432.2</ele><time>2026-04-23T11:28:03.933Z</time></trkpt><trkpt lat="45.838852" lon="8.8141418"><ele>436.8</ele><time>2026-04-23T11:28:04.893Z</time></trkpt><trkpt lat="45.8388586" lon="8.8139826"><ele>441.4</ele><time>2026-04-23T11:28:05.897Z</time></trkpt><trkpt lat="45.8388542" lon="8.8138249"><ele>446.0</ele><time>2026-04-23T11:28:06.9Z</time></trkpt><trkpt lat="45.8388449" lon="8.8136602"><ele>447.75</ele><time>2026-04-23T11:28:07.896Z</time></trkpt><trkpt lat="45.8388312" lon="8.8134877"><ele>449.5</ele><time>2026-04-23T11:28:08.893Z</time></trkpt><trkpt lat="45.8388237" lon="8.8133061"><ele>451.25</ele><time>2026-04-23T11:28:09.895Z</time></trkpt><trkpt lat="45.8388136" lon="8.8131185"><ele>453.0</ele><time>2026-04-23T11:28:10.894Z</time></trkpt><trkpt lat="45.838812" lon="8.8129448"><ele>453.0</ele><time>2026-04-23T11:28:11.896Z</time></trkpt><trkpt lat="45.8388096" lon="8.8127742"><ele>453.0</ele><time>2026-04-23T11:28:12.896Z</time></trkpt><trkpt lat="45.8388097" lon="8.8126073"><ele>453.0</ele><time>2026-04-23T11:28:13.907Z</time></trkpt><trkpt lat="45.838811" lon="8.8124471"><ele>453.0</ele><time>2026-04-23T11:28:14.898Z</time></trkpt><trkpt lat="45.8388087" lon="8.8122859"><ele>452.75</ele><time>2026-04-23T11:28:15.911Z</time></trkpt><trkpt lat="45.8388086" lon="8.812123"><ele>452.5</ele><time>2026-04-23T11:28:16.898Z</time></trkpt><trkpt lat="45.8388171" lon="8.8119586"><ele>452.25</ele><time>2026-04-23T11:28:17.906Z</time></trkpt><trkpt lat="45.8388208" lon="8.8117979"><ele>452.0</ele><time>2026-04-23T11:28:18.907Z</time></trkpt><trkpt lat="45.838822" lon="8.8116292"><ele>451.75</ele><time>2026-04-23T11:28:19.9Z</time></trkpt><trkpt lat="45.8388211" lon="8.8114512"><ele>451.5</ele><time>2026-04-23T11:28:20.91Z</time></trkpt><trkpt lat="45.838827" lon="8.8112703"><ele>451.25</ele><time>2026-04-23T11:28:21.905Z</time></trkpt><trkpt lat="45.8388397" lon="8.8110862"><ele>451.0</ele><time>2026-04-23T11:28:22.913Z</time></trkpt><trkpt lat="45.8388463" lon="8.8108949"><ele>450.25</ele><time>2026-04-23T11:28:23.902Z</time></trkpt><trkpt lat="45.8388548" lon="8.8107289"><ele>449.5</ele><time>2026-04-23T11:28:24.913Z</time></trkpt><trkpt lat="45.8388625" lon="8.8105713"><ele>448.75</ele><time>2026-04-23T11:28:25.91Z</time></trkpt><trkpt lat="45.8388851" lon="8.8104094"><ele>448.0</ele><time>2026-04-23T11:28:26.902Z</time></trkpt><trkpt lat="45.8389165" lon="8.8102479"><ele>447.50000000000006</ele><time>2026-04-23T11:28:27.901Z</time></trkpt><trkpt lat="45.8389516" lon="8.8101062"><ele>447.0</ele><time>2026-04-23T11:28:28.902Z</time></trkpt><trkpt lat="45.8389935" lon="8.8099787"><ele>446.5</ele><time>2026-04-23T11:28:29.899Z</time></trkpt><trkpt lat="45.8390341" lon="8.8098731"><ele>446.0</ele><time>2026-04-23T11:28:30.912Z</time></trkpt><trkpt lat="45.8390724" lon="8.8097793"><ele>445.50000000000006</ele><time>2026-04-23T11:28:31.91Z</time></trkpt><trkpt lat="45.8391102" lon="8.8096898"><ele>445.0</ele><time>2026-04-23T11:28:32.918Z</time></trkpt><trkpt lat="45.8391452" lon="8.8095921"><ele>445.00000000000006</ele><time>2026-04-23T11:28:33.934Z</time></trkpt><trkpt lat="45.8391761" lon="8.8094925"><ele>445.0</ele><time>2026-04-23T11:28:34.914Z</time></trkpt><trkpt lat="45.8392049" lon="8.8093956"><ele>445.0</ele><time>2026-04-23T11:28:35.915Z</time></trkpt><trkpt lat="45.839243" lon="8.8093198"><ele>445.0</ele><time>2026-04-23T11:28:36.92Z</time></trkpt><trkpt lat="45.839312" lon="8.8092916"><ele>445.00000000000006</ele><time>2026-04-23T11:28:38.918Z</time></trkpt><trkpt lat="45.8393978" lon="8.8092863"><ele>445.0</ele><time>2026-04-23T11:28:40.922Z</time></trkpt><trkpt lat="45.8394838" lon="8.8092337"><ele>448.6</ele><time>2026-04-23T11:28:42.918Z</time></trkpt><trkpt lat="45.8395437" lon="8.8090699"><ele>452.2</ele><time>2026-04-23T11:28:44.908Z</time></trkpt><trkpt lat="45.8395598" lon="8.8089594"><ele>455.79999999999995</ele><time>2026-04-23T11:28:45.905Z</time></trkpt><trkpt lat="45.839578" lon="8.8088396"><ele>459.4</ele><time>2026-04-23T11:28:46.899Z</time></trkpt><trkpt lat="45.8395975" lon="8.8087063"><ele>463.0</ele><time>2026-04-23T11:28:47.9Z</time></trkpt><trkpt lat="45.8396127" lon="8.8085869"><ele>462.33333333333337</ele><time>2026-04-23T11:28:48.896Z</time></trkpt><trkpt lat="45.8396258" lon="8.8084663"><ele>461.6666666666667</ele><time>2026-04-23T11:28:49.891Z</time></trkpt><trkpt lat="45.8396331" lon="8.8083614"><ele>461.0</ele><time>2026-04-23T11:28:50.897Z</time></trkpt><trkpt lat="45.839641" lon="8.8082595"><ele>460.33333333333337</ele><time>2026-04-23T11:28:51.891Z</time></trkpt><trkpt lat="45.83965" lon="8.8081052"><ele>459.6666666666667</ele><time>2026-04-23T11:28:53.898Z</time></trkpt><trkpt lat="45.839686" lon="8.8080007"><ele>459.0</ele><time>2026-04-23T11:28:55.901Z</time></trkpt><trkpt lat="45.8397688" lon="8.8079553"><ele>459.0</ele><time>2026-04-23T11:28:57.899Z</time></trkpt><trkpt lat="45.8398393" lon="8.8079549"><ele>459.0</ele><time>2026-04-23T11:28:58.906Z</time></trkpt><trkpt lat="45.8399114" lon="8.8079753"><ele>459.0</ele><time>2026-04-23T11:28:59.905Z</time></trkpt><trkpt lat="45.8399742" lon="8.8079554"><ele>459.0</ele><time>2026-04-23T11:29:00.904Z</time></trkpt><trkpt lat="45.840033" lon="8.8078993"><ele>459.0</ele><time>2026-04-23T11:29:01.903Z</time></trkpt><trkpt lat="45.8400976" lon="8.8078411"><ele>459.0</ele><time>2026-04-23T11:29:02.895Z</time></trkpt><trkpt lat="45.8401461" lon="8.8077281"><ele>459.0</ele><time>2026-04-23T11:29:03.907Z</time></trkpt><trkpt lat="45.8401933" lon="8.8075978"><ele>461.5</ele><time>2026-04-23T11:29:04.917Z</time></trkpt><trkpt lat="45.8402075" lon="8.8074109"><ele>464.0</ele><time>2026-04-23T11:29:05.899Z</time></trkpt><trkpt lat="45.8402034" lon="8.8071971"><ele>466.5</ele><time>2026-04-23T11:29:06.9Z</time></trkpt><trkpt lat="45.8402126" lon="8.8069712"><ele>469.0</ele><time>2026-04-23T11:29:07.9Z</time></trkpt><trkpt lat="45.840217" lon="8.8067162"><ele>469.0</ele><time>2026-04-23T11:29:08.905Z</time></trkpt><trkpt lat="45.8402239" lon="8.8064353"><ele>469.0</ele><time>2026-04-23T11:29:09.907Z</time></trkpt><trkpt lat="45.8402355" lon="8.8061653"><ele>469.0</ele><time>2026-04-23T11:29:10.909Z</time></trkpt><trkpt lat="45.8402439" lon="8.8058886"><ele>468.6666666666667</ele><time>2026-04-23T11:29:11.916Z</time></trkpt><trkpt lat="45.8402402" lon="8.8056261"><ele>468.33333333333337</ele><time>2026-04-23T11:29:12.912Z</time></trkpt><trkpt lat="45.84025" lon="8.8053623"><ele>468.0</ele><time>2026-04-23T11:29:13.914Z</time></trkpt><trkpt lat="45.8402562" lon="8.8051245"><ele>466.5</ele><time>2026-04-23T11:29:14.908Z</time></trkpt><trkpt lat="45.8402498" lon="8.8049029"><ele>465.0</ele><time>2026-04-23T11:29:15.905Z</time></trkpt><trkpt lat="45.8402308" lon="8.8047019"><ele>463.5</ele><time>2026-04-23T11:29:16.902Z</time></trkpt><trkpt lat="45.840198" lon="8.8045046"><ele>462.0</ele><time>2026-04-23T11:29:17.904Z</time></trkpt><trkpt lat="45.8401436" lon="8.8043247"><ele>458.33333333333337</ele><time>2026-04-23T11:29:18.909Z</time></trkpt><trkpt lat="45.8400336" lon="8.8041735"><ele>454.6666666666667</ele><time>2026-04-23T11:29:19.9Z</time></trkpt><trkpt lat="45.8399214" lon="8.8040238"><ele>451.0</ele><time>2026-04-23T11:29:20.9Z</time></trkpt><trkpt lat="45.8398025" lon="8.8038821"><ele>451.0</ele><time>2026-04-23T11:29:21.893Z</time></trkpt><trkpt lat="45.8397179" lon="8.8037771"><ele>451.0</ele><time>2026-04-23T11:29:22.896Z</time></trkpt><trkpt lat="45.8396291" lon="8.8037194"><ele>451.0</ele><time>2026-04-23T11:29:23.907Z</time></trkpt><trkpt lat="45.8395339" lon="8.8036352"><ele>451.0</ele><time>2026-04-23T11:29:24.895Z</time></trkpt><trkpt lat="45.8394229" lon="8.8035673"><ele>451.0</ele><time>2026-04-23T11:29:25.894Z</time></trkpt><trkpt lat="45.8393654" lon="8.8036155"><ele>451.00000000000006</ele><time>2026-04-23T11:29:31.908Z</time></trkpt><trkpt lat="45.8393211" lon="8.8037405"><ele>451.0</ele><time>2026-04-23T11:29:33.909Z</time></trkpt><trkpt lat="45.8392794" lon="8.8038384"><ele>451.0</ele><time>2026-04-23T11:29:34.908Z</time></trkpt><trkpt lat="45.8392414" lon="8.8039305"><ele>451.0</ele><time>2026-04-23T11:29:35.923Z</time></trkpt><trkpt lat="45.8391818" lon="8.8040012"><ele>451.00000000000006</ele><time>2026-04-23T11:29:36.91Z</time></trkpt><trkpt lat="45.8391164" lon="8.8040583"><ele>451.0</ele><time>2026-04-23T11:29:37.921Z</time></trkpt><trkpt lat="45.8390448" lon="8.8041103"><ele>450.1666666666667</ele><time>2026-04-23T11:29:38.925Z</time></trkpt><trkpt lat="45.8389633" lon="8.8041539"><ele>449.33333333333337</ele><time>2026-04-23T11:29:39.92Z</time></trkpt><trkpt lat="45.8388806" lon="8.8041962"><ele>448.5</ele><time>2026-04-23T11:29:40.914Z</time></trkpt><trkpt lat="45.83881" lon="8.8042275"><ele>447.66666666666663</ele><time>2026-04-23T11:29:41.919Z</time></trkpt><trkpt lat="45.8387444" lon="8.8042474"><ele>446.8333333333333</ele><time>2026-04-23T11:29:42.912Z</time></trkpt><trkpt lat="45.8386824" lon="8.8042633"><ele>446.0</ele><time>2026-04-23T11:29:43.914Z</time></trkpt><trkpt lat="45.8385811" lon="8.8042223"><ele>446.0</ele><time>2026-04-23T11:29:45.905Z</time></trkpt><trkpt lat="45.8385375" lon="8.8040481"><ele>446.0</ele><time>2026-04-23T11:29:47.908Z</time></trkpt><trkpt lat="45.8385404" lon="8.8039136"><ele>446.0</ele><time>2026-04-23T11:29:48.902Z</time></trkpt><trkpt lat="45.8385402" lon="8.8037905"><ele>446.0</ele><time>2026-04-23T11:29:49.902Z</time></trkpt><trkpt lat="45.838547" lon="8.8036565"><ele>446.0</ele><time>2026-04-23T11:29:50.91Z</time></trkpt><trkpt lat="45.8385438" lon="8.8035465"><ele>446.0</ele><time>2026-04-23T11:29:51.909Z</time></trkpt><trkpt lat="45.8385412" lon="8.8034438"><ele>448.0</ele><time>2026-04-23T11:29:52.907Z</time></trkpt><trkpt lat="45.838536" lon="8.803304"><ele>448.0</ele><time>2026-04-23T11:29:54.91Z</time></trkpt><trkpt lat="45.8384735" lon="8.8032836"><ele>448.0</ele><time>2026-04-23T11:30:00.915Z</time></trkpt></trkseg><trkseg><trkpt lat="45.8382837" lon="8.8032196"><ele>438.0</ele><time>2026-04-23T12:29:47.871Z</time></trkpt><trkpt lat="45.8383485" lon="8.8032629"><ele>438.0</ele><time>2026-04-23T12:29:48.883Z</time></trkpt><trkpt lat="45.8384023" lon="8.8033248"><ele>438.0</ele><time>2026-04-23T12:29:53.877Z</time></trkpt><trkpt lat="45.8384566" lon="8.8033948"><ele>438.0</ele><time>2026-04-23T12:34:37.901Z</time></trkpt><trkpt lat="45.838512" lon="8.8033316"><ele>438.0</ele><time>2026-04-23T12:37:34.92Z</time></trkpt><trkpt lat="45.8384654" lon="8.8033926"><ele>438.0</ele><time>2026-04-23T12:39:04.897Z</time></trkpt><trkpt lat="45.8384396" lon="8.8034826"><ele>438.0</ele><time>2026-04-23T12:40:00.876Z</time></trkpt><trkpt lat="45.838444" lon="8.8036281"><ele>438.0</ele><time>2026-04-23T12:40:02.867Z</time></trkpt><trkpt lat="45.8384607" lon="8.8037814"><ele>437.99999999999994</ele><time>2026-04-23T12:40:04.873Z</time></trkpt><trkpt lat="45.8384821" lon="8.8039057"><ele>437.99999999999994</ele><time>2026-04-23T12:40:06.87Z</time></trkpt><trkpt lat="45.8385322" lon="8.8040123"><ele>438.0</ele><time>2026-04-23T12:40:08.871Z</time></trkpt><trkpt lat="45.8385829" lon="8.8041371"><ele>438.0</ele><time>2026-04-23T12:40:10.862Z</time></trkpt><trkpt lat="45.8385867" lon="8.8042413"><ele>438.3333333333333</ele><time>2026-04-23T12:40:12.858Z</time></trkpt><trkpt lat="45.8384983" lon="8.8043196"><ele>438.66666666666663</ele><time>2026-04-23T12:40:14.853Z</time></trkpt><trkpt lat="45.8384277" lon="8.8043458"><ele>439.0</ele><time>2026-04-23T12:40:15.855Z</time></trkpt><trkpt lat="45.8383592" lon="8.8043632"><ele>439.3333333333333</ele><time>2026-04-23T12:40:16.849Z</time></trkpt><trkpt lat="45.8382882" lon="8.8043753"><ele>439.66666666666663</ele><time>2026-04-23T12:40:17.856Z</time></trkpt><trkpt lat="45.8382077" lon="8.8043973"><ele>440.0</ele><time>2026-04-23T12:40:18.859Z</time></trkpt><trkpt lat="45.8381215" lon="8.8044156"><ele>439.99999999999994</ele><time>2026-04-23T12:40:19.86Z</time></trkpt><trkpt lat="45.8380566" lon="8.8044481"><ele>440.0</ele><time>2026-04-23T12:40:20.866Z</time></trkpt><trkpt lat="45.8379866" lon="8.8044842"><ele>440.0</ele><time>2026-04-23T12:40:21.867Z</time></trkpt><trkpt lat="45.8379205" lon="8.8045049"><ele>440.0</ele><time>2026-04-23T12:40:22.881Z</time></trkpt><trkpt lat="45.8378452" lon="8.8045329"><ele>439.99999999999994</ele><time>2026-04-23T12:40:23.864Z</time></trkpt><trkpt lat="45.8377645" lon="8.8045642"><ele>440.0</ele><time>2026-04-23T12:40:24.867Z</time></trkpt><trkpt lat="45.8376597" lon="8.8045983"><ele>438.66666666666663</ele><time>2026-04-23T12:40:25.867Z</time></trkpt><trkpt lat="45.8375629" lon="8.8046243"><ele>437.3333333333333</ele><time>2026-04-23T12:40:26.868Z</time></trkpt><trkpt lat="45.8374733" lon="8.8046448"><ele>436.0</ele><time>2026-04-23T12:40:27.86Z</time></trkpt><trkpt lat="45.8373945" lon="8.8046662"><ele>434.66666666666663</ele><time>2026-04-23T12:40:28.87Z</time></trkpt><trkpt lat="45.8373002" lon="8.8046768"><ele>433.3333333333333</ele><time>2026-04-23T12:40:30.873Z</time></trkpt><trkpt lat="45.8372259" lon="8.804643"><ele>432.0</ele><time>2026-04-23T12:40:34.873Z</time></trkpt><trkpt lat="45.8371774" lon="8.8045579"><ele>432.0</ele><time>2026-04-23T12:40:37.869Z</time></trkpt><trkpt lat="45.8371304" lon="8.8044833"><ele>432.00000000000006</ele><time>2026-04-23T12:41:08.878Z</time></trkpt><trkpt lat="45.8370496" lon="8.8044042"><ele>432.00000000000006</ele><time>2026-04-23T12:41:09.872Z</time></trkpt><trkpt lat="45.8369514" lon="8.8043082"><ele>432.0</ele><time>2026-04-23T12:41:10.868Z</time></trkpt><trkpt lat="45.8368437" lon="8.8041975"><ele>432.0</ele><time>2026-04-23T12:41:11.861Z</time></trkpt><trkpt lat="45.8367211" lon="8.8040985"><ele>429.0</ele><time>2026-04-23T12:41:12.854Z</time></trkpt><trkpt lat="45.8365829" lon="8.8039878"><ele>426.0</ele><time>2026-04-23T12:41:13.851Z</time></trkpt><trkpt lat="45.836449" lon="8.8038818"><ele>423.0</ele><time>2026-04-23T12:41:14.854Z</time></trkpt><trkpt lat="45.8363095" lon="8.8037598"><ele>423.0</ele><time>2026-04-23T12:41:15.848Z</time></trkpt><trkpt lat="45.83617" lon="8.8036432"><ele>423.0</ele><time>2026-04-23T12:41:16.857Z</time></trkpt><trkpt lat="45.836024" lon="8.8035184"><ele>423.0</ele><time>2026-04-23T12:41:17.847Z</time></trkpt><trkpt lat="45.835895" lon="8.8033947"><ele>422.0</ele><time>2026-04-23T12:41:18.856Z</time></trkpt><trkpt lat="45.8357593" lon="8.8032653"><ele>421.0</ele><time>2026-04-23T12:41:19.866Z</time></trkpt><trkpt lat="45.8356315" lon="8.8031562"><ele>420.0</ele><time>2026-04-23T12:41:20.867Z</time></trkpt><trkpt lat="45.835508" lon="8.8030547"><ele>420.0</ele><time>2026-04-23T12:41:21.871Z</time></trkpt><trkpt lat="45.8354036" lon="8.8029544"><ele>420.0</ele><time>2026-04-23T12:41:22.874Z</time></trkpt><trkpt lat="45.8353025" lon="8.8028594"><ele>420.0</ele><time>2026-04-23T12:41:23.874Z</time></trkpt><trkpt lat="45.8352007" lon="8.802765"><ele>420.0</ele><time>2026-04-23T12:41:24.891Z</time></trkpt><trkpt lat="45.8350934" lon="8.802671"><ele>420.0</ele><time>2026-04-23T12:41:25.875Z</time></trkpt><trkpt lat="45.8349978" lon="8.8025871"><ele>420.0</ele><time>2026-04-23T12:41:26.876Z</time></trkpt><trkpt lat="45.8348957" lon="8.8024972"><ele>420.0</ele><time>2026-04-23T12:41:27.874Z</time></trkpt><trkpt lat="45.8347876" lon="8.8024153"><ele>420.0</ele><time>2026-04-23T12:41:28.871Z</time></trkpt><trkpt lat="45.8346751" lon="8.8023214"><ele>420.0</ele><time>2026-04-23T12:41:29.869Z</time></trkpt><trkpt lat="45.8345691" lon="8.8022313"><ele>420.0</ele><time>2026-04-23T12:41:30.873Z</time></trkpt><trkpt lat="45.8344633" lon="8.8021317"><ele>420.0</ele><time>2026-04-23T12:41:31.867Z</time></trkpt><trkpt lat="45.8343619" lon="8.8020375"><ele>420.0</ele><time>2026-04-23T12:41:32.861Z</time></trkpt><trkpt lat="45.834257" lon="8.8019425"><ele>419.5</ele><time>2026-04-23T12:41:33.86Z</time></trkpt><trkpt lat="45.8341535" lon="8.8018475"><ele>419.0</ele><time>2026-04-23T12:41:34.866Z</time></trkpt><trkpt lat="45.8340445" lon="8.8017444"><ele>418.5</ele><time>2026-04-23T12:41:35.853Z</time></trkpt><trkpt lat="45.8339438" lon="8.8016493"><ele>418.0</ele><time>2026-04-23T12:41:36.859Z</time></trkpt><trkpt lat="45.8338436" lon="8.8015524"><ele>417.75</ele><time>2026-04-23T12:41:37.847Z</time></trkpt><trkpt lat="45.8337356" lon="8.8014649"><ele>417.5</ele><time>2026-04-23T12:41:38.847Z</time></trkpt><trkpt lat="45.8336262" lon="8.8013935"><ele>417.25</ele><time>2026-04-23T12:41:39.848Z</time></trkpt><trkpt lat="45.8335164" lon="8.8013238"><ele>417.0</ele><time>2026-04-23T12:41:40.857Z</time></trkpt><trkpt lat="45.8334229" lon="8.8012251"><ele>417.25</ele><time>2026-04-23T12:41:41.853Z</time></trkpt><trkpt lat="45.8333397" lon="8.801109"><ele>417.5</ele><time>2026-04-23T12:41:42.857Z</time></trkpt><trkpt lat="45.8332549" lon="8.8009839"><ele>417.75</ele><time>2026-04-23T12:41:43.855Z</time></trkpt><trkpt lat="45.8331741" lon="8.8008813"><ele>418.0</ele><time>2026-04-23T12:41:44.853Z</time></trkpt><trkpt lat="45.8330914" lon="8.800785"><ele>418.00000000000006</ele><time>2026-04-23T12:41:45.85Z</time></trkpt><trkpt lat="45.8330351" lon="8.8006951"><ele>418.0</ele><time>2026-04-23T12:41:46.859Z</time></trkpt><trkpt lat="45.8329572" lon="8.8006156"><ele>418.0</ele><time>2026-04-23T12:41:47.865Z</time></trkpt><trkpt lat="45.8328809" lon="8.8005627"><ele>418.0</ele><time>2026-04-23T12:41:48.857Z</time></trkpt><trkpt lat="45.8328198" lon="8.8005348"><ele>418.00000000000006</ele><time>2026-04-23T12:41:49.874Z</time></trkpt><trkpt lat="45.832712" lon="8.8005818"><ele>418.0</ele><time>2026-04-23T12:41:51.861Z</time></trkpt><trkpt lat="45.8326202" lon="8.8006467"><ele>418.59999999999997</ele><time>2026-04-23T12:41:52.86Z</time></trkpt><trkpt lat="45.8325257" lon="8.8006835"><ele>419.2</ele><time>2026-04-23T12:41:53.86Z</time></trkpt><trkpt lat="45.8324299" lon="8.8007266"><ele>419.8</ele><time>2026-04-23T12:41:54.858Z</time></trkpt><trkpt lat="45.8323338" lon="8.8007375"><ele>420.4</ele><time>2026-04-23T12:41:55.871Z</time></trkpt><trkpt lat="45.8322401" lon="8.8007531"><ele>421.0</ele><time>2026-04-23T12:41:56.855Z</time></trkpt><trkpt lat="45.8321275" lon="8.8007607"><ele>421.0</ele><time>2026-04-23T12:41:57.855Z</time></trkpt><trkpt lat="45.8320197" lon="8.8007613"><ele>421.0</ele><time>2026-04-23T12:41:58.851Z</time></trkpt><trkpt lat="45.8318853" lon="8.8007509"><ele>421.0</ele><time>2026-04-23T12:41:59.853Z</time></trkpt><trkpt lat="45.831759" lon="8.8007419"><ele>421.0</ele><time>2026-04-23T12:42:00.854Z</time></trkpt><trkpt lat="45.8316179" lon="8.8007316"><ele>420.5</ele><time>2026-04-23T12:42:01.842Z</time></trkpt><trkpt lat="45.8314821" lon="8.8007125"><ele>420.0</ele><time>2026-04-23T12:42:02.843Z</time></trkpt><trkpt lat="45.8313484" lon="8.8006917"><ele>419.5</ele><time>2026-04-23T12:42:03.839Z</time></trkpt><trkpt lat="45.8312194" lon="8.8006697"><ele>419.0</ele><time>2026-04-23T12:42:04.844Z</time></trkpt><trkpt lat="45.8311043" lon="8.8006573"><ele>419.0</ele><time>2026-04-23T12:42:05.839Z</time></trkpt><trkpt lat="45.8309808" lon="8.8006383"><ele>419.0</ele><time>2026-04-23T12:42:06.842Z</time></trkpt><trkpt lat="45.830877" lon="8.8006328"><ele>419.0</ele><time>2026-04-23T12:42:07.845Z</time></trkpt><trkpt lat="45.8307655" lon="8.8006138"><ele>419.0</ele><time>2026-04-23T12:42:08.843Z</time></trkpt><trkpt lat="45.8306712" lon="8.800594"><ele>419.0</ele><time>2026-04-23T12:42:09.848Z</time></trkpt><trkpt lat="45.8305818" lon="8.8005482"><ele>419.0</ele><time>2026-04-23T12:42:10.841Z</time></trkpt><trkpt lat="45.8304854" lon="8.8004846"><ele>419.0</ele><time>2026-04-23T12:42:11.84Z</time></trkpt><trkpt lat="45.8303879" lon="8.8004121"><ele>419.0</ele><time>2026-04-23T12:42:12.841Z</time></trkpt><trkpt lat="45.8303061" lon="8.800345"><ele>419.0</ele><time>2026-04-23T12:42:13.84Z</time></trkpt><trkpt lat="45.8302266" lon="8.8002401"><ele>419.0</ele><time>2026-04-23T12:42:14.844Z</time></trkpt><trkpt lat="45.8301428" lon="8.8001173"><ele>417.75</ele><time>2026-04-23T12:42:15.843Z</time></trkpt><trkpt lat="45.8300658" lon="8.7999654"><ele>416.5</ele><time>2026-04-23T12:42:16.852Z</time></trkpt><trkpt lat="45.8299936" lon="8.7998173"><ele>415.25</ele><time>2026-04-23T12:42:17.844Z</time></trkpt><trkpt lat="45.8299183" lon="8.7996685"><ele>414.0</ele><time>2026-04-23T12:42:18.849Z</time></trkpt><trkpt lat="45.8298345" lon="8.7995476"><ele>414.0</ele><time>2026-04-23T12:42:19.847Z</time></trkpt><trkpt lat="45.8297558" lon="8.7994416"><ele>414.0</ele><time>2026-04-23T12:42:20.843Z</time></trkpt><trkpt lat="45.8296836" lon="8.799341"><ele>414.0</ele><time>2026-04-23T12:42:21.839Z</time></trkpt><trkpt lat="45.829644" lon="8.7992548"><ele>414.0</ele><time>2026-04-23T12:42:22.834Z</time></trkpt><trkpt lat="45.8296096" lon="8.7991678"><ele>414.0</ele><time>2026-04-23T12:42:23.83Z</time></trkpt><trkpt lat="45.8295574" lon="8.7990651"><ele>414.0</ele><time>2026-04-23T12:42:25.834Z</time></trkpt><trkpt lat="45.8295202" lon="8.7989615"><ele>413.8571428571429</ele><time>2026-04-23T12:42:27.84Z</time></trkpt><trkpt lat="45.829576" lon="8.798906"><ele>413.7142857142857</ele><time>2026-04-23T12:42:30.842Z</time></trkpt><trkpt lat="45.8296349" lon="8.7989472"><ele>413.57142857142856</ele><time>2026-04-23T12:42:33.836Z</time></trkpt><trkpt lat="45.8296766" lon="8.7990333"><ele>413.42857142857144</ele><time>2026-04-23T12:42:41.835Z</time></trkpt><trkpt lat="45.8297248" lon="8.7991218"><ele>413.2857142857143</ele><time>2026-04-23T12:42:43.834Z</time></trkpt><trkpt lat="45.8296651" lon="8.7990848"><ele>413.14285714285717</ele><time>2026-04-23T12:42:52.85Z</time></trkpt><trkpt lat="45.8296346" lon="8.7989647"><ele>413.0</ele><time>2026-04-23T12:43:37.852Z</time></trkpt><trkpt lat="45.8295942" lon="8.7988814"><ele>412.99999999999994</ele><time>2026-04-23T12:43:38.847Z</time></trkpt><trkpt lat="45.829544" lon="8.7988109"><ele>413.0</ele><time>2026-04-23T12:43:39.851Z</time></trkpt><trkpt lat="45.8294681" lon="8.7986752"><ele>413.0</ele><time>2026-04-23T12:43:41.829Z</time></trkpt><trkpt lat="45.8294121" lon="8.7985909"><ele>413.0</ele><time>2026-04-23T12:43:42.827Z</time></trkpt><trkpt lat="45.8293353" lon="8.7985385"><ele>412.99999999999994</ele><time>2026-04-23T12:43:44.824Z</time></trkpt><trkpt lat="45.8292593" lon="8.7985097"><ele>413.0</ele><time>2026-04-23T12:43:45.825Z</time></trkpt><trkpt lat="45.8291954" lon="8.7984549"><ele>411.59999999999997</ele><time>2026-04-23T12:43:46.832Z</time></trkpt><trkpt lat="45.8290822" lon="8.798414"><ele>410.2</ele><time>2026-04-23T12:43:48.847Z</time></trkpt><trkpt lat="45.8290299" lon="8.7983601"><ele>408.8</ele><time>2026-04-23T12:43:49.836Z</time></trkpt><trkpt lat="45.8289662" lon="8.7983355"><ele>407.4</ele><time>2026-04-23T12:43:50.836Z</time></trkpt><trkpt lat="45.8288782" lon="8.7982673"><ele>406.0</ele><time>2026-04-23T12:43:52.829Z</time></trkpt><trkpt lat="45.8287725" lon="8.7981886"><ele>406.00000000000006</ele><time>2026-04-23T12:43:54.826Z</time></trkpt><trkpt lat="45.8286961" lon="8.7980958"><ele>406.0</ele><time>2026-04-23T12:43:56.827Z</time></trkpt><trkpt lat="45.8286794" lon="8.7980069"><ele>406.0</ele><time>2026-04-23T12:43:58.847Z</time></trkpt><trkpt lat="45.8285976" lon="8.7980952"><ele>406.0</ele><time>2026-04-23T12:44:04.86Z</time></trkpt><trkpt lat="45.8285458" lon="8.7981937"><ele>406.00000000000006</ele><time>2026-04-23T12:44:05.854Z</time></trkpt><trkpt lat="45.8284903" lon="8.7982978"><ele>406.0</ele><time>2026-04-23T12:44:06.845Z</time></trkpt><trkpt lat="45.8284222" lon="8.7983838"><ele>405.1666666666667</ele><time>2026-04-23T12:44:07.847Z</time></trkpt><trkpt lat="45.8283518" lon="8.798487"><ele>404.33333333333337</ele><time>2026-04-23T12:44:08.85Z</time></trkpt><trkpt lat="45.8282833" lon="8.7985924"><ele>403.5</ele><time>2026-04-23T12:44:09.85Z</time></trkpt><trkpt lat="45.828222" lon="8.7986468"><ele>402.66666666666663</ele><time>2026-04-23T12:44:10.848Z</time></trkpt><trkpt lat="45.8281688" lon="8.7986993"><ele>401.8333333333333</ele><time>2026-04-23T12:44:11.856Z</time></trkpt><trkpt lat="45.8281109" lon="8.7986501"><ele>401.0</ele><time>2026-04-23T12:44:13.852Z</time></trkpt><trkpt lat="45.8280719" lon="8.7985661"><ele>400.20000000000005</ele><time>2026-04-23T12:44:14.852Z</time></trkpt><trkpt lat="45.8280288" lon="8.7984821"><ele>399.40000000000003</ele><time>2026-04-23T12:44:15.845Z</time></trkpt><trkpt lat="45.8280081" lon="8.7983759"><ele>398.6</ele><time>2026-04-23T12:44:16.842Z</time></trkpt><trkpt lat="45.8279662" lon="8.7982623"><ele>397.8</ele><time>2026-04-23T12:44:17.847Z</time></trkpt><trkpt lat="45.8279061" lon="8.7981244"><ele>397.0</ele><time>2026-04-23T12:44:18.845Z</time></trkpt><trkpt lat="45.8278516" lon="8.797986"><ele>397.0</ele><time>2026-04-23T12:44:19.848Z</time></trkpt><trkpt lat="45.8278019" lon="8.7978546"><ele>397.0</ele><time>2026-04-23T12:44:20.844Z</time></trkpt><trkpt lat="45.8277562" lon="8.7977404"><ele>397.0</ele><time>2026-04-23T12:44:21.84Z</time></trkpt><trkpt lat="45.8277026" lon="8.7976333"><ele>397.0</ele><time>2026-04-23T12:44:22.845Z</time></trkpt><trkpt lat="45.8276632" lon="8.7975405"><ele>397.0</ele><time>2026-04-23T12:44:23.845Z</time></trkpt><trkpt lat="45.8275986" lon="8.7974367"><ele>395.6666666666667</ele><time>2026-04-23T12:44:24.847Z</time></trkpt><trkpt lat="45.8275435" lon="8.7973336"><ele>394.33333333333337</ele><time>2026-04-23T12:44:25.845Z</time></trkpt><trkpt lat="45.8275055" lon="8.7972601"><ele>393.0</ele><time>2026-04-23T12:44:26.844Z</time></trkpt><trkpt lat="45.8274643" lon="8.7971735"><ele>391.66666666666663</ele><time>2026-04-23T12:44:27.841Z</time></trkpt><trkpt lat="45.8274244" lon="8.7970371"><ele>390.3333333333333</ele><time>2026-04-23T12:44:30.848Z</time></trkpt><trkpt lat="45.8273824" lon="8.7969381"><ele>389.0</ele><time>2026-04-23T12:44:32.845Z</time></trkpt><trkpt lat="45.8273651" lon="8.7968018"><ele>388.75</ele><time>2026-04-23T12:44:34.845Z</time></trkpt><trkpt lat="45.8273028" lon="8.7966745"><ele>388.5</ele><time>2026-04-23T12:44:35.84Z</time></trkpt><trkpt lat="45.8272609" lon="8.7965268"><ele>388.25</ele><time>2026-04-23T12:44:36.838Z</time></trkpt><trkpt lat="45.8271906" lon="8.7963564"><ele>388.0</ele><time>2026-04-23T12:44:37.839Z</time></trkpt><trkpt lat="45.8271357" lon="8.7961716"><ele>387.33333333333337</ele><time>2026-04-23T12:44:38.841Z</time></trkpt><trkpt lat="45.827079" lon="8.7959705"><ele>386.66666666666663</ele><time>2026-04-23T12:44:39.84Z</time></trkpt><trkpt lat="45.827024" lon="8.7957723"><ele>386.0</ele><time>2026-04-23T12:44:40.844Z</time></trkpt><trkpt lat="45.8269839" lon="8.7955548"><ele>386.0</ele><time>2026-04-23T12:44:41.849Z</time></trkpt><trkpt lat="45.826948" lon="8.7953675"><ele>386.0</ele><time>2026-04-23T12:44:42.841Z</time></trkpt><trkpt lat="45.8268969" lon="8.7951723"><ele>386.0</ele><time>2026-04-23T12:44:43.843Z</time></trkpt><trkpt lat="45.8268894" lon="8.7949887"><ele>386.0</ele><time>2026-04-23T12:44:44.852Z</time></trkpt><trkpt lat="45.8268721" lon="8.7948028"><ele>385.4</ele><time>2026-04-23T12:44:45.854Z</time></trkpt><trkpt lat="45.8268565" lon="8.7946456"><ele>384.8</ele><time>2026-04-23T12:44:46.845Z</time></trkpt><trkpt lat="45.8268636" lon="8.7944824"><ele>384.2</ele><time>2026-04-23T12:44:47.847Z</time></trkpt><trkpt lat="45.8268497" lon="8.7943228"><ele>383.59999999999997</ele><time>2026-04-23T12:44:48.849Z</time></trkpt><trkpt lat="45.8268218" lon="8.7941732"><ele>383.0</ele><time>2026-04-23T12:44:49.855Z</time></trkpt><trkpt lat="45.8268067" lon="8.7940176"><ele>381.4</ele><time>2026-04-23T12:44:50.855Z</time></trkpt><trkpt lat="45.8267757" lon="8.7938599"><ele>379.79999999999995</ele><time>2026-04-23T12:44:51.862Z</time></trkpt><trkpt lat="45.826736" lon="8.7937262"><ele>378.2</ele><time>2026-04-23T12:44:52.859Z</time></trkpt><trkpt lat="45.8266974" lon="8.7935938"><ele>376.6</ele><time>2026-04-23T12:44:53.855Z</time></trkpt><trkpt lat="45.826666" lon="8.7934392"><ele>375.0</ele><time>2026-04-23T12:44:54.855Z</time></trkpt><trkpt lat="45.8266148" lon="8.7932947"><ele>375.0</ele><time>2026-04-23T12:44:55.851Z</time></trkpt><trkpt lat="45.8265718" lon="8.7931597"><ele>375.0</ele><time>2026-04-23T12:44:56.854Z</time></trkpt><trkpt lat="45.8265256" lon="8.7930366"><ele>375.0</ele><time>2026-04-23T12:44:57.853Z</time></trkpt><trkpt lat="45.8264852" lon="8.7929043"><ele>375.0</ele><time>2026-04-23T12:44:58.853Z</time></trkpt><trkpt lat="45.8264377" lon="8.7927681"><ele>375.0</ele><time>2026-04-23T12:44:59.837Z</time></trkpt><trkpt lat="45.8263898" lon="8.7926407"><ele>374.6</ele><time>2026-04-23T12:45:00.851Z</time></trkpt><trkpt lat="45.8263235" lon="8.7925255"><ele>374.2</ele><time>2026-04-23T12:45:01.839Z</time></trkpt><trkpt lat="45.8262609" lon="8.7924029"><ele>373.79999999999995</ele><time>2026-04-23T12:45:02.834Z</time></trkpt><trkpt lat="45.8261985" lon="8.7922889"><ele>373.4</ele><time>2026-04-23T12:45:03.832Z</time></trkpt><trkpt lat="45.8260781" lon="8.7922419"><ele>373.0</ele><time>2026-04-23T12:45:04.841Z</time></trkpt><trkpt lat="45.82594" lon="8.7921415"><ele>371.25</ele><time>2026-04-23T12:45:05.841Z</time></trkpt><trkpt lat="45.825813" lon="8.7920339"><ele>369.5</ele><time>2026-04-23T12:45:06.841Z</time></trkpt><trkpt lat="45.8256965" lon="8.7919389"><ele>367.75</ele><time>2026-04-23T12:45:07.845Z</time></trkpt><trkpt lat="45.8255756" lon="8.7918512"><ele>366.0</ele><time>2026-04-23T12:45:08.845Z</time></trkpt><trkpt lat="45.8254488" lon="8.7917457"><ele>365.25</ele><time>2026-04-23T12:45:09.843Z</time></trkpt><trkpt lat="45.825322" lon="8.7916223"><ele>364.5</ele><time>2026-04-23T12:45:10.842Z</time></trkpt><trkpt lat="45.8252034" lon="8.7915126"><ele>363.75</ele><time>2026-04-23T12:45:11.839Z</time></trkpt><trkpt lat="45.825083" lon="8.7913886"><ele>363.0</ele><time>2026-04-23T12:45:12.838Z</time></trkpt><trkpt lat="45.8249642" lon="8.7912419"><ele>362.5</ele><time>2026-04-23T12:45:13.845Z</time></trkpt><trkpt lat="45.8248787" lon="8.7911253"><ele>362.0</ele><time>2026-04-23T12:45:14.839Z</time></trkpt><trkpt lat="45.8247993" lon="8.7910144"><ele>361.5</ele><time>2026-04-23T12:45:15.846Z</time></trkpt><trkpt lat="45.8246981" lon="8.7909052"><ele>361.0</ele><time>2026-04-23T12:45:16.85Z</time></trkpt><trkpt lat="45.8246215" lon="8.7908159"><ele>360.25</ele><time>2026-04-23T12:45:17.848Z</time></trkpt><trkpt lat="45.8245125" lon="8.7907071"><ele>359.5</ele><time>2026-04-23T12:45:18.844Z</time></trkpt><trkpt lat="45.8244222" lon="8.7906057"><ele>358.75</ele><time>2026-04-23T12:45:19.843Z</time></trkpt><trkpt lat="45.8243092" lon="8.7904934"><ele>358.0</ele><time>2026-04-23T12:45:20.845Z</time></trkpt><trkpt lat="45.8241811" lon="8.7903682"><ele>357.75</ele><time>2026-04-23T12:45:21.848Z</time></trkpt><trkpt lat="45.8240385" lon="8.7902571"><ele>357.5</ele><time>2026-04-23T12:45:22.846Z</time></trkpt><trkpt lat="45.8239215" lon="8.7901515"><ele>357.25</ele><time>2026-04-23T12:45:23.847Z</time></trkpt><trkpt lat="45.8238164" lon="8.7900714"><ele>357.0</ele><time>2026-04-23T12:45:24.849Z</time></trkpt><trkpt lat="45.8237004" lon="8.7899842"><ele>356.5</ele><time>2026-04-23T12:45:25.845Z</time></trkpt><trkpt lat="45.823591" lon="8.7898724"><ele>356.0</ele><time>2026-04-23T12:45:26.846Z</time></trkpt><trkpt lat="45.8234872" lon="8.7897201"><ele>355.5</ele><time>2026-04-23T12:45:27.848Z</time></trkpt><trkpt lat="45.8233814" lon="8.789573"><ele>355.0</ele><time>2026-04-23T12:45:28.844Z</time></trkpt><trkpt lat="45.8232566" lon="8.7894282"><ele>354.0</ele><time>2026-04-23T12:45:29.843Z</time></trkpt><trkpt lat="45.8231391" lon="8.7892834"><ele>353.0</ele><time>2026-04-23T12:45:30.849Z</time></trkpt><trkpt lat="45.8230323" lon="8.7891262"><ele>352.0</ele><time>2026-04-23T12:45:31.862Z</time></trkpt><trkpt lat="45.8229208" lon="8.7889968"><ele>352.0</ele><time>2026-04-23T12:45:32.848Z</time></trkpt><trkpt lat="45.8228191" lon="8.7888904"><ele>352.0</ele><time>2026-04-23T12:45:33.848Z</time></trkpt><trkpt lat="45.8227099" lon="8.7888029"><ele>352.0</ele><time>2026-04-23T12:45:34.849Z</time></trkpt><trkpt lat="45.8225613" lon="8.7886973"><ele>352.0</ele><time>2026-04-23T12:45:35.85Z</time></trkpt><trkpt lat="45.8224224" lon="8.7885886"><ele>351.5</ele><time>2026-04-23T12:45:36.849Z</time></trkpt><trkpt lat="45.8222809" lon="8.7885002"><ele>351.0</ele><time>2026-04-23T12:45:37.839Z</time></trkpt><trkpt lat="45.8221457" lon="8.7884149"><ele>350.5</ele><time>2026-04-23T12:45:38.839Z</time></trkpt><trkpt lat="45.8220248" lon="8.7883217"><ele>350.0</ele><time>2026-04-23T12:45:39.838Z</time></trkpt><trkpt lat="45.8218723" lon="8.7882256"><ele>350.33333333333337</ele><time>2026-04-23T12:45:40.842Z</time></trkpt><trkpt lat="45.8217445" lon="8.7881529"><ele>350.6666666666667</ele><time>2026-04-23T12:45:41.839Z</time></trkpt><trkpt lat="45.8215926" lon="8.788038"><ele>351.0</ele><time>2026-04-23T12:45:42.846Z</time></trkpt><trkpt lat="45.8214283" lon="8.7879657"><ele>351.0</ele><time>2026-04-23T12:45:43.844Z</time></trkpt><trkpt lat="45.8212616" lon="8.7879005"><ele>351.0</ele><time>2026-04-23T12:45:44.845Z</time></trkpt><trkpt lat="45.8211016" lon="8.7878285"><ele>351.0</ele><time>2026-04-23T12:45:45.843Z</time></trkpt><trkpt lat="45.8209196" lon="8.7877174"><ele>350.25</ele><time>2026-04-23T12:45:46.843Z</time></trkpt><trkpt lat="45.820795" lon="8.7876584"><ele>349.5</ele><time>2026-04-23T12:45:47.844Z</time></trkpt><trkpt lat="45.8206853" lon="8.7875056"><ele>348.75</ele><time>2026-04-23T12:45:48.838Z</time></trkpt><trkpt lat="45.820579" lon="8.7873408"><ele>348.0</ele><time>2026-04-23T12:45:49.844Z</time></trkpt><trkpt lat="45.8204796" lon="8.7872141"><ele>348.0</ele><time>2026-04-23T12:45:50.851Z</time></trkpt><trkpt lat="45.82033" lon="8.7870871"><ele>348.0</ele><time>2026-04-23T12:45:51.848Z</time></trkpt><trkpt lat="45.8202078" lon="8.7869847"><ele>348.0</ele><time>2026-04-23T12:45:52.843Z</time></trkpt><trkpt lat="45.8201214" lon="8.7869562"><ele>348.0</ele><time>2026-04-23T12:45:53.845Z</time></trkpt><trkpt lat="45.8200221" lon="8.7869367"><ele>348.1666666666667</ele><time>2026-04-23T12:45:54.849Z</time></trkpt><trkpt lat="45.8199688" lon="8.7870006"><ele>348.3333333333333</ele><time>2026-04-23T12:45:55.847Z</time></trkpt><trkpt lat="45.8198892" lon="8.7871153"><ele>348.5</ele><time>2026-04-23T12:45:57.841Z</time></trkpt><trkpt lat="45.819834" lon="8.7871804"><ele>348.66666666666663</ele><time>2026-04-23T12:45:58.843Z</time></trkpt><trkpt lat="45.8197688" lon="8.7872873"><ele>348.8333333333333</ele><time>2026-04-23T12:45:59.841Z</time></trkpt><trkpt lat="45.8196981" lon="8.787359"><ele>349.0</ele><time>2026-04-23T12:46:00.832Z</time></trkpt><trkpt lat="45.8196446" lon="8.7874592"><ele>349.0</ele><time>2026-04-23T12:46:01.831Z</time></trkpt><trkpt lat="45.819618" lon="8.7875823"><ele>349.0</ele><time>2026-04-23T12:46:02.851Z</time></trkpt><trkpt lat="45.8195767" lon="8.7876671"><ele>349.0</ele><time>2026-04-23T12:46:03.832Z</time></trkpt><trkpt lat="45.819534" lon="8.7877467"><ele>349.0</ele><time>2026-04-23T12:46:04.831Z</time></trkpt><trkpt lat="45.8194566" lon="8.7878176"><ele>349.0</ele><time>2026-04-23T12:46:05.832Z</time></trkpt><trkpt lat="45.8194209" lon="8.7879305"><ele>349.0</ele><time>2026-04-23T12:46:06.83Z</time></trkpt><trkpt lat="45.8193689" lon="8.7880518"><ele>347.75</ele><time>2026-04-23T12:46:07.831Z</time></trkpt><trkpt lat="45.8192983" lon="8.7882095"><ele>346.5</ele><time>2026-04-23T12:46:08.828Z</time></trkpt><trkpt lat="45.8192481" lon="8.7883532"><ele>345.25</ele><time>2026-04-23T12:46:09.829Z</time></trkpt><trkpt lat="45.8191942" lon="8.7884894"><ele>344.0</ele><time>2026-04-23T12:46:10.836Z</time></trkpt><trkpt lat="45.8191436" lon="8.7886804"><ele>341.79999999999995</ele><time>2026-04-23T12:46:11.841Z</time></trkpt><trkpt lat="45.8190955" lon="8.7888319"><ele>339.59999999999997</ele><time>2026-04-23T12:46:12.842Z</time></trkpt><trkpt lat="45.8190021" lon="8.7889309"><ele>337.4</ele><time>2026-04-23T12:46:13.841Z</time></trkpt><trkpt lat="45.818911" lon="8.7890113"><ele>335.2</ele><time>2026-04-23T12:46:14.847Z</time></trkpt><trkpt lat="45.818823" lon="8.7890617"><ele>333.0</ele><time>2026-04-23T12:46:15.845Z</time></trkpt><trkpt lat="45.818733" lon="8.789091"><ele>333.0</ele><time>2026-04-23T12:46:16.846Z</time></trkpt><trkpt lat="45.8186211" lon="8.7891288"><ele>333.0</ele><time>2026-04-23T12:46:17.853Z</time></trkpt><trkpt lat="45.8185137" lon="8.7891658"><ele>333.0</ele><time>2026-04-23T12:46:18.853Z</time></trkpt><trkpt lat="45.8183934" lon="8.7892084"><ele>333.0</ele><time>2026-04-23T12:46:19.849Z</time></trkpt><trkpt lat="45.8182653" lon="8.7892412"><ele>331.0</ele><time>2026-04-23T12:46:20.843Z</time></trkpt><trkpt lat="45.8181467" lon="8.7892355"><ele>329.0</ele><time>2026-04-23T12:46:21.851Z</time></trkpt><trkpt lat="45.8180336" lon="8.7892429"><ele>327.0</ele><time>2026-04-23T12:46:22.852Z</time></trkpt><trkpt lat="45.8179126" lon="8.7892776"><ele>325.0</ele><time>2026-04-23T12:46:23.85Z</time></trkpt><trkpt lat="45.8178063" lon="8.7892905"><ele>325.0</ele><time>2026-04-23T12:46:24.849Z</time></trkpt><trkpt lat="45.8177018" lon="8.7893347"><ele>325.0</ele><time>2026-04-23T12:46:25.846Z</time></trkpt><trkpt lat="45.8176081" lon="8.7893593"><ele>325.0</ele><time>2026-04-23T12:46:26.849Z</time></trkpt><trkpt lat="45.8175056" lon="8.7893597"><ele>325.0</ele><time>2026-04-23T12:46:27.85Z</time></trkpt><trkpt lat="45.8174152" lon="8.789354"><ele>325.0</ele><time>2026-04-23T12:46:28.841Z</time></trkpt><trkpt lat="45.8173287" lon="8.7893094"><ele>323.75</ele><time>2026-04-23T12:46:29.841Z</time></trkpt><trkpt lat="45.8172498" lon="8.7891977"><ele>322.5</ele><time>2026-04-23T12:46:30.846Z</time></trkpt><trkpt lat="45.8171478" lon="8.7890618"><ele>321.25</ele><time>2026-04-23T12:46:31.852Z</time></trkpt><trkpt lat="45.8170406" lon="8.7889133"><ele>320.0</ele><time>2026-04-23T12:46:32.848Z</time></trkpt><trkpt lat="45.81691" lon="8.7887728"><ele>319.0</ele><time>2026-04-23T12:46:33.865Z</time></trkpt><trkpt lat="45.8167746" lon="8.7886328"><ele>318.0</ele><time>2026-04-23T12:46:34.847Z</time></trkpt><trkpt lat="45.8166373" lon="8.7885379"><ele>317.0</ele><time>2026-04-23T12:46:35.853Z</time></trkpt><trkpt lat="45.8165227" lon="8.7885182"><ele>316.0</ele><time>2026-04-23T12:46:36.842Z</time></trkpt><trkpt lat="45.8164018" lon="8.7885358"><ele>316.0</ele><time>2026-04-23T12:46:37.844Z</time></trkpt><trkpt lat="45.8162782" lon="8.7885762"><ele>316.0</ele><time>2026-04-23T12:46:38.84Z</time></trkpt><trkpt lat="45.8161606" lon="8.7886588"><ele>316.0</ele><time>2026-04-23T12:46:39.843Z</time></trkpt><trkpt lat="45.8160357" lon="8.7887521"><ele>316.0</ele><time>2026-04-23T12:46:40.844Z</time></trkpt><trkpt lat="45.8159128" lon="8.7888283"><ele>313.75</ele><time>2026-04-23T12:46:41.835Z</time></trkpt><trkpt lat="45.8158068" lon="8.788935"><ele>311.5</ele><time>2026-04-23T12:46:42.835Z</time></trkpt><trkpt lat="45.8156757" lon="8.7889937"><ele>309.25</ele><time>2026-04-23T12:46:43.842Z</time></trkpt><trkpt lat="45.815548" lon="8.7891371"><ele>307.0</ele><time>2026-04-23T12:46:44.838Z</time></trkpt><trkpt lat="45.8154329" lon="8.7891661"><ele>307.0</ele><time>2026-04-23T12:46:45.847Z</time></trkpt><trkpt lat="45.815302" lon="8.7891824"><ele>307.0</ele><time>2026-04-23T12:46:46.851Z</time></trkpt><trkpt lat="45.8151714" lon="8.7892079"><ele>307.0</ele><time>2026-04-23T12:46:47.848Z</time></trkpt><trkpt lat="45.815033" lon="8.7892482"><ele>307.0</ele><time>2026-04-23T12:46:48.846Z</time></trkpt><trkpt lat="45.8149035" lon="8.7892418"><ele>305.25</ele><time>2026-04-23T12:46:49.845Z</time></trkpt><trkpt lat="45.8147694" lon="8.7892323"><ele>303.5</ele><time>2026-04-23T12:46:50.837Z</time></trkpt><trkpt lat="45.8146498" lon="8.7892476"><ele>301.75</ele><time>2026-04-23T12:46:51.84Z</time></trkpt><trkpt lat="45.8145203" lon="8.7892611"><ele>300.0</ele><time>2026-04-23T12:46:52.839Z</time></trkpt><trkpt lat="45.8144122" lon="8.7892999"><ele>299.0</ele><time>2026-04-23T12:46:53.839Z</time></trkpt><trkpt lat="45.8142962" lon="8.7893226"><ele>298.0</ele><time>2026-04-23T12:46:54.84Z</time></trkpt><trkpt lat="45.8141947" lon="8.7893197"><ele>297.0</ele><time>2026-04-23T12:46:55.838Z</time></trkpt><trkpt lat="45.8140535" lon="8.7893728"><ele>296.0</ele><time>2026-04-23T12:46:56.841Z</time></trkpt><trkpt lat="45.8138965" lon="8.7893769"><ele>296.0</ele><time>2026-04-23T12:46:57.844Z</time></trkpt><trkpt lat="45.813763" lon="8.7893858"><ele>296.0</ele><time>2026-04-23T12:46:58.85Z</time></trkpt><trkpt lat="45.8136177" lon="8.7893808"><ele>296.0</ele><time>2026-04-23T12:46:59.849Z</time></trkpt><trkpt lat="45.8134772" lon="8.7893772"><ele>296.0</ele><time>2026-04-23T12:47:00.847Z</time></trkpt><trkpt lat="45.8133267" lon="8.7893666"><ele>294.0</ele><time>2026-04-23T12:47:01.846Z</time></trkpt><trkpt lat="45.8131795" lon="8.7893273"><ele>292.0</ele><time>2026-04-23T12:47:02.845Z</time></trkpt><trkpt lat="45.8130299" lon="8.7892789"><ele>290.0</ele><time>2026-04-23T12:47:03.841Z</time></trkpt><trkpt lat="45.812887" lon="8.7892235"><ele>290.0</ele><time>2026-04-23T12:47:04.866Z</time></trkpt><trkpt lat="45.8127426" lon="8.7891594"><ele>290.0</ele><time>2026-04-23T12:47:05.84Z</time></trkpt><trkpt lat="45.8126141" lon="8.7890702"><ele>290.0</ele><time>2026-04-23T12:47:06.839Z</time></trkpt><trkpt lat="45.8124682" lon="8.7889664"><ele>289.0</ele><time>2026-04-23T12:47:07.839Z</time></trkpt><trkpt lat="45.8123175" lon="8.7888566"><ele>288.0</ele><time>2026-04-23T12:47:08.849Z</time></trkpt><trkpt lat="45.8121597" lon="8.7887698"><ele>287.0</ele><time>2026-04-23T12:47:09.842Z</time></trkpt><trkpt lat="45.8120042" lon="8.7886959"><ele>287.0</ele><time>2026-04-23T12:47:10.845Z</time></trkpt><trkpt lat="45.8118792" lon="8.7886178"><ele>287.0</ele><time>2026-04-23T12:47:11.845Z</time></trkpt><trkpt lat="45.8117366" lon="8.7885511"><ele>287.0</ele><time>2026-04-23T12:47:12.849Z</time></trkpt><trkpt lat="45.8115844" lon="8.7884787"><ele>287.0</ele><time>2026-04-23T12:47:13.847Z</time></trkpt><trkpt lat="45.8114327" lon="8.7883932"><ele>285.25</ele><time>2026-04-23T12:47:14.844Z</time></trkpt><trkpt lat="45.811283" lon="8.7882943"><ele>283.5</ele><time>2026-04-23T12:47:15.843Z</time></trkpt><trkpt lat="45.8111502" lon="8.7882005"><ele>281.75</ele><time>2026-04-23T12:47:16.843Z</time></trkpt><trkpt lat="45.8110261" lon="8.7881258"><ele>280.0</ele><time>2026-04-23T12:47:17.835Z</time></trkpt><trkpt lat="45.81092" lon="8.7880362"><ele>279.0</ele><time>2026-04-23T12:47:18.834Z</time></trkpt><trkpt lat="45.8108096" lon="8.7878911"><ele>278.0</ele><time>2026-04-23T12:47:19.84Z</time></trkpt><trkpt lat="45.8107176" lon="8.7877648"><ele>277.0</ele><time>2026-04-23T12:47:20.84Z</time></trkpt><trkpt lat="45.8106218" lon="8.7876336"><ele>276.0</ele><time>2026-04-23T12:47:21.84Z</time></trkpt><trkpt lat="45.8105292" lon="8.7875204"><ele>274.25</ele><time>2026-04-23T12:47:22.837Z</time></trkpt><trkpt lat="45.8104196" lon="8.7874284"><ele>272.5</ele><time>2026-04-23T12:47:23.842Z</time></trkpt><trkpt lat="45.8102971" lon="8.7873371"><ele>270.75</ele><time>2026-04-23T12:47:24.847Z</time></trkpt><trkpt lat="45.8102059" lon="8.7872313"><ele>269.0</ele><time>2026-04-23T12:47:25.848Z</time></trkpt><trkpt lat="45.8101474" lon="8.7871536"><ele>268.59999999999997</ele><time>2026-04-23T12:47:26.84Z</time></trkpt><trkpt lat="45.810087" lon="8.7870769"><ele>268.2</ele><time>2026-04-23T12:47:27.837Z</time></trkpt><trkpt lat="45.8100192" lon="8.7870332"><ele>267.79999999999995</ele><time>2026-04-23T12:47:28.828Z</time></trkpt><trkpt lat="45.8099033" lon="8.787116"><ele>267.4</ele><time>2026-04-23T12:47:30.83Z</time></trkpt><trkpt lat="45.8097831" lon="8.7871851"><ele>267.0</ele><time>2026-04-23T12:47:31.841Z</time></trkpt><trkpt lat="45.8096731" lon="8.7872378"><ele>267.0</ele><time>2026-04-23T12:47:32.847Z</time></trkpt><trkpt lat="45.8095811" lon="8.7872799"><ele>267.0</ele><time>2026-04-23T12:47:33.846Z</time></trkpt><trkpt lat="45.8094616" lon="8.7872937"><ele>267.0</ele><time>2026-04-23T12:47:34.848Z</time></trkpt><trkpt lat="45.8093351" lon="8.7873191"><ele>267.0</ele><time>2026-04-23T12:47:35.86Z</time></trkpt><trkpt lat="45.8092274" lon="8.7873401"><ele>266.1666666666667</ele><time>2026-04-23T12:47:36.842Z</time></trkpt><trkpt lat="45.8091208" lon="8.7873649"><ele>265.3333333333333</ele><time>2026-04-23T12:47:37.842Z</time></trkpt><trkpt lat="45.8090296" lon="8.7873826"><ele>264.5</ele><time>2026-04-23T12:47:38.84Z</time></trkpt><trkpt lat="45.8089426" lon="8.7874264"><ele>263.66666666666663</ele><time>2026-04-23T12:47:39.848Z</time></trkpt><trkpt lat="45.8088657" lon="8.7874641"><ele>262.8333333333333</ele><time>2026-04-23T12:47:40.852Z</time></trkpt><trkpt lat="45.8087983" lon="8.7875037"><ele>262.0</ele><time>2026-04-23T12:47:41.842Z</time></trkpt><trkpt lat="45.8087233" lon="8.7875398"><ele>262.0</ele><time>2026-04-23T12:47:42.842Z</time></trkpt><trkpt lat="45.8086559" lon="8.7875551"><ele>262.0</ele><time>2026-04-23T12:47:43.845Z</time></trkpt><trkpt lat="45.8085387" lon="8.7875328"><ele>262.0</ele><time>2026-04-23T12:47:45.832Z</time></trkpt><trkpt lat="45.8084212" lon="8.7875138"><ele>262.0</ele><time>2026-04-23T12:47:47.828Z</time></trkpt><trkpt lat="45.8083598" lon="8.7874017"><ele>262.0</ele><time>2026-04-23T12:47:48.835Z</time></trkpt><trkpt lat="45.8083121" lon="8.7873111"><ele>261.8</ele><time>2026-04-23T12:47:49.829Z</time></trkpt><trkpt lat="45.8082674" lon="8.7872099"><ele>261.6</ele><time>2026-04-23T12:47:50.836Z</time></trkpt><trkpt lat="45.808227" lon="8.7870704"><ele>261.40000000000003</ele><time>2026-04-23T12:47:51.833Z</time></trkpt><trkpt lat="45.8081859" lon="8.7868919"><ele>261.2</ele><time>2026-04-23T12:47:52.831Z</time></trkpt><trkpt lat="45.8081217" lon="8.7867744"><ele>261.0</ele><time>2026-04-23T12:47:53.833Z</time></trkpt><trkpt lat="45.8080974" lon="8.7866829"><ele>260.6</ele><time>2026-04-23T12:47:54.833Z</time></trkpt><trkpt lat="45.8080416" lon="8.7865268"><ele>260.20000000000005</ele><time>2026-04-23T12:47:55.83Z</time></trkpt><trkpt lat="45.8079839" lon="8.7864363"><ele>259.79999999999995</ele><time>2026-04-23T12:47:56.833Z</time></trkpt><trkpt lat="45.8079298" lon="8.7862867"><ele>259.4</ele><time>2026-04-23T12:47:57.836Z</time></trkpt><trkpt lat="45.8078668" lon="8.7861714"><ele>259.0</ele><time>2026-04-23T12:47:58.84Z</time></trkpt><trkpt lat="45.8078119" lon="8.7860318"><ele>259.0</ele><time>2026-04-23T12:47:59.841Z</time></trkpt><trkpt lat="45.8077346" lon="8.7858882"><ele>259.0</ele><time>2026-04-23T12:48:00.84Z</time></trkpt><trkpt lat="45.8076589" lon="8.7857714"><ele>259.0</ele><time>2026-04-23T12:48:01.85Z</time></trkpt><trkpt lat="45.8075842" lon="8.7856445"><ele>259.0</ele><time>2026-04-23T12:48:02.849Z</time></trkpt><trkpt lat="45.8075276" lon="8.7855487"><ele>259.0</ele><time>2026-04-23T12:48:03.844Z</time></trkpt><trkpt lat="45.8074053" lon="8.7854316"><ele>258.8</ele><time>2026-04-23T12:48:05.845Z</time></trkpt><trkpt lat="45.807339" lon="8.7853874"><ele>258.59999999999997</ele><time>2026-04-23T12:48:06.858Z</time></trkpt><trkpt lat="45.8072503" lon="8.7852789"><ele>258.4</ele><time>2026-04-23T12:48:08.839Z</time></trkpt><trkpt lat="45.8071872" lon="8.7851652"><ele>258.2</ele><time>2026-04-23T12:48:10.845Z</time></trkpt><trkpt lat="45.8070924" lon="8.7850634"><ele>258.0</ele><time>2026-04-23T12:48:12.841Z</time></trkpt><trkpt lat="45.8069929" lon="8.7850319"><ele>258.0</ele><time>2026-04-23T12:48:14.828Z</time></trkpt><trkpt lat="45.8068856" lon="8.7850844"><ele>258.0</ele><time>2026-04-23T12:48:16.836Z</time></trkpt><trkpt lat="45.8068189" lon="8.7851201"><ele>258.0</ele><time>2026-04-23T12:48:17.83Z</time></trkpt><trkpt lat="45.8067484" lon="8.7852206"><ele>258.0</ele><time>2026-04-23T12:48:18.832Z</time></trkpt><trkpt lat="45.8067146" lon="8.7853272"><ele>258.0</ele><time>2026-04-23T12:48:19.827Z</time></trkpt><trkpt lat="45.8066736" lon="8.7854079"><ele>258.0</ele><time>2026-04-23T12:48:20.826Z</time></trkpt><trkpt lat="45.8066117" lon="8.7855388"><ele>257.8</ele><time>2026-04-23T12:48:21.829Z</time></trkpt><trkpt lat="45.8065493" lon="8.7856253"><ele>257.6</ele><time>2026-04-23T12:48:22.829Z</time></trkpt><trkpt lat="45.8065168" lon="8.7857599"><ele>257.4</ele><time>2026-04-23T12:48:23.832Z</time></trkpt><trkpt lat="45.8065033" lon="8.7858879"><ele>257.2</ele><time>2026-04-23T12:48:24.834Z</time></trkpt><trkpt lat="45.8064631" lon="8.7861083"><ele>257.0</ele><time>2026-04-23T12:48:25.841Z</time></trkpt><trkpt lat="45.8064558" lon="8.7862154"><ele>257.5</ele><time>2026-04-23T12:48:26.847Z</time></trkpt><trkpt lat="45.8064128" lon="8.7863228"><ele>258.0</ele><time>2026-04-23T12:48:27.84Z</time></trkpt><trkpt lat="45.8063857" lon="8.7864297"><ele>258.5</ele><time>2026-04-23T12:48:28.841Z</time></trkpt><trkpt lat="45.8063481" lon="8.7865608"><ele>259.0</ele><time>2026-04-23T12:48:29.834Z</time></trkpt><trkpt lat="45.8062984" lon="8.7866407"><ele>259.5</ele><time>2026-04-23T12:48:30.828Z</time></trkpt><trkpt lat="45.8063115" lon="8.7867974"><ele>260.0</ele><time>2026-04-23T12:48:31.836Z</time></trkpt><trkpt lat="45.8063258" lon="8.7869767"><ele>260.5</ele><time>2026-04-23T12:48:32.837Z</time></trkpt><trkpt lat="45.8062974" lon="8.7871182"><ele>261.0</ele><time>2026-04-23T12:48:33.834Z</time></trkpt><trkpt lat="45.806259" lon="8.787362"><ele>261.5</ele><time>2026-04-23T12:48:34.838Z</time></trkpt><trkpt lat="45.8062349" lon="8.787534"><ele>262.0</ele><time>2026-04-23T12:48:35.835Z</time></trkpt><trkpt lat="45.8062153" lon="8.7877357"><ele>262.5</ele><time>2026-04-23T12:48:36.847Z</time></trkpt><trkpt lat="45.8062022" lon="8.787979"><ele>263.0</ele><time>2026-04-23T12:48:37.835Z</time></trkpt><trkpt lat="45.8061852" lon="8.7882011"><ele>263.5</ele><time>2026-04-23T12:48:38.842Z</time></trkpt><trkpt lat="45.8061636" lon="8.7883485"><ele>264.0</ele><time>2026-04-23T12:48:39.837Z</time></trkpt><trkpt lat="45.806138" lon="8.7885254"><ele>264.3333333333333</ele><time>2026-04-23T12:48:40.835Z</time></trkpt><trkpt lat="45.8061065" lon="8.788713"><ele>264.66666666666663</ele><time>2026-04-23T12:48:41.831Z</time></trkpt><trkpt lat="45.8060529" lon="8.7889608"><ele>265.0</ele><time>2026-04-23T12:48:42.842Z</time></trkpt><trkpt lat="45.8060069" lon="8.7891845"><ele>263.0</ele><time>2026-04-23T12:48:43.84Z</time></trkpt><trkpt lat="45.805994" lon="8.7894208"><ele>261.0</ele><time>2026-04-23T12:48:44.837Z</time></trkpt><trkpt lat="45.8059569" lon="8.7896268"><ele>259.0</ele><time>2026-04-23T12:48:45.832Z</time></trkpt><trkpt lat="45.8059323" lon="8.7897963"><ele>257.0</ele><time>2026-04-23T12:48:46.836Z</time></trkpt><trkpt lat="45.8059186" lon="8.7899712"><ele>257.0</ele><time>2026-04-23T12:48:47.833Z</time></trkpt><trkpt lat="45.8058935" lon="8.7901105"><ele>257.0</ele><time>2026-04-23T12:48:48.833Z</time></trkpt><trkpt lat="45.805846" lon="8.7902604"><ele>257.0</ele><time>2026-04-23T12:48:49.827Z</time></trkpt><trkpt lat="45.8058037" lon="8.7904016"><ele>257.0</ele><time>2026-04-23T12:48:50.827Z</time></trkpt><trkpt lat="45.8057664" lon="8.7905548"><ele>257.0</ele><time>2026-04-23T12:48:51.825Z</time></trkpt><trkpt lat="45.8057189" lon="8.7907078"><ele>257.25</ele><time>2026-04-23T12:48:52.822Z</time></trkpt><trkpt lat="45.8056791" lon="8.790852"><ele>257.5</ele><time>2026-04-23T12:48:53.824Z</time></trkpt><trkpt lat="45.8056518" lon="8.7911008"><ele>257.75</ele><time>2026-04-23T12:48:54.825Z</time></trkpt><trkpt lat="45.8056282" lon="8.7912732"><ele>258.0</ele><time>2026-04-23T12:48:55.826Z</time></trkpt><trkpt lat="45.8056143" lon="8.7914875"><ele>258.6666666666667</ele><time>2026-04-23T12:48:56.828Z</time></trkpt><trkpt lat="45.8056103" lon="8.7917141"><ele>259.33333333333337</ele><time>2026-04-23T12:48:57.828Z</time></trkpt><trkpt lat="45.8056392" lon="8.7919512"><ele>260.0</ele><time>2026-04-23T12:48:58.827Z</time></trkpt><trkpt lat="45.8056284" lon="8.7921587"><ele>259.75</ele><time>2026-04-23T12:48:59.829Z</time></trkpt><trkpt lat="45.8056765" lon="8.7923877"><ele>259.5</ele><time>2026-04-23T12:49:00.828Z</time></trkpt><trkpt lat="45.8056467" lon="8.7925619"><ele>259.25</ele><time>2026-04-23T12:49:01.827Z</time></trkpt><trkpt lat="45.805666" lon="8.7926846"><ele>259.0</ele><time>2026-04-23T12:49:02.828Z</time></trkpt><trkpt lat="45.8056811" lon="8.7928696"><ele>259.0</ele><time>2026-04-23T12:49:03.83Z</time></trkpt><trkpt lat="45.8057311" lon="8.7930304"><ele>259.0</ele><time>2026-04-23T12:49:04.83Z</time></trkpt><trkpt lat="45.8058194" lon="8.7932561"><ele>259.0</ele><time>2026-04-23T12:49:05.833Z</time></trkpt><trkpt lat="45.805899" lon="8.7935019"><ele>259.3333333333333</ele><time>2026-04-23T12:49:06.834Z</time></trkpt><trkpt lat="45.8059382" lon="8.7937549"><ele>259.6666666666667</ele><time>2026-04-23T12:49:07.847Z</time></trkpt><trkpt lat="45.8059557" lon="8.7939687"><ele>260.0</ele><time>2026-04-23T12:49:08.836Z</time></trkpt><trkpt lat="45.8059487" lon="8.7941829"><ele>260.0</ele><time>2026-04-23T12:49:09.827Z</time></trkpt><trkpt lat="45.8059605" lon="8.7944064"><ele>260.0</ele><time>2026-04-23T12:49:10.824Z</time></trkpt><trkpt lat="45.8059552" lon="8.7946214"><ele>260.0</ele><time>2026-04-23T12:49:11.827Z</time></trkpt><trkpt lat="45.8059342" lon="8.7948296"><ele>260.0</ele><time>2026-04-23T12:49:12.826Z</time></trkpt><trkpt lat="45.805869" lon="8.7950142"><ele>260.0</ele><time>2026-04-23T12:49:13.827Z</time></trkpt><trkpt lat="45.8058263" lon="8.795185"><ele>260.0</ele><time>2026-04-23T12:49:14.826Z</time></trkpt><trkpt lat="45.8057841" lon="8.7953719"><ele>260.0</ele><time>2026-04-23T12:49:15.825Z</time></trkpt><trkpt lat="45.8057358" lon="8.7955757"><ele>261.0</ele><time>2026-04-23T12:49:16.829Z</time></trkpt><trkpt lat="45.8056694" lon="8.7958191"><ele>262.0</ele><time>2026-04-23T12:49:17.833Z</time></trkpt><trkpt lat="45.805594" lon="8.7960344"><ele>263.0</ele><time>2026-04-23T12:49:18.835Z</time></trkpt><trkpt lat="45.8054843" lon="8.7962862"><ele>263.0</ele><time>2026-04-23T12:49:19.84Z</time></trkpt><trkpt lat="45.8054073" lon="8.7964726"><ele>263.0</ele><time>2026-04-23T12:49:20.845Z</time></trkpt><trkpt lat="45.8053488" lon="8.7966332"><ele>263.0</ele><time>2026-04-23T12:49:21.84Z</time></trkpt><trkpt lat="45.8052843" lon="8.7967867"><ele>263.0</ele><time>2026-04-23T12:49:22.84Z</time></trkpt><trkpt lat="45.8052235" lon="8.7969647"><ele>262.5</ele><time>2026-04-23T12:49:23.834Z</time></trkpt><trkpt lat="45.8051657" lon="8.7971438"><ele>262.0</ele><time>2026-04-23T12:49:24.833Z</time></trkpt><trkpt lat="45.8051143" lon="8.7973281"><ele>261.5</ele><time>2026-04-23T12:49:25.835Z</time></trkpt><trkpt lat="45.8050344" lon="8.7975139"><ele>261.0</ele><time>2026-04-23T12:49:26.837Z</time></trkpt><trkpt lat="45.80496" lon="8.7976919"><ele>258.0</ele><time>2026-04-23T12:49:27.84Z</time></trkpt><trkpt lat="45.8049043" lon="8.7978546"><ele>255.0</ele><time>2026-04-23T12:49:28.839Z</time></trkpt><trkpt lat="45.8048507" lon="8.7979752"><ele>252.0</ele><time>2026-04-23T12:49:29.838Z</time></trkpt><trkpt lat="45.8047791" lon="8.7981502"><ele>249.0</ele><time>2026-04-23T12:49:30.842Z</time></trkpt><trkpt lat="45.8047246" lon="8.7983236"><ele>249.0</ele><time>2026-04-23T12:49:31.839Z</time></trkpt><trkpt lat="45.8046789" lon="8.7984924"><ele>249.0</ele><time>2026-04-23T12:49:32.838Z</time></trkpt><trkpt lat="45.8046474" lon="8.7986936"><ele>249.0</ele><time>2026-04-23T12:49:33.839Z</time></trkpt><trkpt lat="45.8046078" lon="8.798881"><ele>249.0</ele><time>2026-04-23T12:49:34.832Z</time></trkpt><trkpt lat="45.8045494" lon="8.7990521"><ele>249.0</ele><time>2026-04-23T12:49:35.839Z</time></trkpt><trkpt lat="45.8044787" lon="8.799221"><ele>249.0</ele><time>2026-04-23T12:49:36.839Z</time></trkpt><trkpt lat="45.8044343" lon="8.7993695"><ele>249.0</ele><time>2026-04-23T12:49:37.842Z</time></trkpt><trkpt lat="45.804381" lon="8.7995472"><ele>249.0</ele><time>2026-04-23T12:49:38.851Z</time></trkpt><trkpt lat="45.8043096" lon="8.7997111"><ele>249.25</ele><time>2026-04-23T12:49:39.84Z</time></trkpt><trkpt lat="45.8042403" lon="8.7998892"><ele>249.5</ele><time>2026-04-23T12:49:40.836Z</time></trkpt><trkpt lat="45.8041825" lon="8.8000605"><ele>249.75</ele><time>2026-04-23T12:49:41.834Z</time></trkpt><trkpt lat="45.8041163" lon="8.8002288"><ele>250.0</ele><time>2026-04-23T12:49:42.835Z</time></trkpt><trkpt lat="45.8040671" lon="8.8004084"><ele>250.0</ele><time>2026-04-23T12:49:43.838Z</time></trkpt><trkpt lat="45.8040156" lon="8.8005903"><ele>250.0</ele><time>2026-04-23T12:49:44.841Z</time></trkpt><trkpt lat="45.8039565" lon="8.8007591"><ele>250.0</ele><time>2026-04-23T12:49:45.836Z</time></trkpt><trkpt lat="45.8039046" lon="8.8009303"><ele>250.0</ele><time>2026-04-23T12:49:46.83Z</time></trkpt><trkpt lat="45.8038626" lon="8.8010924"><ele>249.75</ele><time>2026-04-23T12:49:47.831Z</time></trkpt><trkpt lat="45.8038238" lon="8.8012648"><ele>249.5</ele><time>2026-04-23T12:49:48.834Z</time></trkpt><trkpt lat="45.8037775" lon="8.8014323"><ele>249.25</ele><time>2026-04-23T12:49:49.835Z</time></trkpt><trkpt lat="45.8037214" lon="8.8015752"><ele>249.0</ele><time>2026-04-23T12:49:50.834Z</time></trkpt><trkpt lat="45.8036628" lon="8.8016706"><ele>248.5</ele><time>2026-04-23T12:49:51.841Z</time></trkpt><trkpt lat="45.8036163" lon="8.8018441"><ele>248.0</ele><time>2026-04-23T12:49:52.838Z</time></trkpt><trkpt lat="45.803545" lon="8.8019952"><ele>247.5</ele><time>2026-04-23T12:49:53.836Z</time></trkpt><trkpt lat="45.8034732" lon="8.8021046"><ele>247.0</ele><time>2026-04-23T12:49:54.843Z</time></trkpt><trkpt lat="45.8033906" lon="8.8021704"><ele>247.0</ele><time>2026-04-23T12:49:55.847Z</time></trkpt><trkpt lat="45.8033054" lon="8.8022346"><ele>247.0</ele><time>2026-04-23T12:49:56.841Z</time></trkpt><trkpt lat="45.8031881" lon="8.8022937"><ele>247.0</ele><time>2026-04-23T12:49:57.845Z</time></trkpt><trkpt lat="45.8030804" lon="8.802332"><ele>247.0</ele><time>2026-04-23T12:49:58.849Z</time></trkpt><trkpt lat="45.8029795" lon="8.8023541"><ele>247.0</ele><time>2026-04-23T12:49:59.847Z</time></trkpt><trkpt lat="45.8028808" lon="8.8024257"><ele>247.0</ele><time>2026-04-23T12:50:00.844Z</time></trkpt><trkpt lat="45.8027692" lon="8.8024436"><ele>247.0</ele><time>2026-04-23T12:50:01.851Z</time></trkpt><trkpt lat="45.8026454" lon="8.802463"><ele>247.0</ele><time>2026-04-23T12:50:02.849Z</time></trkpt><trkpt lat="45.8025304" lon="8.8024592"><ele>247.0</ele><time>2026-04-23T12:50:03.847Z</time></trkpt><trkpt lat="45.8024179" lon="8.8024484"><ele>246.0</ele><time>2026-04-23T12:50:04.842Z</time></trkpt><trkpt lat="45.802285" lon="8.8024616"><ele>245.0</ele><time>2026-04-23T12:50:05.85Z</time></trkpt><trkpt lat="45.802161" lon="8.8024732"><ele>244.0</ele><time>2026-04-23T12:50:06.844Z</time></trkpt><trkpt lat="45.8020192" lon="8.8024837"><ele>243.0</ele><time>2026-04-23T12:50:07.844Z</time></trkpt><trkpt lat="45.801878" lon="8.8024786"><ele>242.75</ele><time>2026-04-23T12:50:08.851Z</time></trkpt><trkpt lat="45.8017424" lon="8.8024626"><ele>242.5</ele><time>2026-04-23T12:50:09.865Z</time></trkpt><trkpt lat="45.8016132" lon="8.8024479"><ele>242.25</ele><time>2026-04-23T12:50:10.845Z</time></trkpt><trkpt lat="45.8014894" lon="8.8024355"><ele>242.0</ele><time>2026-04-23T12:50:11.847Z</time></trkpt><trkpt lat="45.8013472" lon="8.8024188"><ele>242.0</ele><time>2026-04-23T12:50:12.849Z</time></trkpt><trkpt lat="45.8012011" lon="8.8024121"><ele>242.0</ele><time>2026-04-23T12:50:13.848Z</time></trkpt><trkpt lat="45.8010449" lon="8.8023779"><ele>242.0</ele><time>2026-04-23T12:50:14.843Z</time></trkpt><trkpt lat="45.8009129" lon="8.802372"><ele>242.0</ele><time>2026-04-23T12:50:15.839Z</time></trkpt><trkpt lat="45.8007524" lon="8.8023316"><ele>242.0</ele><time>2026-04-23T12:50:16.843Z</time></trkpt><trkpt lat="45.8006035" lon="8.8022978"><ele>242.0</ele><time>2026-04-23T12:50:17.844Z</time></trkpt><trkpt lat="45.8004557" lon="8.8022458"><ele>242.0</ele><time>2026-04-23T12:50:18.843Z</time></trkpt><trkpt lat="45.8003083" lon="8.8021883"><ele>242.25</ele><time>2026-04-23T12:50:19.841Z</time></trkpt><trkpt lat="45.8001647" lon="8.8021421"><ele>242.5</ele><time>2026-04-23T12:50:20.838Z</time></trkpt><trkpt lat="45.8000193" lon="8.8021038"><ele>242.75</ele><time>2026-04-23T12:50:21.843Z</time></trkpt><trkpt lat="45.7998787" lon="8.8020664"><ele>243.0</ele><time>2026-04-23T12:50:22.839Z</time></trkpt><trkpt lat="45.7997184" lon="8.8020245"><ele>243.0</ele><time>2026-04-23T12:50:23.835Z</time></trkpt><trkpt lat="45.7995755" lon="8.8019748"><ele>243.0</ele><time>2026-04-23T12:50:24.834Z</time></trkpt><trkpt lat="45.7994121" lon="8.8019316"><ele>243.0</ele><time>2026-04-23T12:50:25.834Z</time></trkpt><trkpt lat="45.799265" lon="8.8018909"><ele>243.0</ele><time>2026-04-23T12:50:26.834Z</time></trkpt><trkpt lat="45.799126" lon="8.8018624"><ele>243.0</ele><time>2026-04-23T12:50:27.847Z</time></trkpt><trkpt lat="45.7989968" lon="8.8018486"><ele>243.0</ele><time>2026-04-23T12:50:28.843Z</time></trkpt><trkpt lat="45.7988654" lon="8.8018125"><ele>243.0</ele><time>2026-04-23T12:50:29.846Z</time></trkpt><trkpt lat="45.798724" lon="8.8017705"><ele>242.5</ele><time>2026-04-23T12:50:30.847Z</time></trkpt><trkpt lat="45.7985836" lon="8.8017261"><ele>242.0</ele><time>2026-04-23T12:50:31.845Z</time></trkpt><trkpt lat="45.7984409" lon="8.8016862"><ele>241.5</ele><time>2026-04-23T12:50:32.843Z</time></trkpt><trkpt lat="45.7983111" lon="8.8016644"><ele>241.0</ele><time>2026-04-23T12:50:33.847Z</time></trkpt><trkpt lat="45.7981761" lon="8.8016491"><ele>241.0</ele><time>2026-04-23T12:50:34.849Z</time></trkpt><trkpt lat="45.7980452" lon="8.8016338"><ele>241.0</ele><time>2026-04-23T12:50:35.846Z</time></trkpt><trkpt lat="45.7979007" lon="8.8016047"><ele>241.0</ele><time>2026-04-23T12:50:36.856Z</time></trkpt><trkpt lat="45.7977755" lon="8.8015692"><ele>241.0</ele><time>2026-04-23T12:50:37.859Z</time></trkpt><trkpt lat="45.7976483" lon="8.8015418"><ele>241.25</ele><time>2026-04-23T12:50:38.859Z</time></trkpt><trkpt lat="45.7975254" lon="8.8015281"><ele>241.5</ele><time>2026-04-23T12:50:39.854Z</time></trkpt><trkpt lat="45.7974003" lon="8.8015065"><ele>241.75</ele><time>2026-04-23T12:50:40.873Z</time></trkpt><trkpt lat="45.797293" lon="8.801488"><ele>242.0</ele><time>2026-04-23T12:50:41.855Z</time></trkpt><trkpt lat="45.797199" lon="8.8014651"><ele>242.0</ele><time>2026-04-23T12:50:42.857Z</time></trkpt><trkpt lat="45.7970892" lon="8.8014358"><ele>242.0</ele><time>2026-04-23T12:50:43.863Z</time></trkpt><trkpt lat="45.7969894" lon="8.8014122"><ele>242.0</ele><time>2026-04-23T12:50:44.856Z</time></trkpt><trkpt lat="45.7968881" lon="8.801381"><ele>242.0</ele><time>2026-04-23T12:50:45.849Z</time></trkpt><trkpt lat="45.7967781" lon="8.8013619"><ele>242.0</ele><time>2026-04-23T12:50:46.851Z</time></trkpt><trkpt lat="45.79666" lon="8.8013466"><ele>242.5</ele><time>2026-04-23T12:50:47.847Z</time></trkpt><trkpt lat="45.7965284" lon="8.8013106"><ele>243.0</ele><time>2026-04-23T12:50:48.851Z</time></trkpt><trkpt lat="45.7963905" lon="8.8012648"><ele>243.5</ele><time>2026-04-23T12:50:49.849Z</time></trkpt><trkpt lat="45.7962462" lon="8.8012227"><ele>244.0</ele><time>2026-04-23T12:50:50.852Z</time></trkpt><trkpt lat="45.7960956" lon="8.801192"><ele>243.66666666666666</ele><time>2026-04-23T12:50:51.856Z</time></trkpt><trkpt lat="45.7959416" lon="8.8011628"><ele>243.33333333333331</ele><time>2026-04-23T12:50:52.852Z</time></trkpt><trkpt lat="45.7957875" lon="8.8011411"><ele>243.0</ele><time>2026-04-23T12:50:53.853Z</time></trkpt><trkpt lat="45.7956497" lon="8.8011063"><ele>243.0</ele><time>2026-04-23T12:50:54.849Z</time></trkpt><trkpt lat="45.7955242" lon="8.8010584"><ele>243.0</ele><time>2026-04-23T12:50:55.848Z</time></trkpt><trkpt lat="45.7954197" lon="8.8010083"><ele>243.0</ele><time>2026-04-23T12:50:56.849Z</time></trkpt><trkpt lat="45.7952898" lon="8.8009499"><ele>243.0</ele><time>2026-04-23T12:50:57.847Z</time></trkpt><trkpt lat="45.795177" lon="8.8008919"><ele>242.60000000000002</ele><time>2026-04-23T12:50:58.857Z</time></trkpt><trkpt lat="45.795083" lon="8.8008774"><ele>242.20000000000002</ele><time>2026-04-23T12:50:59.861Z</time></trkpt><trkpt lat="45.794989" lon="8.8008582"><ele>241.8</ele><time>2026-04-23T12:51:00.862Z</time></trkpt><trkpt lat="45.7948669" lon="8.8008216"><ele>241.4</ele><time>2026-04-23T12:51:01.862Z</time></trkpt><trkpt lat="45.7947528" lon="8.8007866"><ele>241.0</ele><time>2026-04-23T12:51:02.858Z</time></trkpt><trkpt lat="45.7946285" lon="8.8007536"><ele>241.0</ele><time>2026-04-23T12:51:03.87Z</time></trkpt><trkpt lat="45.7945044" lon="8.8007256"><ele>241.0</ele><time>2026-04-23T12:51:04.869Z</time></trkpt><trkpt lat="45.7943766" lon="8.800705"><ele>241.0</ele><time>2026-04-23T12:51:05.871Z</time></trkpt><trkpt lat="45.794249" lon="8.8006733"><ele>241.0</ele><time>2026-04-23T12:51:06.87Z</time></trkpt><trkpt lat="45.7941181" lon="8.8006458"><ele>240.5</ele><time>2026-04-23T12:51:07.867Z</time></trkpt><trkpt lat="45.79399" lon="8.80062"><ele>240.0</ele><time>2026-04-23T12:51:08.865Z</time></trkpt><trkpt lat="45.7938765" lon="8.8005837"><ele>239.5</ele><time>2026-04-23T12:51:09.861Z</time></trkpt><trkpt lat="45.7937627" lon="8.8005489"><ele>239.0</ele><time>2026-04-23T12:51:10.871Z</time></trkpt><trkpt lat="45.7936557" lon="8.8005158"><ele>239.00000000000003</ele><time>2026-04-23T12:51:11.854Z</time></trkpt><trkpt lat="45.7935634" lon="8.8004862"><ele>239.0</ele><time>2026-04-23T12:51:12.857Z</time></trkpt><trkpt lat="45.7934716" lon="8.8004549"><ele>239.0</ele><time>2026-04-23T12:51:13.859Z</time></trkpt><trkpt lat="45.793395" lon="8.8004151"><ele>239.0</ele><time>2026-04-23T12:51:14.858Z</time></trkpt><trkpt lat="45.7933189" lon="8.8003806"><ele>239.00000000000003</ele><time>2026-04-23T12:51:15.858Z</time></trkpt><trkpt lat="45.79325" lon="8.8003556"><ele>239.0</ele><time>2026-04-23T12:51:16.856Z</time></trkpt><trkpt lat="45.7931818" lon="8.8003258"><ele>239.66666666666669</ele><time>2026-04-23T12:51:18.86Z</time></trkpt><trkpt lat="45.7931052" lon="8.8002982"><ele>240.33333333333334</ele><time>2026-04-23T12:51:20.867Z</time></trkpt><trkpt lat="45.7930278" lon="8.8002946"><ele>241.0</ele><time>2026-04-23T12:51:22.865Z</time></trkpt><trkpt lat="45.7929448" lon="8.800275"><ele>241.66666666666669</ele><time>2026-04-23T12:51:24.866Z</time></trkpt><trkpt lat="45.7928881" lon="8.8002282"><ele>242.33333333333334</ele><time>2026-04-23T12:51:26.861Z</time></trkpt><trkpt lat="45.792832" lon="8.8001613"><ele>243.0</ele><time>2026-04-23T12:51:29.852Z</time></trkpt><trkpt lat="45.7927823" lon="8.8000872"><ele>243.0</ele><time>2026-04-23T12:51:32.845Z</time></trkpt><trkpt lat="45.792686" lon="8.8000528"><ele>243.0</ele><time>2026-04-23T12:51:34.853Z</time></trkpt><trkpt lat="45.7925723" lon="8.8000358"><ele>243.0</ele><time>2026-04-23T12:51:36.848Z</time></trkpt><trkpt lat="45.7924466" lon="8.8000722"><ele>243.0</ele><time>2026-04-23T12:51:38.85Z</time></trkpt><trkpt lat="45.792408" lon="8.8001656"><ele>243.0</ele><time>2026-04-23T12:51:39.842Z</time></trkpt><trkpt lat="45.7923672" lon="8.8002787"><ele>243.0</ele><time>2026-04-23T12:51:40.843Z</time></trkpt><trkpt lat="45.7922602" lon="8.8003944"><ele>243.0</ele><time>2026-04-23T12:51:41.861Z</time></trkpt><trkpt lat="45.7921286" lon="8.8005068"><ele>243.0</ele><time>2026-04-23T12:51:42.853Z</time></trkpt><trkpt lat="45.7919913" lon="8.8006262"><ele>243.0</ele><time>2026-04-23T12:51:43.861Z</time></trkpt><trkpt lat="45.7918612" lon="8.8006961"><ele>244.0</ele><time>2026-04-23T12:51:44.856Z</time></trkpt><trkpt lat="45.7917296" lon="8.8007454"><ele>245.0</ele><time>2026-04-23T12:51:45.855Z</time></trkpt><trkpt lat="45.7916025" lon="8.8008201"><ele>246.0</ele><time>2026-04-23T12:51:46.86Z</time></trkpt><trkpt lat="45.7914761" lon="8.8008961"><ele>247.0</ele><time>2026-04-23T12:51:47.858Z</time></trkpt><trkpt lat="45.7913324" lon="8.8009638"><ele>247.75</ele><time>2026-04-23T12:51:48.857Z</time></trkpt><trkpt lat="45.7911978" lon="8.8010209"><ele>248.5</ele><time>2026-04-23T12:51:49.857Z</time></trkpt><trkpt lat="45.7910872" lon="8.8010785"><ele>249.25</ele><time>2026-04-23T12:51:50.849Z</time></trkpt><trkpt lat="45.7909749" lon="8.8011438"><ele>250.0</ele><time>2026-04-23T12:51:51.846Z</time></trkpt><trkpt lat="45.7908783" lon="8.8011972"><ele>250.99999999999997</ele><time>2026-04-23T12:51:52.846Z</time></trkpt><trkpt lat="45.7907926" lon="8.8012436"><ele>252.0</ele><time>2026-04-23T12:51:53.842Z</time></trkpt><trkpt lat="45.7907252" lon="8.8012937"><ele>253.0</ele><time>2026-04-23T12:51:54.843Z</time></trkpt><trkpt lat="45.7906634" lon="8.8013534"><ele>254.0</ele><time>2026-04-23T12:51:55.846Z</time></trkpt><trkpt lat="45.7906103" lon="8.8014384"><ele>254.99999999999997</ele><time>2026-04-23T12:51:56.848Z</time></trkpt><trkpt lat="45.7905471" lon="8.8015414"><ele>256.0</ele><time>2026-04-23T12:51:57.853Z</time></trkpt><trkpt lat="45.7904937" lon="8.8016436"><ele>256.0</ele><time>2026-04-23T12:51:58.85Z</time></trkpt><trkpt lat="45.790435" lon="8.8017437"><ele>256.0</ele><time>2026-04-23T12:51:59.852Z</time></trkpt><trkpt lat="45.7903764" lon="8.8018344"><ele>256.0</ele><time>2026-04-23T12:52:00.851Z</time></trkpt><trkpt lat="45.7903171" lon="8.8019444"><ele>256.0</ele><time>2026-04-23T12:52:01.85Z</time></trkpt><trkpt lat="45.7902609" lon="8.8020753"><ele>256.0</ele><time>2026-04-23T12:52:02.855Z</time></trkpt><trkpt lat="45.7902132" lon="8.8022203"><ele>256.25</ele><time>2026-04-23T12:52:03.852Z</time></trkpt><trkpt lat="45.7901712" lon="8.8023755"><ele>256.5</ele><time>2026-04-23T12:52:04.855Z</time></trkpt><trkpt lat="45.7901461" lon="8.8025238"><ele>256.75</ele><time>2026-04-23T12:52:05.855Z</time></trkpt><trkpt lat="45.790126" lon="8.8027052"><ele>257.0</ele><time>2026-04-23T12:52:06.858Z</time></trkpt><trkpt lat="45.7900988" lon="8.8028751"><ele>258.0</ele><time>2026-04-23T12:52:07.856Z</time></trkpt><trkpt lat="45.790081" lon="8.8030576"><ele>259.0</ele><time>2026-04-23T12:52:08.858Z</time></trkpt><trkpt lat="45.7900683" lon="8.8032663"><ele>260.0</ele><time>2026-04-23T12:52:09.854Z</time></trkpt><trkpt lat="45.7900782" lon="8.8034551"><ele>261.0</ele><time>2026-04-23T12:52:10.85Z</time></trkpt><trkpt lat="45.7901129" lon="8.8036554"><ele>261.0</ele><time>2026-04-23T12:52:11.851Z</time></trkpt><trkpt lat="45.7901777" lon="8.8038817"><ele>261.0</ele><time>2026-04-23T12:52:12.882Z</time></trkpt><trkpt lat="45.7902652" lon="8.8041194"><ele>261.0</ele><time>2026-04-23T12:52:13.857Z</time></trkpt><trkpt lat="45.7903629" lon="8.8043432"><ele>263.3333333333333</ele><time>2026-04-23T12:52:14.853Z</time></trkpt><trkpt lat="45.7904479" lon="8.8045703"><ele>265.66666666666663</ele><time>2026-04-23T12:52:15.853Z</time></trkpt><trkpt lat="45.7905249" lon="8.8047912"><ele>268.0</ele><time>2026-04-23T12:52:16.857Z</time></trkpt><trkpt lat="45.790608" lon="8.8050053"><ele>270.3333333333333</ele><time>2026-04-23T12:52:17.848Z</time></trkpt><trkpt lat="45.790684" lon="8.8052132"><ele>272.6666666666667</ele><time>2026-04-23T12:52:18.844Z</time></trkpt><trkpt lat="45.7907788" lon="8.8054149"><ele>275.0</ele><time>2026-04-23T12:52:19.845Z</time></trkpt><trkpt lat="45.7908574" lon="8.8055671"><ele>275.0</ele><time>2026-04-23T12:52:20.839Z</time></trkpt><trkpt lat="45.790939" lon="8.8057308"><ele>275.0</ele><time>2026-04-23T12:52:21.842Z</time></trkpt><trkpt lat="45.7909912" lon="8.8059018"><ele>275.0</ele><time>2026-04-23T12:52:22.842Z</time></trkpt><trkpt lat="45.7910562" lon="8.8060662"><ele>275.0</ele><time>2026-04-23T12:52:23.844Z</time></trkpt><trkpt lat="45.7910956" lon="8.806241"><ele>273.75</ele><time>2026-04-23T12:52:24.843Z</time></trkpt><trkpt lat="45.7911407" lon="8.8063963"><ele>272.5</ele><time>2026-04-23T12:52:25.838Z</time></trkpt><trkpt lat="45.791188" lon="8.8065609"><ele>271.25</ele><time>2026-04-23T12:52:26.84Z</time></trkpt><trkpt lat="45.791227" lon="8.8067419"><ele>270.0</ele><time>2026-04-23T12:52:27.847Z</time></trkpt><trkpt lat="45.7912827" lon="8.806942"><ele>270.0</ele><time>2026-04-23T12:52:28.849Z</time></trkpt><trkpt lat="45.7913385" lon="8.8071328"><ele>270.0</ele><time>2026-04-23T12:52:29.848Z</time></trkpt><trkpt lat="45.7913859" lon="8.8073362"><ele>270.0</ele><time>2026-04-23T12:52:30.843Z</time></trkpt><trkpt lat="45.791438" lon="8.8075241"><ele>270.0</ele><time>2026-04-23T12:52:31.843Z</time></trkpt><trkpt lat="45.7914751" lon="8.8077183"><ele>272.3333333333333</ele><time>2026-04-23T12:52:32.842Z</time></trkpt><trkpt lat="45.7915232" lon="8.8079278"><ele>274.66666666666663</ele><time>2026-04-23T12:52:33.843Z</time></trkpt><trkpt lat="45.7915797" lon="8.808129"><ele>277.0</ele><time>2026-04-23T12:52:34.845Z</time></trkpt><trkpt lat="45.7916668" lon="8.8083552"><ele>278.66666666666663</ele><time>2026-04-23T12:52:35.848Z</time></trkpt><trkpt lat="45.7916958" lon="8.808572"><ele>280.3333333333333</ele><time>2026-04-23T12:52:36.852Z</time></trkpt><trkpt lat="45.7917165" lon="8.8087905"><ele>282.0</ele><time>2026-04-23T12:52:37.848Z</time></trkpt><trkpt lat="45.7917251" lon="8.8090027"><ele>282.0</ele><time>2026-04-23T12:52:38.846Z</time></trkpt><trkpt lat="45.791709" lon="8.8091987"><ele>282.0</ele><time>2026-04-23T12:52:39.84Z</time></trkpt><trkpt lat="45.7916603" lon="8.809427"><ele>282.0</ele><time>2026-04-23T12:52:40.845Z</time></trkpt><trkpt lat="45.7915812" lon="8.8096619"><ele>282.0</ele><time>2026-04-23T12:52:41.85Z</time></trkpt><trkpt lat="45.7915065" lon="8.8098878"><ele>282.0</ele><time>2026-04-23T12:52:42.863Z</time></trkpt><trkpt lat="45.7913956" lon="8.8100879"><ele>282.0</ele><time>2026-04-23T12:52:43.841Z</time></trkpt><trkpt lat="45.7912925" lon="8.8102554"><ele>282.75</ele><time>2026-04-23T12:52:44.842Z</time></trkpt><trkpt lat="45.7911789" lon="8.8104161"><ele>283.5</ele><time>2026-04-23T12:52:45.842Z</time></trkpt><trkpt lat="45.7910484" lon="8.8105303"><ele>284.25</ele><time>2026-04-23T12:52:46.835Z</time></trkpt><trkpt lat="45.7909372" lon="8.8106307"><ele>285.0</ele><time>2026-04-23T12:52:47.834Z</time></trkpt><trkpt lat="45.7908136" lon="8.810715"><ele>285.0</ele><time>2026-04-23T12:52:48.836Z</time></trkpt><trkpt lat="45.7906637" lon="8.8108009"><ele>285.0</ele><time>2026-04-23T12:52:49.84Z</time></trkpt><trkpt lat="45.7904939" lon="8.8108386"><ele>285.0</ele><time>2026-04-23T12:52:50.841Z</time></trkpt><trkpt lat="45.7903322" lon="8.8108485"><ele>288.0</ele><time>2026-04-23T12:52:51.843Z</time></trkpt><trkpt lat="45.7901731" lon="8.8108565"><ele>291.0</ele><time>2026-04-23T12:52:52.843Z</time></trkpt><trkpt lat="45.7900223" lon="8.8108523"><ele>294.0</ele><time>2026-04-23T12:52:53.844Z</time></trkpt><trkpt lat="45.7898825" lon="8.8108525"><ele>294.0</ele><time>2026-04-23T12:52:54.848Z</time></trkpt><trkpt lat="45.7897371" lon="8.8108323"><ele>294.0</ele><time>2026-04-23T12:52:55.845Z</time></trkpt><trkpt lat="45.7895827" lon="8.8107911"><ele>294.0</ele><time>2026-04-23T12:52:56.841Z</time></trkpt><trkpt lat="45.7894496" lon="8.8107213"><ele>294.0</ele><time>2026-04-23T12:52:57.842Z</time></trkpt><trkpt lat="45.7893097" lon="8.8106501"><ele>293.0</ele><time>2026-04-23T12:52:58.848Z</time></trkpt><trkpt lat="45.7892003" lon="8.8105632"><ele>292.0</ele><time>2026-04-23T12:52:59.842Z</time></trkpt><trkpt lat="45.7890917" lon="8.8104611"><ele>291.0</ele><time>2026-04-23T12:53:00.847Z</time></trkpt><trkpt lat="45.7889764" lon="8.8103504"><ele>290.0</ele><time>2026-04-23T12:53:01.851Z</time></trkpt><trkpt lat="45.7888592" lon="8.8102396"><ele>291.0</ele><time>2026-04-23T12:53:02.85Z</time></trkpt><trkpt lat="45.7887708" lon="8.8101541"><ele>292.0</ele><time>2026-04-23T12:53:03.848Z</time></trkpt><trkpt lat="45.7886816" lon="8.8100701"><ele>293.0</ele><time>2026-04-23T12:53:04.856Z</time></trkpt><trkpt lat="45.7885954" lon="8.8099698"><ele>294.0</ele><time>2026-04-23T12:53:05.856Z</time></trkpt><trkpt lat="45.78853" lon="8.809878"><ele>295.0</ele><time>2026-04-23T12:53:06.851Z</time></trkpt><trkpt lat="45.7884592" lon="8.8098041"><ele>295.00000000000006</ele><time>2026-04-23T12:53:07.854Z</time></trkpt><trkpt lat="45.7883966" lon="8.8097568"><ele>295.0</ele><time>2026-04-23T12:53:08.85Z</time></trkpt><trkpt lat="45.788338" lon="8.8097031"><ele>295.0</ele><time>2026-04-23T12:53:09.855Z</time></trkpt><trkpt lat="45.7882815" lon="8.8096401"><ele>295.0</ele><time>2026-04-23T12:53:14.845Z</time></trkpt><trkpt lat="45.7883516" lon="8.8096732"><ele>295.0</ele><time>2026-04-23T12:53:16.833Z</time></trkpt><trkpt lat="45.7884177" lon="8.8097302"><ele>295.00000000000006</ele><time>2026-04-23T12:53:23.866Z</time></trkpt><trkpt lat="45.7885022" lon="8.8097074"><ele>295.0</ele><time>2026-04-23T12:53:38.872Z</time></trkpt><trkpt lat="45.7884132" lon="8.8097762"><ele>295.0</ele><time>2026-04-23T12:56:56.873Z</time></trkpt><trkpt lat="45.7883293" lon="8.8097852"><ele>295.0</ele><time>2026-04-23T12:56:58.869Z</time></trkpt><trkpt lat="45.7882335" lon="8.8097673"><ele>295.0</ele><time>2026-04-23T12:57:00.856Z</time></trkpt><trkpt lat="45.7881521" lon="8.8097383"><ele>295.0</ele><time>2026-04-23T12:57:01.86Z</time></trkpt><trkpt lat="45.7880402" lon="8.8096944"><ele>295.0</ele><time>2026-04-23T12:57:02.859Z</time></trkpt><trkpt lat="45.7879056" lon="8.8096366"><ele>295.0</ele><time>2026-04-23T12:57:03.867Z</time></trkpt><trkpt lat="45.7877603" lon="8.8095549"><ele>295.0</ele><time>2026-04-23T12:57:04.865Z</time></trkpt><trkpt lat="45.7876098" lon="8.8094866"><ele>295.0</ele><time>2026-04-23T12:57:05.86Z</time></trkpt><trkpt lat="45.7874527" lon="8.8094255"><ele>295.66666666666663</ele><time>2026-04-23T12:57:06.864Z</time></trkpt><trkpt lat="45.7873003" lon="8.8093616"><ele>296.3333333333333</ele><time>2026-04-23T12:57:07.868Z</time></trkpt><trkpt lat="45.7871469" lon="8.8093141"><ele>297.0</ele><time>2026-04-23T12:57:08.878Z</time></trkpt><trkpt lat="45.786986" lon="8.8092957"><ele>297.6666666666667</ele><time>2026-04-23T12:57:09.867Z</time></trkpt><trkpt lat="45.7868179" lon="8.8092756"><ele>298.33333333333337</ele><time>2026-04-23T12:57:10.868Z</time></trkpt><trkpt lat="45.786652" lon="8.8092891"><ele>299.0</ele><time>2026-04-23T12:57:11.867Z</time></trkpt><trkpt lat="45.7865047" lon="8.8093384"><ele>299.5</ele><time>2026-04-23T12:57:12.869Z</time></trkpt><trkpt lat="45.7863459" lon="8.8093923"><ele>300.0</ele><time>2026-04-23T12:57:13.869Z</time></trkpt><trkpt lat="45.7862133" lon="8.8094499"><ele>300.5</ele><time>2026-04-23T12:57:14.868Z</time></trkpt><trkpt lat="45.7860841" lon="8.8095017"><ele>301.0</ele><time>2026-04-23T12:57:15.868Z</time></trkpt><trkpt lat="45.7859731" lon="8.8095726"><ele>302.5</ele><time>2026-04-23T12:57:16.867Z</time></trkpt><trkpt lat="45.785848" lon="8.8096536"><ele>304.0</ele><time>2026-04-23T12:57:17.867Z</time></trkpt><trkpt lat="45.7857214" lon="8.8097151"><ele>305.5</ele><time>2026-04-23T12:57:18.875Z</time></trkpt><trkpt lat="45.7855912" lon="8.8097797"><ele>307.0</ele><time>2026-04-23T12:57:19.877Z</time></trkpt><trkpt lat="45.7854583" lon="8.8098543"><ele>307.0</ele><time>2026-04-23T12:57:20.888Z</time></trkpt><trkpt lat="45.7853312" lon="8.8099411"><ele>307.0</ele><time>2026-04-23T12:57:21.875Z</time></trkpt><trkpt lat="45.7851907" lon="8.8100234"><ele>307.0</ele><time>2026-04-23T12:57:22.875Z</time></trkpt><trkpt lat="45.7850607" lon="8.8101002"><ele>307.0</ele><time>2026-04-23T12:57:23.872Z</time></trkpt><trkpt lat="45.7849307" lon="8.8101742"><ele>307.75</ele><time>2026-04-23T12:57:24.868Z</time></trkpt><trkpt lat="45.7848023" lon="8.8102432"><ele>308.5</ele><time>2026-04-23T12:57:25.868Z</time></trkpt><trkpt lat="45.7846653" lon="8.8103011"><ele>309.25</ele><time>2026-04-23T12:57:26.864Z</time></trkpt><trkpt lat="45.7845215" lon="8.8103514"><ele>310.0</ele><time>2026-04-23T12:57:27.871Z</time></trkpt><trkpt lat="45.7843817" lon="8.8103877"><ele>311.0</ele><time>2026-04-23T12:57:28.869Z</time></trkpt><trkpt lat="45.7842341" lon="8.8104277"><ele>312.0</ele><time>2026-04-23T12:57:29.873Z</time></trkpt><trkpt lat="45.7840808" lon="8.8104417"><ele>313.0</ele><time>2026-04-23T12:57:30.876Z</time></trkpt><trkpt lat="45.7839308" lon="8.8104458"><ele>313.0</ele><time>2026-04-23T12:57:31.867Z</time></trkpt><trkpt lat="45.7837782" lon="8.8104402"><ele>313.0</ele><time>2026-04-23T12:57:32.87Z</time></trkpt><trkpt lat="45.7836353" lon="8.8104258"><ele>313.0</ele><time>2026-04-23T12:57:33.865Z</time></trkpt><trkpt lat="45.7834917" lon="8.8104017"><ele>313.0</ele><time>2026-04-23T12:57:34.868Z</time></trkpt><trkpt lat="45.7833463" lon="8.8103606"><ele>313.5</ele><time>2026-04-23T12:57:35.861Z</time></trkpt><trkpt lat="45.7832229" lon="8.8103077"><ele>314.0</ele><time>2026-04-23T12:57:36.862Z</time></trkpt><trkpt lat="45.7830933" lon="8.8102279"><ele>314.5</ele><time>2026-04-23T12:57:37.869Z</time></trkpt><trkpt lat="45.7829576" lon="8.8101671"><ele>315.0</ele><time>2026-04-23T12:57:38.869Z</time></trkpt><trkpt lat="45.7828345" lon="8.8100821"><ele>316.5</ele><time>2026-04-23T12:57:39.868Z</time></trkpt><trkpt lat="45.782701" lon="8.8100199"><ele>318.0</ele><time>2026-04-23T12:57:40.864Z</time></trkpt><trkpt lat="45.7825831" lon="8.8099299"><ele>319.5</ele><time>2026-04-23T12:57:41.867Z</time></trkpt><trkpt lat="45.7824542" lon="8.8098549"><ele>321.0</ele><time>2026-04-23T12:57:42.872Z</time></trkpt><trkpt lat="45.7823258" lon="8.8097883"><ele>321.0</ele><time>2026-04-23T12:57:43.869Z</time></trkpt><trkpt lat="45.7821771" lon="8.8097215"><ele>321.0</ele><time>2026-04-23T12:57:44.876Z</time></trkpt><trkpt lat="45.7820362" lon="8.8096486"><ele>321.0</ele><time>2026-04-23T12:57:45.87Z</time></trkpt><trkpt lat="45.7819084" lon="8.8095741"><ele>321.0</ele><time>2026-04-23T12:57:46.872Z</time></trkpt><trkpt lat="45.7817748" lon="8.8095045"><ele>321.0</ele><time>2026-04-23T12:57:47.871Z</time></trkpt><trkpt lat="45.7816501" lon="8.8094315"><ele>321.0</ele><time>2026-04-23T12:57:48.877Z</time></trkpt><trkpt lat="45.7815189" lon="8.8093551"><ele>321.0</ele><time>2026-04-23T12:57:49.872Z</time></trkpt><trkpt lat="45.781378" lon="8.8092934"><ele>321.0</ele><time>2026-04-23T12:57:50.872Z</time></trkpt><trkpt lat="45.7812337" lon="8.8092141"><ele>321.0</ele><time>2026-04-23T12:57:51.887Z</time></trkpt><trkpt lat="45.7810996" lon="8.8091314"><ele>321.0</ele><time>2026-04-23T12:57:52.878Z</time></trkpt><trkpt lat="45.7809576" lon="8.8090627"><ele>321.0</ele><time>2026-04-23T12:57:53.877Z</time></trkpt><trkpt lat="45.7808354" lon="8.8090036"><ele>321.0</ele><time>2026-04-23T12:57:54.871Z</time></trkpt><trkpt lat="45.7807068" lon="8.8089614"><ele>320.75</ele><time>2026-04-23T12:57:55.876Z</time></trkpt><trkpt lat="45.780583" lon="8.8089323"><ele>320.5</ele><time>2026-04-23T12:57:56.88Z</time></trkpt><trkpt lat="45.780446" lon="8.8089104"><ele>320.25</ele><time>2026-04-23T12:57:57.877Z</time></trkpt><trkpt lat="45.7803184" lon="8.8088891"><ele>320.0</ele><time>2026-04-23T12:57:58.888Z</time></trkpt><trkpt lat="45.7801805" lon="8.8088698"><ele>320.0</ele><time>2026-04-23T12:57:59.885Z</time></trkpt><trkpt lat="45.780044" lon="8.8088618"><ele>320.0</ele><time>2026-04-23T12:58:00.886Z</time></trkpt><trkpt lat="45.7799047" lon="8.8088551"><ele>320.0</ele><time>2026-04-23T12:58:01.885Z</time></trkpt><trkpt lat="45.7797725" lon="8.8088577"><ele>320.0</ele><time>2026-04-23T12:58:02.88Z</time></trkpt><trkpt lat="45.7796357" lon="8.8088686"><ele>320.0</ele><time>2026-04-23T12:58:03.879Z</time></trkpt><trkpt lat="45.779495" lon="8.8088874"><ele>320.0</ele><time>2026-04-23T12:58:04.884Z</time></trkpt><trkpt lat="45.7793663" lon="8.8089035"><ele>320.0</ele><time>2026-04-23T12:58:05.879Z</time></trkpt><trkpt lat="45.77924" lon="8.8089253"><ele>320.0</ele><time>2026-04-23T12:58:06.877Z</time></trkpt><trkpt lat="45.7791013" lon="8.8089564"><ele>320.33333333333337</ele><time>2026-04-23T12:58:07.882Z</time></trkpt><trkpt lat="45.7789565" lon="8.8089896"><ele>320.6666666666667</ele><time>2026-04-23T12:58:08.878Z</time></trkpt><trkpt lat="45.778809" lon="8.8090495"><ele>321.0</ele><time>2026-04-23T12:58:09.871Z</time></trkpt><trkpt lat="45.7786582" lon="8.8091129"><ele>322.3333333333333</ele><time>2026-04-23T12:58:10.868Z</time></trkpt><trkpt lat="45.7784889" lon="8.8091767"><ele>323.66666666666663</ele><time>2026-04-23T12:58:11.869Z</time></trkpt><trkpt lat="45.7783139" lon="8.8092431"><ele>325.0</ele><time>2026-04-23T12:58:12.87Z</time></trkpt><trkpt lat="45.7781368" lon="8.809302"><ele>326.3333333333333</ele><time>2026-04-23T12:58:13.87Z</time></trkpt><trkpt lat="45.7779569" lon="8.8093612"><ele>327.6666666666667</ele><time>2026-04-23T12:58:14.878Z</time></trkpt><trkpt lat="45.7777851" lon="8.8094277"><ele>329.0</ele><time>2026-04-23T12:58:15.874Z</time></trkpt><trkpt lat="45.7776174" lon="8.8094746"><ele>330.0</ele><time>2026-04-23T12:58:16.874Z</time></trkpt><trkpt lat="45.7774553" lon="8.8095156"><ele>331.0</ele><time>2026-04-23T12:58:17.871Z</time></trkpt><trkpt lat="45.7772776" lon="8.8095725"><ele>332.0</ele><time>2026-04-23T12:58:18.868Z</time></trkpt><trkpt lat="45.7771096" lon="8.809632"><ele>332.0</ele><time>2026-04-23T12:58:19.869Z</time></trkpt><trkpt lat="45.7769527" lon="8.8096856"><ele>332.0</ele><time>2026-04-23T12:58:20.881Z</time></trkpt><trkpt lat="45.7768223" lon="8.80973"><ele>332.0</ele><time>2026-04-23T12:58:21.873Z</time></trkpt><trkpt lat="45.776699" lon="8.8097714"><ele>332.0</ele><time>2026-04-23T12:58:22.888Z</time></trkpt><trkpt lat="45.7765899" lon="8.809807"><ele>333.1666666666667</ele><time>2026-04-23T12:58:23.874Z</time></trkpt><trkpt lat="45.776487" lon="8.8097957"><ele>334.33333333333337</ele><time>2026-04-23T12:58:24.87Z</time></trkpt><trkpt lat="45.7764142" lon="8.80977"><ele>335.5</ele><time>2026-04-23T12:58:25.865Z</time></trkpt><trkpt lat="45.7763373" lon="8.8097176"><ele>336.6666666666667</ele><time>2026-04-23T12:58:26.871Z</time></trkpt><trkpt lat="45.7762825" lon="8.8096376"><ele>337.8333333333333</ele><time>2026-04-23T12:58:27.865Z</time></trkpt><trkpt lat="45.7762343" lon="8.8095323"><ele>339.0</ele><time>2026-04-23T12:58:28.872Z</time></trkpt><trkpt lat="45.7762225" lon="8.8094039"><ele>338.5</ele><time>2026-04-23T12:58:29.866Z</time></trkpt><trkpt lat="45.7762097" lon="8.8092598"><ele>338.0</ele><time>2026-04-23T12:58:30.853Z</time></trkpt><trkpt lat="45.7761916" lon="8.8091057"><ele>337.5</ele><time>2026-04-23T12:58:31.853Z</time></trkpt><trkpt lat="45.7761886" lon="8.8089309"><ele>337.0</ele><time>2026-04-23T12:58:32.848Z</time></trkpt><trkpt lat="45.7761829" lon="8.8087559"><ele>337.0</ele><time>2026-04-23T12:58:33.851Z</time></trkpt><trkpt lat="45.7761656" lon="8.8086078"><ele>337.0</ele><time>2026-04-23T12:58:34.845Z</time></trkpt><trkpt lat="45.7761619" lon="8.8084155"><ele>337.0</ele><time>2026-04-23T12:58:35.852Z</time></trkpt><trkpt lat="45.7761652" lon="8.8082354"><ele>337.0</ele><time>2026-04-23T12:58:36.853Z</time></trkpt><trkpt lat="45.7761593" lon="8.808077"><ele>336.75</ele><time>2026-04-23T12:58:37.85Z</time></trkpt><trkpt lat="45.7761365" lon="8.8079103"><ele>336.5</ele><time>2026-04-23T12:58:38.851Z</time></trkpt><trkpt lat="45.7761114" lon="8.8077498"><ele>336.25</ele><time>2026-04-23T12:58:39.85Z</time></trkpt><trkpt lat="45.7760832" lon="8.807553"><ele>336.0</ele><time>2026-04-23T12:58:40.849Z</time></trkpt><trkpt lat="45.7760603" lon="8.8073783"><ele>335.75</ele><time>2026-04-23T12:58:41.853Z</time></trkpt><trkpt lat="45.7760362" lon="8.8071642"><ele>335.5</ele><time>2026-04-23T12:58:42.852Z</time></trkpt><trkpt lat="45.7760117" lon="8.8069723"><ele>335.25</ele><time>2026-04-23T12:58:43.853Z</time></trkpt><trkpt lat="45.7759957" lon="8.806756"><ele>335.0</ele><time>2026-04-23T12:58:44.859Z</time></trkpt><trkpt lat="45.7759795" lon="8.8065405"><ele>335.0</ele><time>2026-04-23T12:58:45.861Z</time></trkpt><trkpt lat="45.7759646" lon="8.8063226"><ele>335.0</ele><time>2026-04-23T12:58:46.858Z</time></trkpt><trkpt lat="45.7759387" lon="8.8060857"><ele>335.0</ele><time>2026-04-23T12:58:47.859Z</time></trkpt><trkpt lat="45.7759538" lon="8.8058912"><ele>335.0</ele><time>2026-04-23T12:58:48.857Z</time></trkpt><trkpt lat="45.7759814" lon="8.8056935"><ele>335.0</ele><time>2026-04-23T12:58:49.865Z</time></trkpt><trkpt lat="45.7760221" lon="8.8055017"><ele>335.0</ele><time>2026-04-23T12:58:50.862Z</time></trkpt><trkpt lat="45.7760651" lon="8.8053153"><ele>335.0</ele><time>2026-04-23T12:58:51.859Z</time></trkpt><trkpt lat="45.7760708" lon="8.8051548"><ele>333.5</ele><time>2026-04-23T12:58:52.863Z</time></trkpt><trkpt lat="45.7761021" lon="8.8050053"><ele>332.0</ele><time>2026-04-23T12:58:53.876Z</time></trkpt><trkpt lat="45.7761637" lon="8.8048766"><ele>330.5</ele><time>2026-04-23T12:58:54.858Z</time></trkpt><trkpt lat="45.7762057" lon="8.8047627"><ele>329.0</ele><time>2026-04-23T12:58:55.857Z</time></trkpt><trkpt lat="45.776253" lon="8.8046901"><ele>327.5</ele><time>2026-04-23T12:58:56.858Z</time></trkpt><trkpt lat="45.7763121" lon="8.8046334"><ele>326.0</ele><time>2026-04-23T12:58:57.858Z</time></trkpt><trkpt lat="45.7763716" lon="8.8045579"><ele>326.0</ele><time>2026-04-23T12:58:58.857Z</time></trkpt><trkpt lat="45.7764151" lon="8.8044128"><ele>326.0</ele><time>2026-04-23T12:59:00.859Z</time></trkpt><trkpt lat="45.7764711" lon="8.8042429"><ele>326.0</ele><time>2026-04-23T12:59:02.864Z</time></trkpt><trkpt lat="45.7764965" lon="8.8040531"><ele>326.0</ele><time>2026-04-23T12:59:04.857Z</time></trkpt><trkpt lat="45.776541" lon="8.8039473"><ele>327.0</ele><time>2026-04-23T12:59:05.861Z</time></trkpt><trkpt lat="45.7765791" lon="8.8038462"><ele>328.0</ele><time>2026-04-23T12:59:06.857Z</time></trkpt><trkpt lat="45.7766123" lon="8.8037419"><ele>329.0</ele><time>2026-04-23T12:59:07.851Z</time></trkpt><trkpt lat="45.7766632" lon="8.8036145"><ele>330.0</ele><time>2026-04-23T12:59:08.855Z</time></trkpt><trkpt lat="45.776721" lon="8.8034803"><ele>331.0</ele><time>2026-04-23T12:59:09.861Z</time></trkpt><trkpt lat="45.776779" lon="8.8033482"><ele>331.25</ele><time>2026-04-23T12:59:10.857Z</time></trkpt><trkpt lat="45.7768255" lon="8.803201"><ele>331.5</ele><time>2026-04-23T12:59:11.856Z</time></trkpt><trkpt lat="45.7768697" lon="8.8030197"><ele>331.75</ele><time>2026-04-23T12:59:12.851Z</time></trkpt><trkpt lat="45.7769208" lon="8.8028733"><ele>332.0</ele><time>2026-04-23T12:59:13.86Z</time></trkpt><trkpt lat="45.7769523" lon="8.8027293"><ele>330.20000000000005</ele><time>2026-04-23T12:59:14.867Z</time></trkpt><trkpt lat="45.7769912" lon="8.8025881"><ele>328.4</ele><time>2026-04-23T12:59:15.86Z</time></trkpt><trkpt lat="45.7770136" lon="8.8024453"><ele>326.6</ele><time>2026-04-23T12:59:16.858Z</time></trkpt><trkpt lat="45.7770366" lon="8.8023252"><ele>324.79999999999995</ele><time>2026-04-23T12:59:17.864Z</time></trkpt><trkpt lat="45.7770609" lon="8.8022076"><ele>323.0</ele><time>2026-04-23T12:59:18.865Z</time></trkpt><trkpt lat="45.7770877" lon="8.8020908"><ele>323.0</ele><time>2026-04-23T12:59:19.859Z</time></trkpt><trkpt lat="45.7770892" lon="8.8019677"><ele>323.0</ele><time>2026-04-23T12:59:20.859Z</time></trkpt><trkpt lat="45.7771165" lon="8.8018272"><ele>323.0</ele><time>2026-04-23T12:59:21.861Z</time></trkpt><trkpt lat="45.7771286" lon="8.8017064"><ele>323.0</ele><time>2026-04-23T12:59:22.864Z</time></trkpt><trkpt lat="45.7771329" lon="8.8015933"><ele>323.0</ele><time>2026-04-23T12:59:23.864Z</time></trkpt><trkpt lat="45.7771298" lon="8.8014966"><ele>323.0</ele><time>2026-04-23T12:59:24.879Z</time></trkpt><trkpt lat="45.7771224" lon="8.8014044"><ele>323.33333333333337</ele><time>2026-04-23T12:59:25.872Z</time></trkpt><trkpt lat="45.7771052" lon="8.8013021"><ele>323.6666666666667</ele><time>2026-04-23T12:59:27.864Z</time></trkpt><trkpt lat="45.7770356" lon="8.8012947"><ele>324.0</ele><time>2026-04-23T12:59:37.858Z</time></trkpt><trkpt lat="45.7769601" lon="8.8013022"><ele>324.3333333333333</ele><time>2026-04-23T12:59:38.856Z</time></trkpt><trkpt lat="45.7768785" lon="8.8013166"><ele>324.66666666666663</ele><time>2026-04-23T12:59:39.856Z</time></trkpt><trkpt lat="45.7767783" lon="8.801373"><ele>325.0</ele><time>2026-04-23T12:59:40.851Z</time></trkpt><trkpt lat="45.7766735" lon="8.8014334"><ele>325.0</ele><time>2026-04-23T12:59:41.861Z</time></trkpt><trkpt lat="45.7765813" lon="8.8015002"><ele>325.0</ele><time>2026-04-23T12:59:42.865Z</time></trkpt><trkpt lat="45.7764904" lon="8.8015652"><ele>325.0</ele><time>2026-04-23T12:59:43.861Z</time></trkpt><trkpt lat="45.7763909" lon="8.8016352"><ele>325.0</ele><time>2026-04-23T12:59:44.864Z</time></trkpt><trkpt lat="45.7762929" lon="8.8016979"><ele>325.0</ele><time>2026-04-23T12:59:45.867Z</time></trkpt><trkpt lat="45.7761957" lon="8.8017574"><ele>325.0</ele><time>2026-04-23T12:59:46.86Z</time></trkpt><trkpt lat="45.7760929" lon="8.8017995"><ele>325.0</ele><time>2026-04-23T12:59:47.86Z</time></trkpt><trkpt lat="45.7760123" lon="8.8018304"><ele>325.0</ele><time>2026-04-23T12:59:48.858Z</time></trkpt><trkpt lat="45.7758868" lon="8.8018142"><ele>325.0</ele><time>2026-04-23T12:59:50.865Z</time></trkpt><trkpt lat="45.7757857" lon="8.8017763"><ele>325.0</ele><time>2026-04-23T12:59:52.861Z</time></trkpt><trkpt lat="45.7757272" lon="8.8016788"><ele>330.0</ele><time>2026-04-23T12:59:54.861Z</time></trkpt><trkpt lat="45.7757338" lon="8.8015631"><ele>330.0</ele><time>2026-04-23T12:59:56.862Z</time></trkpt><trkpt lat="45.7758235" lon="8.8015353"><ele>330.0</ele><time>2026-04-23T13:00:00.856Z</time></trkpt><trkpt lat="45.7758033" lon="8.8014201"><ele>330.0</ele><time>2026-04-23T13:00:33.857Z</time></trkpt></trkseg></trk></gpx>